<?xml version="1.0" encoding="utf-8"?>
<gpx xmlns:xsi="http://www.w3.org/2001/XMLSchema-instance" xmlns:xsd="http://www.w3.org/2001/XMLSchema" version="1.1" creator="Shapelink.com" xmlns="http://www.topografix.com/GPX/1/1" xmlns:gpxtpx="http://www.garmin.com/xmlschemas/TrackPointExtension/v1">
  <metadata>
    <name>Kører 37.12 km, 2011-07-06</name>
    <desc></desc>
    <author><name>Jojje Borssén</name></author> 
    <time>2011-07-06T09:42:09Z</time>
  </metadata>
  <trk>
    <name>Kører 37.12 km, 2011-07-06</name>
    <trkseg>
      <trkpt lat="62.917743" lon="12.502515">
        <ele>1014.2</ele>
        <time>2011-07-06T09:42:09Z</time>
      </trkpt>
      <trkpt lat="62.917732" lon="12.502462">
        <ele>1013.85</ele>
        <time>2011-07-06T09:42:14Z</time>
      </trkpt>
      <trkpt lat="62.917724" lon="12.502468">
        <ele>1013.03</ele>
        <time>2011-07-06T09:42:18Z</time>
      </trkpt>
      <trkpt lat="62.917788" lon="12.502475">
        <ele>1013.08</ele>
        <time>2011-07-06T09:42:29Z</time>
      </trkpt>
      <trkpt lat="62.917817" lon="12.502453">
        <ele>1013.21</ele>
        <time>2011-07-06T09:42:31Z</time>
      </trkpt>
      <trkpt lat="62.917921" lon="12.502333">
        <ele>1013.34</ele>
        <time>2011-07-06T09:42:37Z</time>
      </trkpt>
      <trkpt lat="62.918032" lon="12.502099">
        <ele>1013.3</ele>
        <time>2011-07-06T09:42:43Z</time>
      </trkpt>
      <trkpt lat="62.918147" lon="12.501818">
        <ele>1013.18</ele>
        <time>2011-07-06T09:42:49Z</time>
      </trkpt>
      <trkpt lat="62.918277" lon="12.50155">
        <ele>1013.04</ele>
        <time>2011-07-06T09:42:56Z</time>
      </trkpt>
      <trkpt lat="62.918294" lon="12.501517">
        <ele>1012.94</ele>
        <time>2011-07-06T09:42:57Z</time>
      </trkpt>
      <trkpt lat="62.918343" lon="12.501239">
        <ele>1013.15</ele>
        <time>2011-07-06T09:43:04Z</time>
      </trkpt>
      <trkpt lat="62.918367" lon="12.500913">
        <ele>1013.68</ele>
        <time>2011-07-06T09:43:10Z</time>
      </trkpt>
      <trkpt lat="62.918356" lon="12.500547">
        <ele>1013.52</ele>
        <time>2011-07-06T09:43:17Z</time>
      </trkpt>
      <trkpt lat="62.918315" lon="12.500119">
        <ele>1013.71</ele>
        <time>2011-07-06T09:43:25Z</time>
      </trkpt>
      <trkpt lat="62.918234" lon="12.499882">
        <ele>1013.84</ele>
        <time>2011-07-06T09:43:31Z</time>
      </trkpt>
      <trkpt lat="62.918178" lon="12.499649">
        <ele>1014.22</ele>
        <time>2011-07-06T09:43:37Z</time>
      </trkpt>
      <trkpt lat="62.918153" lon="12.499543">
        <ele>1014.46</ele>
        <time>2011-07-06T09:43:40Z</time>
      </trkpt>
      <trkpt lat="62.918136" lon="12.49925">
        <ele>1014.59</ele>
        <time>2011-07-06T09:43:47Z</time>
      </trkpt>
      <trkpt lat="62.918157" lon="12.499005">
        <ele>1014.35</ele>
        <time>2011-07-06T09:43:52Z</time>
      </trkpt>
      <trkpt lat="62.918222" lon="12.49884">
        <ele>1014.63</ele>
        <time>2011-07-06T09:43:57Z</time>
      </trkpt>
      <trkpt lat="62.918303" lon="12.498733">
        <ele>1014.12</ele>
        <time>2011-07-06T09:44:02Z</time>
      </trkpt>
      <trkpt lat="62.918399" lon="12.498577">
        <ele>1015.29</ele>
        <time>2011-07-06T09:44:08Z</time>
      </trkpt>
      <trkpt lat="62.91846" lon="12.498497">
        <ele>1015.24</ele>
        <time>2011-07-06T09:44:11Z</time>
      </trkpt>
      <trkpt lat="62.918657" lon="12.498319">
        <ele>1015.98</ele>
        <time>2011-07-06T09:44:20Z</time>
      </trkpt>
      <trkpt lat="62.918749" lon="12.498216">
        <ele>1015.96</ele>
        <time>2011-07-06T09:44:26Z</time>
      </trkpt>
      <trkpt lat="62.91882" lon="12.498097">
        <ele>1015.93</ele>
        <time>2011-07-06T09:44:30Z</time>
      </trkpt>
      <trkpt lat="62.918918" lon="12.497955">
        <ele>1016.41</ele>
        <time>2011-07-06T09:44:35Z</time>
      </trkpt>
      <trkpt lat="62.919092" lon="12.497678">
        <ele>1016.7</ele>
        <time>2011-07-06T09:44:43Z</time>
      </trkpt>
      <trkpt lat="62.919203" lon="12.497465">
        <ele>1016.45</ele>
        <time>2011-07-06T09:44:49Z</time>
      </trkpt>
      <trkpt lat="62.919325" lon="12.497201">
        <ele>1015.89</ele>
        <time>2011-07-06T09:44:56Z</time>
      </trkpt>
      <trkpt lat="62.919383" lon="12.4971">
        <ele>1015.77</ele>
        <time>2011-07-06T09:44:59Z</time>
      </trkpt>
      <trkpt lat="62.919487" lon="12.49683">
        <ele>1015.12</ele>
        <time>2011-07-06T09:45:06Z</time>
      </trkpt>
      <trkpt lat="62.919608" lon="12.496581">
        <ele>1013.27</ele>
        <time>2011-07-06T09:45:12Z</time>
      </trkpt>
      <trkpt lat="62.91971" lon="12.496375">
        <ele>1013.47</ele>
        <time>2011-07-06T09:45:18Z</time>
      </trkpt>
      <trkpt lat="62.919789" lon="12.49621">
        <ele>1013.34</ele>
        <time>2011-07-06T09:45:23Z</time>
      </trkpt>
      <trkpt lat="62.919925" lon="12.496066">
        <ele>1012.72</ele>
        <time>2011-07-06T09:45:29Z</time>
      </trkpt>
      <trkpt lat="62.920042" lon="12.495869">
        <ele>1012.46</ele>
        <time>2011-07-06T09:45:35Z</time>
      </trkpt>
      <trkpt lat="62.92021" lon="12.495626">
        <ele>1010.92</ele>
        <time>2011-07-06T09:45:43Z</time>
      </trkpt>
      <trkpt lat="62.920233" lon="12.495453">
        <ele>1008.06</ele>
        <time>2011-07-06T09:45:48Z</time>
      </trkpt>
      <trkpt lat="62.920247" lon="12.495382">
        <ele>1007.92</ele>
        <time>2011-07-06T09:45:50Z</time>
      </trkpt>
      <trkpt lat="62.920301" lon="12.495385">
        <ele>1008.01</ele>
        <time>2011-07-06T09:45:54Z</time>
      </trkpt>
      <trkpt lat="62.920358" lon="12.4953">
        <ele>1008</ele>
        <time>2011-07-06T09:45:57Z</time>
      </trkpt>
      <trkpt lat="62.920488" lon="12.495026">
        <ele>1007.26</ele>
        <time>2011-07-06T09:46:05Z</time>
      </trkpt>
      <trkpt lat="62.920613" lon="12.494827">
        <ele>1007.31</ele>
        <time>2011-07-06T09:46:11Z</time>
      </trkpt>
      <trkpt lat="62.920788" lon="12.494675">
        <ele>1006.47</ele>
        <time>2011-07-06T09:46:18Z</time>
      </trkpt>
      <trkpt lat="62.920894" lon="12.494482">
        <ele>1005.48</ele>
        <time>2011-07-06T09:46:23Z</time>
      </trkpt>
      <trkpt lat="62.921006" lon="12.494234">
        <ele>1005.12</ele>
        <time>2011-07-06T09:46:29Z</time>
      </trkpt>
      <trkpt lat="62.921039" lon="12.494133">
        <ele>1005.08</ele>
        <time>2011-07-06T09:46:32Z</time>
      </trkpt>
      <trkpt lat="62.921131" lon="12.494034">
        <ele>1005.32</ele>
        <time>2011-07-06T09:46:37Z</time>
      </trkpt>
      <trkpt lat="62.921253" lon="12.493813">
        <ele>1005.49</ele>
        <time>2011-07-06T09:46:43Z</time>
      </trkpt>
      <trkpt lat="62.92139" lon="12.493501">
        <ele>1005.64</ele>
        <time>2011-07-06T09:46:51Z</time>
      </trkpt>
      <trkpt lat="62.921485" lon="12.493331">
        <ele>1005.08</ele>
        <time>2011-07-06T09:46:56Z</time>
      </trkpt>
      <trkpt lat="62.921549" lon="12.493227">
        <ele>1005.69</ele>
        <time>2011-07-06T09:47:01Z</time>
      </trkpt>
      <trkpt lat="62.921597" lon="12.49319">
        <ele>1005.99</ele>
        <time>2011-07-06T09:47:05Z</time>
      </trkpt>
      <trkpt lat="62.92167" lon="12.493115">
        <ele>1007.32</ele>
        <time>2011-07-06T09:47:14Z</time>
      </trkpt>
      <trkpt lat="62.921741" lon="12.492966">
        <ele>1007.2</ele>
        <time>2011-07-06T09:47:23Z</time>
      </trkpt>
      <trkpt lat="62.921801" lon="12.492863">
        <ele>1007.05</ele>
        <time>2011-07-06T09:47:30Z</time>
      </trkpt>
      <trkpt lat="62.92181" lon="12.492778">
        <ele>1007.52</ele>
        <time>2011-07-06T09:47:38Z</time>
      </trkpt>
      <trkpt lat="62.921806" lon="12.492784">
        <ele>1007.41</ele>
        <time>2011-07-06T09:47:39Z</time>
      </trkpt>
      <trkpt lat="62.921875" lon="12.492659">
        <ele>1006.99</ele>
        <time>2011-07-06T09:47:44Z</time>
      </trkpt>
      <trkpt lat="62.921949" lon="12.492485">
        <ele>1006.83</ele>
        <time>2011-07-06T09:47:48Z</time>
      </trkpt>
      <trkpt lat="62.922033" lon="12.492334">
        <ele>1006.73</ele>
        <time>2011-07-06T09:47:53Z</time>
      </trkpt>
      <trkpt lat="62.922205" lon="12.492051">
        <ele>1004.46</ele>
        <time>2011-07-06T09:48:01Z</time>
      </trkpt>
      <trkpt lat="62.922295" lon="12.491846">
        <ele>1004.06</ele>
        <time>2011-07-06T09:48:06Z</time>
      </trkpt>
      <trkpt lat="62.92237" lon="12.491665">
        <ele>1003.71</ele>
        <time>2011-07-06T09:48:11Z</time>
      </trkpt>
      <trkpt lat="62.922367" lon="12.491575">
        <ele>1003.42</ele>
        <time>2011-07-06T09:48:15Z</time>
      </trkpt>
      <trkpt lat="62.922376" lon="12.491555">
        <ele>1003.35</ele>
        <time>2011-07-06T09:48:18Z</time>
      </trkpt>
      <trkpt lat="62.922444" lon="12.491426">
        <ele>1004.76</ele>
        <time>2011-07-06T09:48:26Z</time>
      </trkpt>
      <trkpt lat="62.922502" lon="12.491295">
        <ele>1004.78</ele>
        <time>2011-07-06T09:48:31Z</time>
      </trkpt>
      <trkpt lat="62.922559" lon="12.491205">
        <ele>1004.43</ele>
        <time>2011-07-06T09:48:35Z</time>
      </trkpt>
      <trkpt lat="62.922576" lon="12.491193">
        <ele>1004.27</ele>
        <time>2011-07-06T09:48:37Z</time>
      </trkpt>
      <trkpt lat="62.922615" lon="12.491165">
        <ele>1004.28</ele>
        <time>2011-07-06T09:48:41Z</time>
      </trkpt>
      <trkpt lat="62.922642" lon="12.491158">
        <ele>1004.35</ele>
        <time>2011-07-06T09:48:43Z</time>
      </trkpt>
      <trkpt lat="62.922707" lon="12.491127">
        <ele>1004.32</ele>
        <time>2011-07-06T09:48:49Z</time>
      </trkpt>
      <trkpt lat="62.922748" lon="12.491045">
        <ele>1004.62</ele>
        <time>2011-07-06T09:48:55Z</time>
      </trkpt>
      <trkpt lat="62.922786" lon="12.490868">
        <ele>1005.41</ele>
        <time>2011-07-06T09:49:03Z</time>
      </trkpt>
      <trkpt lat="62.922824" lon="12.49073">
        <ele>1004.96</ele>
        <time>2011-07-06T09:49:09Z</time>
      </trkpt>
      <trkpt lat="62.92291" lon="12.490519">
        <ele>1005.17</ele>
        <time>2011-07-06T09:49:15Z</time>
      </trkpt>
      <trkpt lat="62.922987" lon="12.490272">
        <ele>1005.5</ele>
        <time>2011-07-06T09:49:21Z</time>
      </trkpt>
      <trkpt lat="62.923038" lon="12.4901">
        <ele>1006.43</ele>
        <time>2011-07-06T09:49:26Z</time>
      </trkpt>
      <trkpt lat="62.923121" lon="12.489968">
        <ele>1007</ele>
        <time>2011-07-06T09:49:31Z</time>
      </trkpt>
      <trkpt lat="62.923233" lon="12.48972">
        <ele>1006.9</ele>
        <time>2011-07-06T09:49:39Z</time>
      </trkpt>
      <trkpt lat="62.923255" lon="12.489625">
        <ele>1006.52</ele>
        <time>2011-07-06T09:49:44Z</time>
      </trkpt>
      <trkpt lat="62.923324" lon="12.489456">
        <ele>1007.03</ele>
        <time>2011-07-06T09:49:53Z</time>
      </trkpt>
      <trkpt lat="62.923372" lon="12.489374">
        <ele>1006.32</ele>
        <time>2011-07-06T09:49:58Z</time>
      </trkpt>
      <trkpt lat="62.923418" lon="12.489282">
        <ele>1006.33</ele>
        <time>2011-07-06T09:50:04Z</time>
      </trkpt>
      <trkpt lat="62.923426" lon="12.489278">
        <ele>1006.38</ele>
        <time>2011-07-06T09:50:06Z</time>
      </trkpt>
      <trkpt lat="62.923492" lon="12.489179">
        <ele>1006.58</ele>
        <time>2011-07-06T09:50:14Z</time>
      </trkpt>
      <trkpt lat="62.92352" lon="12.489123">
        <ele>1007</ele>
        <time>2011-07-06T09:50:18Z</time>
      </trkpt>
      <trkpt lat="62.923527" lon="12.489102">
        <ele>1006.85</ele>
        <time>2011-07-06T09:50:20Z</time>
      </trkpt>
      <trkpt lat="62.923514" lon="12.489062">
        <ele>1006.66</ele>
        <time>2011-07-06T09:50:22Z</time>
      </trkpt>
      <trkpt lat="62.923544" lon="12.488911">
        <ele>1006.75</ele>
        <time>2011-07-06T09:50:28Z</time>
      </trkpt>
      <trkpt lat="62.923611" lon="12.488782">
        <ele>1007.61</ele>
        <time>2011-07-06T09:50:35Z</time>
      </trkpt>
      <trkpt lat="62.923722" lon="12.488613">
        <ele>1007.01</ele>
        <time>2011-07-06T09:50:46Z</time>
      </trkpt>
      <trkpt lat="62.923794" lon="12.488516">
        <ele>1007.59</ele>
        <time>2011-07-06T09:50:51Z</time>
      </trkpt>
      <trkpt lat="62.923911" lon="12.488372">
        <ele>1006.13</ele>
        <time>2011-07-06T09:50:57Z</time>
      </trkpt>
      <trkpt lat="62.923942" lon="12.488314">
        <ele>1005.34</ele>
        <time>2011-07-06T09:50:59Z</time>
      </trkpt>
      <trkpt lat="62.924057" lon="12.488211">
        <ele>1003.05</ele>
        <time>2011-07-06T09:51:05Z</time>
      </trkpt>
      <trkpt lat="62.924183" lon="12.488049">
        <ele>1001.12</ele>
        <time>2011-07-06T09:51:12Z</time>
      </trkpt>
      <trkpt lat="62.92436" lon="12.488042">
        <ele>998.998</ele>
        <time>2011-07-06T09:51:19Z</time>
      </trkpt>
      <trkpt lat="62.924505" lon="12.487844">
        <ele>998.713</ele>
        <time>2011-07-06T09:51:26Z</time>
      </trkpt>
      <trkpt lat="62.924633" lon="12.487746">
        <ele>999.166</ele>
        <time>2011-07-06T09:51:31Z</time>
      </trkpt>
      <trkpt lat="62.924783" lon="12.487611">
        <ele>999.288</ele>
        <time>2011-07-06T09:51:37Z</time>
      </trkpt>
      <trkpt lat="62.924969" lon="12.487469">
        <ele>998.456</ele>
        <time>2011-07-06T09:51:44Z</time>
      </trkpt>
      <trkpt lat="62.925183" lon="12.487269">
        <ele>997.88</ele>
        <time>2011-07-06T09:51:52Z</time>
      </trkpt>
      <trkpt lat="62.925394" lon="12.48708">
        <ele>996.831</ele>
        <time>2011-07-06T09:52:00Z</time>
      </trkpt>
      <trkpt lat="62.925561" lon="12.486966">
        <ele>995.694</ele>
        <time>2011-07-06T09:52:06Z</time>
      </trkpt>
      <trkpt lat="62.925687" lon="12.486787">
        <ele>994.992</ele>
        <time>2011-07-06T09:52:12Z</time>
      </trkpt>
      <trkpt lat="62.925783" lon="12.486667">
        <ele>994.718</ele>
        <time>2011-07-06T09:52:16Z</time>
      </trkpt>
      <trkpt lat="62.925882" lon="12.486292">
        <ele>995.056</ele>
        <time>2011-07-06T09:52:23Z</time>
      </trkpt>
      <trkpt lat="62.925994" lon="12.485969">
        <ele>995.1</ele>
        <time>2011-07-06T09:52:30Z</time>
      </trkpt>
      <trkpt lat="62.926115" lon="12.485762">
        <ele>995.021</ele>
        <time>2011-07-06T09:52:36Z</time>
      </trkpt>
      <trkpt lat="62.926224" lon="12.485532">
        <ele>994.66</ele>
        <time>2011-07-06T09:52:42Z</time>
      </trkpt>
      <trkpt lat="62.926333" lon="12.485338">
        <ele>994.498</ele>
        <time>2011-07-06T09:52:48Z</time>
      </trkpt>
      <trkpt lat="62.926477" lon="12.48507">
        <ele>993.663</ele>
        <time>2011-07-06T09:52:55Z</time>
      </trkpt>
      <trkpt lat="62.926606" lon="12.484779">
        <ele>993.342</ele>
        <time>2011-07-06T09:53:02Z</time>
      </trkpt>
      <trkpt lat="62.926719" lon="12.484524">
        <ele>993.182</ele>
        <time>2011-07-06T09:53:08Z</time>
      </trkpt>
      <trkpt lat="62.926826" lon="12.484273">
        <ele>992.919</ele>
        <time>2011-07-06T09:53:14Z</time>
      </trkpt>
      <trkpt lat="62.92693" lon="12.483971">
        <ele>991.865</ele>
        <time>2011-07-06T09:53:21Z</time>
      </trkpt>
      <trkpt lat="62.927059" lon="12.483665">
        <ele>991.017</ele>
        <time>2011-07-06T09:53:28Z</time>
      </trkpt>
      <trkpt lat="62.927163" lon="12.483415">
        <ele>990.413</ele>
        <time>2011-07-06T09:53:34Z</time>
      </trkpt>
      <trkpt lat="62.927255" lon="12.483175">
        <ele>989.449</ele>
        <time>2011-07-06T09:53:40Z</time>
      </trkpt>
      <trkpt lat="62.927287" lon="12.483133">
        <ele>989.202</ele>
        <time>2011-07-06T09:53:43Z</time>
      </trkpt>
      <trkpt lat="62.927333" lon="12.482998">
        <ele>989.007</ele>
        <time>2011-07-06T09:53:48Z</time>
      </trkpt>
      <trkpt lat="62.927346" lon="12.482969">
        <ele>988.898</ele>
        <time>2011-07-06T09:53:49Z</time>
      </trkpt>
      <trkpt lat="62.927396" lon="12.482881">
        <ele>988.072</ele>
        <time>2011-07-06T09:53:53Z</time>
      </trkpt>
      <trkpt lat="62.927399" lon="12.482755">
        <ele>987.474</ele>
        <time>2011-07-06T09:54:00Z</time>
      </trkpt>
      <trkpt lat="62.927458" lon="12.482748">
        <ele>987.217</ele>
        <time>2011-07-06T09:54:25Z</time>
      </trkpt>
      <trkpt lat="62.927507" lon="12.482761">
        <ele>987.043</ele>
        <time>2011-07-06T09:54:27Z</time>
      </trkpt>
      <trkpt lat="62.927668" lon="12.482561">
        <ele>986.978</ele>
        <time>2011-07-06T09:54:34Z</time>
      </trkpt>
      <trkpt lat="62.927758" lon="12.482472">
        <ele>985.293</ele>
        <time>2011-07-06T09:54:38Z</time>
      </trkpt>
      <trkpt lat="62.927849" lon="12.482277">
        <ele>987.053</ele>
        <time>2011-07-06T09:54:43Z</time>
      </trkpt>
      <trkpt lat="62.927867" lon="12.482242">
        <ele>987.095</ele>
        <time>2011-07-06T09:54:45Z</time>
      </trkpt>
      <trkpt lat="62.92791" lon="12.482086">
        <ele>986.677</ele>
        <time>2011-07-06T09:54:50Z</time>
      </trkpt>
      <trkpt lat="62.928084" lon="12.481806">
        <ele>988.274</ele>
        <time>2011-07-06T09:54:58Z</time>
      </trkpt>
      <trkpt lat="62.928218" lon="12.481584">
        <ele>989.34</ele>
        <time>2011-07-06T09:55:04Z</time>
      </trkpt>
      <trkpt lat="62.928325" lon="12.481407">
        <ele>989.471</ele>
        <time>2011-07-06T09:55:09Z</time>
      </trkpt>
      <trkpt lat="62.928438" lon="12.481218">
        <ele>989.964</ele>
        <time>2011-07-06T09:55:15Z</time>
      </trkpt>
      <trkpt lat="62.928466" lon="12.481145">
        <ele>989.795</ele>
        <time>2011-07-06T09:55:17Z</time>
      </trkpt>
      <trkpt lat="62.928556" lon="12.481083">
        <ele>989.63</ele>
        <time>2011-07-06T09:55:21Z</time>
      </trkpt>
      <trkpt lat="62.928653" lon="12.480889">
        <ele>989.647</ele>
        <time>2011-07-06T09:55:26Z</time>
      </trkpt>
      <trkpt lat="62.928787" lon="12.480633">
        <ele>989.452</ele>
        <time>2011-07-06T09:55:33Z</time>
      </trkpt>
      <trkpt lat="62.928891" lon="12.480465">
        <ele>988.286</ele>
        <time>2011-07-06T09:55:39Z</time>
      </trkpt>
      <trkpt lat="62.928976" lon="12.480371">
        <ele>988.209</ele>
        <time>2011-07-06T09:55:43Z</time>
      </trkpt>
      <trkpt lat="62.929067" lon="12.480215">
        <ele>985.642</ele>
        <time>2011-07-06T09:55:49Z</time>
      </trkpt>
      <trkpt lat="62.929101" lon="12.480183">
        <ele>985.141</ele>
        <time>2011-07-06T09:55:51Z</time>
      </trkpt>
      <trkpt lat="62.929172" lon="12.480019">
        <ele>982.368</ele>
        <time>2011-07-06T09:55:57Z</time>
      </trkpt>
      <trkpt lat="62.929259" lon="12.479949">
        <ele>980.619</ele>
        <time>2011-07-06T09:56:02Z</time>
      </trkpt>
      <trkpt lat="62.929311" lon="12.479866">
        <ele>979.22</ele>
        <time>2011-07-06T09:56:05Z</time>
      </trkpt>
      <trkpt lat="62.929347" lon="12.479845">
        <ele>978.403</ele>
        <time>2011-07-06T09:56:07Z</time>
      </trkpt>
      <trkpt lat="62.929415" lon="12.479724">
        <ele>976.4</ele>
        <time>2011-07-06T09:56:13Z</time>
      </trkpt>
      <trkpt lat="62.929491" lon="12.479657">
        <ele>976.392</ele>
        <time>2011-07-06T09:56:17Z</time>
      </trkpt>
      <trkpt lat="62.92951" lon="12.479623">
        <ele>976.394</ele>
        <time>2011-07-06T09:56:18Z</time>
      </trkpt>
      <trkpt lat="62.929589" lon="12.479362">
        <ele>977.135</ele>
        <time>2011-07-06T09:56:24Z</time>
      </trkpt>
      <trkpt lat="62.929699" lon="12.479078">
        <ele>977.568</ele>
        <time>2011-07-06T09:56:30Z</time>
      </trkpt>
      <trkpt lat="62.929759" lon="12.478754">
        <ele>977.911</ele>
        <time>2011-07-06T09:56:36Z</time>
      </trkpt>
      <trkpt lat="62.929825" lon="12.478514">
        <ele>977.708</ele>
        <time>2011-07-06T09:56:42Z</time>
      </trkpt>
      <trkpt lat="62.929913" lon="12.478279">
        <ele>976.915</ele>
        <time>2011-07-06T09:56:49Z</time>
      </trkpt>
      <trkpt lat="62.929984" lon="12.478159">
        <ele>975.766</ele>
        <time>2011-07-06T09:56:53Z</time>
      </trkpt>
      <trkpt lat="62.930024" lon="12.478007">
        <ele>974.843</ele>
        <time>2011-07-06T09:56:58Z</time>
      </trkpt>
      <trkpt lat="62.930086" lon="12.477875">
        <ele>974.339</ele>
        <time>2011-07-06T09:57:03Z</time>
      </trkpt>
      <trkpt lat="62.930161" lon="12.47771">
        <ele>973.722</ele>
        <time>2011-07-06T09:57:08Z</time>
      </trkpt>
      <trkpt lat="62.93018" lon="12.477678">
        <ele>973.804</ele>
        <time>2011-07-06T09:57:09Z</time>
      </trkpt>
      <trkpt lat="62.930312" lon="12.477432">
        <ele>972.811</ele>
        <time>2011-07-06T09:57:16Z</time>
      </trkpt>
      <trkpt lat="62.930353" lon="12.477362">
        <ele>972.651</ele>
        <time>2011-07-06T09:57:19Z</time>
      </trkpt>
      <trkpt lat="62.930449" lon="12.477296">
        <ele>971.522</ele>
        <time>2011-07-06T09:57:24Z</time>
      </trkpt>
      <trkpt lat="62.930635" lon="12.477008">
        <ele>971.799</ele>
        <time>2011-07-06T09:57:32Z</time>
      </trkpt>
      <trkpt lat="62.930752" lon="12.476759">
        <ele>971.511</ele>
        <time>2011-07-06T09:57:38Z</time>
      </trkpt>
      <trkpt lat="62.93077" lon="12.476729">
        <ele>971.505</ele>
        <time>2011-07-06T09:57:39Z</time>
      </trkpt>
      <trkpt lat="62.930822" lon="12.476468">
        <ele>969.29</ele>
        <time>2011-07-06T09:57:45Z</time>
      </trkpt>
      <trkpt lat="62.930877" lon="12.476326">
        <ele>968.442</ele>
        <time>2011-07-06T09:57:51Z</time>
      </trkpt>
      <trkpt lat="62.930952" lon="12.476145">
        <ele>968.752</ele>
        <time>2011-07-06T09:57:57Z</time>
      </trkpt>
      <trkpt lat="62.931079" lon="12.475919">
        <ele>969.304</ele>
        <time>2011-07-06T09:58:04Z</time>
      </trkpt>
      <trkpt lat="62.931158" lon="12.475729">
        <ele>969.361</ele>
        <time>2011-07-06T09:58:09Z</time>
      </trkpt>
      <trkpt lat="62.931164" lon="12.475587">
        <ele>968.977</ele>
        <time>2011-07-06T09:58:12Z</time>
      </trkpt>
      <trkpt lat="62.93127" lon="12.475241">
        <ele>968.687</ele>
        <time>2011-07-06T09:58:20Z</time>
      </trkpt>
      <trkpt lat="62.931373" lon="12.475033">
        <ele>968.407</ele>
        <time>2011-07-06T09:58:26Z</time>
      </trkpt>
      <trkpt lat="62.931461" lon="12.474971">
        <ele>968.387</ele>
        <time>2011-07-06T09:58:30Z</time>
      </trkpt>
      <trkpt lat="62.931595" lon="12.474879">
        <ele>968.25</ele>
        <time>2011-07-06T09:58:36Z</time>
      </trkpt>
      <trkpt lat="62.931697" lon="12.474674">
        <ele>967.45</ele>
        <time>2011-07-06T09:58:42Z</time>
      </trkpt>
      <trkpt lat="62.931788" lon="12.474454">
        <ele>966.255</ele>
        <time>2011-07-06T09:58:47Z</time>
      </trkpt>
      <trkpt lat="62.931811" lon="12.474364">
        <ele>965.584</ele>
        <time>2011-07-06T09:58:49Z</time>
      </trkpt>
      <trkpt lat="62.931893" lon="12.4742">
        <ele>964.518</ele>
        <time>2011-07-06T09:58:53Z</time>
      </trkpt>
      <trkpt lat="62.932064" lon="12.473935">
        <ele>964.874</ele>
        <time>2011-07-06T09:59:00Z</time>
      </trkpt>
      <trkpt lat="62.932194" lon="12.473663">
        <ele>964.006</ele>
        <time>2011-07-06T09:59:06Z</time>
      </trkpt>
      <trkpt lat="62.932295" lon="12.473417">
        <ele>963.708</ele>
        <time>2011-07-06T09:59:12Z</time>
      </trkpt>
      <trkpt lat="62.932301" lon="12.473369">
        <ele>963.552</ele>
        <time>2011-07-06T09:59:13Z</time>
      </trkpt>
      <trkpt lat="62.932312" lon="12.473287">
        <ele>963.237</ele>
        <time>2011-07-06T09:59:15Z</time>
      </trkpt>
      <trkpt lat="62.932361" lon="12.47315">
        <ele>962.792</ele>
        <time>2011-07-06T09:59:21Z</time>
      </trkpt>
      <trkpt lat="62.932384" lon="12.473072">
        <ele>962.79</ele>
        <time>2011-07-06T09:59:23Z</time>
      </trkpt>
      <trkpt lat="62.932436" lon="12.472888">
        <ele>962.879</ele>
        <time>2011-07-06T09:59:29Z</time>
      </trkpt>
      <trkpt lat="62.932511" lon="12.472631">
        <ele>963.324</ele>
        <time>2011-07-06T09:59:35Z</time>
      </trkpt>
      <trkpt lat="62.932574" lon="12.472341">
        <ele>963.212</ele>
        <time>2011-07-06T09:59:41Z</time>
      </trkpt>
      <trkpt lat="62.932642" lon="12.472101">
        <ele>963.494</ele>
        <time>2011-07-06T09:59:46Z</time>
      </trkpt>
      <trkpt lat="62.93272" lon="12.471921">
        <ele>963.766</ele>
        <time>2011-07-06T09:59:51Z</time>
      </trkpt>
      <trkpt lat="62.932767" lon="12.471678">
        <ele>963.64</ele>
        <time>2011-07-06T09:59:56Z</time>
      </trkpt>
      <trkpt lat="62.932832" lon="12.471474">
        <ele>963.338</ele>
        <time>2011-07-06T10:00:01Z</time>
      </trkpt>
      <trkpt lat="62.932922" lon="12.471262">
        <ele>962.542</ele>
        <time>2011-07-06T10:00:07Z</time>
      </trkpt>
      <trkpt lat="62.933044" lon="12.471055">
        <ele>961.918</ele>
        <time>2011-07-06T10:00:13Z</time>
      </trkpt>
      <trkpt lat="62.933154" lon="12.470817">
        <ele>961.174</ele>
        <time>2011-07-06T10:00:19Z</time>
      </trkpt>
      <trkpt lat="62.933228" lon="12.470626">
        <ele>960.448</ele>
        <time>2011-07-06T10:00:23Z</time>
      </trkpt>
      <trkpt lat="62.933284" lon="12.470444">
        <ele>959.652</ele>
        <time>2011-07-06T10:00:28Z</time>
      </trkpt>
      <trkpt lat="62.933291" lon="12.470419">
        <ele>959.797</ele>
        <time>2011-07-06T10:00:29Z</time>
      </trkpt>
      <trkpt lat="62.933334" lon="12.470299">
        <ele>959.793</ele>
        <time>2011-07-06T10:00:35Z</time>
      </trkpt>
      <trkpt lat="62.93334" lon="12.470221">
        <ele>960.032</ele>
        <time>2011-07-06T10:00:38Z</time>
      </trkpt>
      <trkpt lat="62.933393" lon="12.470078">
        <ele>959.821</ele>
        <time>2011-07-06T10:00:44Z</time>
      </trkpt>
      <trkpt lat="62.933411" lon="12.470001">
        <ele>959.405</ele>
        <time>2011-07-06T10:00:47Z</time>
      </trkpt>
      <trkpt lat="62.933435" lon="12.469907">
        <ele>959.322</ele>
        <time>2011-07-06T10:00:52Z</time>
      </trkpt>
      <trkpt lat="62.933509" lon="12.469678">
        <ele>959.785</ele>
        <time>2011-07-06T10:01:01Z</time>
      </trkpt>
      <trkpt lat="62.933579" lon="12.469426">
        <ele>959.506</ele>
        <time>2011-07-06T10:01:09Z</time>
      </trkpt>
      <trkpt lat="62.933667" lon="12.469232">
        <ele>959.426</ele>
        <time>2011-07-06T10:01:14Z</time>
      </trkpt>
      <trkpt lat="62.933757" lon="12.468969">
        <ele>959.596</ele>
        <time>2011-07-06T10:01:20Z</time>
      </trkpt>
      <trkpt lat="62.933871" lon="12.468662">
        <ele>959.457</ele>
        <time>2011-07-06T10:01:27Z</time>
      </trkpt>
      <trkpt lat="62.933942" lon="12.468376">
        <ele>959.349</ele>
        <time>2011-07-06T10:01:34Z</time>
      </trkpt>
      <trkpt lat="62.934057" lon="12.468171">
        <ele>958.292</ele>
        <time>2011-07-06T10:01:40Z</time>
      </trkpt>
      <trkpt lat="62.934123" lon="12.467971">
        <ele>958.347</ele>
        <time>2011-07-06T10:01:45Z</time>
      </trkpt>
      <trkpt lat="62.934214" lon="12.467775">
        <ele>957.955</ele>
        <time>2011-07-06T10:01:50Z</time>
      </trkpt>
      <trkpt lat="62.934329" lon="12.467542">
        <ele>957.406</ele>
        <time>2011-07-06T10:01:56Z</time>
      </trkpt>
      <trkpt lat="62.934414" lon="12.467221">
        <ele>957.441</ele>
        <time>2011-07-06T10:02:03Z</time>
      </trkpt>
      <trkpt lat="62.934503" lon="12.466929">
        <ele>957.168</ele>
        <time>2011-07-06T10:02:09Z</time>
      </trkpt>
      <trkpt lat="62.934587" lon="12.466606">
        <ele>956.672</ele>
        <time>2011-07-06T10:02:15Z</time>
      </trkpt>
      <trkpt lat="62.934639" lon="12.466415">
        <ele>956.579</ele>
        <time>2011-07-06T10:02:20Z</time>
      </trkpt>
      <trkpt lat="62.934674" lon="12.466287">
        <ele>956.428</ele>
        <time>2011-07-06T10:02:25Z</time>
      </trkpt>
      <trkpt lat="62.934758" lon="12.466125">
        <ele>956.676</ele>
        <time>2011-07-06T10:02:30Z</time>
      </trkpt>
      <trkpt lat="62.934859" lon="12.465878">
        <ele>956.484</ele>
        <time>2011-07-06T10:02:36Z</time>
      </trkpt>
      <trkpt lat="62.934961" lon="12.465607">
        <ele>957.299</ele>
        <time>2011-07-06T10:02:43Z</time>
      </trkpt>
      <trkpt lat="62.935059" lon="12.465252">
        <ele>956.644</ele>
        <time>2011-07-06T10:02:50Z</time>
      </trkpt>
      <trkpt lat="62.935142" lon="12.464912">
        <ele>955.933</ele>
        <time>2011-07-06T10:02:56Z</time>
      </trkpt>
      <trkpt lat="62.935179" lon="12.464629">
        <ele>956.344</ele>
        <time>2011-07-06T10:03:02Z</time>
      </trkpt>
      <trkpt lat="62.935185" lon="12.464252">
        <ele>956.664</ele>
        <time>2011-07-06T10:03:09Z</time>
      </trkpt>
      <trkpt lat="62.93518" lon="12.463958">
        <ele>956.019</ele>
        <time>2011-07-06T10:03:14Z</time>
      </trkpt>
      <trkpt lat="62.935192" lon="12.463659">
        <ele>955.127</ele>
        <time>2011-07-06T10:03:19Z</time>
      </trkpt>
      <trkpt lat="62.935265" lon="12.463363">
        <ele>954.55</ele>
        <time>2011-07-06T10:03:25Z</time>
      </trkpt>
      <trkpt lat="62.935304" lon="12.463086">
        <ele>955.219</ele>
        <time>2011-07-06T10:03:31Z</time>
      </trkpt>
      <trkpt lat="62.935334" lon="12.462831">
        <ele>954.743</ele>
        <time>2011-07-06T10:03:37Z</time>
      </trkpt>
      <trkpt lat="62.935397" lon="12.46264">
        <ele>953.492</ele>
        <time>2011-07-06T10:03:41Z</time>
      </trkpt>
      <trkpt lat="62.935475" lon="12.462344">
        <ele>952.952</ele>
        <time>2011-07-06T10:03:47Z</time>
      </trkpt>
      <trkpt lat="62.935528" lon="12.461967">
        <ele>952.421</ele>
        <time>2011-07-06T10:03:54Z</time>
      </trkpt>
      <trkpt lat="62.935522" lon="12.46191">
        <ele>952.528</ele>
        <time>2011-07-06T10:03:57Z</time>
      </trkpt>
      <trkpt lat="62.935562" lon="12.461815">
        <ele>952.064</ele>
        <time>2011-07-06T10:04:02Z</time>
      </trkpt>
      <trkpt lat="62.935637" lon="12.461674">
        <ele>952.171</ele>
        <time>2011-07-06T10:04:09Z</time>
      </trkpt>
      <trkpt lat="62.935671" lon="12.461515">
        <ele>951.611</ele>
        <time>2011-07-06T10:04:16Z</time>
      </trkpt>
      <trkpt lat="62.935701" lon="12.461374">
        <ele>952.092</ele>
        <time>2011-07-06T10:04:22Z</time>
      </trkpt>
      <trkpt lat="62.935707" lon="12.461346">
        <ele>952.108</ele>
        <time>2011-07-06T10:04:23Z</time>
      </trkpt>
      <trkpt lat="62.935765" lon="12.461031">
        <ele>952.789</ele>
        <time>2011-07-06T10:04:31Z</time>
      </trkpt>
      <trkpt lat="62.935837" lon="12.460741">
        <ele>953.067</ele>
        <time>2011-07-06T10:04:37Z</time>
      </trkpt>
      <trkpt lat="62.935859" lon="12.460531">
        <ele>954.505</ele>
        <time>2011-07-06T10:04:42Z</time>
      </trkpt>
      <trkpt lat="62.935952" lon="12.460277">
        <ele>954.873</ele>
        <time>2011-07-06T10:04:48Z</time>
      </trkpt>
      <trkpt lat="62.93602" lon="12.460052">
        <ele>954.82</ele>
        <time>2011-07-06T10:04:54Z</time>
      </trkpt>
      <trkpt lat="62.936051" lon="12.459893">
        <ele>955.189</ele>
        <time>2011-07-06T10:05:00Z</time>
      </trkpt>
      <trkpt lat="62.935985" lon="12.459697">
        <ele>955.407</ele>
        <time>2011-07-06T10:05:09Z</time>
      </trkpt>
      <trkpt lat="62.935881" lon="12.4597">
        <ele>955.858</ele>
        <time>2011-07-06T10:05:14Z</time>
      </trkpt>
      <trkpt lat="62.935808" lon="12.459746">
        <ele>956.401</ele>
        <time>2011-07-06T10:05:19Z</time>
      </trkpt>
      <trkpt lat="62.9358" lon="12.45974">
        <ele>956.639</ele>
        <time>2011-07-06T10:05:20Z</time>
      </trkpt>
      <trkpt lat="62.935791" lon="12.459703">
        <ele>957.19</ele>
        <time>2011-07-06T10:05:24Z</time>
      </trkpt>
      <trkpt lat="62.935785" lon="12.459648">
        <ele>957.043</ele>
        <time>2011-07-06T10:05:44Z</time>
      </trkpt>
      <trkpt lat="62.935785" lon="12.459643">
        <ele>956.81</ele>
        <time>2011-07-06T10:05:45Z</time>
      </trkpt>
      <trkpt lat="62.935782" lon="12.459644">
        <ele>956.795</ele>
        <time>2011-07-06T10:05:55Z</time>
      </trkpt>
      <trkpt lat="62.935795" lon="12.4596">
        <ele>956.158</ele>
        <time>2011-07-06T10:06:38Z</time>
      </trkpt>
      <trkpt lat="62.935811" lon="12.459722">
        <ele>955.83</ele>
        <time>2011-07-06T10:14:35Z</time>
      </trkpt>
      <trkpt lat="62.935828" lon="12.459698">
        <ele>956.225</ele>
        <time>2011-07-06T10:14:42Z</time>
      </trkpt>
      <trkpt lat="62.935909" lon="12.459644">
        <ele>955.225</ele>
        <time>2011-07-06T10:15:33Z</time>
      </trkpt>
      <trkpt lat="62.935959" lon="12.459568">
        <ele>954.389</ele>
        <time>2011-07-06T10:15:39Z</time>
      </trkpt>
      <trkpt lat="62.935981" lon="12.459499">
        <ele>953.957</ele>
        <time>2011-07-06T10:15:45Z</time>
      </trkpt>
      <trkpt lat="62.936025" lon="12.459391">
        <ele>953.137</ele>
        <time>2011-07-06T10:15:53Z</time>
      </trkpt>
      <trkpt lat="62.93604" lon="12.459372">
        <ele>952.993</ele>
        <time>2011-07-06T10:15:55Z</time>
      </trkpt>
      <trkpt lat="62.936119" lon="12.459329">
        <ele>952.099</ele>
        <time>2011-07-06T10:16:03Z</time>
      </trkpt>
      <trkpt lat="62.936173" lon="12.459269">
        <ele>951.455</ele>
        <time>2011-07-06T10:16:09Z</time>
      </trkpt>
      <trkpt lat="62.936292" lon="12.459134">
        <ele>950.623</ele>
        <time>2011-07-06T10:16:14Z</time>
      </trkpt>
      <trkpt lat="62.93645" lon="12.458965">
        <ele>949.176</ele>
        <time>2011-07-06T10:16:21Z</time>
      </trkpt>
      <trkpt lat="62.936512" lon="12.458883">
        <ele>948.344</ele>
        <time>2011-07-06T10:16:24Z</time>
      </trkpt>
      <trkpt lat="62.93659" lon="12.458525">
        <ele>947.06</ele>
        <time>2011-07-06T10:16:31Z</time>
      </trkpt>
      <trkpt lat="62.936654" lon="12.458282">
        <ele>945.597</ele>
        <time>2011-07-06T10:16:36Z</time>
      </trkpt>
      <trkpt lat="62.936656" lon="12.458251">
        <ele>945.426</ele>
        <time>2011-07-06T10:16:37Z</time>
      </trkpt>
      <trkpt lat="62.936694" lon="12.458137">
        <ele>945.172</ele>
        <time>2011-07-06T10:16:41Z</time>
      </trkpt>
      <trkpt lat="62.93679" lon="12.457786">
        <ele>945.396</ele>
        <time>2011-07-06T10:16:48Z</time>
      </trkpt>
      <trkpt lat="62.936861" lon="12.457528">
        <ele>945.005</ele>
        <time>2011-07-06T10:16:53Z</time>
      </trkpt>
      <trkpt lat="62.936982" lon="12.457243">
        <ele>943.923</ele>
        <time>2011-07-06T10:16:59Z</time>
      </trkpt>
      <trkpt lat="62.937109" lon="12.456974">
        <ele>942.81</ele>
        <time>2011-07-06T10:17:05Z</time>
      </trkpt>
      <trkpt lat="62.937159" lon="12.456814">
        <ele>942.319</ele>
        <time>2011-07-06T10:17:08Z</time>
      </trkpt>
      <trkpt lat="62.937246" lon="12.456693">
        <ele>941.827</ele>
        <time>2011-07-06T10:17:12Z</time>
      </trkpt>
      <trkpt lat="62.937365" lon="12.456488">
        <ele>942.412</ele>
        <time>2011-07-06T10:17:18Z</time>
      </trkpt>
      <trkpt lat="62.937495" lon="12.456168">
        <ele>941.681</ele>
        <time>2011-07-06T10:17:26Z</time>
      </trkpt>
      <trkpt lat="62.937585" lon="12.455988">
        <ele>940.93</ele>
        <time>2011-07-06T10:17:31Z</time>
      </trkpt>
      <trkpt lat="62.937695" lon="12.455811">
        <ele>940.408</ele>
        <time>2011-07-06T10:17:36Z</time>
      </trkpt>
      <trkpt lat="62.937847" lon="12.455561">
        <ele>940.416</ele>
        <time>2011-07-06T10:17:43Z</time>
      </trkpt>
      <trkpt lat="62.937959" lon="12.455471">
        <ele>939.62</ele>
        <time>2011-07-06T10:17:48Z</time>
      </trkpt>
      <trkpt lat="62.938044" lon="12.455372">
        <ele>939.511</ele>
        <time>2011-07-06T10:17:53Z</time>
      </trkpt>
      <trkpt lat="62.938134" lon="12.455243">
        <ele>940.388</ele>
        <time>2011-07-06T10:17:58Z</time>
      </trkpt>
      <trkpt lat="62.938254" lon="12.455151">
        <ele>940.476</ele>
        <time>2011-07-06T10:18:04Z</time>
      </trkpt>
      <trkpt lat="62.938372" lon="12.455036">
        <ele>941.888</ele>
        <time>2011-07-06T10:18:10Z</time>
      </trkpt>
      <trkpt lat="62.938512" lon="12.454814">
        <ele>942.252</ele>
        <time>2011-07-06T10:18:16Z</time>
      </trkpt>
      <trkpt lat="62.938707" lon="12.454593">
        <ele>941.883</ele>
        <time>2011-07-06T10:18:23Z</time>
      </trkpt>
      <trkpt lat="62.938905" lon="12.454406">
        <ele>941.474</ele>
        <time>2011-07-06T10:18:31Z</time>
      </trkpt>
      <trkpt lat="62.939059" lon="12.454281">
        <ele>940.466</ele>
        <time>2011-07-06T10:18:37Z</time>
      </trkpt>
      <trkpt lat="62.939133" lon="12.4542">
        <ele>939.639</ele>
        <time>2011-07-06T10:18:42Z</time>
      </trkpt>
      <trkpt lat="62.939157" lon="12.454121">
        <ele>938.115</ele>
        <time>2011-07-06T10:18:48Z</time>
      </trkpt>
      <trkpt lat="62.939159" lon="12.454093">
        <ele>937.801</ele>
        <time>2011-07-06T10:18:52Z</time>
      </trkpt>
      <trkpt lat="62.93916" lon="12.454053">
        <ele>937.582</ele>
        <time>2011-07-06T10:18:58Z</time>
      </trkpt>
      <trkpt lat="62.939175" lon="12.453995">
        <ele>937.682</ele>
        <time>2011-07-06T10:19:04Z</time>
      </trkpt>
      <trkpt lat="62.939204" lon="12.453885">
        <ele>937.831</ele>
        <time>2011-07-06T10:19:16Z</time>
      </trkpt>
      <trkpt lat="62.939206" lon="12.453878">
        <ele>938.16</ele>
        <time>2011-07-06T10:19:18Z</time>
      </trkpt>
      <trkpt lat="62.939271" lon="12.453758">
        <ele>939.188</ele>
        <time>2011-07-06T10:19:24Z</time>
      </trkpt>
      <trkpt lat="62.939378" lon="12.453413">
        <ele>941.084</ele>
        <time>2011-07-06T10:19:30Z</time>
      </trkpt>
      <trkpt lat="62.939499" lon="12.453127">
        <ele>941.348</ele>
        <time>2011-07-06T10:19:36Z</time>
      </trkpt>
      <trkpt lat="62.939565" lon="12.4529">
        <ele>941.998</ele>
        <time>2011-07-06T10:19:41Z</time>
      </trkpt>
      <trkpt lat="62.93966" lon="12.452701">
        <ele>943.008</ele>
        <time>2011-07-06T10:19:46Z</time>
      </trkpt>
      <trkpt lat="62.939701" lon="12.452608">
        <ele>943.018</ele>
        <time>2011-07-06T10:19:48Z</time>
      </trkpt>
      <trkpt lat="62.939811" lon="12.452414">
        <ele>942.595</ele>
        <time>2011-07-06T10:19:54Z</time>
      </trkpt>
      <trkpt lat="62.939824" lon="12.452361">
        <ele>942.465</ele>
        <time>2011-07-06T10:19:55Z</time>
      </trkpt>
      <trkpt lat="62.939973" lon="12.451996">
        <ele>942.022</ele>
        <time>2011-07-06T10:20:03Z</time>
      </trkpt>
      <trkpt lat="62.940053" lon="12.451748">
        <ele>943.283</ele>
        <time>2011-07-06T10:20:10Z</time>
      </trkpt>
      <trkpt lat="62.94011" lon="12.451518">
        <ele>943.199</ele>
        <time>2011-07-06T10:20:16Z</time>
      </trkpt>
      <trkpt lat="62.94017" lon="12.451187">
        <ele>942.647</ele>
        <time>2011-07-06T10:20:22Z</time>
      </trkpt>
      <trkpt lat="62.940176" lon="12.4511">
        <ele>942.717</ele>
        <time>2011-07-06T10:20:24Z</time>
      </trkpt>
      <trkpt lat="62.940222" lon="12.450887">
        <ele>940.981</ele>
        <time>2011-07-06T10:20:29Z</time>
      </trkpt>
      <trkpt lat="62.940266" lon="12.450811">
        <ele>940.767</ele>
        <time>2011-07-06T10:20:31Z</time>
      </trkpt>
      <trkpt lat="62.940334" lon="12.450593">
        <ele>939.964</ele>
        <time>2011-07-06T10:20:36Z</time>
      </trkpt>
      <trkpt lat="62.940349" lon="12.45039">
        <ele>938.681</ele>
        <time>2011-07-06T10:20:39Z</time>
      </trkpt>
      <trkpt lat="62.940437" lon="12.450218">
        <ele>937.085</ele>
        <time>2011-07-06T10:20:43Z</time>
      </trkpt>
      <trkpt lat="62.940497" lon="12.450127">
        <ele>936.452</ele>
        <time>2011-07-06T10:20:46Z</time>
      </trkpt>
      <trkpt lat="62.940673" lon="12.449914">
        <ele>934.623</ele>
        <time>2011-07-06T10:20:52Z</time>
      </trkpt>
      <trkpt lat="62.940709" lon="12.449731">
        <ele>934.286</ele>
        <time>2011-07-06T10:20:56Z</time>
      </trkpt>
      <trkpt lat="62.940747" lon="12.449569">
        <ele>934.128</ele>
        <time>2011-07-06T10:20:59Z</time>
      </trkpt>
      <trkpt lat="62.940905" lon="12.449334">
        <ele>934.56</ele>
        <time>2011-07-06T10:21:06Z</time>
      </trkpt>
      <trkpt lat="62.940957" lon="12.449243">
        <ele>935.568</ele>
        <time>2011-07-06T10:21:09Z</time>
      </trkpt>
      <trkpt lat="62.941056" lon="12.449029">
        <ele>938.113</ele>
        <time>2011-07-06T10:21:15Z</time>
      </trkpt>
      <trkpt lat="62.941072" lon="12.448994">
        <ele>938.669</ele>
        <time>2011-07-06T10:21:16Z</time>
      </trkpt>
      <trkpt lat="62.941101" lon="12.448918">
        <ele>939.571</ele>
        <time>2011-07-06T10:21:18Z</time>
      </trkpt>
      <trkpt lat="62.941249" lon="12.448721">
        <ele>941.043</ele>
        <time>2011-07-06T10:21:26Z</time>
      </trkpt>
      <trkpt lat="62.941332" lon="12.448429">
        <ele>941.469</ele>
        <time>2011-07-06T10:21:32Z</time>
      </trkpt>
      <trkpt lat="62.941437" lon="12.448066">
        <ele>940.047</ele>
        <time>2011-07-06T10:21:39Z</time>
      </trkpt>
      <trkpt lat="62.941546" lon="12.447685">
        <ele>938.893</ele>
        <time>2011-07-06T10:21:46Z</time>
      </trkpt>
      <trkpt lat="62.941618" lon="12.447424">
        <ele>937.636</ele>
        <time>2011-07-06T10:21:51Z</time>
      </trkpt>
      <trkpt lat="62.941632" lon="12.447376">
        <ele>937.437</ele>
        <time>2011-07-06T10:21:52Z</time>
      </trkpt>
      <trkpt lat="62.941733" lon="12.447264">
        <ele>936.33</ele>
        <time>2011-07-06T10:21:56Z</time>
      </trkpt>
      <trkpt lat="62.941951" lon="12.447177">
        <ele>935.36</ele>
        <time>2011-07-06T10:22:03Z</time>
      </trkpt>
      <trkpt lat="62.942021" lon="12.447013">
        <ele>936.051</ele>
        <time>2011-07-06T10:22:07Z</time>
      </trkpt>
      <trkpt lat="62.942055" lon="12.446832">
        <ele>937.168</ele>
        <time>2011-07-06T10:22:12Z</time>
      </trkpt>
      <trkpt lat="62.942056" lon="12.446813">
        <ele>937.232</ele>
        <time>2011-07-06T10:22:14Z</time>
      </trkpt>
      <trkpt lat="62.942202" lon="12.446598">
        <ele>937.306</ele>
        <time>2011-07-06T10:22:40Z</time>
      </trkpt>
      <trkpt lat="62.942351" lon="12.446397">
        <ele>938.171</ele>
        <time>2011-07-06T10:22:47Z</time>
      </trkpt>
      <trkpt lat="62.94245" lon="12.446187">
        <ele>938.477</ele>
        <time>2011-07-06T10:22:52Z</time>
      </trkpt>
      <trkpt lat="62.942572" lon="12.445933">
        <ele>939.001</ele>
        <time>2011-07-06T10:22:58Z</time>
      </trkpt>
      <trkpt lat="62.94268" lon="12.445656">
        <ele>939.515</ele>
        <time>2011-07-06T10:23:04Z</time>
      </trkpt>
      <trkpt lat="62.942818" lon="12.445294">
        <ele>940.02</ele>
        <time>2011-07-06T10:23:12Z</time>
      </trkpt>
      <trkpt lat="62.942917" lon="12.444989">
        <ele>940.032</ele>
        <time>2011-07-06T10:23:18Z</time>
      </trkpt>
      <trkpt lat="62.942977" lon="12.444772">
        <ele>940.372</ele>
        <time>2011-07-06T10:23:22Z</time>
      </trkpt>
      <trkpt lat="62.943035" lon="12.4445">
        <ele>940.156</ele>
        <time>2011-07-06T10:23:27Z</time>
      </trkpt>
      <trkpt lat="62.943112" lon="12.444109">
        <ele>940.053</ele>
        <time>2011-07-06T10:23:34Z</time>
      </trkpt>
      <trkpt lat="62.943199" lon="12.443776">
        <ele>939.295</ele>
        <time>2011-07-06T10:23:40Z</time>
      </trkpt>
      <trkpt lat="62.943309" lon="12.443536">
        <ele>938.377</ele>
        <time>2011-07-06T10:23:46Z</time>
      </trkpt>
      <trkpt lat="62.943395" lon="12.443243">
        <ele>937.096</ele>
        <time>2011-07-06T10:23:52Z</time>
      </trkpt>
      <trkpt lat="62.94341" lon="12.443082">
        <ele>936.581</ele>
        <time>2011-07-06T10:23:57Z</time>
      </trkpt>
      <trkpt lat="62.943485" lon="12.442845">
        <ele>936.305</ele>
        <time>2011-07-06T10:24:03Z</time>
      </trkpt>
      <trkpt lat="62.943554" lon="12.442549">
        <ele>936.279</ele>
        <time>2011-07-06T10:24:08Z</time>
      </trkpt>
      <trkpt lat="62.943651" lon="12.442243">
        <ele>936.082</ele>
        <time>2011-07-06T10:24:14Z</time>
      </trkpt>
      <trkpt lat="62.943697" lon="12.441916">
        <ele>935.452</ele>
        <time>2011-07-06T10:24:19Z</time>
      </trkpt>
      <trkpt lat="62.943711" lon="12.441717">
        <ele>934.075</ele>
        <time>2011-07-06T10:24:24Z</time>
      </trkpt>
      <trkpt lat="62.943744" lon="12.441624">
        <ele>933.672</ele>
        <time>2011-07-06T10:24:28Z</time>
      </trkpt>
      <trkpt lat="62.943856" lon="12.441259">
        <ele>934.426</ele>
        <time>2011-07-06T10:24:35Z</time>
      </trkpt>
      <trkpt lat="62.943971" lon="12.44096">
        <ele>935.198</ele>
        <time>2011-07-06T10:24:41Z</time>
      </trkpt>
      <trkpt lat="62.944113" lon="12.440744">
        <ele>936.916</ele>
        <time>2011-07-06T10:24:48Z</time>
      </trkpt>
      <trkpt lat="62.944243" lon="12.440498">
        <ele>937.461</ele>
        <time>2011-07-06T10:24:54Z</time>
      </trkpt>
      <trkpt lat="62.944354" lon="12.440238">
        <ele>937.227</ele>
        <time>2011-07-06T10:25:00Z</time>
      </trkpt>
      <trkpt lat="62.944454" lon="12.439957">
        <ele>937.334</ele>
        <time>2011-07-06T10:25:07Z</time>
      </trkpt>
      <trkpt lat="62.944491" lon="12.439827">
        <ele>937.031</ele>
        <time>2011-07-06T10:25:10Z</time>
      </trkpt>
      <trkpt lat="62.944539" lon="12.439787">
        <ele>936.939</ele>
        <time>2011-07-06T10:25:17Z</time>
      </trkpt>
      <trkpt lat="62.94454" lon="12.439787">
        <ele>936.888</ele>
        <time>2011-07-06T10:25:18Z</time>
      </trkpt>
      <trkpt lat="62.944547" lon="12.439475">
        <ele>936.889</ele>
        <time>2011-07-06T10:25:33Z</time>
      </trkpt>
      <trkpt lat="62.944565" lon="12.439105">
        <ele>937.315</ele>
        <time>2011-07-06T10:25:39Z</time>
      </trkpt>
      <trkpt lat="62.944575" lon="12.438768">
        <ele>936.551</ele>
        <time>2011-07-06T10:25:44Z</time>
      </trkpt>
      <trkpt lat="62.944626" lon="12.438538">
        <ele>936.847</ele>
        <time>2011-07-06T10:25:48Z</time>
      </trkpt>
      <trkpt lat="62.944742" lon="12.438266">
        <ele>939.599</ele>
        <time>2011-07-06T10:25:55Z</time>
      </trkpt>
      <trkpt lat="62.944847" lon="12.43797">
        <ele>941.043</ele>
        <time>2011-07-06T10:26:02Z</time>
      </trkpt>
      <trkpt lat="62.945002" lon="12.437584">
        <ele>941.999</ele>
        <time>2011-07-06T10:26:11Z</time>
      </trkpt>
      <trkpt lat="62.945162" lon="12.437229">
        <ele>942.888</ele>
        <time>2011-07-06T10:26:20Z</time>
      </trkpt>
      <trkpt lat="62.945297" lon="12.436977">
        <ele>943.164</ele>
        <time>2011-07-06T10:26:27Z</time>
      </trkpt>
      <trkpt lat="62.945457" lon="12.436716">
        <ele>941.683</ele>
        <time>2011-07-06T10:26:35Z</time>
      </trkpt>
      <trkpt lat="62.945608" lon="12.436493">
        <ele>939.434</ele>
        <time>2011-07-06T10:26:42Z</time>
      </trkpt>
      <trkpt lat="62.945749" lon="12.436286">
        <ele>937.338</ele>
        <time>2011-07-06T10:26:48Z</time>
      </trkpt>
      <trkpt lat="62.94587" lon="12.436092">
        <ele>935.921</ele>
        <time>2011-07-06T10:26:53Z</time>
      </trkpt>
      <trkpt lat="62.94607" lon="12.435779">
        <ele>933.756</ele>
        <time>2011-07-06T10:27:01Z</time>
      </trkpt>
      <trkpt lat="62.946219" lon="12.435545">
        <ele>932.383</ele>
        <time>2011-07-06T10:27:07Z</time>
      </trkpt>
      <trkpt lat="62.946386" lon="12.435284">
        <ele>931.27</ele>
        <time>2011-07-06T10:27:14Z</time>
      </trkpt>
      <trkpt lat="62.946518" lon="12.435097">
        <ele>930.482</ele>
        <time>2011-07-06T10:27:20Z</time>
      </trkpt>
      <trkpt lat="62.946595" lon="12.434916">
        <ele>928.385</ele>
        <time>2011-07-06T10:27:25Z</time>
      </trkpt>
      <trkpt lat="62.946647" lon="12.43481">
        <ele>927.479</ele>
        <time>2011-07-06T10:27:27Z</time>
      </trkpt>
      <trkpt lat="62.946748" lon="12.434724">
        <ele>926.419</ele>
        <time>2011-07-06T10:27:31Z</time>
      </trkpt>
      <trkpt lat="62.946774" lon="12.434699">
        <ele>926.143</ele>
        <time>2011-07-06T10:27:32Z</time>
      </trkpt>
      <trkpt lat="62.946873" lon="12.434426">
        <ele>925.369</ele>
        <time>2011-07-06T10:27:37Z</time>
      </trkpt>
      <trkpt lat="62.947016" lon="12.434075">
        <ele>924.896</ele>
        <time>2011-07-06T10:27:44Z</time>
      </trkpt>
      <trkpt lat="62.947146" lon="12.433825">
        <ele>924.466</ele>
        <time>2011-07-06T10:27:50Z</time>
      </trkpt>
      <trkpt lat="62.947305" lon="12.433566">
        <ele>922.718</ele>
        <time>2011-07-06T10:27:56Z</time>
      </trkpt>
      <trkpt lat="62.947442" lon="12.433278">
        <ele>922.18</ele>
        <time>2011-07-06T10:28:02Z</time>
      </trkpt>
      <trkpt lat="62.947527" lon="12.433106">
        <ele>922.555</ele>
        <time>2011-07-06T10:28:06Z</time>
      </trkpt>
      <trkpt lat="62.947621" lon="12.432849">
        <ele>922.629</ele>
        <time>2011-07-06T10:28:11Z</time>
      </trkpt>
      <trkpt lat="62.947671" lon="12.432628">
        <ele>923.753</ele>
        <time>2011-07-06T10:28:16Z</time>
      </trkpt>
      <trkpt lat="62.94771" lon="12.432279">
        <ele>923.791</ele>
        <time>2011-07-06T10:28:22Z</time>
      </trkpt>
      <trkpt lat="62.947784" lon="12.431984">
        <ele>923.519</ele>
        <time>2011-07-06T10:28:28Z</time>
      </trkpt>
      <trkpt lat="62.947858" lon="12.431678">
        <ele>923.497</ele>
        <time>2011-07-06T10:28:34Z</time>
      </trkpt>
      <trkpt lat="62.947928" lon="12.431361">
        <ele>923.118</ele>
        <time>2011-07-06T10:28:40Z</time>
      </trkpt>
      <trkpt lat="62.948052" lon="12.431094">
        <ele>923.416</ele>
        <time>2011-07-06T10:28:46Z</time>
      </trkpt>
      <trkpt lat="62.948176" lon="12.43081">
        <ele>922.776</ele>
        <time>2011-07-06T10:28:52Z</time>
      </trkpt>
      <trkpt lat="62.948284" lon="12.430587">
        <ele>921.895</ele>
        <time>2011-07-06T10:28:57Z</time>
      </trkpt>
      <trkpt lat="62.948398" lon="12.430363">
        <ele>921.709</ele>
        <time>2011-07-06T10:29:03Z</time>
      </trkpt>
      <trkpt lat="62.948458" lon="12.430319">
        <ele>921.217</ele>
        <time>2011-07-06T10:29:06Z</time>
      </trkpt>
      <trkpt lat="62.948501" lon="12.4301">
        <ele>919.008</ele>
        <time>2011-07-06T10:29:11Z</time>
      </trkpt>
      <trkpt lat="62.948541" lon="12.429992">
        <ele>918.27</ele>
        <time>2011-07-06T10:29:15Z</time>
      </trkpt>
      <trkpt lat="62.948584" lon="12.429863">
        <ele>918.492</ele>
        <time>2011-07-06T10:29:18Z</time>
      </trkpt>
      <trkpt lat="62.94877" lon="12.429597">
        <ele>918.416</ele>
        <time>2011-07-06T10:29:26Z</time>
      </trkpt>
      <trkpt lat="62.948884" lon="12.429325">
        <ele>918.393</ele>
        <time>2011-07-06T10:29:32Z</time>
      </trkpt>
      <trkpt lat="62.949021" lon="12.429019">
        <ele>917.875</ele>
        <time>2011-07-06T10:29:39Z</time>
      </trkpt>
      <trkpt lat="62.949172" lon="12.428701">
        <ele>917.578</ele>
        <time>2011-07-06T10:29:46Z</time>
      </trkpt>
      <trkpt lat="62.949268" lon="12.428355">
        <ele>918.584</ele>
        <time>2011-07-06T10:29:53Z</time>
      </trkpt>
      <trkpt lat="62.949326" lon="12.428075">
        <ele>919.353</ele>
        <time>2011-07-06T10:29:59Z</time>
      </trkpt>
      <trkpt lat="62.949402" lon="12.427682">
        <ele>919.13</ele>
        <time>2011-07-06T10:30:06Z</time>
      </trkpt>
      <trkpt lat="62.949463" lon="12.427319">
        <ele>918.083</ele>
        <time>2011-07-06T10:30:12Z</time>
      </trkpt>
      <trkpt lat="62.949553" lon="12.426904">
        <ele>917.884</ele>
        <time>2011-07-06T10:30:19Z</time>
      </trkpt>
      <trkpt lat="62.949646" lon="12.42654">
        <ele>918.991</ele>
        <time>2011-07-06T10:30:26Z</time>
      </trkpt>
      <trkpt lat="62.949703" lon="12.426384">
        <ele>918.75</ele>
        <time>2011-07-06T10:30:34Z</time>
      </trkpt>
      <trkpt lat="62.949736" lon="12.426264">
        <ele>916.785</ele>
        <time>2011-07-06T10:30:40Z</time>
      </trkpt>
      <trkpt lat="62.949786" lon="12.426142">
        <ele>914.347</ele>
        <time>2011-07-06T10:30:47Z</time>
      </trkpt>
      <trkpt lat="62.949823" lon="12.425871">
        <ele>912.643</ele>
        <time>2011-07-06T10:30:52Z</time>
      </trkpt>
      <trkpt lat="62.949907" lon="12.425591">
        <ele>911.792</ele>
        <time>2011-07-06T10:30:57Z</time>
      </trkpt>
      <trkpt lat="62.950009" lon="12.425224">
        <ele>910.828</ele>
        <time>2011-07-06T10:31:04Z</time>
      </trkpt>
      <trkpt lat="62.9501" lon="12.42485">
        <ele>911.206</ele>
        <time>2011-07-06T10:31:11Z</time>
      </trkpt>
      <trkpt lat="62.950197" lon="12.424442">
        <ele>911.339</ele>
        <time>2011-07-06T10:31:19Z</time>
      </trkpt>
      <trkpt lat="62.95028" lon="12.424182">
        <ele>909.801</ele>
        <time>2011-07-06T10:31:24Z</time>
      </trkpt>
      <trkpt lat="62.950311" lon="12.424094">
        <ele>909.614</ele>
        <time>2011-07-06T10:31:26Z</time>
      </trkpt>
      <trkpt lat="62.950367" lon="12.423996">
        <ele>909.346</ele>
        <time>2011-07-06T10:31:29Z</time>
      </trkpt>
      <trkpt lat="62.950435" lon="12.423705">
        <ele>908.409</ele>
        <time>2011-07-06T10:31:35Z</time>
      </trkpt>
      <trkpt lat="62.950463" lon="12.423625">
        <ele>908.19</ele>
        <time>2011-07-06T10:31:37Z</time>
      </trkpt>
      <trkpt lat="62.950471" lon="12.423388">
        <ele>908.113</ele>
        <time>2011-07-06T10:31:42Z</time>
      </trkpt>
      <trkpt lat="62.950522" lon="12.423107">
        <ele>907.409</ele>
        <time>2011-07-06T10:31:48Z</time>
      </trkpt>
      <trkpt lat="62.950592" lon="12.422858">
        <ele>907.534</ele>
        <time>2011-07-06T10:31:55Z</time>
      </trkpt>
      <trkpt lat="62.950596" lon="12.422821">
        <ele>907.557</ele>
        <time>2011-07-06T10:31:58Z</time>
      </trkpt>
      <trkpt lat="62.950503" lon="12.423163">
        <ele>908.032</ele>
        <time>2011-07-06T10:32:07Z</time>
      </trkpt>
      <trkpt lat="62.950461" lon="12.42331">
        <ele>907.924</ele>
        <time>2011-07-06T10:32:11Z</time>
      </trkpt>
      <trkpt lat="62.950528" lon="12.423048">
        <ele>907.516</ele>
        <time>2011-07-06T10:32:17Z</time>
      </trkpt>
      <trkpt lat="62.950606" lon="12.422715">
        <ele>907.408</ele>
        <time>2011-07-06T10:32:24Z</time>
      </trkpt>
      <trkpt lat="62.950595" lon="12.422791">
        <ele>907.716</ele>
        <time>2011-07-06T10:32:29Z</time>
      </trkpt>
      <trkpt lat="62.950647" lon="12.422593">
        <ele>907.07</ele>
        <time>2011-07-06T10:32:35Z</time>
      </trkpt>
      <trkpt lat="62.950685" lon="12.422432">
        <ele>906.953</ele>
        <time>2011-07-06T10:32:41Z</time>
      </trkpt>
      <trkpt lat="62.950703" lon="12.422391">
        <ele>907.145</ele>
        <time>2011-07-06T10:32:46Z</time>
      </trkpt>
      <trkpt lat="62.950704" lon="12.422305">
        <ele>907.116</ele>
        <time>2011-07-06T10:32:53Z</time>
      </trkpt>
      <trkpt lat="62.95076" lon="12.422184">
        <ele>906.822</ele>
        <time>2011-07-06T10:32:59Z</time>
      </trkpt>
      <trkpt lat="62.950778" lon="12.422145">
        <ele>906.878</ele>
        <time>2011-07-06T10:33:01Z</time>
      </trkpt>
      <trkpt lat="62.950794" lon="12.421988">
        <ele>906.835</ele>
        <time>2011-07-06T10:33:06Z</time>
      </trkpt>
      <trkpt lat="62.950832" lon="12.421871">
        <ele>906.862</ele>
        <time>2011-07-06T10:33:09Z</time>
      </trkpt>
      <trkpt lat="62.950938" lon="12.421512">
        <ele>906.539</ele>
        <time>2011-07-06T10:33:17Z</time>
      </trkpt>
      <trkpt lat="62.951014" lon="12.421182">
        <ele>906.32</ele>
        <time>2011-07-06T10:33:23Z</time>
      </trkpt>
      <trkpt lat="62.951092" lon="12.420888">
        <ele>905.912</ele>
        <time>2011-07-06T10:33:29Z</time>
      </trkpt>
      <trkpt lat="62.951154" lon="12.420627">
        <ele>905.573</ele>
        <time>2011-07-06T10:33:34Z</time>
      </trkpt>
      <trkpt lat="62.951225" lon="12.420353">
        <ele>904.895</ele>
        <time>2011-07-06T10:33:39Z</time>
      </trkpt>
      <trkpt lat="62.9513" lon="12.420124">
        <ele>904.009</ele>
        <time>2011-07-06T10:33:44Z</time>
      </trkpt>
      <trkpt lat="62.951326" lon="12.420068">
        <ele>903.718</ele>
        <time>2011-07-06T10:33:46Z</time>
      </trkpt>
      <trkpt lat="62.951361" lon="12.419954">
        <ele>902.771</ele>
        <time>2011-07-06T10:33:50Z</time>
      </trkpt>
      <trkpt lat="62.951396" lon="12.419872">
        <ele>902.241</ele>
        <time>2011-07-06T10:33:52Z</time>
      </trkpt>
      <trkpt lat="62.951488" lon="12.419722">
        <ele>901.613</ele>
        <time>2011-07-06T10:33:57Z</time>
      </trkpt>
      <trkpt lat="62.95163" lon="12.419453">
        <ele>901.23</ele>
        <time>2011-07-06T10:34:04Z</time>
      </trkpt>
      <trkpt lat="62.951744" lon="12.419294">
        <ele>900.76</ele>
        <time>2011-07-06T10:34:09Z</time>
      </trkpt>
      <trkpt lat="62.951939" lon="12.419128">
        <ele>900.596</ele>
        <time>2011-07-06T10:34:17Z</time>
      </trkpt>
      <trkpt lat="62.952003" lon="12.419043">
        <ele>900.458</ele>
        <time>2011-07-06T10:34:20Z</time>
      </trkpt>
      <trkpt lat="62.952091" lon="12.418785">
        <ele>900.899</ele>
        <time>2011-07-06T10:34:26Z</time>
      </trkpt>
      <trkpt lat="62.952201" lon="12.418487">
        <ele>901.129</ele>
        <time>2011-07-06T10:34:33Z</time>
      </trkpt>
      <trkpt lat="62.952316" lon="12.418164">
        <ele>901.478</ele>
        <time>2011-07-06T10:34:41Z</time>
      </trkpt>
      <trkpt lat="62.95242" lon="12.417903">
        <ele>901.818</ele>
        <time>2011-07-06T10:34:48Z</time>
      </trkpt>
      <trkpt lat="62.952467" lon="12.41778">
        <ele>903.364</ele>
        <time>2011-07-06T10:34:51Z</time>
      </trkpt>
      <trkpt lat="62.952545" lon="12.417494">
        <ele>898.853</ele>
        <time>2011-07-06T10:34:57Z</time>
      </trkpt>
      <trkpt lat="62.952626" lon="12.417176">
        <ele>897.821</ele>
        <time>2011-07-06T10:35:03Z</time>
      </trkpt>
      <trkpt lat="62.952698" lon="12.417091">
        <ele>897.123</ele>
        <time>2011-07-06T10:35:07Z</time>
      </trkpt>
      <trkpt lat="62.952798" lon="12.416974">
        <ele>895.278</ele>
        <time>2011-07-06T10:35:11Z</time>
      </trkpt>
      <trkpt lat="62.952914" lon="12.416802">
        <ele>893.884</ele>
        <time>2011-07-06T10:35:16Z</time>
      </trkpt>
      <trkpt lat="62.952944" lon="12.416703">
        <ele>893.809</ele>
        <time>2011-07-06T10:35:19Z</time>
      </trkpt>
      <trkpt lat="62.952992" lon="12.416675">
        <ele>893.199</ele>
        <time>2011-07-06T10:35:26Z</time>
      </trkpt>
      <trkpt lat="62.953025" lon="12.416566">
        <ele>893.806</ele>
        <time>2011-07-06T10:35:31Z</time>
      </trkpt>
      <trkpt lat="62.953086" lon="12.416381">
        <ele>894.451</ele>
        <time>2011-07-06T10:35:39Z</time>
      </trkpt>
      <trkpt lat="62.953149" lon="12.416188">
        <ele>895.06</ele>
        <time>2011-07-06T10:35:46Z</time>
      </trkpt>
      <trkpt lat="62.953274" lon="12.415968">
        <ele>897.12</ele>
        <time>2011-07-06T10:35:53Z</time>
      </trkpt>
      <trkpt lat="62.953377" lon="12.415749">
        <ele>898.747</ele>
        <time>2011-07-06T10:35:59Z</time>
      </trkpt>
      <trkpt lat="62.953487" lon="12.415483">
        <ele>899.909</ele>
        <time>2011-07-06T10:36:05Z</time>
      </trkpt>
      <trkpt lat="62.95361" lon="12.415254">
        <ele>900.783</ele>
        <time>2011-07-06T10:36:11Z</time>
      </trkpt>
      <trkpt lat="62.953765" lon="12.415002">
        <ele>901.755</ele>
        <time>2011-07-06T10:36:18Z</time>
      </trkpt>
      <trkpt lat="62.95386" lon="12.41481">
        <ele>902.421</ele>
        <time>2011-07-06T10:36:25Z</time>
      </trkpt>
      <trkpt lat="62.95392" lon="12.41466">
        <ele>902.433</ele>
        <time>2011-07-06T10:36:34Z</time>
      </trkpt>
      <trkpt lat="62.954002" lon="12.414523">
        <ele>902.232</ele>
        <time>2011-07-06T10:36:43Z</time>
      </trkpt>
      <trkpt lat="62.954058" lon="12.414384">
        <ele>901.86</ele>
        <time>2011-07-06T10:36:50Z</time>
      </trkpt>
      <trkpt lat="62.954125" lon="12.414175">
        <ele>901.137</ele>
        <time>2011-07-06T10:36:59Z</time>
      </trkpt>
      <trkpt lat="62.954193" lon="12.413975">
        <ele>900.63</ele>
        <time>2011-07-06T10:37:05Z</time>
      </trkpt>
      <trkpt lat="62.954325" lon="12.413543">
        <ele>899.174</ele>
        <time>2011-07-06T10:37:13Z</time>
      </trkpt>
      <trkpt lat="62.954439" lon="12.413237">
        <ele>898.218</ele>
        <time>2011-07-06T10:37:19Z</time>
      </trkpt>
      <trkpt lat="62.954545" lon="12.412921">
        <ele>897.484</ele>
        <time>2011-07-06T10:37:25Z</time>
      </trkpt>
      <trkpt lat="62.954624" lon="12.412568">
        <ele>895.979</ele>
        <time>2011-07-06T10:37:31Z</time>
      </trkpt>
      <trkpt lat="62.954699" lon="12.412263">
        <ele>894.954</ele>
        <time>2011-07-06T10:37:36Z</time>
      </trkpt>
      <trkpt lat="62.954776" lon="12.412094">
        <ele>894.52</ele>
        <time>2011-07-06T10:37:40Z</time>
      </trkpt>
      <trkpt lat="62.954887" lon="12.411865">
        <ele>893.097</ele>
        <time>2011-07-06T10:37:45Z</time>
      </trkpt>
      <trkpt lat="62.954982" lon="12.411606">
        <ele>892.51</ele>
        <time>2011-07-06T10:37:50Z</time>
      </trkpt>
      <trkpt lat="62.955143" lon="12.411345">
        <ele>891.619</ele>
        <time>2011-07-06T10:37:56Z</time>
      </trkpt>
      <trkpt lat="62.95534" lon="12.410998">
        <ele>891.193</ele>
        <time>2011-07-06T10:38:04Z</time>
      </trkpt>
      <trkpt lat="62.955477" lon="12.410762">
        <ele>891.039</ele>
        <time>2011-07-06T10:38:10Z</time>
      </trkpt>
      <trkpt lat="62.95561" lon="12.410563">
        <ele>891.544</ele>
        <time>2011-07-06T10:38:16Z</time>
      </trkpt>
      <trkpt lat="62.955632" lon="12.410534">
        <ele>891.618</ele>
        <time>2011-07-06T10:38:17Z</time>
      </trkpt>
      <trkpt lat="62.955744" lon="12.410242">
        <ele>891.805</ele>
        <time>2011-07-06T10:38:23Z</time>
      </trkpt>
      <trkpt lat="62.955872" lon="12.409788">
        <ele>892.3</ele>
        <time>2011-07-06T10:38:31Z</time>
      </trkpt>
      <trkpt lat="62.955944" lon="12.409435">
        <ele>892.558</ele>
        <time>2011-07-06T10:38:37Z</time>
      </trkpt>
      <trkpt lat="62.95602" lon="12.409102">
        <ele>892.786</ele>
        <time>2011-07-06T10:38:43Z</time>
      </trkpt>
      <trkpt lat="62.956131" lon="12.408752">
        <ele>892.224</ele>
        <time>2011-07-06T10:38:50Z</time>
      </trkpt>
      <trkpt lat="62.956194" lon="12.408375">
        <ele>891.4</ele>
        <time>2011-07-06T10:38:56Z</time>
      </trkpt>
      <trkpt lat="62.956224" lon="12.408084">
        <ele>890.779</ele>
        <time>2011-07-06T10:39:01Z</time>
      </trkpt>
      <trkpt lat="62.956292" lon="12.407653">
        <ele>890.445</ele>
        <time>2011-07-06T10:39:08Z</time>
      </trkpt>
      <trkpt lat="62.956367" lon="12.407256">
        <ele>889.657</ele>
        <time>2011-07-06T10:39:15Z</time>
      </trkpt>
      <trkpt lat="62.956406" lon="12.406972">
        <ele>888.454</ele>
        <time>2011-07-06T10:39:20Z</time>
      </trkpt>
      <trkpt lat="62.956431" lon="12.406709">
        <ele>887.245</ele>
        <time>2011-07-06T10:39:24Z</time>
      </trkpt>
      <trkpt lat="62.956437" lon="12.406498">
        <ele>887.235</ele>
        <time>2011-07-06T10:39:28Z</time>
      </trkpt>
      <trkpt lat="62.956528" lon="12.406142">
        <ele>886.042</ele>
        <time>2011-07-06T10:39:35Z</time>
      </trkpt>
      <trkpt lat="62.95662" lon="12.405769">
        <ele>884.773</ele>
        <time>2011-07-06T10:39:42Z</time>
      </trkpt>
      <trkpt lat="62.956741" lon="12.405466">
        <ele>883.194</ele>
        <time>2011-07-06T10:39:49Z</time>
      </trkpt>
      <trkpt lat="62.956763" lon="12.405284">
        <ele>882.636</ele>
        <time>2011-07-06T10:39:53Z</time>
      </trkpt>
      <trkpt lat="62.95677" lon="12.405171">
        <ele>882.498</ele>
        <time>2011-07-06T10:39:57Z</time>
      </trkpt>
      <trkpt lat="62.956776" lon="12.404992">
        <ele>882.356</ele>
        <time>2011-07-06T10:40:03Z</time>
      </trkpt>
      <trkpt lat="62.956805" lon="12.40485">
        <ele>882.3</ele>
        <time>2011-07-06T10:40:10Z</time>
      </trkpt>
      <trkpt lat="62.956816" lon="12.404791">
        <ele>882.187</ele>
        <time>2011-07-06T10:40:14Z</time>
      </trkpt>
      <trkpt lat="62.956845" lon="12.404693">
        <ele>882.215</ele>
        <time>2011-07-06T10:40:20Z</time>
      </trkpt>
      <trkpt lat="62.956879" lon="12.404636">
        <ele>882.191</ele>
        <time>2011-07-06T10:40:24Z</time>
      </trkpt>
      <trkpt lat="62.95694" lon="12.404586">
        <ele>882.177</ele>
        <time>2011-07-06T10:40:29Z</time>
      </trkpt>
      <trkpt lat="62.956967" lon="12.40447">
        <ele>882.079</ele>
        <time>2011-07-06T10:40:35Z</time>
      </trkpt>
      <trkpt lat="62.95697" lon="12.40445">
        <ele>882.016</ele>
        <time>2011-07-06T10:40:36Z</time>
      </trkpt>
      <trkpt lat="62.956974" lon="12.404407">
        <ele>882.02</ele>
        <time>2011-07-06T10:40:38Z</time>
      </trkpt>
      <trkpt lat="62.957039" lon="12.404221">
        <ele>882.284</ele>
        <time>2011-07-06T10:40:47Z</time>
      </trkpt>
      <trkpt lat="62.95705" lon="12.404081">
        <ele>882.59</ele>
        <time>2011-07-06T10:40:53Z</time>
      </trkpt>
      <trkpt lat="62.95707" lon="12.403998">
        <ele>882.695</ele>
        <time>2011-07-06T10:40:57Z</time>
      </trkpt>
      <trkpt lat="62.957063" lon="12.403857">
        <ele>882.671</ele>
        <time>2011-07-06T10:41:03Z</time>
      </trkpt>
      <trkpt lat="62.957068" lon="12.403835">
        <ele>882.701</ele>
        <time>2011-07-06T10:41:04Z</time>
      </trkpt>
      <trkpt lat="62.957152" lon="12.403759">
        <ele>882.843</ele>
        <time>2011-07-06T10:41:11Z</time>
      </trkpt>
      <trkpt lat="62.957222" lon="12.403649">
        <ele>883.217</ele>
        <time>2011-07-06T10:41:15Z</time>
      </trkpt>
      <trkpt lat="62.957323" lon="12.40344">
        <ele>884.572</ele>
        <time>2011-07-06T10:41:21Z</time>
      </trkpt>
      <trkpt lat="62.957422" lon="12.403207">
        <ele>885.195</ele>
        <time>2011-07-06T10:41:27Z</time>
      </trkpt>
      <trkpt lat="62.957552" lon="12.40287">
        <ele>886.381</ele>
        <time>2011-07-06T10:41:35Z</time>
      </trkpt>
      <trkpt lat="62.957676" lon="12.402547">
        <ele>886.529</ele>
        <time>2011-07-06T10:41:43Z</time>
      </trkpt>
      <trkpt lat="62.957756" lon="12.402356">
        <ele>886.923</ele>
        <time>2011-07-06T10:41:48Z</time>
      </trkpt>
      <trkpt lat="62.95783" lon="12.402086">
        <ele>887.836</ele>
        <time>2011-07-06T10:41:54Z</time>
      </trkpt>
      <trkpt lat="62.957915" lon="12.401807">
        <ele>888.149</ele>
        <time>2011-07-06T10:42:00Z</time>
      </trkpt>
      <trkpt lat="62.957996" lon="12.401613">
        <ele>889.115</ele>
        <time>2011-07-06T10:42:05Z</time>
      </trkpt>
      <trkpt lat="62.958124" lon="12.401298">
        <ele>889.753</ele>
        <time>2011-07-06T10:42:13Z</time>
      </trkpt>
      <trkpt lat="62.958206" lon="12.401042">
        <ele>889.55</ele>
        <time>2011-07-06T10:42:19Z</time>
      </trkpt>
      <trkpt lat="62.958275" lon="12.400829">
        <ele>888.924</ele>
        <time>2011-07-06T10:42:24Z</time>
      </trkpt>
      <trkpt lat="62.958372" lon="12.400543">
        <ele>886.422</ele>
        <time>2011-07-06T10:42:31Z</time>
      </trkpt>
      <trkpt lat="62.95849" lon="12.400261">
        <ele>884.011</ele>
        <time>2011-07-06T10:42:38Z</time>
      </trkpt>
      <trkpt lat="62.958618" lon="12.399984">
        <ele>881.967</ele>
        <time>2011-07-06T10:42:45Z</time>
      </trkpt>
      <trkpt lat="62.958735" lon="12.399718">
        <ele>880.649</ele>
        <time>2011-07-06T10:42:52Z</time>
      </trkpt>
      <trkpt lat="62.958768" lon="12.399606">
        <ele>879.937</ele>
        <time>2011-07-06T10:42:55Z</time>
      </trkpt>
      <trkpt lat="62.958827" lon="12.399447">
        <ele>878.898</ele>
        <time>2011-07-06T10:42:59Z</time>
      </trkpt>
      <trkpt lat="62.95885" lon="12.399218">
        <ele>878.34</ele>
        <time>2011-07-06T10:43:04Z</time>
      </trkpt>
      <trkpt lat="62.958847" lon="12.399171">
        <ele>878.394</ele>
        <time>2011-07-06T10:43:05Z</time>
      </trkpt>
      <trkpt lat="62.95883" lon="12.398937">
        <ele>880.146</ele>
        <time>2011-07-06T10:43:13Z</time>
      </trkpt>
      <trkpt lat="62.95884" lon="12.398868">
        <ele>880.82</ele>
        <time>2011-07-06T10:43:16Z</time>
      </trkpt>
      <trkpt lat="62.958887" lon="12.398708">
        <ele>881.989</ele>
        <time>2011-07-06T10:43:23Z</time>
      </trkpt>
      <trkpt lat="62.958901" lon="12.398659">
        <ele>881.88</ele>
        <time>2011-07-06T10:43:25Z</time>
      </trkpt>
      <trkpt lat="62.959001" lon="12.398461">
        <ele>882.156</ele>
        <time>2011-07-06T10:43:35Z</time>
      </trkpt>
      <trkpt lat="62.959095" lon="12.398271">
        <ele>881.624</ele>
        <time>2011-07-06T10:43:44Z</time>
      </trkpt>
      <trkpt lat="62.959223" lon="12.39803">
        <ele>880.813</ele>
        <time>2011-07-06T10:43:50Z</time>
      </trkpt>
      <trkpt lat="62.959372" lon="12.397721">
        <ele>880.068</ele>
        <time>2011-07-06T10:43:57Z</time>
      </trkpt>
      <trkpt lat="62.959464" lon="12.397529">
        <ele>879.286</ele>
        <time>2011-07-06T10:44:02Z</time>
      </trkpt>
      <trkpt lat="62.95957" lon="12.397312">
        <ele>878.2</ele>
        <time>2011-07-06T10:44:07Z</time>
      </trkpt>
      <trkpt lat="62.959699" lon="12.397072">
        <ele>877.629</ele>
        <time>2011-07-06T10:44:13Z</time>
      </trkpt>
      <trkpt lat="62.959846" lon="12.396868">
        <ele>877.049</ele>
        <time>2011-07-06T10:44:19Z</time>
      </trkpt>
      <trkpt lat="62.959972" lon="12.396733">
        <ele>876.942</ele>
        <time>2011-07-06T10:44:24Z</time>
      </trkpt>
      <trkpt lat="62.960147" lon="12.396558">
        <ele>876.337</ele>
        <time>2011-07-06T10:44:31Z</time>
      </trkpt>
      <trkpt lat="62.960277" lon="12.396371">
        <ele>876.234</ele>
        <time>2011-07-06T10:44:37Z</time>
      </trkpt>
      <trkpt lat="62.960418" lon="12.39616">
        <ele>876.003</ele>
        <time>2011-07-06T10:44:44Z</time>
      </trkpt>
      <trkpt lat="62.960525" lon="12.395997">
        <ele>875.925</ele>
        <time>2011-07-06T10:44:49Z</time>
      </trkpt>
      <trkpt lat="62.960638" lon="12.395752">
        <ele>876.253</ele>
        <time>2011-07-06T10:44:55Z</time>
      </trkpt>
      <trkpt lat="62.96074" lon="12.395617">
        <ele>877.159</ele>
        <time>2011-07-06T10:45:00Z</time>
      </trkpt>
      <trkpt lat="62.960841" lon="12.395411">
        <ele>877.584</ele>
        <time>2011-07-06T10:45:06Z</time>
      </trkpt>
      <trkpt lat="62.960946" lon="12.395158">
        <ele>877.546</ele>
        <time>2011-07-06T10:45:12Z</time>
      </trkpt>
      <trkpt lat="62.961031" lon="12.394977">
        <ele>877.508</ele>
        <time>2011-07-06T10:45:17Z</time>
      </trkpt>
      <trkpt lat="62.961158" lon="12.394699">
        <ele>877.363</ele>
        <time>2011-07-06T10:45:24Z</time>
      </trkpt>
      <trkpt lat="62.961234" lon="12.394483">
        <ele>877.262</ele>
        <time>2011-07-06T10:45:29Z</time>
      </trkpt>
      <trkpt lat="62.961365" lon="12.39419">
        <ele>875.893</ele>
        <time>2011-07-06T10:45:36Z</time>
      </trkpt>
      <trkpt lat="62.961475" lon="12.393928">
        <ele>875.235</ele>
        <time>2011-07-06T10:45:42Z</time>
      </trkpt>
      <trkpt lat="62.961557" lon="12.393708">
        <ele>874.412</ele>
        <time>2011-07-06T10:45:47Z</time>
      </trkpt>
      <trkpt lat="62.961646" lon="12.393486">
        <ele>874.596</ele>
        <time>2011-07-06T10:45:52Z</time>
      </trkpt>
      <trkpt lat="62.961706" lon="12.393326">
        <ele>875.391</ele>
        <time>2011-07-06T10:45:59Z</time>
      </trkpt>
      <trkpt lat="62.961722" lon="12.393218">
        <ele>875.62</ele>
        <time>2011-07-06T10:46:04Z</time>
      </trkpt>
      <trkpt lat="62.961778" lon="12.393047">
        <ele>875.16</ele>
        <time>2011-07-06T10:46:14Z</time>
      </trkpt>
      <trkpt lat="62.961783" lon="12.393028">
        <ele>874.746</ele>
        <time>2011-07-06T10:46:17Z</time>
      </trkpt>
      <trkpt lat="62.961813" lon="12.392858">
        <ele>874.788</ele>
        <time>2011-07-06T10:46:25Z</time>
      </trkpt>
      <trkpt lat="62.961825" lon="12.392812">
        <ele>875.008</ele>
        <time>2011-07-06T10:46:27Z</time>
      </trkpt>
      <trkpt lat="62.961784" lon="12.393002">
        <ele>875.007</ele>
        <time>2011-07-06T10:46:33Z</time>
      </trkpt>
      <trkpt lat="62.961785" lon="12.393006">
        <ele>874.985</ele>
        <time>2011-07-06T10:46:34Z</time>
      </trkpt>
      <trkpt lat="62.96182" lon="12.392835">
        <ele>874.731</ele>
        <time>2011-07-06T10:46:51Z</time>
      </trkpt>
      <trkpt lat="62.961801" lon="12.392962">
        <ele>874.884</ele>
        <time>2011-07-06T10:46:55Z</time>
      </trkpt>
      <trkpt lat="62.961785" lon="12.393008">
        <ele>874.868</ele>
        <time>2011-07-06T10:46:56Z</time>
      </trkpt>
      <trkpt lat="62.961773" lon="12.393038">
        <ele>874.918</ele>
        <time>2011-07-06T10:46:58Z</time>
      </trkpt>
      <trkpt lat="62.961784" lon="12.393004">
        <ele>874.704</ele>
        <time>2011-07-06T10:47:02Z</time>
      </trkpt>
      <trkpt lat="62.961805" lon="12.392873">
        <ele>874.411</ele>
        <time>2011-07-06T10:47:21Z</time>
      </trkpt>
      <trkpt lat="62.961811" lon="12.392849">
        <ele>874.503</ele>
        <time>2011-07-06T10:47:22Z</time>
      </trkpt>
      <trkpt lat="62.961772" lon="12.39302">
        <ele>874.824</ele>
        <time>2011-07-06T10:47:26Z</time>
      </trkpt>
      <trkpt lat="62.961763" lon="12.393031">
        <ele>874.795</ele>
        <time>2011-07-06T10:47:27Z</time>
      </trkpt>
      <trkpt lat="62.961779" lon="12.392958">
        <ele>874.911</ele>
        <time>2011-07-06T10:47:33Z</time>
      </trkpt>
      <trkpt lat="62.961784" lon="12.392903">
        <ele>874.748</ele>
        <time>2011-07-06T10:47:41Z</time>
      </trkpt>
      <trkpt lat="62.961783" lon="12.392903">
        <ele>874.801</ele>
        <time>2011-07-06T10:47:42Z</time>
      </trkpt>
      <trkpt lat="62.961831" lon="12.392712">
        <ele>874.021</ele>
        <time>2011-07-06T10:48:08Z</time>
      </trkpt>
      <trkpt lat="62.961922" lon="12.392516">
        <ele>873.79</ele>
        <time>2011-07-06T10:48:12Z</time>
      </trkpt>
      <trkpt lat="62.962078" lon="12.392208">
        <ele>872.506</ele>
        <time>2011-07-06T10:48:19Z</time>
      </trkpt>
      <trkpt lat="62.96221" lon="12.391964">
        <ele>871.757</ele>
        <time>2011-07-06T10:48:25Z</time>
      </trkpt>
      <trkpt lat="62.962385" lon="12.39163">
        <ele>871.273</ele>
        <time>2011-07-06T10:48:33Z</time>
      </trkpt>
      <trkpt lat="62.962497" lon="12.391436">
        <ele>871.995</ele>
        <time>2011-07-06T10:48:38Z</time>
      </trkpt>
      <trkpt lat="62.96262" lon="12.39122">
        <ele>872.446</ele>
        <time>2011-07-06T10:48:44Z</time>
      </trkpt>
      <trkpt lat="62.962728" lon="12.391014">
        <ele>871.64</ele>
        <time>2011-07-06T10:48:50Z</time>
      </trkpt>
      <trkpt lat="62.96285" lon="12.390887">
        <ele>869.904</ele>
        <time>2011-07-06T10:48:55Z</time>
      </trkpt>
      <trkpt lat="62.962948" lon="12.390761">
        <ele>868.907</ele>
        <time>2011-07-06T10:48:59Z</time>
      </trkpt>
      <trkpt lat="62.963063" lon="12.39057">
        <ele>868.799</ele>
        <time>2011-07-06T10:49:05Z</time>
      </trkpt>
      <trkpt lat="62.963165" lon="12.390382">
        <ele>868.757</ele>
        <time>2011-07-06T10:49:11Z</time>
      </trkpt>
      <trkpt lat="62.963263" lon="12.390207">
        <ele>868.748</ele>
        <time>2011-07-06T10:49:17Z</time>
      </trkpt>
      <trkpt lat="62.963381" lon="12.390035">
        <ele>868.599</ele>
        <time>2011-07-06T10:49:27Z</time>
      </trkpt>
      <trkpt lat="62.963464" lon="12.389937">
        <ele>868.555</ele>
        <time>2011-07-06T10:49:35Z</time>
      </trkpt>
      <trkpt lat="62.963558" lon="12.38983">
        <ele>868.36</ele>
        <time>2011-07-06T10:49:44Z</time>
      </trkpt>
      <trkpt lat="62.963628" lon="12.389687">
        <ele>867.827</ele>
        <time>2011-07-06T10:49:52Z</time>
      </trkpt>
      <trkpt lat="62.963725" lon="12.389495">
        <ele>867.784</ele>
        <time>2011-07-06T10:50:02Z</time>
      </trkpt>
      <trkpt lat="62.963803" lon="12.389351">
        <ele>867.74</ele>
        <time>2011-07-06T10:50:09Z</time>
      </trkpt>
      <trkpt lat="62.963845" lon="12.389227">
        <ele>867.814</ele>
        <time>2011-07-06T10:50:15Z</time>
      </trkpt>
      <trkpt lat="62.963883" lon="12.389127">
        <ele>867.746</ele>
        <time>2011-07-06T10:50:21Z</time>
      </trkpt>
      <trkpt lat="62.963891" lon="12.389117">
        <ele>867.807</ele>
        <time>2011-07-06T10:50:22Z</time>
      </trkpt>
      <trkpt lat="62.96391" lon="12.389109">
        <ele>867.67</ele>
        <time>2011-07-06T10:50:24Z</time>
      </trkpt>
      <trkpt lat="62.963964" lon="12.389017">
        <ele>867.239</ele>
        <time>2011-07-06T10:50:30Z</time>
      </trkpt>
      <trkpt lat="62.964003" lon="12.388983">
        <ele>867.211</ele>
        <time>2011-07-06T10:50:35Z</time>
      </trkpt>
      <trkpt lat="62.964012" lon="12.388954">
        <ele>867.455</ele>
        <time>2011-07-06T10:50:38Z</time>
      </trkpt>
      <trkpt lat="62.964055" lon="12.38887">
        <ele>869.299</ele>
        <time>2011-07-06T10:50:48Z</time>
      </trkpt>
      <trkpt lat="62.964061" lon="12.388848">
        <ele>869.282</ele>
        <time>2011-07-06T10:50:50Z</time>
      </trkpt>
      <trkpt lat="62.964097" lon="12.388772">
        <ele>869.157</ele>
        <time>2011-07-06T10:50:56Z</time>
      </trkpt>
      <trkpt lat="62.964124" lon="12.388691">
        <ele>869.186</ele>
        <time>2011-07-06T10:51:02Z</time>
      </trkpt>
      <trkpt lat="62.964152" lon="12.388596">
        <ele>868.027</ele>
        <time>2011-07-06T10:51:13Z</time>
      </trkpt>
      <trkpt lat="62.964191" lon="12.388525">
        <ele>867.257</ele>
        <time>2011-07-06T10:51:17Z</time>
      </trkpt>
      <trkpt lat="62.964232" lon="12.388506">
        <ele>867.525</ele>
        <time>2011-07-06T10:51:21Z</time>
      </trkpt>
      <trkpt lat="62.964325" lon="12.388431">
        <ele>867.425</ele>
        <time>2011-07-06T10:51:29Z</time>
      </trkpt>
      <trkpt lat="62.964406" lon="12.388326">
        <ele>867.275</ele>
        <time>2011-07-06T10:51:36Z</time>
      </trkpt>
      <trkpt lat="62.964432" lon="12.388307">
        <ele>867.288</ele>
        <time>2011-07-06T10:51:38Z</time>
      </trkpt>
      <trkpt lat="62.96455" lon="12.388159">
        <ele>867.352</ele>
        <time>2011-07-06T10:51:45Z</time>
      </trkpt>
      <trkpt lat="62.964638" lon="12.388088">
        <ele>867.912</ele>
        <time>2011-07-06T10:51:49Z</time>
      </trkpt>
      <trkpt lat="62.964755" lon="12.387837">
        <ele>868.412</ele>
        <time>2011-07-06T10:51:55Z</time>
      </trkpt>
      <trkpt lat="62.964877" lon="12.387466">
        <ele>868.981</ele>
        <time>2011-07-06T10:52:03Z</time>
      </trkpt>
      <trkpt lat="62.964962" lon="12.387192">
        <ele>868.669</ele>
        <time>2011-07-06T10:52:09Z</time>
      </trkpt>
      <trkpt lat="62.965031" lon="12.386921">
        <ele>868.05</ele>
        <time>2011-07-06T10:52:15Z</time>
      </trkpt>
      <trkpt lat="62.965041" lon="12.386871">
        <ele>867.866</ele>
        <time>2011-07-06T10:52:16Z</time>
      </trkpt>
      <trkpt lat="62.965154" lon="12.386641">
        <ele>866.714</ele>
        <time>2011-07-06T10:52:22Z</time>
      </trkpt>
      <trkpt lat="62.965191" lon="12.386555">
        <ele>866.783</ele>
        <time>2011-07-06T10:52:24Z</time>
      </trkpt>
      <trkpt lat="62.965268" lon="12.386326">
        <ele>866.604</ele>
        <time>2011-07-06T10:52:29Z</time>
      </trkpt>
      <trkpt lat="62.965398" lon="12.386092">
        <ele>867.631</ele>
        <time>2011-07-06T10:52:36Z</time>
      </trkpt>
      <trkpt lat="62.965529" lon="12.385853">
        <ele>868.566</ele>
        <time>2011-07-06T10:52:43Z</time>
      </trkpt>
      <trkpt lat="62.96567" lon="12.38567">
        <ele>868.736</ele>
        <time>2011-07-06T10:52:49Z</time>
      </trkpt>
      <trkpt lat="62.965844" lon="12.385392">
        <ele>867.987</ele>
        <time>2011-07-06T10:52:57Z</time>
      </trkpt>
      <trkpt lat="62.965962" lon="12.385091">
        <ele>867.687</ele>
        <time>2011-07-06T10:53:04Z</time>
      </trkpt>
      <trkpt lat="62.96607" lon="12.384906">
        <ele>868.81</ele>
        <time>2011-07-06T10:53:10Z</time>
      </trkpt>
      <trkpt lat="62.96622" lon="12.384667">
        <ele>868.781</ele>
        <time>2011-07-06T10:53:17Z</time>
      </trkpt>
      <trkpt lat="62.966378" lon="12.384443">
        <ele>868.899</ele>
        <time>2011-07-06T10:53:24Z</time>
      </trkpt>
      <trkpt lat="62.966535" lon="12.384188">
        <ele>868.532</ele>
        <time>2011-07-06T10:53:31Z</time>
      </trkpt>
      <trkpt lat="62.966662" lon="12.383987">
        <ele>867.807</ele>
        <time>2011-07-06T10:53:37Z</time>
      </trkpt>
      <trkpt lat="62.966707" lon="12.383854">
        <ele>866.969</ele>
        <time>2011-07-06T10:53:40Z</time>
      </trkpt>
      <trkpt lat="62.966786" lon="12.383654">
        <ele>866.646</ele>
        <time>2011-07-06T10:53:45Z</time>
      </trkpt>
      <trkpt lat="62.966826" lon="12.383586">
        <ele>866.477</ele>
        <time>2011-07-06T10:53:50Z</time>
      </trkpt>
      <trkpt lat="62.966903" lon="12.38357">
        <ele>866.473</ele>
        <time>2011-07-06T10:53:57Z</time>
      </trkpt>
      <trkpt lat="62.966998" lon="12.383473">
        <ele>866.734</ele>
        <time>2011-07-06T10:54:02Z</time>
      </trkpt>
      <trkpt lat="62.967016" lon="12.383432">
        <ele>866.654</ele>
        <time>2011-07-06T10:54:03Z</time>
      </trkpt>
      <trkpt lat="62.967129" lon="12.383234">
        <ele>866.907</ele>
        <time>2011-07-06T10:54:09Z</time>
      </trkpt>
      <trkpt lat="62.967241" lon="12.382948">
        <ele>867.279</ele>
        <time>2011-07-06T10:54:16Z</time>
      </trkpt>
      <trkpt lat="62.967344" lon="12.382764">
        <ele>867.594</ele>
        <time>2011-07-06T10:54:22Z</time>
      </trkpt>
      <trkpt lat="62.967379" lon="12.382705">
        <ele>868.067</ele>
        <time>2011-07-06T10:54:24Z</time>
      </trkpt>
      <trkpt lat="62.967426" lon="12.382602">
        <ele>868.596</ele>
        <time>2011-07-06T10:54:27Z</time>
      </trkpt>
      <trkpt lat="62.967524" lon="12.382282">
        <ele>868.864</ele>
        <time>2011-07-06T10:54:34Z</time>
      </trkpt>
      <trkpt lat="62.967613" lon="12.382072">
        <ele>870.098</ele>
        <time>2011-07-06T10:54:40Z</time>
      </trkpt>
      <trkpt lat="62.967754" lon="12.381807">
        <ele>871.356</ele>
        <time>2011-07-06T10:54:48Z</time>
      </trkpt>
      <trkpt lat="62.967877" lon="12.381515">
        <ele>871.126</ele>
        <time>2011-07-06T10:54:55Z</time>
      </trkpt>
      <trkpt lat="62.967992" lon="12.381317">
        <ele>870.733</ele>
        <time>2011-07-06T10:55:00Z</time>
      </trkpt>
      <trkpt lat="62.968111" lon="12.381056">
        <ele>871.174</ele>
        <time>2011-07-06T10:55:06Z</time>
      </trkpt>
      <trkpt lat="62.968226" lon="12.380819">
        <ele>871.533</ele>
        <time>2011-07-06T10:55:12Z</time>
      </trkpt>
      <trkpt lat="62.968381" lon="12.380555">
        <ele>870.955</ele>
        <time>2011-07-06T10:55:19Z</time>
      </trkpt>
      <trkpt lat="62.968515" lon="12.380229">
        <ele>870.519</ele>
        <time>2011-07-06T10:55:26Z</time>
      </trkpt>
      <trkpt lat="62.968647" lon="12.380005">
        <ele>870.544</ele>
        <time>2011-07-06T10:55:32Z</time>
      </trkpt>
      <trkpt lat="62.968788" lon="12.37979">
        <ele>870.095</ele>
        <time>2011-07-06T10:55:38Z</time>
      </trkpt>
      <trkpt lat="62.968926" lon="12.379573">
        <ele>869.628</ele>
        <time>2011-07-06T10:55:44Z</time>
      </trkpt>
      <trkpt lat="62.969072" lon="12.37928">
        <ele>869.347</ele>
        <time>2011-07-06T10:55:51Z</time>
      </trkpt>
      <trkpt lat="62.969216" lon="12.379106">
        <ele>869.302</ele>
        <time>2011-07-06T10:55:57Z</time>
      </trkpt>
      <trkpt lat="62.969347" lon="12.378957">
        <ele>869.827</ele>
        <time>2011-07-06T10:56:03Z</time>
      </trkpt>
      <trkpt lat="62.969471" lon="12.378816">
        <ele>870.014</ele>
        <time>2011-07-06T10:56:08Z</time>
      </trkpt>
      <trkpt lat="62.969579" lon="12.378542">
        <ele>870.426</ele>
        <time>2011-07-06T10:56:15Z</time>
      </trkpt>
      <trkpt lat="62.969612" lon="12.378324">
        <ele>870.007</ele>
        <time>2011-07-06T10:56:20Z</time>
      </trkpt>
      <trkpt lat="62.969644" lon="12.378117">
        <ele>868.894</ele>
        <time>2011-07-06T10:56:25Z</time>
      </trkpt>
      <trkpt lat="62.969646" lon="12.378099">
        <ele>868.842</ele>
        <time>2011-07-06T10:56:27Z</time>
      </trkpt>
      <trkpt lat="62.969654" lon="12.377916">
        <ele>868.588</ele>
        <time>2011-07-06T10:56:48Z</time>
      </trkpt>
      <trkpt lat="62.969702" lon="12.377756">
        <ele>868.548</ele>
        <time>2011-07-06T10:56:55Z</time>
      </trkpt>
      <trkpt lat="62.969759" lon="12.377647">
        <ele>869.189</ele>
        <time>2011-07-06T10:57:01Z</time>
      </trkpt>
      <trkpt lat="62.969849" lon="12.377536">
        <ele>869.402</ele>
        <time>2011-07-06T10:57:08Z</time>
      </trkpt>
      <trkpt lat="62.969919" lon="12.377336">
        <ele>869.538</ele>
        <time>2011-07-06T10:57:16Z</time>
      </trkpt>
      <trkpt lat="62.970001" lon="12.377202">
        <ele>869.686</ele>
        <time>2011-07-06T10:57:23Z</time>
      </trkpt>
      <trkpt lat="62.970085" lon="12.377131">
        <ele>869.683</ele>
        <time>2011-07-06T10:57:27Z</time>
      </trkpt>
      <trkpt lat="62.970146" lon="12.377051">
        <ele>870.317</ele>
        <time>2011-07-06T10:57:32Z</time>
      </trkpt>
      <trkpt lat="62.97021" lon="12.376921">
        <ele>869.581</ele>
        <time>2011-07-06T10:57:39Z</time>
      </trkpt>
      <trkpt lat="62.970264" lon="12.376776">
        <ele>868.64</ele>
        <time>2011-07-06T10:57:44Z</time>
      </trkpt>
      <trkpt lat="62.970374" lon="12.376538">
        <ele>866.99</ele>
        <time>2011-07-06T10:57:50Z</time>
      </trkpt>
      <trkpt lat="62.970458" lon="12.376359">
        <ele>866.763</ele>
        <time>2011-07-06T10:57:55Z</time>
      </trkpt>
      <trkpt lat="62.970502" lon="12.376288">
        <ele>866.348</ele>
        <time>2011-07-06T10:57:58Z</time>
      </trkpt>
      <trkpt lat="62.97053" lon="12.376189">
        <ele>865.95</ele>
        <time>2011-07-06T10:58:02Z</time>
      </trkpt>
      <trkpt lat="62.970557" lon="12.375998">
        <ele>864.813</ele>
        <time>2011-07-06T10:58:10Z</time>
      </trkpt>
      <trkpt lat="62.970574" lon="12.37583">
        <ele>863.204</ele>
        <time>2011-07-06T10:58:17Z</time>
      </trkpt>
      <trkpt lat="62.970567" lon="12.375628">
        <ele>862.393</ele>
        <time>2011-07-06T10:58:24Z</time>
      </trkpt>
      <trkpt lat="62.970531" lon="12.37544">
        <ele>861.632</ele>
        <time>2011-07-06T10:58:29Z</time>
      </trkpt>
      <trkpt lat="62.970505" lon="12.375345">
        <ele>861.376</ele>
        <time>2011-07-06T10:58:31Z</time>
      </trkpt>
      <trkpt lat="62.97048" lon="12.375212">
        <ele>861.009</ele>
        <time>2011-07-06T10:58:36Z</time>
      </trkpt>
      <trkpt lat="62.970432" lon="12.375154">
        <ele>860.865</ele>
        <time>2011-07-06T10:58:42Z</time>
      </trkpt>
      <trkpt lat="62.970501" lon="12.375224">
        <ele>860.697</ele>
        <time>2011-07-06T10:59:07Z</time>
      </trkpt>
      <trkpt lat="62.970517" lon="12.375305">
        <ele>860.708</ele>
        <time>2011-07-06T10:59:09Z</time>
      </trkpt>
      <trkpt lat="62.970579" lon="12.375401">
        <ele>861.446</ele>
        <time>2011-07-06T10:59:15Z</time>
      </trkpt>
      <trkpt lat="62.970618" lon="12.375301">
        <ele>861.617</ele>
        <time>2011-07-06T10:59:20Z</time>
      </trkpt>
      <trkpt lat="62.970623" lon="12.375251">
        <ele>861.053</ele>
        <time>2011-07-06T10:59:24Z</time>
      </trkpt>
      <trkpt lat="62.970649" lon="12.375151">
        <ele>860.985</ele>
        <time>2011-07-06T10:59:29Z</time>
      </trkpt>
      <trkpt lat="62.970665" lon="12.374985">
        <ele>861.099</ele>
        <time>2011-07-06T10:59:36Z</time>
      </trkpt>
      <trkpt lat="62.970657" lon="12.37477">
        <ele>861.22</ele>
        <time>2011-07-06T10:59:45Z</time>
      </trkpt>
      <trkpt lat="62.970633" lon="12.37469">
        <ele>861.171</ele>
        <time>2011-07-06T10:59:51Z</time>
      </trkpt>
      <trkpt lat="62.970649" lon="12.374648">
        <ele>860.471</ele>
        <time>2011-07-06T10:59:58Z</time>
      </trkpt>
      <trkpt lat="62.970677" lon="12.374599">
        <ele>860.403</ele>
        <time>2011-07-06T11:00:02Z</time>
      </trkpt>
      <trkpt lat="62.970705" lon="12.37446">
        <ele>860.077</ele>
        <time>2011-07-06T11:00:08Z</time>
      </trkpt>
      <trkpt lat="62.970755" lon="12.374247">
        <ele>860.437</ele>
        <time>2011-07-06T11:00:13Z</time>
      </trkpt>
      <trkpt lat="62.970784" lon="12.374163">
        <ele>860.662</ele>
        <time>2011-07-06T11:00:15Z</time>
      </trkpt>
      <trkpt lat="62.970862" lon="12.373913">
        <ele>861.103</ele>
        <time>2011-07-06T11:00:21Z</time>
      </trkpt>
      <trkpt lat="62.970987" lon="12.373688">
        <ele>861.271</ele>
        <time>2011-07-06T11:00:27Z</time>
      </trkpt>
      <trkpt lat="62.97113" lon="12.37348">
        <ele>861.406</ele>
        <time>2011-07-06T11:00:35Z</time>
      </trkpt>
      <trkpt lat="62.971161" lon="12.373419">
        <ele>861.289</ele>
        <time>2011-07-06T11:00:39Z</time>
      </trkpt>
      <trkpt lat="62.971215" lon="12.373331">
        <ele>861.093</ele>
        <time>2011-07-06T11:00:46Z</time>
      </trkpt>
      <trkpt lat="62.971266" lon="12.37325">
        <ele>861.072</ele>
        <time>2011-07-06T11:00:56Z</time>
      </trkpt>
      <trkpt lat="62.971345" lon="12.373071">
        <ele>860.444</ele>
        <time>2011-07-06T11:01:01Z</time>
      </trkpt>
      <trkpt lat="62.971402" lon="12.372945">
        <ele>860.222</ele>
        <time>2011-07-06T11:01:04Z</time>
      </trkpt>
      <trkpt lat="62.971461" lon="12.37276">
        <ele>859.693</ele>
        <time>2011-07-06T11:01:10Z</time>
      </trkpt>
      <trkpt lat="62.971463" lon="12.372748">
        <ele>859.502</ele>
        <time>2011-07-06T11:01:11Z</time>
      </trkpt>
      <trkpt lat="62.971496" lon="12.372694">
        <ele>859.526</ele>
        <time>2011-07-06T11:01:15Z</time>
      </trkpt>
      <trkpt lat="62.971517" lon="12.372542">
        <ele>859.63</ele>
        <time>2011-07-06T11:01:20Z</time>
      </trkpt>
      <trkpt lat="62.971595" lon="12.37232">
        <ele>859.622</ele>
        <time>2011-07-06T11:01:26Z</time>
      </trkpt>
      <trkpt lat="62.9716" lon="12.372272">
        <ele>859.562</ele>
        <time>2011-07-06T11:01:27Z</time>
      </trkpt>
      <trkpt lat="62.971663" lon="12.372117">
        <ele>859.282</ele>
        <time>2011-07-06T11:01:31Z</time>
      </trkpt>
      <trkpt lat="62.971804" lon="12.371974">
        <ele>859.527</ele>
        <time>2011-07-06T11:01:38Z</time>
      </trkpt>
      <trkpt lat="62.971921" lon="12.371919">
        <ele>859.403</ele>
        <time>2011-07-06T11:01:44Z</time>
      </trkpt>
      <trkpt lat="62.971967" lon="12.371889">
        <ele>858.782</ele>
        <time>2011-07-06T11:01:48Z</time>
      </trkpt>
      <trkpt lat="62.971975" lon="12.371888">
        <ele>858.789</ele>
        <time>2011-07-06T11:01:49Z</time>
      </trkpt>
      <trkpt lat="62.972024" lon="12.371792">
        <ele>860.103</ele>
        <time>2011-07-06T11:01:55Z</time>
      </trkpt>
      <trkpt lat="62.972061" lon="12.371735">
        <ele>860.194</ele>
        <time>2011-07-06T11:01:57Z</time>
      </trkpt>
      <trkpt lat="62.972221" lon="12.3716">
        <ele>860.685</ele>
        <time>2011-07-06T11:02:04Z</time>
      </trkpt>
      <trkpt lat="62.97231" lon="12.371507">
        <ele>860.441</ele>
        <time>2011-07-06T11:02:08Z</time>
      </trkpt>
      <trkpt lat="62.972329" lon="12.371474">
        <ele>860.497</ele>
        <time>2011-07-06T11:02:09Z</time>
      </trkpt>
      <trkpt lat="62.972477" lon="12.371157">
        <ele>861.956</ele>
        <time>2011-07-06T11:02:17Z</time>
      </trkpt>
      <trkpt lat="62.972615" lon="12.370896">
        <ele>862.353</ele>
        <time>2011-07-06T11:02:24Z</time>
      </trkpt>
      <trkpt lat="62.972726" lon="12.370711">
        <ele>861.911</ele>
        <time>2011-07-06T11:02:29Z</time>
      </trkpt>
      <trkpt lat="62.972831" lon="12.370552">
        <ele>861.775</ele>
        <time>2011-07-06T11:02:34Z</time>
      </trkpt>
      <trkpt lat="62.972947" lon="12.370393">
        <ele>860.958</ele>
        <time>2011-07-06T11:02:39Z</time>
      </trkpt>
      <trkpt lat="62.973086" lon="12.370243">
        <ele>860.852</ele>
        <time>2011-07-06T11:02:45Z</time>
      </trkpt>
      <trkpt lat="62.973265" lon="12.370023">
        <ele>860.134</ele>
        <time>2011-07-06T11:02:53Z</time>
      </trkpt>
      <trkpt lat="62.973371" lon="12.369836">
        <ele>858.886</ele>
        <time>2011-07-06T11:02:58Z</time>
      </trkpt>
      <trkpt lat="62.973485" lon="12.369658">
        <ele>858.215</ele>
        <time>2011-07-06T11:03:03Z</time>
      </trkpt>
      <trkpt lat="62.973582" lon="12.369426">
        <ele>858.05</ele>
        <time>2011-07-06T11:03:09Z</time>
      </trkpt>
      <trkpt lat="62.97369" lon="12.369164">
        <ele>858.009</ele>
        <time>2011-07-06T11:03:15Z</time>
      </trkpt>
      <trkpt lat="62.973829" lon="12.368961">
        <ele>858.002</ele>
        <time>2011-07-06T11:03:21Z</time>
      </trkpt>
      <trkpt lat="62.973922" lon="12.368803">
        <ele>858.536</ele>
        <time>2011-07-06T11:03:27Z</time>
      </trkpt>
      <trkpt lat="62.973924" lon="12.368774">
        <ele>858.694</ele>
        <time>2011-07-06T11:03:29Z</time>
      </trkpt>
      <trkpt lat="62.973927" lon="12.368674">
        <ele>859.064</ele>
        <time>2011-07-06T11:03:33Z</time>
      </trkpt>
      <trkpt lat="62.973957" lon="12.368595">
        <ele>859.407</ele>
        <time>2011-07-06T11:03:37Z</time>
      </trkpt>
      <trkpt lat="62.97398" lon="12.36859">
        <ele>859.866</ele>
        <time>2011-07-06T11:03:41Z</time>
      </trkpt>
      <trkpt lat="62.973931" lon="12.368781">
        <ele>858.79</ele>
        <time>2011-07-06T11:03:52Z</time>
      </trkpt>
      <trkpt lat="62.974032" lon="12.368766">
        <ele>858.829</ele>
        <time>2011-07-06T11:03:56Z</time>
      </trkpt>
      <trkpt lat="62.974108" lon="12.368739">
        <ele>859.307</ele>
        <time>2011-07-06T11:03:59Z</time>
      </trkpt>
      <trkpt lat="62.974089" lon="12.368643">
        <ele>860.038</ele>
        <time>2011-07-06T11:04:03Z</time>
      </trkpt>
      <trkpt lat="62.974004" lon="12.368582">
        <ele>859.655</ele>
        <time>2011-07-06T11:04:07Z</time>
      </trkpt>
      <trkpt lat="62.973974" lon="12.368595">
        <ele>859.825</ele>
        <time>2011-07-06T11:04:11Z</time>
      </trkpt>
      <trkpt lat="62.973902" lon="12.368675">
        <ele>859.318</ele>
        <time>2011-07-06T11:04:25Z</time>
      </trkpt>
      <trkpt lat="62.973822" lon="12.368776">
        <ele>858.525</ele>
        <time>2011-07-06T11:04:28Z</time>
      </trkpt>
      <trkpt lat="62.973759" lon="12.368991">
        <ele>857.623</ele>
        <time>2011-07-06T11:04:33Z</time>
      </trkpt>
      <trkpt lat="62.973707" lon="12.36905">
        <ele>857.651</ele>
        <time>2011-07-06T11:04:37Z</time>
      </trkpt>
      <trkpt lat="62.973835" lon="12.36887">
        <ele>857.564</ele>
        <time>2011-07-06T11:04:43Z</time>
      </trkpt>
      <trkpt lat="62.973969" lon="12.368742">
        <ele>858.443</ele>
        <time>2011-07-06T11:04:48Z</time>
      </trkpt>
      <trkpt lat="62.974055" lon="12.368737">
        <ele>858.87</ele>
        <time>2011-07-06T11:04:51Z</time>
      </trkpt>
      <trkpt lat="62.974085" lon="12.368711">
        <ele>859.257</ele>
        <time>2011-07-06T11:04:53Z</time>
      </trkpt>
      <trkpt lat="62.974007" lon="12.3686">
        <ele>859.254</ele>
        <time>2011-07-06T11:04:58Z</time>
      </trkpt>
      <trkpt lat="62.973987" lon="12.368598">
        <ele>859.752</ele>
        <time>2011-07-06T11:05:01Z</time>
      </trkpt>
      <trkpt lat="62.974008" lon="12.368608">
        <ele>859.878</ele>
        <time>2011-07-06T11:05:03Z</time>
      </trkpt>
      <trkpt lat="62.974074" lon="12.3687">
        <ele>859.549</ele>
        <time>2011-07-06T11:05:10Z</time>
      </trkpt>
      <trkpt lat="62.974077" lon="12.368697">
        <ele>859.488</ele>
        <time>2011-07-06T11:05:11Z</time>
      </trkpt>
      <trkpt lat="62.974109" lon="12.368689">
        <ele>859.573</ele>
        <time>2011-07-06T11:05:27Z</time>
      </trkpt>
      <trkpt lat="62.974181" lon="12.368662">
        <ele>860.257</ele>
        <time>2011-07-06T11:05:36Z</time>
      </trkpt>
      <trkpt lat="62.974246" lon="12.368668">
        <ele>860.535</ele>
        <time>2011-07-06T11:05:40Z</time>
      </trkpt>
      <trkpt lat="62.974263" lon="12.368685">
        <ele>860.605</ele>
        <time>2011-07-06T11:05:43Z</time>
      </trkpt>
      <trkpt lat="62.974268" lon="12.368677">
        <ele>860.489</ele>
        <time>2011-07-06T11:05:51Z</time>
      </trkpt>
      <trkpt lat="62.974261" lon="12.36868">
        <ele>860.444</ele>
        <time>2011-07-06T11:05:53Z</time>
      </trkpt>
      <trkpt lat="62.974315" lon="12.368676">
        <ele>860.155</ele>
        <time>2011-07-06T11:06:08Z</time>
      </trkpt>
      <trkpt lat="62.974434" lon="12.368729">
        <ele>860.375</ele>
        <time>2011-07-06T11:06:13Z</time>
      </trkpt>
      <trkpt lat="62.974552" lon="12.368768">
        <ele>860.974</ele>
        <time>2011-07-06T11:06:18Z</time>
      </trkpt>
      <trkpt lat="62.974703" lon="12.368811">
        <ele>859.505</ele>
        <time>2011-07-06T11:06:24Z</time>
      </trkpt>
      <trkpt lat="62.974859" lon="12.368916">
        <ele>859.136</ele>
        <time>2011-07-06T11:06:30Z</time>
      </trkpt>
      <trkpt lat="62.97491" lon="12.368914">
        <ele>859.083</ele>
        <time>2011-07-06T11:06:32Z</time>
      </trkpt>
      <trkpt lat="62.975068" lon="12.368686">
        <ele>859.287</ele>
        <time>2011-07-06T11:06:39Z</time>
      </trkpt>
      <trkpt lat="62.975206" lon="12.368601">
        <ele>858.892</ele>
        <time>2011-07-06T11:06:44Z</time>
      </trkpt>
      <trkpt lat="62.97538" lon="12.368386">
        <ele>857.707</ele>
        <time>2011-07-06T11:06:51Z</time>
      </trkpt>
      <trkpt lat="62.975484" lon="12.368205">
        <ele>857.274</ele>
        <time>2011-07-06T11:06:56Z</time>
      </trkpt>
      <trkpt lat="62.9756" lon="12.368083">
        <ele>857.031</ele>
        <time>2011-07-06T11:07:02Z</time>
      </trkpt>
      <trkpt lat="62.975697" lon="12.367879">
        <ele>855.768</ele>
        <time>2011-07-06T11:07:07Z</time>
      </trkpt>
      <trkpt lat="62.975789" lon="12.367709">
        <ele>854.766</ele>
        <time>2011-07-06T11:07:12Z</time>
      </trkpt>
      <trkpt lat="62.97581" lon="12.367679">
        <ele>854.333</ele>
        <time>2011-07-06T11:07:13Z</time>
      </trkpt>
      <trkpt lat="62.975883" lon="12.367553">
        <ele>853.686</ele>
        <time>2011-07-06T11:07:17Z</time>
      </trkpt>
      <trkpt lat="62.97598" lon="12.367363">
        <ele>853.505</ele>
        <time>2011-07-06T11:07:22Z</time>
      </trkpt>
      <trkpt lat="62.976111" lon="12.367148">
        <ele>853.614</ele>
        <time>2011-07-06T11:07:28Z</time>
      </trkpt>
      <trkpt lat="62.976211" lon="12.366954">
        <ele>853.933</ele>
        <time>2011-07-06T11:07:33Z</time>
      </trkpt>
      <trkpt lat="62.976293" lon="12.36681">
        <ele>854.556</ele>
        <time>2011-07-06T11:07:37Z</time>
      </trkpt>
      <trkpt lat="62.976468" lon="12.366806">
        <ele>854.516</ele>
        <time>2011-07-06T11:07:44Z</time>
      </trkpt>
      <trkpt lat="62.976556" lon="12.366747">
        <ele>854.171</ele>
        <time>2011-07-06T11:07:48Z</time>
      </trkpt>
      <trkpt lat="62.976626" lon="12.366677">
        <ele>852.838</ele>
        <time>2011-07-06T11:07:52Z</time>
      </trkpt>
      <trkpt lat="62.976749" lon="12.36658">
        <ele>851.805</ele>
        <time>2011-07-06T11:07:57Z</time>
      </trkpt>
      <trkpt lat="62.976848" lon="12.366572">
        <ele>851.841</ele>
        <time>2011-07-06T11:08:02Z</time>
      </trkpt>
      <trkpt lat="62.976882" lon="12.366586">
        <ele>852.091</ele>
        <time>2011-07-06T11:08:04Z</time>
      </trkpt>
      <trkpt lat="62.977013" lon="12.366453">
        <ele>853.767</ele>
        <time>2011-07-06T11:08:11Z</time>
      </trkpt>
      <trkpt lat="62.977135" lon="12.366317">
        <ele>854.258</ele>
        <time>2011-07-06T11:08:17Z</time>
      </trkpt>
      <trkpt lat="62.97727" lon="12.366171">
        <ele>854.721</ele>
        <time>2011-07-06T11:08:23Z</time>
      </trkpt>
      <trkpt lat="62.977381" lon="12.366048">
        <ele>854.82</ele>
        <time>2011-07-06T11:08:28Z</time>
      </trkpt>
      <trkpt lat="62.977482" lon="12.365938">
        <ele>854.842</ele>
        <time>2011-07-06T11:08:33Z</time>
      </trkpt>
      <trkpt lat="62.977611" lon="12.365754">
        <ele>854.398</ele>
        <time>2011-07-06T11:08:39Z</time>
      </trkpt>
      <trkpt lat="62.977749" lon="12.36541">
        <ele>854.516</ele>
        <time>2011-07-06T11:08:47Z</time>
      </trkpt>
      <trkpt lat="62.977808" lon="12.36514">
        <ele>854.294</ele>
        <time>2011-07-06T11:08:52Z</time>
      </trkpt>
      <trkpt lat="62.977894" lon="12.365084">
        <ele>855.287</ele>
        <time>2011-07-06T11:09:00Z</time>
      </trkpt>
      <trkpt lat="62.978" lon="12.365074">
        <ele>855.483</ele>
        <time>2011-07-06T11:09:08Z</time>
      </trkpt>
      <trkpt lat="62.978101" lon="12.36508">
        <ele>855.292</ele>
        <time>2011-07-06T11:09:16Z</time>
      </trkpt>
      <trkpt lat="62.978165" lon="12.365075">
        <ele>855.334</ele>
        <time>2011-07-06T11:09:22Z</time>
      </trkpt>
      <trkpt lat="62.978284" lon="12.365031">
        <ele>855.469</ele>
        <time>2011-07-06T11:09:31Z</time>
      </trkpt>
      <trkpt lat="62.978323" lon="12.364977">
        <ele>855.599</ele>
        <time>2011-07-06T11:09:35Z</time>
      </trkpt>
      <trkpt lat="62.978377" lon="12.364922">
        <ele>856.196</ele>
        <time>2011-07-06T11:09:41Z</time>
      </trkpt>
      <trkpt lat="62.978419" lon="12.364805">
        <ele>857.477</ele>
        <time>2011-07-06T11:09:47Z</time>
      </trkpt>
      <trkpt lat="62.978521" lon="12.364703">
        <ele>856.145</ele>
        <time>2011-07-06T11:09:54Z</time>
      </trkpt>
      <trkpt lat="62.978649" lon="12.364662">
        <ele>855.18</ele>
        <time>2011-07-06T11:09:59Z</time>
      </trkpt>
      <trkpt lat="62.978864" lon="12.3645">
        <ele>854.292</ele>
        <time>2011-07-06T11:10:07Z</time>
      </trkpt>
      <trkpt lat="62.978994" lon="12.36442">
        <ele>854.264</ele>
        <time>2011-07-06T11:10:12Z</time>
      </trkpt>
      <trkpt lat="62.979145" lon="12.364399">
        <ele>854.345</ele>
        <time>2011-07-06T11:10:18Z</time>
      </trkpt>
      <trkpt lat="62.97917" lon="12.364408">
        <ele>854.206</ele>
        <time>2011-07-06T11:10:19Z</time>
      </trkpt>
      <trkpt lat="62.979315" lon="12.364355">
        <ele>852.969</ele>
        <time>2011-07-06T11:10:25Z</time>
      </trkpt>
      <trkpt lat="62.979488" lon="12.364285">
        <ele>852.024</ele>
        <time>2011-07-06T11:10:32Z</time>
      </trkpt>
      <trkpt lat="62.97953" lon="12.3643">
        <ele>851.686</ele>
        <time>2011-07-06T11:10:34Z</time>
      </trkpt>
      <trkpt lat="62.979601" lon="12.36427">
        <ele>851.236</ele>
        <time>2011-07-06T11:10:39Z</time>
      </trkpt>
      <trkpt lat="62.979631" lon="12.364233">
        <ele>850.787</ele>
        <time>2011-07-06T11:10:42Z</time>
      </trkpt>
      <trkpt lat="62.979675" lon="12.36419">
        <ele>849.705</ele>
        <time>2011-07-06T11:10:48Z</time>
      </trkpt>
      <trkpt lat="62.979678" lon="12.364156">
        <ele>848.931</ele>
        <time>2011-07-06T11:10:51Z</time>
      </trkpt>
      <trkpt lat="62.979722" lon="12.364024">
        <ele>848.755</ele>
        <time>2011-07-06T11:11:32Z</time>
      </trkpt>
      <trkpt lat="62.979733" lon="12.364031">
        <ele>848.791</ele>
        <time>2011-07-06T11:11:33Z</time>
      </trkpt>
      <trkpt lat="62.97982" lon="12.364049">
        <ele>849.647</ele>
        <time>2011-07-06T11:11:41Z</time>
      </trkpt>
      <trkpt lat="62.979919" lon="12.364025">
        <ele>850.168</ele>
        <time>2011-07-06T11:11:48Z</time>
      </trkpt>
      <trkpt lat="62.980045" lon="12.363978">
        <ele>850.124</ele>
        <time>2011-07-06T11:11:54Z</time>
      </trkpt>
      <trkpt lat="62.980179" lon="12.363896">
        <ele>850.566</ele>
        <time>2011-07-06T11:12:00Z</time>
      </trkpt>
      <trkpt lat="62.980291" lon="12.363795">
        <ele>849.942</ele>
        <time>2011-07-06T11:12:05Z</time>
      </trkpt>
      <trkpt lat="62.980418" lon="12.363663">
        <ele>850.241</ele>
        <time>2011-07-06T11:12:11Z</time>
      </trkpt>
      <trkpt lat="62.980578" lon="12.363601">
        <ele>850.843</ele>
        <time>2011-07-06T11:12:18Z</time>
      </trkpt>
      <trkpt lat="62.980698" lon="12.363514">
        <ele>850.247</ele>
        <time>2011-07-06T11:12:23Z</time>
      </trkpt>
      <trkpt lat="62.980847" lon="12.363463">
        <ele>848.948</ele>
        <time>2011-07-06T11:12:29Z</time>
      </trkpt>
      <trkpt lat="62.981007" lon="12.363406">
        <ele>847.934</ele>
        <time>2011-07-06T11:12:35Z</time>
      </trkpt>
      <trkpt lat="62.98113" lon="12.363466">
        <ele>847.73</ele>
        <time>2011-07-06T11:12:40Z</time>
      </trkpt>
      <trkpt lat="62.98121" lon="12.363494">
        <ele>847.757</ele>
        <time>2011-07-06T11:12:45Z</time>
      </trkpt>
      <trkpt lat="62.981315" lon="12.363524">
        <ele>848.179</ele>
        <time>2011-07-06T11:12:54Z</time>
      </trkpt>
      <trkpt lat="62.981421" lon="12.363558">
        <ele>847.512</ele>
        <time>2011-07-06T11:13:01Z</time>
      </trkpt>
      <trkpt lat="62.981476" lon="12.363659">
        <ele>847.243</ele>
        <time>2011-07-06T11:13:04Z</time>
      </trkpt>
      <trkpt lat="62.981581" lon="12.363748">
        <ele>847.067</ele>
        <time>2011-07-06T11:13:09Z</time>
      </trkpt>
      <trkpt lat="62.98168" lon="12.363738">
        <ele>847.027</ele>
        <time>2011-07-06T11:13:13Z</time>
      </trkpt>
      <trkpt lat="62.981752" lon="12.363718">
        <ele>847.225</ele>
        <time>2011-07-06T11:13:16Z</time>
      </trkpt>
      <trkpt lat="62.981902" lon="12.363693">
        <ele>848.012</ele>
        <time>2011-07-06T11:13:22Z</time>
      </trkpt>
      <trkpt lat="62.982036" lon="12.363632">
        <ele>848.495</ele>
        <time>2011-07-06T11:13:27Z</time>
      </trkpt>
      <trkpt lat="62.982084" lon="12.363604">
        <ele>848.769</ele>
        <time>2011-07-06T11:13:29Z</time>
      </trkpt>
      <trkpt lat="62.982169" lon="12.363504">
        <ele>849.244</ele>
        <time>2011-07-06T11:13:33Z</time>
      </trkpt>
      <trkpt lat="62.982303" lon="12.363435">
        <ele>849.957</ele>
        <time>2011-07-06T11:13:39Z</time>
      </trkpt>
      <trkpt lat="62.982418" lon="12.363273">
        <ele>850.198</ele>
        <time>2011-07-06T11:13:45Z</time>
      </trkpt>
      <trkpt lat="62.982456" lon="12.363253">
        <ele>850.233</ele>
        <time>2011-07-06T11:13:47Z</time>
      </trkpt>
      <trkpt lat="62.982577" lon="12.363325">
        <ele>851.023</ele>
        <time>2011-07-06T11:13:56Z</time>
      </trkpt>
      <trkpt lat="62.98266" lon="12.363404">
        <ele>850.821</ele>
        <time>2011-07-06T11:14:03Z</time>
      </trkpt>
      <trkpt lat="62.982754" lon="12.363543">
        <ele>850.573</ele>
        <time>2011-07-06T11:14:11Z</time>
      </trkpt>
      <trkpt lat="62.98284" lon="12.363683">
        <ele>850.317</ele>
        <time>2011-07-06T11:14:17Z</time>
      </trkpt>
      <trkpt lat="62.983018" lon="12.363793">
        <ele>849.868</ele>
        <time>2011-07-06T11:14:24Z</time>
      </trkpt>
      <trkpt lat="62.983172" lon="12.363796">
        <ele>849.977</ele>
        <time>2011-07-06T11:14:30Z</time>
      </trkpt>
      <trkpt lat="62.983301" lon="12.363664">
        <ele>851.04</ele>
        <time>2011-07-06T11:14:36Z</time>
      </trkpt>
      <trkpt lat="62.983351" lon="12.36347">
        <ele>851.104</ele>
        <time>2011-07-06T11:14:41Z</time>
      </trkpt>
      <trkpt lat="62.983413" lon="12.363353">
        <ele>852.037</ele>
        <time>2011-07-06T11:14:47Z</time>
      </trkpt>
      <trkpt lat="62.983494" lon="12.363143">
        <ele>852.753</ele>
        <time>2011-07-06T11:14:57Z</time>
      </trkpt>
      <trkpt lat="62.983568" lon="12.362948">
        <ele>851.728</ele>
        <time>2011-07-06T11:15:03Z</time>
      </trkpt>
      <trkpt lat="62.983637" lon="12.362789">
        <ele>851.135</ele>
        <time>2011-07-06T11:15:07Z</time>
      </trkpt>
      <trkpt lat="62.983656" lon="12.362586">
        <ele>850.482</ele>
        <time>2011-07-06T11:15:12Z</time>
      </trkpt>
      <trkpt lat="62.983671" lon="12.36244">
        <ele>851.12</ele>
        <time>2011-07-06T11:15:17Z</time>
      </trkpt>
      <trkpt lat="62.98367" lon="12.3623">
        <ele>850.938</ele>
        <time>2011-07-06T11:15:21Z</time>
      </trkpt>
      <trkpt lat="62.983711" lon="12.36218">
        <ele>852.297</ele>
        <time>2011-07-06T11:15:27Z</time>
      </trkpt>
      <trkpt lat="62.983736" lon="12.362039">
        <ele>853.924</ele>
        <time>2011-07-06T11:15:35Z</time>
      </trkpt>
      <trkpt lat="62.983744" lon="12.361969">
        <ele>854.825</ele>
        <time>2011-07-06T11:15:40Z</time>
      </trkpt>
      <trkpt lat="62.983746" lon="12.361954">
        <ele>855.171</ele>
        <time>2011-07-06T11:15:42Z</time>
      </trkpt>
      <trkpt lat="62.983762" lon="12.361868">
        <ele>855.4</ele>
        <time>2011-07-06T11:15:52Z</time>
      </trkpt>
      <trkpt lat="62.983763" lon="12.361863">
        <ele>855.436</ele>
        <time>2011-07-06T11:15:53Z</time>
      </trkpt>
      <trkpt lat="62.983801" lon="12.361768">
        <ele>855.198</ele>
        <time>2011-07-06T11:16:40Z</time>
      </trkpt>
      <trkpt lat="62.983862" lon="12.361675">
        <ele>854.714</ele>
        <time>2011-07-06T11:16:49Z</time>
      </trkpt>
      <trkpt lat="62.983943" lon="12.361549">
        <ele>853.872</ele>
        <time>2011-07-06T11:16:58Z</time>
      </trkpt>
      <trkpt lat="62.983976" lon="12.361443">
        <ele>852.848</ele>
        <time>2011-07-06T11:17:03Z</time>
      </trkpt>
      <trkpt lat="62.984001" lon="12.361275">
        <ele>850.401</ele>
        <time>2011-07-06T11:17:09Z</time>
      </trkpt>
      <trkpt lat="62.984003" lon="12.361249">
        <ele>849.97</ele>
        <time>2011-07-06T11:17:10Z</time>
      </trkpt>
      <trkpt lat="62.984011" lon="12.361182">
        <ele>849.509</ele>
        <time>2011-07-06T11:17:12Z</time>
      </trkpt>
      <trkpt lat="62.98418" lon="12.360819">
        <ele>848.122</ele>
        <time>2011-07-06T11:17:22Z</time>
      </trkpt>
      <trkpt lat="62.984265" lon="12.360834">
        <ele>848.517</ele>
        <time>2011-07-06T11:17:29Z</time>
      </trkpt>
      <trkpt lat="62.984368" lon="12.360851">
        <ele>848.48</ele>
        <time>2011-07-06T11:17:34Z</time>
      </trkpt>
      <trkpt lat="62.984485" lon="12.360963">
        <ele>848.404</ele>
        <time>2011-07-06T11:17:39Z</time>
      </trkpt>
      <trkpt lat="62.984622" lon="12.360942">
        <ele>847.706</ele>
        <time>2011-07-06T11:17:44Z</time>
      </trkpt>
      <trkpt lat="62.984847" lon="12.36095">
        <ele>847.483</ele>
        <time>2011-07-06T11:17:52Z</time>
      </trkpt>
      <trkpt lat="62.98502" lon="12.360843">
        <ele>847.508</ele>
        <time>2011-07-06T11:17:59Z</time>
      </trkpt>
      <trkpt lat="62.985212" lon="12.360754">
        <ele>847.127</ele>
        <time>2011-07-06T11:18:06Z</time>
      </trkpt>
      <trkpt lat="62.985327" lon="12.360705">
        <ele>846.836</ele>
        <time>2011-07-06T11:18:11Z</time>
      </trkpt>
      <trkpt lat="62.985399" lon="12.360644">
        <ele>846.592</ele>
        <time>2011-07-06T11:18:15Z</time>
      </trkpt>
      <trkpt lat="62.985508" lon="12.360559">
        <ele>847.013</ele>
        <time>2011-07-06T11:18:20Z</time>
      </trkpt>
      <trkpt lat="62.985619" lon="12.360347">
        <ele>847.768</ele>
        <time>2011-07-06T11:18:26Z</time>
      </trkpt>
      <trkpt lat="62.985728" lon="12.360108">
        <ele>849.083</ele>
        <time>2011-07-06T11:18:32Z</time>
      </trkpt>
      <trkpt lat="62.985815" lon="12.359924">
        <ele>849.106</ele>
        <time>2011-07-06T11:18:37Z</time>
      </trkpt>
      <trkpt lat="62.985938" lon="12.359814">
        <ele>849.268</ele>
        <time>2011-07-06T11:18:42Z</time>
      </trkpt>
      <trkpt lat="62.986086" lon="12.359719">
        <ele>849.167</ele>
        <time>2011-07-06T11:18:48Z</time>
      </trkpt>
      <trkpt lat="62.986257" lon="12.359746">
        <ele>848.162</ele>
        <time>2011-07-06T11:18:54Z</time>
      </trkpt>
      <trkpt lat="62.986392" lon="12.3597">
        <ele>848.599</ele>
        <time>2011-07-06T11:19:00Z</time>
      </trkpt>
      <trkpt lat="62.986547" lon="12.359548">
        <ele>849.046</ele>
        <time>2011-07-06T11:19:07Z</time>
      </trkpt>
      <trkpt lat="62.986643" lon="12.359496">
        <ele>849.263</ele>
        <time>2011-07-06T11:19:11Z</time>
      </trkpt>
      <trkpt lat="62.986768" lon="12.359468">
        <ele>849.706</ele>
        <time>2011-07-06T11:19:16Z</time>
      </trkpt>
      <trkpt lat="62.986913" lon="12.35936">
        <ele>850.001</ele>
        <time>2011-07-06T11:19:22Z</time>
      </trkpt>
      <trkpt lat="62.987054" lon="12.359274">
        <ele>850.74</ele>
        <time>2011-07-06T11:19:28Z</time>
      </trkpt>
      <trkpt lat="62.987198" lon="12.359168">
        <ele>850.48</ele>
        <time>2011-07-06T11:19:34Z</time>
      </trkpt>
      <trkpt lat="62.987331" lon="12.359158">
        <ele>852.015</ele>
        <time>2011-07-06T11:19:40Z</time>
      </trkpt>
      <trkpt lat="62.987352" lon="12.359154">
        <ele>852.367</ele>
        <time>2011-07-06T11:19:41Z</time>
      </trkpt>
      <trkpt lat="62.98747" lon="12.359058">
        <ele>854.501</ele>
        <time>2011-07-06T11:19:47Z</time>
      </trkpt>
      <trkpt lat="62.98751" lon="12.359018">
        <ele>855.026</ele>
        <time>2011-07-06T11:19:49Z</time>
      </trkpt>
      <trkpt lat="62.987556" lon="12.358988">
        <ele>855.536</ele>
        <time>2011-07-06T11:19:51Z</time>
      </trkpt>
      <trkpt lat="62.987683" lon="12.358932">
        <ele>857.216</ele>
        <time>2011-07-06T11:19:57Z</time>
      </trkpt>
      <trkpt lat="62.987842" lon="12.358861">
        <ele>858.485</ele>
        <time>2011-07-06T11:20:04Z</time>
      </trkpt>
      <trkpt lat="62.987955" lon="12.358749">
        <ele>859.832</ele>
        <time>2011-07-06T11:20:10Z</time>
      </trkpt>
      <trkpt lat="62.988015" lon="12.358624">
        <ele>859.865</ele>
        <time>2011-07-06T11:20:14Z</time>
      </trkpt>
      <trkpt lat="62.988155" lon="12.358497">
        <ele>859.544</ele>
        <time>2011-07-06T11:20:20Z</time>
      </trkpt>
      <trkpt lat="62.98828" lon="12.358505">
        <ele>859.819</ele>
        <time>2011-07-06T11:20:25Z</time>
      </trkpt>
      <trkpt lat="62.988371" lon="12.35845">
        <ele>860.033</ele>
        <time>2011-07-06T11:20:29Z</time>
      </trkpt>
      <trkpt lat="62.988513" lon="12.358355">
        <ele>859.039</ele>
        <time>2011-07-06T11:20:34Z</time>
      </trkpt>
      <trkpt lat="62.988643" lon="12.358274">
        <ele>859.186</ele>
        <time>2011-07-06T11:20:39Z</time>
      </trkpt>
      <trkpt lat="62.988753" lon="12.35821">
        <ele>858.523</ele>
        <time>2011-07-06T11:20:43Z</time>
      </trkpt>
      <trkpt lat="62.988911" lon="12.358197">
        <ele>858.766</ele>
        <time>2011-07-06T11:20:49Z</time>
      </trkpt>
      <trkpt lat="62.989064" lon="12.358081">
        <ele>858.593</ele>
        <time>2011-07-06T11:20:55Z</time>
      </trkpt>
      <trkpt lat="62.989197" lon="12.358013">
        <ele>858.21</ele>
        <time>2011-07-06T11:21:00Z</time>
      </trkpt>
      <trkpt lat="62.989328" lon="12.358036">
        <ele>858.095</ele>
        <time>2011-07-06T11:21:05Z</time>
      </trkpt>
      <trkpt lat="62.989492" lon="12.358016">
        <ele>858.157</ele>
        <time>2011-07-06T11:21:11Z</time>
      </trkpt>
      <trkpt lat="62.989595" lon="12.358006">
        <ele>858.316</ele>
        <time>2011-07-06T11:21:15Z</time>
      </trkpt>
      <trkpt lat="62.98972" lon="12.35792">
        <ele>858.498</ele>
        <time>2011-07-06T11:21:21Z</time>
      </trkpt>
      <trkpt lat="62.98985" lon="12.357903">
        <ele>857.613</ele>
        <time>2011-07-06T11:21:26Z</time>
      </trkpt>
      <trkpt lat="62.99002" lon="12.357797">
        <ele>856.187</ele>
        <time>2011-07-06T11:21:32Z</time>
      </trkpt>
      <trkpt lat="62.990172" lon="12.357751">
        <ele>855.553</ele>
        <time>2011-07-06T11:21:38Z</time>
      </trkpt>
      <trkpt lat="62.990299" lon="12.357692">
        <ele>855.016</ele>
        <time>2011-07-06T11:21:43Z</time>
      </trkpt>
      <trkpt lat="62.990459" lon="12.357635">
        <ele>855.419</ele>
        <time>2011-07-06T11:21:49Z</time>
      </trkpt>
      <trkpt lat="62.990611" lon="12.357635">
        <ele>855.554</ele>
        <time>2011-07-06T11:21:55Z</time>
      </trkpt>
      <trkpt lat="62.990743" lon="12.357603">
        <ele>853.623</ele>
        <time>2011-07-06T11:22:02Z</time>
      </trkpt>
      <trkpt lat="62.990805" lon="12.357628">
        <ele>852.161</ele>
        <time>2011-07-06T11:22:06Z</time>
      </trkpt>
      <trkpt lat="62.990824" lon="12.357619">
        <ele>851.601</ele>
        <time>2011-07-06T11:22:08Z</time>
      </trkpt>
      <trkpt lat="62.990849" lon="12.357401">
        <ele>849.105</ele>
        <time>2011-07-06T11:22:15Z</time>
      </trkpt>
      <trkpt lat="62.990892" lon="12.357241">
        <ele>847.733</ele>
        <time>2011-07-06T11:22:23Z</time>
      </trkpt>
      <trkpt lat="62.990915" lon="12.357166">
        <ele>846.857</ele>
        <time>2011-07-06T11:22:29Z</time>
      </trkpt>
      <trkpt lat="62.990932" lon="12.357099">
        <ele>847.1</ele>
        <time>2011-07-06T11:22:36Z</time>
      </trkpt>
      <trkpt lat="62.990946" lon="12.357073">
        <ele>847.042</ele>
        <time>2011-07-06T11:22:43Z</time>
      </trkpt>
      <trkpt lat="62.990984" lon="12.357061">
        <ele>847.432</ele>
        <time>2011-07-06T11:22:51Z</time>
      </trkpt>
      <trkpt lat="62.990989" lon="12.357061">
        <ele>847.663</ele>
        <time>2011-07-06T11:22:52Z</time>
      </trkpt>
      <trkpt lat="62.991075" lon="12.356979">
        <ele>848.847</ele>
        <time>2011-07-06T11:23:01Z</time>
      </trkpt>
      <trkpt lat="62.991125" lon="12.356906">
        <ele>849.403</ele>
        <time>2011-07-06T11:23:06Z</time>
      </trkpt>
      <trkpt lat="62.991176" lon="12.356854">
        <ele>850.123</ele>
        <time>2011-07-06T11:23:11Z</time>
      </trkpt>
      <trkpt lat="62.991258" lon="12.356831">
        <ele>850.236</ele>
        <time>2011-07-06T11:23:18Z</time>
      </trkpt>
      <trkpt lat="62.991271" lon="12.356827">
        <ele>850.218</ele>
        <time>2011-07-06T11:23:19Z</time>
      </trkpt>
      <trkpt lat="62.991358" lon="12.3568">
        <ele>850.212</ele>
        <time>2011-07-06T11:23:25Z</time>
      </trkpt>
      <trkpt lat="62.99151" lon="12.356627">
        <ele>850.312</ele>
        <time>2011-07-06T11:23:32Z</time>
      </trkpt>
      <trkpt lat="62.99155" lon="12.356534">
        <ele>850.367</ele>
        <time>2011-07-06T11:23:35Z</time>
      </trkpt>
      <trkpt lat="62.991628" lon="12.356471">
        <ele>850.906</ele>
        <time>2011-07-06T11:23:41Z</time>
      </trkpt>
      <trkpt lat="62.991661" lon="12.356385">
        <ele>851.575</ele>
        <time>2011-07-06T11:23:46Z</time>
      </trkpt>
      <trkpt lat="62.991707" lon="12.356227">
        <ele>852.876</ele>
        <time>2011-07-06T11:23:53Z</time>
      </trkpt>
      <trkpt lat="62.991778" lon="12.356046">
        <ele>854.076</ele>
        <time>2011-07-06T11:24:01Z</time>
      </trkpt>
      <trkpt lat="62.991813" lon="12.355999">
        <ele>854.644</ele>
        <time>2011-07-06T11:24:04Z</time>
      </trkpt>
      <trkpt lat="62.991854" lon="12.355877">
        <ele>855.496</ele>
        <time>2011-07-06T11:24:10Z</time>
      </trkpt>
      <trkpt lat="62.991862" lon="12.355825">
        <ele>856.028</ele>
        <time>2011-07-06T11:24:12Z</time>
      </trkpt>
      <trkpt lat="62.991953" lon="12.355703">
        <ele>857.544</ele>
        <time>2011-07-06T11:24:20Z</time>
      </trkpt>
      <trkpt lat="62.992048" lon="12.355634">
        <ele>858.144</ele>
        <time>2011-07-06T11:24:25Z</time>
      </trkpt>
      <trkpt lat="62.992197" lon="12.355451">
        <ele>858.499</ele>
        <time>2011-07-06T11:24:32Z</time>
      </trkpt>
      <trkpt lat="62.992359" lon="12.355279">
        <ele>858.948</ele>
        <time>2011-07-06T11:24:39Z</time>
      </trkpt>
      <trkpt lat="62.992523" lon="12.355151">
        <ele>859.237</ele>
        <time>2011-07-06T11:24:46Z</time>
      </trkpt>
      <trkpt lat="62.992667" lon="12.35497">
        <ele>858.908</ele>
        <time>2011-07-06T11:24:53Z</time>
      </trkpt>
      <trkpt lat="62.992738" lon="12.354835">
        <ele>857.934</ele>
        <time>2011-07-06T11:24:57Z</time>
      </trkpt>
      <trkpt lat="62.992841" lon="12.354689">
        <ele>857.841</ele>
        <time>2011-07-06T11:25:03Z</time>
      </trkpt>
      <trkpt lat="62.992923" lon="12.354498">
        <ele>858.158</ele>
        <time>2011-07-06T11:25:10Z</time>
      </trkpt>
      <trkpt lat="62.992932" lon="12.354473">
        <ele>858.209</ele>
        <time>2011-07-06T11:25:11Z</time>
      </trkpt>
      <trkpt lat="62.993032" lon="12.354362">
        <ele>859.05</ele>
        <time>2011-07-06T11:25:20Z</time>
      </trkpt>
      <trkpt lat="62.993091" lon="12.354303">
        <ele>859.816</ele>
        <time>2011-07-06T11:25:27Z</time>
      </trkpt>
      <trkpt lat="62.993143" lon="12.354348">
        <ele>861.897</ele>
        <time>2011-07-06T11:25:36Z</time>
      </trkpt>
      <trkpt lat="62.993218" lon="12.354352">
        <ele>863.194</ele>
        <time>2011-07-06T11:25:44Z</time>
      </trkpt>
      <trkpt lat="62.993256" lon="12.354355">
        <ele>862.78</ele>
        <time>2011-07-06T11:25:49Z</time>
      </trkpt>
      <trkpt lat="62.993324" lon="12.354178">
        <ele>862.783</ele>
        <time>2011-07-06T11:29:53Z</time>
      </trkpt>
      <trkpt lat="62.993359" lon="12.354068">
        <ele>861.723</ele>
        <time>2011-07-06T11:30:02Z</time>
      </trkpt>
      <trkpt lat="62.993392" lon="12.35395">
        <ele>860.451</ele>
        <time>2011-07-06T11:30:11Z</time>
      </trkpt>
      <trkpt lat="62.993466" lon="12.35384">
        <ele>859.093</ele>
        <time>2011-07-06T11:30:20Z</time>
      </trkpt>
      <trkpt lat="62.993601" lon="12.353682">
        <ele>859.203</ele>
        <time>2011-07-06T11:30:31Z</time>
      </trkpt>
      <trkpt lat="62.993708" lon="12.35355">
        <ele>859.889</ele>
        <time>2011-07-06T11:30:37Z</time>
      </trkpt>
      <trkpt lat="62.993829" lon="12.353328">
        <ele>860.218</ele>
        <time>2011-07-06T11:30:44Z</time>
      </trkpt>
      <trkpt lat="62.99399" lon="12.353179">
        <ele>860.868</ele>
        <time>2011-07-06T11:30:53Z</time>
      </trkpt>
      <trkpt lat="62.994099" lon="12.353151">
        <ele>860.88</ele>
        <time>2011-07-06T11:30:58Z</time>
      </trkpt>
      <trkpt lat="62.994199" lon="12.353166">
        <ele>860.6</ele>
        <time>2011-07-06T11:31:02Z</time>
      </trkpt>
      <trkpt lat="62.994254" lon="12.353023">
        <ele>860.711</ele>
        <time>2011-07-06T11:31:06Z</time>
      </trkpt>
      <trkpt lat="62.994358" lon="12.352753">
        <ele>860.936</ele>
        <time>2011-07-06T11:31:12Z</time>
      </trkpt>
      <trkpt lat="62.994494" lon="12.352619">
        <ele>861.174</ele>
        <time>2011-07-06T11:31:18Z</time>
      </trkpt>
      <trkpt lat="62.994592" lon="12.35247">
        <ele>862.023</ele>
        <time>2011-07-06T11:31:23Z</time>
      </trkpt>
      <trkpt lat="62.994631" lon="12.352274">
        <ele>862.28</ele>
        <time>2011-07-06T11:31:27Z</time>
      </trkpt>
      <trkpt lat="62.994727" lon="12.35216">
        <ele>862.748</ele>
        <time>2011-07-06T11:31:32Z</time>
      </trkpt>
      <trkpt lat="62.994753" lon="12.352159">
        <ele>862.973</ele>
        <time>2011-07-06T11:31:33Z</time>
      </trkpt>
      <trkpt lat="62.994905" lon="12.352125">
        <ele>864.796</ele>
        <time>2011-07-06T11:31:40Z</time>
      </trkpt>
      <trkpt lat="62.995031" lon="12.352024">
        <ele>865.555</ele>
        <time>2011-07-06T11:31:46Z</time>
      </trkpt>
      <trkpt lat="62.995075" lon="12.351995">
        <ele>865.841</ele>
        <time>2011-07-06T11:31:48Z</time>
      </trkpt>
      <trkpt lat="62.995185" lon="12.351861">
        <ele>865.854</ele>
        <time>2011-07-06T11:31:53Z</time>
      </trkpt>
      <trkpt lat="62.995368" lon="12.351799">
        <ele>865.497</ele>
        <time>2011-07-06T11:32:01Z</time>
      </trkpt>
      <trkpt lat="62.99546" lon="12.351781">
        <ele>863.792</ele>
        <time>2011-07-06T11:32:06Z</time>
      </trkpt>
      <trkpt lat="62.995487" lon="12.351736">
        <ele>863.484</ele>
        <time>2011-07-06T11:32:08Z</time>
      </trkpt>
      <trkpt lat="62.995524" lon="12.351624">
        <ele>863.488</ele>
        <time>2011-07-06T11:32:11Z</time>
      </trkpt>
      <trkpt lat="62.995574" lon="12.351423">
        <ele>864.513</ele>
        <time>2011-07-06T11:32:18Z</time>
      </trkpt>
      <trkpt lat="62.995578" lon="12.35136">
        <ele>864.79</ele>
        <time>2011-07-06T11:32:20Z</time>
      </trkpt>
      <trkpt lat="62.99559" lon="12.351269">
        <ele>864.968</ele>
        <time>2011-07-06T11:32:23Z</time>
      </trkpt>
      <trkpt lat="62.995713" lon="12.351142">
        <ele>864.224</ele>
        <time>2011-07-06T11:32:30Z</time>
      </trkpt>
      <trkpt lat="62.995779" lon="12.351069">
        <ele>864.187</ele>
        <time>2011-07-06T11:32:35Z</time>
      </trkpt>
      <trkpt lat="62.995877" lon="12.350965">
        <ele>865.572</ele>
        <time>2011-07-06T11:32:43Z</time>
      </trkpt>
      <trkpt lat="62.995972" lon="12.350906">
        <ele>866.913</ele>
        <time>2011-07-06T11:32:50Z</time>
      </trkpt>
      <trkpt lat="62.996105" lon="12.350865">
        <ele>867.405</ele>
        <time>2011-07-06T11:32:58Z</time>
      </trkpt>
      <trkpt lat="62.996257" lon="12.350928">
        <ele>868.279</ele>
        <time>2011-07-06T11:33:05Z</time>
      </trkpt>
      <trkpt lat="62.996426" lon="12.350961">
        <ele>868.933</ele>
        <time>2011-07-06T11:33:12Z</time>
      </trkpt>
      <trkpt lat="62.996537" lon="12.350992">
        <ele>869.99</ele>
        <time>2011-07-06T11:33:17Z</time>
      </trkpt>
      <trkpt lat="62.99656" lon="12.350989">
        <ele>870.079</ele>
        <time>2011-07-06T11:33:18Z</time>
      </trkpt>
      <trkpt lat="62.996657" lon="12.350868">
        <ele>871.373</ele>
        <time>2011-07-06T11:33:24Z</time>
      </trkpt>
      <trkpt lat="62.996675" lon="12.350839">
        <ele>871.545</ele>
        <time>2011-07-06T11:33:25Z</time>
      </trkpt>
      <trkpt lat="62.996733" lon="12.35077">
        <ele>871.484</ele>
        <time>2011-07-06T11:33:28Z</time>
      </trkpt>
      <trkpt lat="62.996818" lon="12.350629">
        <ele>870.175</ele>
        <time>2011-07-06T11:33:33Z</time>
      </trkpt>
      <trkpt lat="62.996908" lon="12.350556">
        <ele>868.332</ele>
        <time>2011-07-06T11:33:37Z</time>
      </trkpt>
      <trkpt lat="62.996948" lon="12.350516">
        <ele>867.657</ele>
        <time>2011-07-06T11:33:39Z</time>
      </trkpt>
      <trkpt lat="62.996967" lon="12.350459">
        <ele>867.227</ele>
        <time>2011-07-06T11:33:41Z</time>
      </trkpt>
      <trkpt lat="62.997076" lon="12.350335">
        <ele>867.847</ele>
        <time>2011-07-06T11:33:47Z</time>
      </trkpt>
      <trkpt lat="62.997142" lon="12.350233">
        <ele>868.626</ele>
        <time>2011-07-06T11:33:51Z</time>
      </trkpt>
      <trkpt lat="62.99721" lon="12.349909">
        <ele>869.487</ele>
        <time>2011-07-06T11:33:59Z</time>
      </trkpt>
      <trkpt lat="62.997285" lon="12.349684">
        <ele>870.101</ele>
        <time>2011-07-06T11:34:05Z</time>
      </trkpt>
      <trkpt lat="62.997405" lon="12.349477">
        <ele>870.606</ele>
        <time>2011-07-06T11:34:11Z</time>
      </trkpt>
      <trkpt lat="62.997524" lon="12.349358">
        <ele>871.397</ele>
        <time>2011-07-06T11:34:16Z</time>
      </trkpt>
      <trkpt lat="62.997647" lon="12.349184">
        <ele>872.517</ele>
        <time>2011-07-06T11:34:22Z</time>
      </trkpt>
      <trkpt lat="62.997779" lon="12.348993">
        <ele>872.445</ele>
        <time>2011-07-06T11:34:28Z</time>
      </trkpt>
      <trkpt lat="62.997883" lon="12.348844">
        <ele>872.63</ele>
        <time>2011-07-06T11:34:33Z</time>
      </trkpt>
      <trkpt lat="62.997989" lon="12.348718">
        <ele>873.344</ele>
        <time>2011-07-06T11:34:38Z</time>
      </trkpt>
      <trkpt lat="62.998088" lon="12.348481">
        <ele>873.653</ele>
        <time>2011-07-06T11:34:44Z</time>
      </trkpt>
      <trkpt lat="62.998151" lon="12.348348">
        <ele>873.741</ele>
        <time>2011-07-06T11:34:47Z</time>
      </trkpt>
      <trkpt lat="62.998186" lon="12.348116">
        <ele>874.764</ele>
        <time>2011-07-06T11:34:52Z</time>
      </trkpt>
      <trkpt lat="62.998234" lon="12.347921">
        <ele>874.698</ele>
        <time>2011-07-06T11:34:56Z</time>
      </trkpt>
      <trkpt lat="62.998235" lon="12.347876">
        <ele>874.69</ele>
        <time>2011-07-06T11:34:57Z</time>
      </trkpt>
      <trkpt lat="62.998279" lon="12.347651">
        <ele>874.56</ele>
        <time>2011-07-06T11:35:02Z</time>
      </trkpt>
      <trkpt lat="62.998319" lon="12.347448">
        <ele>875.24</ele>
        <time>2011-07-06T11:35:07Z</time>
      </trkpt>
      <trkpt lat="62.998306" lon="12.347149">
        <ele>876.483</ele>
        <time>2011-07-06T11:35:13Z</time>
      </trkpt>
      <trkpt lat="62.998355" lon="12.34683">
        <ele>876.935</ele>
        <time>2011-07-06T11:35:19Z</time>
      </trkpt>
      <trkpt lat="62.998423" lon="12.346666">
        <ele>877.326</ele>
        <time>2011-07-06T11:35:23Z</time>
      </trkpt>
      <trkpt lat="62.998466" lon="12.346571">
        <ele>877.806</ele>
        <time>2011-07-06T11:35:26Z</time>
      </trkpt>
      <trkpt lat="62.99857" lon="12.346548">
        <ele>878.052</ele>
        <time>2011-07-06T11:35:32Z</time>
      </trkpt>
      <trkpt lat="62.99859" lon="12.346554">
        <ele>878.268</ele>
        <time>2011-07-06T11:35:33Z</time>
      </trkpt>
      <trkpt lat="62.998662" lon="12.346452">
        <ele>878.424</ele>
        <time>2011-07-06T11:35:37Z</time>
      </trkpt>
      <trkpt lat="62.998717" lon="12.346313">
        <ele>879.861</ele>
        <time>2011-07-06T11:35:43Z</time>
      </trkpt>
      <trkpt lat="62.99881" lon="12.34617">
        <ele>881.246</ele>
        <time>2011-07-06T11:35:52Z</time>
      </trkpt>
      <trkpt lat="62.9989" lon="12.346044">
        <ele>881.813</ele>
        <time>2011-07-06T11:36:00Z</time>
      </trkpt>
      <trkpt lat="62.998986" lon="12.345949">
        <ele>882.448</ele>
        <time>2011-07-06T11:36:07Z</time>
      </trkpt>
      <trkpt lat="62.999067" lon="12.345795">
        <ele>883.133</ele>
        <time>2011-07-06T11:36:15Z</time>
      </trkpt>
      <trkpt lat="62.999109" lon="12.345723">
        <ele>883.473</ele>
        <time>2011-07-06T11:36:19Z</time>
      </trkpt>
      <trkpt lat="62.999202" lon="12.345596">
        <ele>884.243</ele>
        <time>2011-07-06T11:36:27Z</time>
      </trkpt>
      <trkpt lat="62.999294" lon="12.345536">
        <ele>884.503</ele>
        <time>2011-07-06T11:36:33Z</time>
      </trkpt>
      <trkpt lat="62.999394" lon="12.345531">
        <ele>884.996</ele>
        <time>2011-07-06T11:36:40Z</time>
      </trkpt>
      <trkpt lat="62.999498" lon="12.345602">
        <ele>885.376</ele>
        <time>2011-07-06T11:36:48Z</time>
      </trkpt>
      <trkpt lat="62.999565" lon="12.345685">
        <ele>886.261</ele>
        <time>2011-07-06T11:36:54Z</time>
      </trkpt>
      <trkpt lat="62.999663" lon="12.345747">
        <ele>886.611</ele>
        <time>2011-07-06T11:37:02Z</time>
      </trkpt>
      <trkpt lat="62.999742" lon="12.345784">
        <ele>888.131</ele>
        <time>2011-07-06T11:37:10Z</time>
      </trkpt>
      <trkpt lat="62.99975" lon="12.345787">
        <ele>888.354</ele>
        <time>2011-07-06T11:37:11Z</time>
      </trkpt>
      <trkpt lat="62.999823" lon="12.345781">
        <ele>889.438</ele>
        <time>2011-07-06T11:37:18Z</time>
      </trkpt>
      <trkpt lat="62.999953" lon="12.345606">
        <ele>890.189</ele>
        <time>2011-07-06T11:37:29Z</time>
      </trkpt>
      <trkpt lat="63.000015" lon="12.345513">
        <ele>890.667</ele>
        <time>2011-07-06T11:37:35Z</time>
      </trkpt>
      <trkpt lat="63.000046" lon="12.345326">
        <ele>890.881</ele>
        <time>2011-07-06T11:37:42Z</time>
      </trkpt>
      <trkpt lat="63.000125" lon="12.345169">
        <ele>889.989</ele>
        <time>2011-07-06T11:37:50Z</time>
      </trkpt>
      <trkpt lat="63.000205" lon="12.345026">
        <ele>890.759</ele>
        <time>2011-07-06T11:37:58Z</time>
      </trkpt>
      <trkpt lat="63.000215" lon="12.345003">
        <ele>890.618</ele>
        <time>2011-07-06T11:37:59Z</time>
      </trkpt>
      <trkpt lat="63.000285" lon="12.344864">
        <ele>891</ele>
        <time>2011-07-06T11:38:06Z</time>
      </trkpt>
      <trkpt lat="63.000392" lon="12.344723">
        <ele>891.509</ele>
        <time>2011-07-06T11:38:13Z</time>
      </trkpt>
      <trkpt lat="63.000464" lon="12.344593">
        <ele>891.35</ele>
        <time>2011-07-06T11:38:17Z</time>
      </trkpt>
      <trkpt lat="63.000613" lon="12.344492">
        <ele>891.48</ele>
        <time>2011-07-06T11:38:24Z</time>
      </trkpt>
      <trkpt lat="63.000744" lon="12.34437">
        <ele>891.18</ele>
        <time>2011-07-06T11:38:30Z</time>
      </trkpt>
      <trkpt lat="63.00081" lon="12.344275">
        <ele>890.863</ele>
        <time>2011-07-06T11:38:34Z</time>
      </trkpt>
      <trkpt lat="63.000878" lon="12.344237">
        <ele>890.545</ele>
        <time>2011-07-06T11:38:38Z</time>
      </trkpt>
      <trkpt lat="63.001012" lon="12.344143">
        <ele>891.055</ele>
        <time>2011-07-06T11:38:44Z</time>
      </trkpt>
      <trkpt lat="63.00113" lon="12.344147">
        <ele>891.369</ele>
        <time>2011-07-06T11:38:49Z</time>
      </trkpt>
      <trkpt lat="63.001311" lon="12.344188">
        <ele>891.148</ele>
        <time>2011-07-06T11:38:56Z</time>
      </trkpt>
      <trkpt lat="63.001474" lon="12.344227">
        <ele>890.671</ele>
        <time>2011-07-06T11:39:03Z</time>
      </trkpt>
      <trkpt lat="63.00164" lon="12.344212">
        <ele>889.566</ele>
        <time>2011-07-06T11:39:09Z</time>
      </trkpt>
      <trkpt lat="63.00174" lon="12.344131">
        <ele>889.252</ele>
        <time>2011-07-06T11:39:13Z</time>
      </trkpt>
      <trkpt lat="63.001813" lon="12.344038">
        <ele>888.496</ele>
        <time>2011-07-06T11:39:19Z</time>
      </trkpt>
      <trkpt lat="63.001831" lon="12.344036">
        <ele>888.512</ele>
        <time>2011-07-06T11:39:21Z</time>
      </trkpt>
      <trkpt lat="63.001921" lon="12.344048">
        <ele>889.046</ele>
        <time>2011-07-06T11:39:26Z</time>
      </trkpt>
      <trkpt lat="63.001944" lon="12.344041">
        <ele>889.063</ele>
        <time>2011-07-06T11:39:27Z</time>
      </trkpt>
      <trkpt lat="63.00216" lon="12.343903">
        <ele>890.058</ele>
        <time>2011-07-06T11:39:36Z</time>
      </trkpt>
      <trkpt lat="63.002261" lon="12.343928">
        <ele>889.884</ele>
        <time>2011-07-06T11:39:40Z</time>
      </trkpt>
      <trkpt lat="63.002383" lon="12.343886">
        <ele>890.427</ele>
        <time>2011-07-06T11:39:45Z</time>
      </trkpt>
      <trkpt lat="63.002474" lon="12.343698">
        <ele>891.161</ele>
        <time>2011-07-06T11:39:50Z</time>
      </trkpt>
      <trkpt lat="63.002564" lon="12.343431">
        <ele>892.097</ele>
        <time>2011-07-06T11:39:56Z</time>
      </trkpt>
      <trkpt lat="63.002652" lon="12.34314">
        <ele>893.705</ele>
        <time>2011-07-06T11:40:04Z</time>
      </trkpt>
      <trkpt lat="63.002684" lon="12.343086">
        <ele>894.133</ele>
        <time>2011-07-06T11:40:06Z</time>
      </trkpt>
      <trkpt lat="63.002791" lon="12.343001">
        <ele>894.95</ele>
        <time>2011-07-06T11:40:12Z</time>
      </trkpt>
      <trkpt lat="63.002914" lon="12.342915">
        <ele>895.686</ele>
        <time>2011-07-06T11:40:18Z</time>
      </trkpt>
      <trkpt lat="63.003016" lon="12.342814">
        <ele>896.508</ele>
        <time>2011-07-06T11:40:23Z</time>
      </trkpt>
      <trkpt lat="63.003033" lon="12.342791">
        <ele>896.643</ele>
        <time>2011-07-06T11:40:24Z</time>
      </trkpt>
      <trkpt lat="63.003096" lon="12.342608">
        <ele>898.13</ele>
        <time>2011-07-06T11:40:30Z</time>
      </trkpt>
      <trkpt lat="63.003113" lon="12.342571">
        <ele>898.269</ele>
        <time>2011-07-06T11:40:32Z</time>
      </trkpt>
      <trkpt lat="63.00317" lon="12.34248">
        <ele>899.28</ele>
        <time>2011-07-06T11:40:41Z</time>
      </trkpt>
      <trkpt lat="63.003182" lon="12.342438">
        <ele>900.204</ele>
        <time>2011-07-06T11:40:46Z</time>
      </trkpt>
      <trkpt lat="63.003193" lon="12.34242">
        <ele>900.394</ele>
        <time>2011-07-06T11:41:28Z</time>
      </trkpt>
      <trkpt lat="63.00322" lon="12.34237">
        <ele>900.883</ele>
        <time>2011-07-06T11:41:35Z</time>
      </trkpt>
      <trkpt lat="63.003319" lon="12.342211">
        <ele>900.747</ele>
        <time>2011-07-06T11:42:03Z</time>
      </trkpt>
      <trkpt lat="63.00344" lon="12.342083">
        <ele>900.273</ele>
        <time>2011-07-06T11:42:08Z</time>
      </trkpt>
      <trkpt lat="63.003553" lon="12.341958">
        <ele>900.186</ele>
        <time>2011-07-06T11:42:13Z</time>
      </trkpt>
      <trkpt lat="63.003659" lon="12.341821">
        <ele>900.784</ele>
        <time>2011-07-06T11:42:18Z</time>
      </trkpt>
      <trkpt lat="63.003796" lon="12.341661">
        <ele>900.961</ele>
        <time>2011-07-06T11:42:24Z</time>
      </trkpt>
      <trkpt lat="63.003911" lon="12.341452">
        <ele>900.977</ele>
        <time>2011-07-06T11:42:30Z</time>
      </trkpt>
      <trkpt lat="63.004018" lon="12.341301">
        <ele>900.666</ele>
        <time>2011-07-06T11:42:35Z</time>
      </trkpt>
      <trkpt lat="63.00416" lon="12.341072">
        <ele>900.677</ele>
        <time>2011-07-06T11:42:42Z</time>
      </trkpt>
      <trkpt lat="63.004301" lon="12.340939">
        <ele>901.257</ele>
        <time>2011-07-06T11:42:48Z</time>
      </trkpt>
      <trkpt lat="63.004431" lon="12.340792">
        <ele>900.967</ele>
        <time>2011-07-06T11:42:54Z</time>
      </trkpt>
      <trkpt lat="63.00453" lon="12.340707">
        <ele>899.67</ele>
        <time>2011-07-06T11:42:59Z</time>
      </trkpt>
      <trkpt lat="63.004639" lon="12.340623">
        <ele>900.421</ele>
        <time>2011-07-06T11:43:04Z</time>
      </trkpt>
      <trkpt lat="63.004729" lon="12.340538">
        <ele>899.758</ele>
        <time>2011-07-06T11:43:08Z</time>
      </trkpt>
      <trkpt lat="63.004837" lon="12.340441">
        <ele>899.582</ele>
        <time>2011-07-06T11:43:13Z</time>
      </trkpt>
      <trkpt lat="63.004977" lon="12.340263">
        <ele>900.09</ele>
        <time>2011-07-06T11:43:20Z</time>
      </trkpt>
      <trkpt lat="63.004995" lon="12.340218">
        <ele>900.28</ele>
        <time>2011-07-06T11:43:21Z</time>
      </trkpt>
      <trkpt lat="63.005097" lon="12.340045">
        <ele>900.895</ele>
        <time>2011-07-06T11:43:26Z</time>
      </trkpt>
      <trkpt lat="63.005193" lon="12.339829">
        <ele>901.993</ele>
        <time>2011-07-06T11:43:32Z</time>
      </trkpt>
      <trkpt lat="63.005293" lon="12.339629">
        <ele>902.538</ele>
        <time>2011-07-06T11:43:38Z</time>
      </trkpt>
      <trkpt lat="63.005369" lon="12.339488">
        <ele>904.257</ele>
        <time>2011-07-06T11:43:43Z</time>
      </trkpt>
      <trkpt lat="63.005454" lon="12.339416">
        <ele>905.018</ele>
        <time>2011-07-06T11:43:47Z</time>
      </trkpt>
      <trkpt lat="63.005515" lon="12.339323">
        <ele>904.8</ele>
        <time>2011-07-06T11:43:51Z</time>
      </trkpt>
      <trkpt lat="63.005623" lon="12.339261">
        <ele>905.192</ele>
        <time>2011-07-06T11:43:57Z</time>
      </trkpt>
      <trkpt lat="63.005693" lon="12.339208">
        <ele>905.424</ele>
        <time>2011-07-06T11:44:01Z</time>
      </trkpt>
      <trkpt lat="63.005757" lon="12.339192">
        <ele>905.696</ele>
        <time>2011-07-06T11:44:05Z</time>
      </trkpt>
      <trkpt lat="63.005823" lon="12.339165">
        <ele>905.74</ele>
        <time>2011-07-06T11:44:10Z</time>
      </trkpt>
      <trkpt lat="63.005895" lon="12.339035">
        <ele>905.812</ele>
        <time>2011-07-06T11:44:15Z</time>
      </trkpt>
      <trkpt lat="63.005951" lon="12.338971">
        <ele>906.103</ele>
        <time>2011-07-06T11:44:18Z</time>
      </trkpt>
      <trkpt lat="63.006067" lon="12.338862">
        <ele>906.723</ele>
        <time>2011-07-06T11:44:24Z</time>
      </trkpt>
      <trkpt lat="63.006173" lon="12.338739">
        <ele>908.225</ele>
        <time>2011-07-06T11:44:31Z</time>
      </trkpt>
      <trkpt lat="63.006238" lon="12.338613">
        <ele>909.127</ele>
        <time>2011-07-06T11:44:36Z</time>
      </trkpt>
      <trkpt lat="63.006336" lon="12.338554">
        <ele>910.334</ele>
        <time>2011-07-06T11:44:42Z</time>
      </trkpt>
      <trkpt lat="63.006419" lon="12.338447">
        <ele>911.196</ele>
        <time>2011-07-06T11:44:47Z</time>
      </trkpt>
      <trkpt lat="63.006549" lon="12.33833">
        <ele>911.943</ele>
        <time>2011-07-06T11:44:53Z</time>
      </trkpt>
      <trkpt lat="63.006667" lon="12.338191">
        <ele>912.79</ele>
        <time>2011-07-06T11:44:59Z</time>
      </trkpt>
      <trkpt lat="63.006733" lon="12.338073">
        <ele>913.553</ele>
        <time>2011-07-06T11:45:03Z</time>
      </trkpt>
      <trkpt lat="63.006863" lon="12.338006">
        <ele>914.174</ele>
        <time>2011-07-06T11:45:09Z</time>
      </trkpt>
      <trkpt lat="63.007024" lon="12.33793">
        <ele>915.248</ele>
        <time>2011-07-06T11:45:16Z</time>
      </trkpt>
      <trkpt lat="63.007123" lon="12.337733">
        <ele>916.837</ele>
        <time>2011-07-06T11:45:22Z</time>
      </trkpt>
      <trkpt lat="63.007225" lon="12.337514">
        <ele>917.234</ele>
        <time>2011-07-06T11:45:28Z</time>
      </trkpt>
      <trkpt lat="63.007284" lon="12.337359">
        <ele>917.293</ele>
        <time>2011-07-06T11:45:32Z</time>
      </trkpt>
      <trkpt lat="63.007359" lon="12.337306">
        <ele>917.338</ele>
        <time>2011-07-06T11:45:38Z</time>
      </trkpt>
      <trkpt lat="63.00744" lon="12.337249">
        <ele>918.003</ele>
        <time>2011-07-06T11:45:46Z</time>
      </trkpt>
      <trkpt lat="63.007505" lon="12.337234">
        <ele>919.177</ele>
        <time>2011-07-06T11:45:52Z</time>
      </trkpt>
      <trkpt lat="63.007583" lon="12.337197">
        <ele>920.705</ele>
        <time>2011-07-06T11:46:00Z</time>
      </trkpt>
      <trkpt lat="63.007668" lon="12.33711">
        <ele>920.759</ele>
        <time>2011-07-06T11:46:06Z</time>
      </trkpt>
      <trkpt lat="63.007765" lon="12.336885">
        <ele>920.367</ele>
        <time>2011-07-06T11:46:12Z</time>
      </trkpt>
      <trkpt lat="63.007846" lon="12.336743">
        <ele>921.12</ele>
        <time>2011-07-06T11:46:17Z</time>
      </trkpt>
      <trkpt lat="63.007888" lon="12.336619">
        <ele>922.894</ele>
        <time>2011-07-06T11:46:22Z</time>
      </trkpt>
      <trkpt lat="63.007885" lon="12.336361">
        <ele>922.832</ele>
        <time>2011-07-06T11:46:31Z</time>
      </trkpt>
      <trkpt lat="63.007973" lon="12.336177">
        <ele>923.988</ele>
        <time>2011-07-06T11:46:38Z</time>
      </trkpt>
      <trkpt lat="63.008061" lon="12.336065">
        <ele>925.057</ele>
        <time>2011-07-06T11:46:43Z</time>
      </trkpt>
      <trkpt lat="63.008178" lon="12.335957">
        <ele>926.298</ele>
        <time>2011-07-06T11:46:50Z</time>
      </trkpt>
      <trkpt lat="63.008304" lon="12.335848">
        <ele>927.283</ele>
        <time>2011-07-06T11:46:57Z</time>
      </trkpt>
      <trkpt lat="63.00842" lon="12.335713">
        <ele>927.677</ele>
        <time>2011-07-06T11:47:03Z</time>
      </trkpt>
      <trkpt lat="63.008528" lon="12.335605">
        <ele>928.105</ele>
        <time>2011-07-06T11:47:09Z</time>
      </trkpt>
      <trkpt lat="63.008598" lon="12.335479">
        <ele>927.961</ele>
        <time>2011-07-06T11:47:17Z</time>
      </trkpt>
      <trkpt lat="63.008674" lon="12.335417">
        <ele>927.907</ele>
        <time>2011-07-06T11:47:25Z</time>
      </trkpt>
      <trkpt lat="63.008681" lon="12.335404">
        <ele>928.012</ele>
        <time>2011-07-06T11:47:26Z</time>
      </trkpt>
      <trkpt lat="63.008746" lon="12.33529">
        <ele>928.141</ele>
        <time>2011-07-06T11:47:33Z</time>
      </trkpt>
      <trkpt lat="63.008857" lon="12.335181">
        <ele>927.943</ele>
        <time>2011-07-06T11:47:42Z</time>
      </trkpt>
      <trkpt lat="63.008944" lon="12.335072">
        <ele>927.994</ele>
        <time>2011-07-06T11:47:50Z</time>
      </trkpt>
      <trkpt lat="63.00896" lon="12.335028">
        <ele>927.971</ele>
        <time>2011-07-06T11:47:52Z</time>
      </trkpt>
      <trkpt lat="63.008999" lon="12.334926">
        <ele>927.331</ele>
        <time>2011-07-06T11:47:58Z</time>
      </trkpt>
      <trkpt lat="63.009065" lon="12.334848">
        <ele>926.437</ele>
        <time>2011-07-06T11:48:04Z</time>
      </trkpt>
      <trkpt lat="63.009085" lon="12.334825">
        <ele>925.937</ele>
        <time>2011-07-06T11:48:06Z</time>
      </trkpt>
      <trkpt lat="63.009133" lon="12.334791">
        <ele>926.122</ele>
        <time>2011-07-06T11:48:10Z</time>
      </trkpt>
      <trkpt lat="63.009238" lon="12.334709">
        <ele>926.773</ele>
        <time>2011-07-06T11:48:19Z</time>
      </trkpt>
      <trkpt lat="63.009248" lon="12.334696">
        <ele>926.818</ele>
        <time>2011-07-06T11:48:20Z</time>
      </trkpt>
      <trkpt lat="63.009276" lon="12.334599">
        <ele>927.39</ele>
        <time>2011-07-06T11:48:24Z</time>
      </trkpt>
      <trkpt lat="63.009363" lon="12.334456">
        <ele>928.668</ele>
        <time>2011-07-06T11:48:33Z</time>
      </trkpt>
      <trkpt lat="63.009426" lon="12.334279">
        <ele>930.055</ele>
        <time>2011-07-06T11:48:41Z</time>
      </trkpt>
      <trkpt lat="63.009492" lon="12.334089">
        <ele>930.681</ele>
        <time>2011-07-06T11:48:49Z</time>
      </trkpt>
      <trkpt lat="63.009551" lon="12.333917">
        <ele>931.947</ele>
        <time>2011-07-06T11:48:56Z</time>
      </trkpt>
      <trkpt lat="63.009629" lon="12.333779">
        <ele>933.873</ele>
        <time>2011-07-06T11:49:04Z</time>
      </trkpt>
      <trkpt lat="63.009708" lon="12.33359">
        <ele>935.469</ele>
        <time>2011-07-06T11:49:13Z</time>
      </trkpt>
      <trkpt lat="63.009745" lon="12.333463">
        <ele>935.603</ele>
        <time>2011-07-06T11:49:17Z</time>
      </trkpt>
      <trkpt lat="63.009847" lon="12.333255">
        <ele>936.056</ele>
        <time>2011-07-06T11:49:23Z</time>
      </trkpt>
      <trkpt lat="63.009896" lon="12.333129">
        <ele>936.319</ele>
        <time>2011-07-06T11:49:26Z</time>
      </trkpt>
      <trkpt lat="63.009978" lon="12.332893">
        <ele>937.308</ele>
        <time>2011-07-06T11:49:32Z</time>
      </trkpt>
      <trkpt lat="63.010045" lon="12.332675">
        <ele>938.037</ele>
        <time>2011-07-06T11:49:39Z</time>
      </trkpt>
      <trkpt lat="63.010056" lon="12.33265">
        <ele>938.005</ele>
        <time>2011-07-06T11:49:40Z</time>
      </trkpt>
      <trkpt lat="63.010157" lon="12.332527">
        <ele>938.893</ele>
        <time>2011-07-06T11:49:47Z</time>
      </trkpt>
      <trkpt lat="63.010261" lon="12.332308">
        <ele>940.466</ele>
        <time>2011-07-06T11:49:54Z</time>
      </trkpt>
      <trkpt lat="63.010309" lon="12.332059">
        <ele>941.965</ele>
        <time>2011-07-06T11:50:00Z</time>
      </trkpt>
      <trkpt lat="63.010365" lon="12.331836">
        <ele>943.026</ele>
        <time>2011-07-06T11:50:06Z</time>
      </trkpt>
      <trkpt lat="63.010393" lon="12.33175">
        <ele>943.485</ele>
        <time>2011-07-06T11:50:10Z</time>
      </trkpt>
      <trkpt lat="63.010421" lon="12.331692">
        <ele>943.936</ele>
        <time>2011-07-06T11:50:14Z</time>
      </trkpt>
      <trkpt lat="63.010459" lon="12.331483">
        <ele>945.065</ele>
        <time>2011-07-06T11:50:23Z</time>
      </trkpt>
      <trkpt lat="63.010449" lon="12.331287">
        <ele>945.712</ele>
        <time>2011-07-06T11:50:30Z</time>
      </trkpt>
      <trkpt lat="63.01046" lon="12.331119">
        <ele>947.126</ele>
        <time>2011-07-06T11:50:36Z</time>
      </trkpt>
      <trkpt lat="63.010471" lon="12.331002">
        <ele>948.523</ele>
        <time>2011-07-06T11:50:41Z</time>
      </trkpt>
      <trkpt lat="63.01048" lon="12.330938">
        <ele>949.114</ele>
        <time>2011-07-06T11:50:44Z</time>
      </trkpt>
      <trkpt lat="63.010479" lon="12.330819">
        <ele>950.688</ele>
        <time>2011-07-06T11:50:50Z</time>
      </trkpt>
      <trkpt lat="63.010472" lon="12.330666">
        <ele>952.135</ele>
        <time>2011-07-06T11:50:57Z</time>
      </trkpt>
      <trkpt lat="63.010458" lon="12.330518">
        <ele>953.158</ele>
        <time>2011-07-06T11:51:03Z</time>
      </trkpt>
      <trkpt lat="63.010463" lon="12.330361">
        <ele>953.932</ele>
        <time>2011-07-06T11:51:09Z</time>
      </trkpt>
      <trkpt lat="63.010466" lon="12.330342">
        <ele>954.053</ele>
        <time>2011-07-06T11:51:10Z</time>
      </trkpt>
      <trkpt lat="63.010489" lon="12.330186">
        <ele>955.587</ele>
        <time>2011-07-06T11:51:17Z</time>
      </trkpt>
      <trkpt lat="63.010497" lon="12.330135">
        <ele>955.836</ele>
        <time>2011-07-06T11:51:19Z</time>
      </trkpt>
      <trkpt lat="63.010525" lon="12.329871">
        <ele>956.891</ele>
        <time>2011-07-06T11:51:28Z</time>
      </trkpt>
      <trkpt lat="63.010529" lon="12.329645">
        <ele>957.091</ele>
        <time>2011-07-06T11:51:36Z</time>
      </trkpt>
      <trkpt lat="63.010542" lon="12.329549">
        <ele>957.896</ele>
        <time>2011-07-06T11:51:40Z</time>
      </trkpt>
      <trkpt lat="63.0106" lon="12.329309">
        <ele>958.814</ele>
        <time>2011-07-06T11:51:49Z</time>
      </trkpt>
      <trkpt lat="63.010662" lon="12.329166">
        <ele>959.705</ele>
        <time>2011-07-06T11:51:56Z</time>
      </trkpt>
      <trkpt lat="63.010702" lon="12.328897">
        <ele>960.814</ele>
        <time>2011-07-06T11:52:06Z</time>
      </trkpt>
      <trkpt lat="63.010713" lon="12.328688">
        <ele>962.394</ele>
        <time>2011-07-06T11:52:14Z</time>
      </trkpt>
      <trkpt lat="63.010742" lon="12.328517">
        <ele>962.947</ele>
        <time>2011-07-06T11:52:20Z</time>
      </trkpt>
      <trkpt lat="63.010746" lon="12.328488">
        <ele>963.012</ele>
        <time>2011-07-06T11:52:21Z</time>
      </trkpt>
      <trkpt lat="63.010757" lon="12.328334">
        <ele>963.767</ele>
        <time>2011-07-06T11:52:27Z</time>
      </trkpt>
      <trkpt lat="63.01078" lon="12.32826">
        <ele>964.334</ele>
        <time>2011-07-06T11:52:31Z</time>
      </trkpt>
      <trkpt lat="63.010806" lon="12.328065">
        <ele>964.948</ele>
        <time>2011-07-06T11:52:38Z</time>
      </trkpt>
      <trkpt lat="63.010849" lon="12.32789">
        <ele>966.756</ele>
        <time>2011-07-06T11:52:45Z</time>
      </trkpt>
      <trkpt lat="63.010874" lon="12.327689">
        <ele>968.719</ele>
        <time>2011-07-06T11:52:53Z</time>
      </trkpt>
      <trkpt lat="63.010882" lon="12.327562">
        <ele>969.601</ele>
        <time>2011-07-06T11:52:58Z</time>
      </trkpt>
      <trkpt lat="63.010907" lon="12.327455">
        <ele>970.03</ele>
        <time>2011-07-06T11:53:02Z</time>
      </trkpt>
      <trkpt lat="63.010922" lon="12.327316">
        <ele>970.5</ele>
        <time>2011-07-06T11:53:07Z</time>
      </trkpt>
      <trkpt lat="63.010947" lon="12.327192">
        <ele>971.246</ele>
        <time>2011-07-06T11:53:13Z</time>
      </trkpt>
      <trkpt lat="63.010974" lon="12.327105">
        <ele>971.888</ele>
        <time>2011-07-06T11:53:17Z</time>
      </trkpt>
      <trkpt lat="63.010975" lon="12.326861">
        <ele>973.766</ele>
        <time>2011-07-06T11:53:25Z</time>
      </trkpt>
      <trkpt lat="63.010971" lon="12.326675">
        <ele>974.467</ele>
        <time>2011-07-06T11:53:31Z</time>
      </trkpt>
      <trkpt lat="63.011002" lon="12.326518">
        <ele>974.688</ele>
        <time>2011-07-06T11:53:36Z</time>
      </trkpt>
      <trkpt lat="63.011017" lon="12.326412">
        <ele>974.745</ele>
        <time>2011-07-06T11:53:40Z</time>
      </trkpt>
      <trkpt lat="63.011007" lon="12.32633">
        <ele>975.286</ele>
        <time>2011-07-06T11:53:43Z</time>
      </trkpt>
      <trkpt lat="63.011018" lon="12.326198">
        <ele>976.21</ele>
        <time>2011-07-06T11:53:48Z</time>
      </trkpt>
      <trkpt lat="63.011037" lon="12.326028">
        <ele>977.131</ele>
        <time>2011-07-06T11:53:54Z</time>
      </trkpt>
      <trkpt lat="63.011062" lon="12.325903">
        <ele>977.361</ele>
        <time>2011-07-06T11:53:58Z</time>
      </trkpt>
      <trkpt lat="63.011121" lon="12.32569">
        <ele>977.58</ele>
        <time>2011-07-06T11:54:04Z</time>
      </trkpt>
      <trkpt lat="63.011176" lon="12.325569">
        <ele>977.509</ele>
        <time>2011-07-06T11:54:08Z</time>
      </trkpt>
      <trkpt lat="63.011223" lon="12.325348">
        <ele>977.116</ele>
        <time>2011-07-06T11:54:14Z</time>
      </trkpt>
      <trkpt lat="63.011318" lon="12.325135">
        <ele>977.406</ele>
        <time>2011-07-06T11:54:21Z</time>
      </trkpt>
      <trkpt lat="63.011346" lon="12.324998">
        <ele>977.38</ele>
        <time>2011-07-06T11:54:27Z</time>
      </trkpt>
      <trkpt lat="63.011361" lon="12.324938">
        <ele>976.875</ele>
        <time>2011-07-06T11:54:30Z</time>
      </trkpt>
      <trkpt lat="63.011411" lon="12.324859">
        <ele>975.45</ele>
        <time>2011-07-06T11:54:38Z</time>
      </trkpt>
      <trkpt lat="63.011413" lon="12.324857">
        <ele>975.15</ele>
        <time>2011-07-06T11:54:39Z</time>
      </trkpt>
      <trkpt lat="63.011438" lon="12.324805">
        <ele>975.523</ele>
        <time>2011-07-06T11:54:45Z</time>
      </trkpt>
      <trkpt lat="63.011434" lon="12.324822">
        <ele>975.806</ele>
        <time>2011-07-06T11:54:47Z</time>
      </trkpt>
      <trkpt lat="63.011464" lon="12.32473">
        <ele>976.148</ele>
        <time>2011-07-06T11:54:52Z</time>
      </trkpt>
      <trkpt lat="63.01147" lon="12.324611">
        <ele>977.369</ele>
        <time>2011-07-06T11:54:57Z</time>
      </trkpt>
      <trkpt lat="63.011473" lon="12.324521">
        <ele>978.2</ele>
        <time>2011-07-06T11:55:00Z</time>
      </trkpt>
      <trkpt lat="63.011476" lon="12.324296">
        <ele>978.836</ele>
        <time>2011-07-06T11:55:08Z</time>
      </trkpt>
      <trkpt lat="63.011479" lon="12.324112">
        <ele>979.38</ele>
        <time>2011-07-06T11:55:16Z</time>
      </trkpt>
      <trkpt lat="63.011488" lon="12.324036">
        <ele>979.802</ele>
        <time>2011-07-06T11:55:19Z</time>
      </trkpt>
      <trkpt lat="63.011484" lon="12.323988">
        <ele>980.069</ele>
        <time>2011-07-06T11:55:21Z</time>
      </trkpt>
      <trkpt lat="63.011461" lon="12.323852">
        <ele>981.05</ele>
        <time>2011-07-06T11:55:27Z</time>
      </trkpt>
      <trkpt lat="63.011488" lon="12.323716">
        <ele>981.904</ele>
        <time>2011-07-06T11:55:33Z</time>
      </trkpt>
      <trkpt lat="63.011503" lon="12.323681">
        <ele>982.046</ele>
        <time>2011-07-06T11:55:36Z</time>
      </trkpt>
      <trkpt lat="63.011607" lon="12.323514">
        <ele>981.997</ele>
        <time>2011-07-06T11:55:49Z</time>
      </trkpt>
      <trkpt lat="63.011657" lon="12.323365">
        <ele>982.664</ele>
        <time>2011-07-06T11:55:55Z</time>
      </trkpt>
      <trkpt lat="63.011682" lon="12.323227">
        <ele>983.368</ele>
        <time>2011-07-06T11:56:01Z</time>
      </trkpt>
      <trkpt lat="63.011688" lon="12.323165">
        <ele>984.719</ele>
        <time>2011-07-06T11:56:04Z</time>
      </trkpt>
      <trkpt lat="63.011712" lon="12.323079">
        <ele>984.906</ele>
        <time>2011-07-06T11:56:08Z</time>
      </trkpt>
      <trkpt lat="63.011727" lon="12.32288">
        <ele>986.261</ele>
        <time>2011-07-06T11:56:15Z</time>
      </trkpt>
      <trkpt lat="63.011732" lon="12.322692">
        <ele>987.259</ele>
        <time>2011-07-06T11:56:21Z</time>
      </trkpt>
      <trkpt lat="63.011777" lon="12.322553">
        <ele>988.715</ele>
        <time>2011-07-06T11:56:27Z</time>
      </trkpt>
      <trkpt lat="63.011842" lon="12.322318">
        <ele>990.153</ele>
        <time>2011-07-06T11:56:36Z</time>
      </trkpt>
      <trkpt lat="63.011863" lon="12.322237">
        <ele>990.54</ele>
        <time>2011-07-06T11:56:39Z</time>
      </trkpt>
      <trkpt lat="63.011919" lon="12.322013">
        <ele>992.06</ele>
        <time>2011-07-06T11:56:48Z</time>
      </trkpt>
      <trkpt lat="63.012015" lon="12.321713">
        <ele>993.451</ele>
        <time>2011-07-06T11:56:59Z</time>
      </trkpt>
      <trkpt lat="63.012102" lon="12.321377">
        <ele>994.679</ele>
        <time>2011-07-06T11:57:07Z</time>
      </trkpt>
      <trkpt lat="63.012173" lon="12.321047">
        <ele>995.604</ele>
        <time>2011-07-06T11:57:14Z</time>
      </trkpt>
      <trkpt lat="63.012237" lon="12.320763">
        <ele>996.647</ele>
        <time>2011-07-06T11:57:21Z</time>
      </trkpt>
      <trkpt lat="63.012273" lon="12.32049">
        <ele>996.171</ele>
        <time>2011-07-06T11:57:27Z</time>
      </trkpt>
      <trkpt lat="63.012319" lon="12.320321">
        <ele>995.404</ele>
        <time>2011-07-06T11:57:31Z</time>
      </trkpt>
      <trkpt lat="63.012318" lon="12.320237">
        <ele>995.598</ele>
        <time>2011-07-06T11:57:33Z</time>
      </trkpt>
      <trkpt lat="63.012337" lon="12.320006">
        <ele>995.322</ele>
        <time>2011-07-06T11:57:39Z</time>
      </trkpt>
      <trkpt lat="63.01237" lon="12.319874">
        <ele>995.673</ele>
        <time>2011-07-06T11:57:45Z</time>
      </trkpt>
      <trkpt lat="63.012421" lon="12.319781">
        <ele>997.503</ele>
        <time>2011-07-06T11:57:52Z</time>
      </trkpt>
      <trkpt lat="63.012482" lon="12.319677">
        <ele>998.039</ele>
        <time>2011-07-06T11:57:58Z</time>
      </trkpt>
      <trkpt lat="63.012557" lon="12.319522">
        <ele>997.944</ele>
        <time>2011-07-06T11:58:07Z</time>
      </trkpt>
      <trkpt lat="63.01262" lon="12.3194">
        <ele>997.951</ele>
        <time>2011-07-06T11:58:11Z</time>
      </trkpt>
      <trkpt lat="63.012745" lon="12.319196">
        <ele>998.029</ele>
        <time>2011-07-06T11:58:18Z</time>
      </trkpt>
      <trkpt lat="63.012824" lon="12.31905">
        <ele>998.046</ele>
        <time>2011-07-06T11:58:23Z</time>
      </trkpt>
      <trkpt lat="63.012904" lon="12.318988">
        <ele>997.679</ele>
        <time>2011-07-06T11:58:27Z</time>
      </trkpt>
      <trkpt lat="63.012956" lon="12.318874">
        <ele>997.027</ele>
        <time>2011-07-06T11:58:33Z</time>
      </trkpt>
      <trkpt lat="63.012972" lon="12.318615">
        <ele>998.151</ele>
        <time>2011-07-06T11:58:39Z</time>
      </trkpt>
      <trkpt lat="63.013028" lon="12.318519">
        <ele>999.017</ele>
        <time>2011-07-06T11:58:43Z</time>
      </trkpt>
      <trkpt lat="63.013043" lon="12.318486">
        <ele>999.097</ele>
        <time>2011-07-06T11:58:44Z</time>
      </trkpt>
      <trkpt lat="63.013145" lon="12.318272">
        <ele>999.377</ele>
        <time>2011-07-06T11:58:50Z</time>
      </trkpt>
      <trkpt lat="63.013193" lon="12.318145">
        <ele>1000.46</ele>
        <time>2011-07-06T11:58:56Z</time>
      </trkpt>
      <trkpt lat="63.013275" lon="12.317985">
        <ele>1000.5</ele>
        <time>2011-07-06T11:59:02Z</time>
      </trkpt>
      <trkpt lat="63.013363" lon="12.317825">
        <ele>1000.2</ele>
        <time>2011-07-06T11:59:07Z</time>
      </trkpt>
      <trkpt lat="63.013474" lon="12.317665">
        <ele>999.422</ele>
        <time>2011-07-06T11:59:13Z</time>
      </trkpt>
      <trkpt lat="63.013542" lon="12.31744">
        <ele>999.366</ele>
        <time>2011-07-06T11:59:18Z</time>
      </trkpt>
      <trkpt lat="63.013602" lon="12.317333">
        <ele>999.397</ele>
        <time>2011-07-06T11:59:22Z</time>
      </trkpt>
      <trkpt lat="63.013689" lon="12.316994">
        <ele>999.099</ele>
        <time>2011-07-06T11:59:29Z</time>
      </trkpt>
      <trkpt lat="63.013723" lon="12.316904">
        <ele>998.923</ele>
        <time>2011-07-06T11:59:31Z</time>
      </trkpt>
      <trkpt lat="63.013764" lon="12.316732">
        <ele>998.413</ele>
        <time>2011-07-06T11:59:35Z</time>
      </trkpt>
      <trkpt lat="63.01388" lon="12.316437">
        <ele>996.771</ele>
        <time>2011-07-06T11:59:42Z</time>
      </trkpt>
      <trkpt lat="63.013998" lon="12.31621">
        <ele>995.831</ele>
        <time>2011-07-06T11:59:48Z</time>
      </trkpt>
      <trkpt lat="63.014035" lon="12.316019">
        <ele>996.266</ele>
        <time>2011-07-06T11:59:53Z</time>
      </trkpt>
      <trkpt lat="63.014067" lon="12.315993">
        <ele>996.191</ele>
        <time>2011-07-06T11:59:55Z</time>
      </trkpt>
      <trkpt lat="63.014108" lon="12.316004">
        <ele>995.814</ele>
        <time>2011-07-06T11:59:57Z</time>
      </trkpt>
      <trkpt lat="63.014222" lon="12.315851">
        <ele>995.55</ele>
        <time>2011-07-06T12:00:03Z</time>
      </trkpt>
      <trkpt lat="63.014264" lon="12.315786">
        <ele>995.755</ele>
        <time>2011-07-06T12:00:05Z</time>
      </trkpt>
      <trkpt lat="63.014419" lon="12.315507">
        <ele>995.665</ele>
        <time>2011-07-06T12:00:13Z</time>
      </trkpt>
      <trkpt lat="63.014548" lon="12.315312">
        <ele>994.953</ele>
        <time>2011-07-06T12:00:19Z</time>
      </trkpt>
      <trkpt lat="63.014629" lon="12.315145">
        <ele>994.326</ele>
        <time>2011-07-06T12:00:24Z</time>
      </trkpt>
      <trkpt lat="63.014713" lon="12.314981">
        <ele>993.646</ele>
        <time>2011-07-06T12:00:29Z</time>
      </trkpt>
      <trkpt lat="63.01475" lon="12.314903">
        <ele>993.451</ele>
        <time>2011-07-06T12:00:32Z</time>
      </trkpt>
      <trkpt lat="63.01481" lon="12.314704">
        <ele>992.925</ele>
        <time>2011-07-06T12:00:40Z</time>
      </trkpt>
      <trkpt lat="63.014833" lon="12.31451">
        <ele>993.26</ele>
        <time>2011-07-06T12:00:47Z</time>
      </trkpt>
      <trkpt lat="63.014884" lon="12.314306">
        <ele>994.655</ele>
        <time>2011-07-06T12:00:53Z</time>
      </trkpt>
      <trkpt lat="63.014934" lon="12.314183">
        <ele>995.009</ele>
        <time>2011-07-06T12:00:57Z</time>
      </trkpt>
      <trkpt lat="63.01496" lon="12.314088">
        <ele>995.043</ele>
        <time>2011-07-06T12:01:01Z</time>
      </trkpt>
      <trkpt lat="63.015033" lon="12.313924">
        <ele>995.428</ele>
        <time>2011-07-06T12:01:08Z</time>
      </trkpt>
      <trkpt lat="63.015046" lon="12.313906">
        <ele>995.394</ele>
        <time>2011-07-06T12:01:09Z</time>
      </trkpt>
      <trkpt lat="63.015133" lon="12.313728">
        <ele>995.513</ele>
        <time>2011-07-06T12:01:17Z</time>
      </trkpt>
      <trkpt lat="63.015228" lon="12.313539">
        <ele>995.888</ele>
        <time>2011-07-06T12:01:25Z</time>
      </trkpt>
      <trkpt lat="63.015342" lon="12.313311">
        <ele>996.312</ele>
        <time>2011-07-06T12:01:35Z</time>
      </trkpt>
      <trkpt lat="63.015429" lon="12.313132">
        <ele>996.316</ele>
        <time>2011-07-06T12:01:43Z</time>
      </trkpt>
      <trkpt lat="63.01551" lon="12.312982">
        <ele>996.324</ele>
        <time>2011-07-06T12:01:50Z</time>
      </trkpt>
      <trkpt lat="63.015579" lon="12.312821">
        <ele>995.904</ele>
        <time>2011-07-06T12:01:58Z</time>
      </trkpt>
      <trkpt lat="63.015695" lon="12.312675">
        <ele>995.493</ele>
        <time>2011-07-06T12:02:07Z</time>
      </trkpt>
      <trkpt lat="63.015793" lon="12.312538">
        <ele>994.51</ele>
        <time>2011-07-06T12:02:13Z</time>
      </trkpt>
      <trkpt lat="63.015943" lon="12.3123">
        <ele>993.754</ele>
        <time>2011-07-06T12:02:20Z</time>
      </trkpt>
      <trkpt lat="63.016023" lon="12.312196">
        <ele>993.513</ele>
        <time>2011-07-06T12:02:24Z</time>
      </trkpt>
      <trkpt lat="63.016123" lon="12.311834">
        <ele>994.411</ele>
        <time>2011-07-06T12:02:32Z</time>
      </trkpt>
      <trkpt lat="63.016152" lon="12.31165">
        <ele>995.25</ele>
        <time>2011-07-06T12:02:36Z</time>
      </trkpt>
      <trkpt lat="63.01624" lon="12.311468">
        <ele>995.162</ele>
        <time>2011-07-06T12:02:41Z</time>
      </trkpt>
      <trkpt lat="63.016279" lon="12.311405">
        <ele>995.139</ele>
        <time>2011-07-06T12:02:43Z</time>
      </trkpt>
      <trkpt lat="63.016324" lon="12.31123">
        <ele>995.657</ele>
        <time>2011-07-06T12:02:49Z</time>
      </trkpt>
      <trkpt lat="63.016383" lon="12.311075">
        <ele>995.737</ele>
        <time>2011-07-06T12:02:56Z</time>
      </trkpt>
      <trkpt lat="63.016408" lon="12.311026">
        <ele>996.185</ele>
        <time>2011-07-06T12:02:59Z</time>
      </trkpt>
      <trkpt lat="63.016449" lon="12.310997">
        <ele>996.196</ele>
        <time>2011-07-06T12:03:03Z</time>
      </trkpt>
      <trkpt lat="63.016535" lon="12.310862">
        <ele>996.8</ele>
        <time>2011-07-06T12:03:12Z</time>
      </trkpt>
      <trkpt lat="63.016619" lon="12.310797">
        <ele>996.19</ele>
        <time>2011-07-06T12:03:17Z</time>
      </trkpt>
      <trkpt lat="63.016726" lon="12.310619">
        <ele>995.892</ele>
        <time>2011-07-06T12:03:26Z</time>
      </trkpt>
      <trkpt lat="63.01681" lon="12.310399">
        <ele>995.836</ele>
        <time>2011-07-06T12:03:35Z</time>
      </trkpt>
      <trkpt lat="63.016862" lon="12.310237">
        <ele>995.962</ele>
        <time>2011-07-06T12:03:42Z</time>
      </trkpt>
      <trkpt lat="63.016911" lon="12.310069">
        <ele>995.926</ele>
        <time>2011-07-06T12:03:50Z</time>
      </trkpt>
      <trkpt lat="63.016924" lon="12.310048">
        <ele>996.103</ele>
        <time>2011-07-06T12:03:54Z</time>
      </trkpt>
      <trkpt lat="63.017018" lon="12.309646">
        <ele>996.363</ele>
        <time>2011-07-06T12:04:47Z</time>
      </trkpt>
      <trkpt lat="63.017083" lon="12.309517">
        <ele>995.33</ele>
        <time>2011-07-06T12:04:54Z</time>
      </trkpt>
      <trkpt lat="63.017125" lon="12.309345">
        <ele>994.955</ele>
        <time>2011-07-06T12:05:00Z</time>
      </trkpt>
      <trkpt lat="63.017172" lon="12.309109">
        <ele>994.861</ele>
        <time>2011-07-06T12:05:06Z</time>
      </trkpt>
      <trkpt lat="63.01725" lon="12.308883">
        <ele>994.645</ele>
        <time>2011-07-06T12:05:12Z</time>
      </trkpt>
      <trkpt lat="63.017389" lon="12.308634">
        <ele>995.863</ele>
        <time>2011-07-06T12:05:20Z</time>
      </trkpt>
      <trkpt lat="63.01745" lon="12.308547">
        <ele>996.054</ele>
        <time>2011-07-06T12:05:23Z</time>
      </trkpt>
      <trkpt lat="63.017538" lon="12.308248">
        <ele>996.457</ele>
        <time>2011-07-06T12:05:30Z</time>
      </trkpt>
      <trkpt lat="63.017621" lon="12.308058">
        <ele>995.987</ele>
        <time>2011-07-06T12:05:36Z</time>
      </trkpt>
      <trkpt lat="63.01769" lon="12.307809">
        <ele>994.522</ele>
        <time>2011-07-06T12:05:42Z</time>
      </trkpt>
      <trkpt lat="63.017747" lon="12.307661">
        <ele>994.938</ele>
        <time>2011-07-06T12:05:48Z</time>
      </trkpt>
      <trkpt lat="63.017807" lon="12.30754">
        <ele>995.812</ele>
        <time>2011-07-06T12:05:55Z</time>
      </trkpt>
      <trkpt lat="63.017904" lon="12.307444">
        <ele>996.29</ele>
        <time>2011-07-06T12:06:01Z</time>
      </trkpt>
      <trkpt lat="63.017983" lon="12.307257">
        <ele>997.649</ele>
        <time>2011-07-06T12:06:06Z</time>
      </trkpt>
      <trkpt lat="63.01807" lon="12.30703">
        <ele>999.317</ele>
        <time>2011-07-06T12:06:12Z</time>
      </trkpt>
      <trkpt lat="63.018165" lon="12.306686">
        <ele>1000.36</ele>
        <time>2011-07-06T12:06:20Z</time>
      </trkpt>
      <trkpt lat="63.018246" lon="12.306404">
        <ele>1001.67</ele>
        <time>2011-07-06T12:06:27Z</time>
      </trkpt>
      <trkpt lat="63.018301" lon="12.306204">
        <ele>1001.88</ele>
        <time>2011-07-06T12:06:32Z</time>
      </trkpt>
      <trkpt lat="63.018332" lon="12.306145">
        <ele>1001.99</ele>
        <time>2011-07-06T12:06:34Z</time>
      </trkpt>
      <trkpt lat="63.018406" lon="12.305948">
        <ele>1002.23</ele>
        <time>2011-07-06T12:06:40Z</time>
      </trkpt>
      <trkpt lat="63.018481" lon="12.305813">
        <ele>1002.35</ele>
        <time>2011-07-06T12:06:46Z</time>
      </trkpt>
      <trkpt lat="63.018536" lon="12.305716">
        <ele>1001.74</ele>
        <time>2011-07-06T12:06:52Z</time>
      </trkpt>
      <trkpt lat="63.018559" lon="12.305657">
        <ele>1001.68</ele>
        <time>2011-07-06T12:06:55Z</time>
      </trkpt>
      <trkpt lat="63.018661" lon="12.305609">
        <ele>1001.85</ele>
        <time>2011-07-06T12:07:03Z</time>
      </trkpt>
      <trkpt lat="63.018769" lon="12.305471">
        <ele>1003.21</ele>
        <time>2011-07-06T12:07:10Z</time>
      </trkpt>
      <trkpt lat="63.018865" lon="12.305317">
        <ele>1004.26</ele>
        <time>2011-07-06T12:07:18Z</time>
      </trkpt>
      <trkpt lat="63.018964" lon="12.305025">
        <ele>1003.82</ele>
        <time>2011-07-06T12:07:24Z</time>
      </trkpt>
      <trkpt lat="63.019023" lon="12.30486">
        <ele>1003.79</ele>
        <time>2011-07-06T12:07:28Z</time>
      </trkpt>
      <trkpt lat="63.019093" lon="12.304619">
        <ele>1003.83</ele>
        <time>2011-07-06T12:07:34Z</time>
      </trkpt>
      <trkpt lat="63.01915" lon="12.304487">
        <ele>1004.65</ele>
        <time>2011-07-06T12:07:39Z</time>
      </trkpt>
      <trkpt lat="63.019209" lon="12.3043">
        <ele>1004.52</ele>
        <time>2011-07-06T12:07:44Z</time>
      </trkpt>
      <trkpt lat="63.019299" lon="12.304164">
        <ele>1004.87</ele>
        <time>2011-07-06T12:07:50Z</time>
      </trkpt>
      <trkpt lat="63.019393" lon="12.304064">
        <ele>1004</ele>
        <time>2011-07-06T12:07:55Z</time>
      </trkpt>
      <trkpt lat="63.019469" lon="12.303923">
        <ele>1003.24</ele>
        <time>2011-07-06T12:08:01Z</time>
      </trkpt>
      <trkpt lat="63.019539" lon="12.303769">
        <ele>1003.08</ele>
        <time>2011-07-06T12:08:08Z</time>
      </trkpt>
      <trkpt lat="63.019565" lon="12.303651">
        <ele>1003.16</ele>
        <time>2011-07-06T12:08:12Z</time>
      </trkpt>
      <trkpt lat="63.019603" lon="12.303486">
        <ele>1003.51</ele>
        <time>2011-07-06T12:08:16Z</time>
      </trkpt>
      <trkpt lat="63.019667" lon="12.30307">
        <ele>1003.79</ele>
        <time>2011-07-06T12:08:23Z</time>
      </trkpt>
      <trkpt lat="63.019735" lon="12.302803">
        <ele>1003.82</ele>
        <time>2011-07-06T12:08:28Z</time>
      </trkpt>
      <trkpt lat="63.019804" lon="12.302576">
        <ele>1003.32</ele>
        <time>2011-07-06T12:08:33Z</time>
      </trkpt>
      <trkpt lat="63.019853" lon="12.302389">
        <ele>1002.99</ele>
        <time>2011-07-06T12:08:38Z</time>
      </trkpt>
      <trkpt lat="63.019922" lon="12.302227">
        <ele>1003.5</ele>
        <time>2011-07-06T12:08:43Z</time>
      </trkpt>
      <trkpt lat="63.019975" lon="12.302053">
        <ele>1003.37</ele>
        <time>2011-07-06T12:08:47Z</time>
      </trkpt>
      <trkpt lat="63.020032" lon="12.301981">
        <ele>1003.95</ele>
        <time>2011-07-06T12:08:50Z</time>
      </trkpt>
      <trkpt lat="63.02011" lon="12.301947">
        <ele>1003.54</ele>
        <time>2011-07-06T12:08:53Z</time>
      </trkpt>
      <trkpt lat="63.020266" lon="12.301719">
        <ele>1003.15</ele>
        <time>2011-07-06T12:09:00Z</time>
      </trkpt>
      <trkpt lat="63.020393" lon="12.301518">
        <ele>1003.96</ele>
        <time>2011-07-06T12:09:06Z</time>
      </trkpt>
      <trkpt lat="63.020515" lon="12.301333">
        <ele>1004.73</ele>
        <time>2011-07-06T12:09:12Z</time>
      </trkpt>
      <trkpt lat="63.020609" lon="12.301219">
        <ele>1004.91</ele>
        <time>2011-07-06T12:09:17Z</time>
      </trkpt>
      <trkpt lat="63.020644" lon="12.301164">
        <ele>1005.02</ele>
        <time>2011-07-06T12:09:19Z</time>
      </trkpt>
      <trkpt lat="63.020772" lon="12.300969">
        <ele>1005.15</ele>
        <time>2011-07-06T12:09:26Z</time>
      </trkpt>
      <trkpt lat="63.020809" lon="12.300818">
        <ele>1005.88</ele>
        <time>2011-07-06T12:09:31Z</time>
      </trkpt>
      <trkpt lat="63.020852" lon="12.300652">
        <ele>1006.03</ele>
        <time>2011-07-06T12:09:38Z</time>
      </trkpt>
      <trkpt lat="63.020892" lon="12.300466">
        <ele>1006.24</ele>
        <time>2011-07-06T12:09:45Z</time>
      </trkpt>
      <trkpt lat="63.020926" lon="12.300251">
        <ele>1006.65</ele>
        <time>2011-07-06T12:09:52Z</time>
      </trkpt>
      <trkpt lat="63.020937" lon="12.299998">
        <ele>1007.8</ele>
        <time>2011-07-06T12:10:00Z</time>
      </trkpt>
      <trkpt lat="63.020972" lon="12.299895">
        <ele>1007.93</ele>
        <time>2011-07-06T12:10:05Z</time>
      </trkpt>
      <trkpt lat="63.021006" lon="12.299815">
        <ele>1008.02</ele>
        <time>2011-07-06T12:10:09Z</time>
      </trkpt>
      <trkpt lat="63.021071" lon="12.299569">
        <ele>1008.8</ele>
        <time>2011-07-06T12:10:19Z</time>
      </trkpt>
      <trkpt lat="63.021135" lon="12.299477">
        <ele>1008.83</ele>
        <time>2011-07-06T12:10:24Z</time>
      </trkpt>
      <trkpt lat="63.021154" lon="12.299422">
        <ele>1009.05</ele>
        <time>2011-07-06T12:10:27Z</time>
      </trkpt>
      <trkpt lat="63.021167" lon="12.299321">
        <ele>1010.06</ele>
        <time>2011-07-06T12:10:31Z</time>
      </trkpt>
      <trkpt lat="63.021235" lon="12.299092">
        <ele>1010.69</ele>
        <time>2011-07-06T12:10:38Z</time>
      </trkpt>
      <trkpt lat="63.02133" lon="12.298808">
        <ele>1010.65</ele>
        <time>2011-07-06T12:10:44Z</time>
      </trkpt>
      <trkpt lat="63.021391" lon="12.298553">
        <ele>1011.08</ele>
        <time>2011-07-06T12:10:49Z</time>
      </trkpt>
      <trkpt lat="63.021454" lon="12.298389">
        <ele>1011.29</ele>
        <time>2011-07-06T12:10:53Z</time>
      </trkpt>
      <trkpt lat="63.021527" lon="12.298097">
        <ele>1011.72</ele>
        <time>2011-07-06T12:11:00Z</time>
      </trkpt>
      <trkpt lat="63.021646" lon="12.297814">
        <ele>1011.37</ele>
        <time>2011-07-06T12:11:07Z</time>
      </trkpt>
      <trkpt lat="63.021718" lon="12.297574">
        <ele>1011.13</ele>
        <time>2011-07-06T12:11:13Z</time>
      </trkpt>
      <trkpt lat="63.021838" lon="12.297344">
        <ele>1010.54</ele>
        <time>2011-07-06T12:11:20Z</time>
      </trkpt>
      <trkpt lat="63.021964" lon="12.297016">
        <ele>1009.93</ele>
        <time>2011-07-06T12:11:28Z</time>
      </trkpt>
      <trkpt lat="63.022045" lon="12.296796">
        <ele>1009.31</ele>
        <time>2011-07-06T12:11:33Z</time>
      </trkpt>
      <trkpt lat="63.022115" lon="12.29658">
        <ele>1008.42</ele>
        <time>2011-07-06T12:11:38Z</time>
      </trkpt>
      <trkpt lat="63.022193" lon="12.296362">
        <ele>1007.65</ele>
        <time>2011-07-06T12:11:43Z</time>
      </trkpt>
      <trkpt lat="63.022294" lon="12.296129">
        <ele>1007.47</ele>
        <time>2011-07-06T12:11:49Z</time>
      </trkpt>
      <trkpt lat="63.022409" lon="12.295829">
        <ele>1007.15</ele>
        <time>2011-07-06T12:11:56Z</time>
      </trkpt>
      <trkpt lat="63.022537" lon="12.295542">
        <ele>1006.9</ele>
        <time>2011-07-06T12:12:03Z</time>
      </trkpt>
      <trkpt lat="63.022582" lon="12.295318">
        <ele>1007.48</ele>
        <time>2011-07-06T12:12:08Z</time>
      </trkpt>
      <trkpt lat="63.022641" lon="12.295005">
        <ele>1006.52</ele>
        <time>2011-07-06T12:12:15Z</time>
      </trkpt>
      <trkpt lat="63.022687" lon="12.294838">
        <ele>1006.3</ele>
        <time>2011-07-06T12:12:20Z</time>
      </trkpt>
      <trkpt lat="63.022698" lon="12.294783">
        <ele>1006.12</ele>
        <time>2011-07-06T12:12:22Z</time>
      </trkpt>
      <trkpt lat="63.022717" lon="12.294736">
        <ele>1005.97</ele>
        <time>2011-07-06T12:12:25Z</time>
      </trkpt>
      <trkpt lat="63.022732" lon="12.294624">
        <ele>1006.22</ele>
        <time>2011-07-06T12:12:31Z</time>
      </trkpt>
      <trkpt lat="63.022735" lon="12.294614">
        <ele>1006.21</ele>
        <time>2011-07-06T12:12:33Z</time>
      </trkpt>
      <trkpt lat="63.022753" lon="12.294644">
        <ele>1006.66</ele>
        <time>2011-07-06T12:12:56Z</time>
      </trkpt>
      <trkpt lat="63.022802" lon="12.294662">
        <ele>1006.99</ele>
        <time>2011-07-06T12:13:01Z</time>
      </trkpt>
      <trkpt lat="63.022889" lon="12.294613">
        <ele>1006.9</ele>
        <time>2011-07-06T12:13:09Z</time>
      </trkpt>
      <trkpt lat="63.022974" lon="12.294552">
        <ele>1006.99</ele>
        <time>2011-07-06T12:13:16Z</time>
      </trkpt>
      <trkpt lat="63.023021" lon="12.294527">
        <ele>1007.32</ele>
        <time>2011-07-06T12:13:20Z</time>
      </trkpt>
      <trkpt lat="63.023088" lon="12.294419">
        <ele>1007.56</ele>
        <time>2011-07-06T12:13:27Z</time>
      </trkpt>
      <trkpt lat="63.023149" lon="12.294314">
        <ele>1007.61</ele>
        <time>2011-07-06T12:13:33Z</time>
      </trkpt>
      <trkpt lat="63.023241" lon="12.294187">
        <ele>1007.93</ele>
        <time>2011-07-06T12:13:39Z</time>
      </trkpt>
      <trkpt lat="63.023376" lon="12.294074">
        <ele>1008.66</ele>
        <time>2011-07-06T12:13:46Z</time>
      </trkpt>
      <trkpt lat="63.023488" lon="12.29394">
        <ele>1009.02</ele>
        <time>2011-07-06T12:13:52Z</time>
      </trkpt>
      <trkpt lat="63.023515" lon="12.293886">
        <ele>1009.19</ele>
        <time>2011-07-06T12:13:54Z</time>
      </trkpt>
      <trkpt lat="63.023613" lon="12.293797">
        <ele>1009.7</ele>
        <time>2011-07-06T12:13:59Z</time>
      </trkpt>
      <trkpt lat="63.023712" lon="12.293714">
        <ele>1010.35</ele>
        <time>2011-07-06T12:14:04Z</time>
      </trkpt>
      <trkpt lat="63.023819" lon="12.293558">
        <ele>1010.97</ele>
        <time>2011-07-06T12:14:10Z</time>
      </trkpt>
      <trkpt lat="63.023981" lon="12.293424">
        <ele>1012</ele>
        <time>2011-07-06T12:14:18Z</time>
      </trkpt>
      <trkpt lat="63.024144" lon="12.293292">
        <ele>1013.12</ele>
        <time>2011-07-06T12:14:26Z</time>
      </trkpt>
      <trkpt lat="63.024288" lon="12.293126">
        <ele>1014.96</ele>
        <time>2011-07-06T12:14:34Z</time>
      </trkpt>
      <trkpt lat="63.024411" lon="12.292973">
        <ele>1016.56</ele>
        <time>2011-07-06T12:14:41Z</time>
      </trkpt>
      <trkpt lat="63.024513" lon="12.292834">
        <ele>1017.37</ele>
        <time>2011-07-06T12:14:47Z</time>
      </trkpt>
      <trkpt lat="63.024617" lon="12.292703">
        <ele>1017.66</ele>
        <time>2011-07-06T12:14:53Z</time>
      </trkpt>
      <trkpt lat="63.024671" lon="12.292661">
        <ele>1017.67</ele>
        <time>2011-07-06T12:14:57Z</time>
      </trkpt>
      <trkpt lat="63.024772" lon="12.292528">
        <ele>1017.7</ele>
        <time>2011-07-06T12:15:03Z</time>
      </trkpt>
      <trkpt lat="63.024938" lon="12.292285">
        <ele>1019.03</ele>
        <time>2011-07-06T12:15:12Z</time>
      </trkpt>
      <trkpt lat="63.025076" lon="12.292094">
        <ele>1019.04</ele>
        <time>2011-07-06T12:15:19Z</time>
      </trkpt>
      <trkpt lat="63.02522" lon="12.291924">
        <ele>1018.89</ele>
        <time>2011-07-06T12:15:26Z</time>
      </trkpt>
      <trkpt lat="63.025341" lon="12.29177">
        <ele>1018.73</ele>
        <time>2011-07-06T12:15:32Z</time>
      </trkpt>
      <trkpt lat="63.025447" lon="12.291639">
        <ele>1019.26</ele>
        <time>2011-07-06T12:15:38Z</time>
      </trkpt>
      <trkpt lat="63.025561" lon="12.291463">
        <ele>1020.76</ele>
        <time>2011-07-06T12:15:45Z</time>
      </trkpt>
      <trkpt lat="63.025659" lon="12.291369">
        <ele>1021.45</ele>
        <time>2011-07-06T12:15:50Z</time>
      </trkpt>
      <trkpt lat="63.025791" lon="12.291271">
        <ele>1021.68</ele>
        <time>2011-07-06T12:15:56Z</time>
      </trkpt>
      <trkpt lat="63.025933" lon="12.291178">
        <ele>1021.4</ele>
        <time>2011-07-06T12:16:03Z</time>
      </trkpt>
      <trkpt lat="63.02595" lon="12.291152">
        <ele>1021.4</ele>
        <time>2011-07-06T12:16:04Z</time>
      </trkpt>
      <trkpt lat="63.026053" lon="12.291109">
        <ele>1021.9</ele>
        <time>2011-07-06T12:16:09Z</time>
      </trkpt>
      <trkpt lat="63.026147" lon="12.291011">
        <ele>1021.94</ele>
        <time>2011-07-06T12:16:13Z</time>
      </trkpt>
      <trkpt lat="63.026289" lon="12.290897">
        <ele>1023.01</ele>
        <time>2011-07-06T12:16:20Z</time>
      </trkpt>
      <trkpt lat="63.026392" lon="12.290815">
        <ele>1024.26</ele>
        <time>2011-07-06T12:16:25Z</time>
      </trkpt>
      <trkpt lat="63.026463" lon="12.29072">
        <ele>1025.4</ele>
        <time>2011-07-06T12:16:29Z</time>
      </trkpt>
      <trkpt lat="63.026539" lon="12.290708">
        <ele>1026.15</ele>
        <time>2011-07-06T12:16:33Z</time>
      </trkpt>
      <trkpt lat="63.026571" lon="12.290686">
        <ele>1026.68</ele>
        <time>2011-07-06T12:16:35Z</time>
      </trkpt>
      <trkpt lat="63.026634" lon="12.290618">
        <ele>1027.85</ele>
        <time>2011-07-06T12:16:39Z</time>
      </trkpt>
      <trkpt lat="63.026773" lon="12.290491">
        <ele>1029.59</ele>
        <time>2011-07-06T12:16:47Z</time>
      </trkpt>
      <trkpt lat="63.026872" lon="12.290451">
        <ele>1029.99</ele>
        <time>2011-07-06T12:16:52Z</time>
      </trkpt>
      <trkpt lat="63.026987" lon="12.29041">
        <ele>1030.79</ele>
        <time>2011-07-06T12:16:58Z</time>
      </trkpt>
      <trkpt lat="63.027132" lon="12.290313">
        <ele>1031.49</ele>
        <time>2011-07-06T12:17:05Z</time>
      </trkpt>
      <trkpt lat="63.027256" lon="12.290205">
        <ele>1032.8</ele>
        <time>2011-07-06T12:17:12Z</time>
      </trkpt>
      <trkpt lat="63.027306" lon="12.290168">
        <ele>1033.82</ele>
        <time>2011-07-06T12:17:15Z</time>
      </trkpt>
      <trkpt lat="63.027401" lon="12.290078">
        <ele>1036.31</ele>
        <time>2011-07-06T12:17:21Z</time>
      </trkpt>
      <trkpt lat="63.027417" lon="12.290066">
        <ele>1036.73</ele>
        <time>2011-07-06T12:17:22Z</time>
      </trkpt>
      <trkpt lat="63.027504" lon="12.289996">
        <ele>1038.5</ele>
        <time>2011-07-06T12:17:28Z</time>
      </trkpt>
      <trkpt lat="63.027609" lon="12.28994">
        <ele>1039.34</ele>
        <time>2011-07-06T12:17:35Z</time>
      </trkpt>
      <trkpt lat="63.027725" lon="12.289847">
        <ele>1040.04</ele>
        <time>2011-07-06T12:17:44Z</time>
      </trkpt>
      <trkpt lat="63.027736" lon="12.289835">
        <ele>1040.25</ele>
        <time>2011-07-06T12:17:45Z</time>
      </trkpt>
      <trkpt lat="63.027752" lon="12.289799">
        <ele>1040.57</ele>
        <time>2011-07-06T12:17:47Z</time>
      </trkpt>
      <trkpt lat="63.027794" lon="12.289741">
        <ele>1041.27</ele>
        <time>2011-07-06T12:17:51Z</time>
      </trkpt>
      <trkpt lat="63.027826" lon="12.289659">
        <ele>1041.86</ele>
        <time>2011-07-06T12:17:55Z</time>
      </trkpt>
      <trkpt lat="63.027878" lon="12.289631">
        <ele>1042.95</ele>
        <time>2011-07-06T12:18:00Z</time>
      </trkpt>
      <trkpt lat="63.027897" lon="12.289631">
        <ele>1043.55</ele>
        <time>2011-07-06T12:18:02Z</time>
      </trkpt>
      <trkpt lat="63.027985" lon="12.289536">
        <ele>1045.68</ele>
        <time>2011-07-06T12:18:10Z</time>
      </trkpt>
      <trkpt lat="63.028036" lon="12.289502">
        <ele>1046.63</ele>
        <time>2011-07-06T12:18:14Z</time>
      </trkpt>
      <trkpt lat="63.02813" lon="12.289499">
        <ele>1048.18</ele>
        <time>2011-07-06T12:18:22Z</time>
      </trkpt>
      <trkpt lat="63.028218" lon="12.28943">
        <ele>1049.71</ele>
        <time>2011-07-06T12:18:29Z</time>
      </trkpt>
      <trkpt lat="63.028319" lon="12.289358">
        <ele>1050.95</ele>
        <time>2011-07-06T12:18:37Z</time>
      </trkpt>
      <trkpt lat="63.028394" lon="12.289294">
        <ele>1052.05</ele>
        <time>2011-07-06T12:18:43Z</time>
      </trkpt>
      <trkpt lat="63.028449" lon="12.289237">
        <ele>1052.86</ele>
        <time>2011-07-06T12:18:48Z</time>
      </trkpt>
      <trkpt lat="63.028521" lon="12.289203">
        <ele>1054.03</ele>
        <time>2011-07-06T12:18:55Z</time>
      </trkpt>
      <trkpt lat="63.028564" lon="12.289186">
        <ele>1055.26</ele>
        <time>2011-07-06T12:19:00Z</time>
      </trkpt>
      <trkpt lat="63.028576" lon="12.289165">
        <ele>1055.97</ele>
        <time>2011-07-06T12:19:02Z</time>
      </trkpt>
      <trkpt lat="63.028644" lon="12.289077">
        <ele>1057.05</ele>
        <time>2011-07-06T12:19:08Z</time>
      </trkpt>
      <trkpt lat="63.02877" lon="12.289013">
        <ele>1057.98</ele>
        <time>2011-07-06T12:19:17Z</time>
      </trkpt>
      <trkpt lat="63.028866" lon="12.288971">
        <ele>1059.11</ele>
        <time>2011-07-06T12:19:25Z</time>
      </trkpt>
      <trkpt lat="63.028937" lon="12.288889">
        <ele>1060.04</ele>
        <time>2011-07-06T12:19:32Z</time>
      </trkpt>
      <trkpt lat="63.029014" lon="12.288773">
        <ele>1061.55</ele>
        <time>2011-07-06T12:19:40Z</time>
      </trkpt>
      <trkpt lat="63.029133" lon="12.288715">
        <ele>1063.44</ele>
        <time>2011-07-06T12:19:48Z</time>
      </trkpt>
      <trkpt lat="63.029258" lon="12.288643">
        <ele>1065.38</ele>
        <time>2011-07-06T12:19:55Z</time>
      </trkpt>
      <trkpt lat="63.029354" lon="12.288606">
        <ele>1067.16</ele>
        <time>2011-07-06T12:20:00Z</time>
      </trkpt>
      <trkpt lat="63.029476" lon="12.28862">
        <ele>1069.03</ele>
        <time>2011-07-06T12:20:06Z</time>
      </trkpt>
      <trkpt lat="63.02959" lon="12.288618">
        <ele>1071.27</ele>
        <time>2011-07-06T12:20:12Z</time>
      </trkpt>
      <trkpt lat="63.029664" lon="12.288626">
        <ele>1073.05</ele>
        <time>2011-07-06T12:20:20Z</time>
      </trkpt>
      <trkpt lat="63.029678" lon="12.288611">
        <ele>1073.58</ele>
        <time>2011-07-06T12:20:22Z</time>
      </trkpt>
      <trkpt lat="63.029734" lon="12.288579">
        <ele>1075.63</ele>
        <time>2011-07-06T12:20:29Z</time>
      </trkpt>
      <trkpt lat="63.029751" lon="12.288579">
        <ele>1075.94</ele>
        <time>2011-07-06T12:20:31Z</time>
      </trkpt>
      <trkpt lat="63.029831" lon="12.288641">
        <ele>1077.37</ele>
        <time>2011-07-06T12:20:39Z</time>
      </trkpt>
      <trkpt lat="63.029908" lon="12.288666">
        <ele>1079.28</ele>
        <time>2011-07-06T12:20:46Z</time>
      </trkpt>
      <trkpt lat="63.030001" lon="12.2887">
        <ele>1080.96</ele>
        <time>2011-07-06T12:20:54Z</time>
      </trkpt>
      <trkpt lat="63.030079" lon="12.288693">
        <ele>1082.37</ele>
        <time>2011-07-06T12:21:02Z</time>
      </trkpt>
      <trkpt lat="63.030092" lon="12.288677">
        <ele>1082.77</ele>
        <time>2011-07-06T12:21:04Z</time>
      </trkpt>
      <trkpt lat="63.030147" lon="12.288615">
        <ele>1084.67</ele>
        <time>2011-07-06T12:21:11Z</time>
      </trkpt>
      <trkpt lat="63.030228" lon="12.28857">
        <ele>1086.11</ele>
        <time>2011-07-06T12:21:18Z</time>
      </trkpt>
      <trkpt lat="63.03029" lon="12.288519">
        <ele>1087.52</ele>
        <time>2011-07-06T12:21:24Z</time>
      </trkpt>
      <trkpt lat="63.030362" lon="12.288467">
        <ele>1088.83</ele>
        <time>2011-07-06T12:21:31Z</time>
      </trkpt>
      <trkpt lat="63.030451" lon="12.28846">
        <ele>1090.95</ele>
        <time>2011-07-06T12:21:39Z</time>
      </trkpt>
      <trkpt lat="63.030524" lon="12.288457">
        <ele>1091.96</ele>
        <time>2011-07-06T12:21:45Z</time>
      </trkpt>
      <trkpt lat="63.030578" lon="12.288386">
        <ele>1093.8</ele>
        <time>2011-07-06T12:21:52Z</time>
      </trkpt>
      <trkpt lat="63.030612" lon="12.288302">
        <ele>1095.63</ele>
        <time>2011-07-06T12:21:58Z</time>
      </trkpt>
      <trkpt lat="63.030699" lon="12.288288">
        <ele>1096.68</ele>
        <time>2011-07-06T12:22:05Z</time>
      </trkpt>
      <trkpt lat="63.030781" lon="12.288268">
        <ele>1098.25</ele>
        <time>2011-07-06T12:22:12Z</time>
      </trkpt>
      <trkpt lat="63.030855" lon="12.28819">
        <ele>1099.91</ele>
        <time>2011-07-06T12:22:19Z</time>
      </trkpt>
      <trkpt lat="63.030983" lon="12.288144">
        <ele>1102.24</ele>
        <time>2011-07-06T12:22:29Z</time>
      </trkpt>
      <trkpt lat="63.031075" lon="12.288084">
        <ele>1103.89</ele>
        <time>2011-07-06T12:22:37Z</time>
      </trkpt>
      <trkpt lat="63.031135" lon="12.288077">
        <ele>1104.53</ele>
        <time>2011-07-06T12:22:42Z</time>
      </trkpt>
      <trkpt lat="63.031214" lon="12.288058">
        <ele>1106.08</ele>
        <time>2011-07-06T12:22:49Z</time>
      </trkpt>
      <trkpt lat="63.031281" lon="12.288057">
        <ele>1107.19</ele>
        <time>2011-07-06T12:22:55Z</time>
      </trkpt>
      <trkpt lat="63.031292" lon="12.288058">
        <ele>1107.62</ele>
        <time>2011-07-06T12:22:56Z</time>
      </trkpt>
      <trkpt lat="63.031382" lon="12.287999">
        <ele>1109.9</ele>
        <time>2011-07-06T12:23:05Z</time>
      </trkpt>
      <trkpt lat="63.031453" lon="12.287935">
        <ele>1111.46</ele>
        <time>2011-07-06T12:23:12Z</time>
      </trkpt>
      <trkpt lat="63.031549" lon="12.287873">
        <ele>1113.39</ele>
        <time>2011-07-06T12:23:20Z</time>
      </trkpt>
      <trkpt lat="63.031659" lon="12.287824">
        <ele>1114.68</ele>
        <time>2011-07-06T12:23:29Z</time>
      </trkpt>
      <trkpt lat="63.031716" lon="12.287825">
        <ele>1115.56</ele>
        <time>2011-07-06T12:23:34Z</time>
      </trkpt>
      <trkpt lat="63.031777" lon="12.287752">
        <ele>1117.4</ele>
        <time>2011-07-06T12:23:40Z</time>
      </trkpt>
      <trkpt lat="63.03188" lon="12.287673">
        <ele>1119.29</ele>
        <time>2011-07-06T12:23:49Z</time>
      </trkpt>
      <trkpt lat="63.031912" lon="12.287636">
        <ele>1120.05</ele>
        <time>2011-07-06T12:23:52Z</time>
      </trkpt>
      <trkpt lat="63.031953" lon="12.287617">
        <ele>1120.95</ele>
        <time>2011-07-06T12:23:56Z</time>
      </trkpt>
      <trkpt lat="63.031988" lon="12.287576">
        <ele>1121.79</ele>
        <time>2011-07-06T12:24:00Z</time>
      </trkpt>
      <trkpt lat="63.032029" lon="12.28759">
        <ele>1123.2</ele>
        <time>2011-07-06T12:24:04Z</time>
      </trkpt>
      <trkpt lat="63.032087" lon="12.287519">
        <ele>1125.08</ele>
        <time>2011-07-06T12:24:11Z</time>
      </trkpt>
      <trkpt lat="63.032145" lon="12.287524">
        <ele>1126.9</ele>
        <time>2011-07-06T12:24:18Z</time>
      </trkpt>
      <trkpt lat="63.032204" lon="12.287492">
        <ele>1128.59</ele>
        <time>2011-07-06T12:24:25Z</time>
      </trkpt>
      <trkpt lat="63.032287" lon="12.287411">
        <ele>1130.68</ele>
        <time>2011-07-06T12:24:34Z</time>
      </trkpt>
      <trkpt lat="63.032342" lon="12.287407">
        <ele>1132</ele>
        <time>2011-07-06T12:24:40Z</time>
      </trkpt>
      <trkpt lat="63.032377" lon="12.28739">
        <ele>1133.44</ele>
        <time>2011-07-06T12:24:44Z</time>
      </trkpt>
      <trkpt lat="63.03244" lon="12.287368">
        <ele>1134.72</ele>
        <time>2011-07-06T12:24:51Z</time>
      </trkpt>
      <trkpt lat="63.032534" lon="12.287277">
        <ele>1136.5</ele>
        <time>2011-07-06T12:25:00Z</time>
      </trkpt>
      <trkpt lat="63.032546" lon="12.287275">
        <ele>1136.74</ele>
        <time>2011-07-06T12:25:01Z</time>
      </trkpt>
      <trkpt lat="63.032601" lon="12.287314">
        <ele>1137.69</ele>
        <time>2011-07-06T12:25:06Z</time>
      </trkpt>
      <trkpt lat="63.032675" lon="12.287316">
        <ele>1138.71</ele>
        <time>2011-07-06T12:25:13Z</time>
      </trkpt>
      <trkpt lat="63.032778" lon="12.287226">
        <ele>1140.43</ele>
        <time>2011-07-06T12:25:23Z</time>
      </trkpt>
      <trkpt lat="63.03281" lon="12.287227">
        <ele>1140.95</ele>
        <time>2011-07-06T12:25:26Z</time>
      </trkpt>
      <trkpt lat="63.032875" lon="12.287163">
        <ele>1142.38</ele>
        <time>2011-07-06T12:25:34Z</time>
      </trkpt>
      <trkpt lat="63.032959" lon="12.287104">
        <ele>1143.39</ele>
        <time>2011-07-06T12:25:43Z</time>
      </trkpt>
      <trkpt lat="63.033029" lon="12.287084">
        <ele>1144.27</ele>
        <time>2011-07-06T12:25:50Z</time>
      </trkpt>
      <trkpt lat="63.033032" lon="12.28708">
        <ele>1144.47</ele>
        <time>2011-07-06T12:25:51Z</time>
      </trkpt>
      <trkpt lat="63.033182" lon="12.287019">
        <ele>1145.15</ele>
        <time>2011-07-06T12:26:08Z</time>
      </trkpt>
      <trkpt lat="63.033271" lon="12.287019">
        <ele>1145.6</ele>
        <time>2011-07-06T12:26:15Z</time>
      </trkpt>
      <trkpt lat="63.033349" lon="12.28698">
        <ele>1146.41</ele>
        <time>2011-07-06T12:26:22Z</time>
      </trkpt>
      <trkpt lat="63.033432" lon="12.286935">
        <ele>1147.14</ele>
        <time>2011-07-06T12:26:30Z</time>
      </trkpt>
      <trkpt lat="63.033508" lon="12.286912">
        <ele>1147.97</ele>
        <time>2011-07-06T12:26:37Z</time>
      </trkpt>
      <trkpt lat="63.033512" lon="12.286911">
        <ele>1148.12</ele>
        <time>2011-07-06T12:26:38Z</time>
      </trkpt>
      <trkpt lat="63.033551" lon="12.286853">
        <ele>1148.16</ele>
        <time>2011-07-06T12:27:30Z</time>
      </trkpt>
      <trkpt lat="63.033648" lon="12.286848">
        <ele>1148.26</ele>
        <time>2011-07-06T12:27:38Z</time>
      </trkpt>
      <trkpt lat="63.033732" lon="12.286828">
        <ele>1148.87</ele>
        <time>2011-07-06T12:27:46Z</time>
      </trkpt>
      <trkpt lat="63.033736" lon="12.286827">
        <ele>1149.02</ele>
        <time>2011-07-06T12:27:48Z</time>
      </trkpt>
      <trkpt lat="63.033755" lon="12.286821">
        <ele>1149.42</ele>
        <time>2011-07-06T12:28:03Z</time>
      </trkpt>
      <trkpt lat="63.033795" lon="12.286796">
        <ele>1149.63</ele>
        <time>2011-07-06T12:28:17Z</time>
      </trkpt>
      <trkpt lat="63.033907" lon="12.286777">
        <ele>1150.18</ele>
        <time>2011-07-06T12:28:26Z</time>
      </trkpt>
      <trkpt lat="63.034026" lon="12.286751">
        <ele>1150.18</ele>
        <time>2011-07-06T12:28:35Z</time>
      </trkpt>
      <trkpt lat="63.034078" lon="12.286748">
        <ele>1150.4</ele>
        <time>2011-07-06T12:28:39Z</time>
      </trkpt>
      <trkpt lat="63.034183" lon="12.286803">
        <ele>1149.95</ele>
        <time>2011-07-06T12:28:45Z</time>
      </trkpt>
      <trkpt lat="63.03431" lon="12.286807">
        <ele>1149.59</ele>
        <time>2011-07-06T12:28:51Z</time>
      </trkpt>
      <trkpt lat="63.034416" lon="12.286787">
        <ele>1149.65</ele>
        <time>2011-07-06T12:28:57Z</time>
      </trkpt>
      <trkpt lat="63.034511" lon="12.286778">
        <ele>1150.67</ele>
        <time>2011-07-06T12:29:04Z</time>
      </trkpt>
      <trkpt lat="63.03464" lon="12.286746">
        <ele>1151.69</ele>
        <time>2011-07-06T12:29:14Z</time>
      </trkpt>
      <trkpt lat="63.034745" lon="12.286684">
        <ele>1152.12</ele>
        <time>2011-07-06T12:29:22Z</time>
      </trkpt>
      <trkpt lat="63.034886" lon="12.286647">
        <ele>1152.36</ele>
        <time>2011-07-06T12:29:32Z</time>
      </trkpt>
      <trkpt lat="63.034991" lon="12.286637">
        <ele>1151.71</ele>
        <time>2011-07-06T12:29:40Z</time>
      </trkpt>
      <trkpt lat="63.035063" lon="12.286638">
        <ele>1152.34</ele>
        <time>2011-07-06T12:29:47Z</time>
      </trkpt>
      <trkpt lat="63.03516" lon="12.286652">
        <ele>1151.36</ele>
        <time>2011-07-06T12:29:54Z</time>
      </trkpt>
      <trkpt lat="63.035255" lon="12.286689">
        <ele>1150.96</ele>
        <time>2011-07-06T12:30:00Z</time>
      </trkpt>
      <trkpt lat="63.035346" lon="12.28678">
        <ele>1149.75</ele>
        <time>2011-07-06T12:30:06Z</time>
      </trkpt>
      <trkpt lat="63.035496" lon="12.286806">
        <ele>1147.4</ele>
        <time>2011-07-06T12:30:13Z</time>
      </trkpt>
      <trkpt lat="63.035625" lon="12.286823">
        <ele>1145.37</ele>
        <time>2011-07-06T12:30:19Z</time>
      </trkpt>
      <trkpt lat="63.035662" lon="12.286821">
        <ele>1144.99</ele>
        <time>2011-07-06T12:30:21Z</time>
      </trkpt>
      <trkpt lat="63.035759" lon="12.28677">
        <ele>1143.09</ele>
        <time>2011-07-06T12:30:26Z</time>
      </trkpt>
      <trkpt lat="63.03585" lon="12.286743">
        <ele>1141.02</ele>
        <time>2011-07-06T12:30:30Z</time>
      </trkpt>
      <trkpt lat="63.035898" lon="12.286716">
        <ele>1140.63</ele>
        <time>2011-07-06T12:30:32Z</time>
      </trkpt>
      <trkpt lat="63.036046" lon="12.286678">
        <ele>1138.9</ele>
        <time>2011-07-06T12:30:39Z</time>
      </trkpt>
      <trkpt lat="63.036063" lon="12.286679">
        <ele>1138.76</ele>
        <time>2011-07-06T12:30:40Z</time>
      </trkpt>
      <trkpt lat="63.03616" lon="12.286624">
        <ele>1138.45</ele>
        <time>2011-07-06T12:30:48Z</time>
      </trkpt>
      <trkpt lat="63.036292" lon="12.286613">
        <ele>1138.4</ele>
        <time>2011-07-06T12:30:56Z</time>
      </trkpt>
      <trkpt lat="63.036456" lon="12.286593">
        <ele>1138.58</ele>
        <time>2011-07-06T12:31:03Z</time>
      </trkpt>
      <trkpt lat="63.036594" lon="12.28659">
        <ele>1138.42</ele>
        <time>2011-07-06T12:31:09Z</time>
      </trkpt>
      <trkpt lat="63.036761" lon="12.286538">
        <ele>1137.83</ele>
        <time>2011-07-06T12:31:16Z</time>
      </trkpt>
      <trkpt lat="63.036904" lon="12.286523">
        <ele>1136.44</ele>
        <time>2011-07-06T12:31:22Z</time>
      </trkpt>
      <trkpt lat="63.037081" lon="12.286452">
        <ele>1134.57</ele>
        <time>2011-07-06T12:31:29Z</time>
      </trkpt>
      <trkpt lat="63.037246" lon="12.286367">
        <ele>1133.23</ele>
        <time>2011-07-06T12:31:36Z</time>
      </trkpt>
      <trkpt lat="63.037414" lon="12.286239">
        <ele>1131.72</ele>
        <time>2011-07-06T12:31:43Z</time>
      </trkpt>
      <trkpt lat="63.037601" lon="12.2861">
        <ele>1130.85</ele>
        <time>2011-07-06T12:31:51Z</time>
      </trkpt>
      <trkpt lat="63.037739" lon="12.285941">
        <ele>1129.5</ele>
        <time>2011-07-06T12:31:57Z</time>
      </trkpt>
      <trkpt lat="63.0379" lon="12.285719">
        <ele>1128.46</ele>
        <time>2011-07-06T12:32:04Z</time>
      </trkpt>
      <trkpt lat="63.03803" lon="12.285574">
        <ele>1127.24</ele>
        <time>2011-07-06T12:32:10Z</time>
      </trkpt>
      <trkpt lat="63.038131" lon="12.285347">
        <ele>1127.27</ele>
        <time>2011-07-06T12:32:16Z</time>
      </trkpt>
      <trkpt lat="63.038228" lon="12.285189">
        <ele>1126.52</ele>
        <time>2011-07-06T12:32:21Z</time>
      </trkpt>
      <trkpt lat="63.03829" lon="12.28505">
        <ele>1126.18</ele>
        <time>2011-07-06T12:32:26Z</time>
      </trkpt>
      <trkpt lat="63.038382" lon="12.284899">
        <ele>1125.8</ele>
        <time>2011-07-06T12:32:32Z</time>
      </trkpt>
      <trkpt lat="63.038473" lon="12.284727">
        <ele>1125.2</ele>
        <time>2011-07-06T12:32:38Z</time>
      </trkpt>
      <trkpt lat="63.038563" lon="12.284562">
        <ele>1124.45</ele>
        <time>2011-07-06T12:32:44Z</time>
      </trkpt>
      <trkpt lat="63.038679" lon="12.284388">
        <ele>1123.64</ele>
        <time>2011-07-06T12:32:55Z</time>
      </trkpt>
      <trkpt lat="63.038773" lon="12.284214">
        <ele>1123.44</ele>
        <time>2011-07-06T12:33:05Z</time>
      </trkpt>
      <trkpt lat="63.038852" lon="12.284049">
        <ele>1121.9</ele>
        <time>2011-07-06T12:33:14Z</time>
      </trkpt>
      <trkpt lat="63.03892" lon="12.283925">
        <ele>1120.57</ele>
        <time>2011-07-06T12:33:22Z</time>
      </trkpt>
      <trkpt lat="63.038937" lon="12.283847">
        <ele>1120.02</ele>
        <time>2011-07-06T12:33:26Z</time>
      </trkpt>
      <trkpt lat="63.038986" lon="12.283725">
        <ele>1118.74</ele>
        <time>2011-07-06T12:33:33Z</time>
      </trkpt>
      <trkpt lat="63.039033" lon="12.283551">
        <ele>1117.06</ele>
        <time>2011-07-06T12:33:41Z</time>
      </trkpt>
      <trkpt lat="63.039039" lon="12.283531">
        <ele>1116.93</ele>
        <time>2011-07-06T12:33:42Z</time>
      </trkpt>
      <trkpt lat="63.039044" lon="12.283475">
        <ele>1116.59</ele>
        <time>2011-07-06T12:33:46Z</time>
      </trkpt>
      <trkpt lat="63.039148" lon="12.283302">
        <ele>1114.84</ele>
        <time>2011-07-06T12:34:10Z</time>
      </trkpt>
      <trkpt lat="63.03922" lon="12.283174">
        <ele>1113.2</ele>
        <time>2011-07-06T12:34:17Z</time>
      </trkpt>
      <trkpt lat="63.03929" lon="12.28306">
        <ele>1112.27</ele>
        <time>2011-07-06T12:34:25Z</time>
      </trkpt>
      <trkpt lat="63.039354" lon="12.28302">
        <ele>1111.31</ele>
        <time>2011-07-06T12:34:32Z</time>
      </trkpt>
      <trkpt lat="63.039354" lon="12.283017">
        <ele>1111.22</ele>
        <time>2011-07-06T12:34:33Z</time>
      </trkpt>
      <trkpt lat="63.039415" lon="12.28295">
        <ele>1111.25</ele>
        <time>2011-07-06T12:34:43Z</time>
      </trkpt>
      <trkpt lat="63.039481" lon="12.282855">
        <ele>1109.18</ele>
        <time>2011-07-06T12:34:49Z</time>
      </trkpt>
      <trkpt lat="63.039516" lon="12.282767">
        <ele>1107.85</ele>
        <time>2011-07-06T12:34:53Z</time>
      </trkpt>
      <trkpt lat="63.039553" lon="12.282592">
        <ele>1104.88</ele>
        <time>2011-07-06T12:35:00Z</time>
      </trkpt>
      <trkpt lat="63.039603" lon="12.282513">
        <ele>1102.95</ele>
        <time>2011-07-06T12:35:04Z</time>
      </trkpt>
      <trkpt lat="63.039649" lon="12.282314">
        <ele>1100.68</ele>
        <time>2011-07-06T12:35:10Z</time>
      </trkpt>
      <trkpt lat="63.03969" lon="12.282132">
        <ele>1099.19</ele>
        <time>2011-07-06T12:35:15Z</time>
      </trkpt>
      <trkpt lat="63.039741" lon="12.281969">
        <ele>1096.98</ele>
        <time>2011-07-06T12:35:20Z</time>
      </trkpt>
      <trkpt lat="63.039748" lon="12.281931">
        <ele>1096.69</ele>
        <time>2011-07-06T12:35:21Z</time>
      </trkpt>
      <trkpt lat="63.03977" lon="12.281765">
        <ele>1094.89</ele>
        <time>2011-07-06T12:35:25Z</time>
      </trkpt>
      <trkpt lat="63.039792" lon="12.281712">
        <ele>1094.31</ele>
        <time>2011-07-06T12:35:27Z</time>
      </trkpt>
      <trkpt lat="63.039878" lon="12.281471">
        <ele>1091.4</ele>
        <time>2011-07-06T12:35:35Z</time>
      </trkpt>
      <trkpt lat="63.039902" lon="12.281419">
        <ele>1090.52</ele>
        <time>2011-07-06T12:35:37Z</time>
      </trkpt>
      <trkpt lat="63.039974" lon="12.281369">
        <ele>1088.8</ele>
        <time>2011-07-06T12:35:43Z</time>
      </trkpt>
      <trkpt lat="63.040032" lon="12.281215">
        <ele>1086.67</ele>
        <time>2011-07-06T12:35:50Z</time>
      </trkpt>
      <trkpt lat="63.040048" lon="12.28112">
        <ele>1085.4</ele>
        <time>2011-07-06T12:35:54Z</time>
      </trkpt>
      <trkpt lat="63.040077" lon="12.280926">
        <ele>1083.17</ele>
        <time>2011-07-06T12:35:59Z</time>
      </trkpt>
      <trkpt lat="63.040119" lon="12.280764">
        <ele>1081.54</ele>
        <time>2011-07-06T12:36:04Z</time>
      </trkpt>
      <trkpt lat="63.040137" lon="12.280631">
        <ele>1080.27</ele>
        <time>2011-07-06T12:36:08Z</time>
      </trkpt>
      <trkpt lat="63.040221" lon="12.280419">
        <ele>1078.11</ele>
        <time>2011-07-06T12:36:14Z</time>
      </trkpt>
      <trkpt lat="63.040276" lon="12.280223">
        <ele>1076.58</ele>
        <time>2011-07-06T12:36:20Z</time>
      </trkpt>
      <trkpt lat="63.040323" lon="12.280007">
        <ele>1074.89</ele>
        <time>2011-07-06T12:36:28Z</time>
      </trkpt>
      <trkpt lat="63.040364" lon="12.279874">
        <ele>1073.87</ele>
        <time>2011-07-06T12:36:34Z</time>
      </trkpt>
      <trkpt lat="63.040386" lon="12.279769">
        <ele>1073.02</ele>
        <time>2011-07-06T12:36:40Z</time>
      </trkpt>
      <trkpt lat="63.040385" lon="12.279767">
        <ele>1073.02</ele>
        <time>2011-07-06T12:36:41Z</time>
      </trkpt>
      <trkpt lat="63.040432" lon="12.279617">
        <ele>1071.65</ele>
        <time>2011-07-06T12:37:37Z</time>
      </trkpt>
      <trkpt lat="63.040457" lon="12.279497">
        <ele>1069.44</ele>
        <time>2011-07-06T12:37:43Z</time>
      </trkpt>
      <trkpt lat="63.040458" lon="12.27942">
        <ele>1067.76</ele>
        <time>2011-07-06T12:37:47Z</time>
      </trkpt>
      <trkpt lat="63.040462" lon="12.279283">
        <ele>1066.03</ele>
        <time>2011-07-06T12:37:52Z</time>
      </trkpt>
      <trkpt lat="63.040526" lon="12.279139">
        <ele>1064.49</ele>
        <time>2011-07-06T12:37:57Z</time>
      </trkpt>
      <trkpt lat="63.040588" lon="12.279073">
        <ele>1063.29</ele>
        <time>2011-07-06T12:38:02Z</time>
      </trkpt>
      <trkpt lat="63.040617" lon="12.27904">
        <ele>1062.69</ele>
        <time>2011-07-06T12:38:04Z</time>
      </trkpt>
      <trkpt lat="63.040684" lon="12.279052">
        <ele>1060.81</ele>
        <time>2011-07-06T12:38:09Z</time>
      </trkpt>
      <trkpt lat="63.040709" lon="12.279027">
        <ele>1060.09</ele>
        <time>2011-07-06T12:38:11Z</time>
      </trkpt>
      <trkpt lat="63.040829" lon="12.278913">
        <ele>1057.19</ele>
        <time>2011-07-06T12:38:18Z</time>
      </trkpt>
      <trkpt lat="63.040906" lon="12.278797">
        <ele>1055.04</ele>
        <time>2011-07-06T12:38:24Z</time>
      </trkpt>
      <trkpt lat="63.040963" lon="12.278705">
        <ele>1053.23</ele>
        <time>2011-07-06T12:38:29Z</time>
      </trkpt>
      <trkpt lat="63.041022" lon="12.278577">
        <ele>1050.93</ele>
        <time>2011-07-06T12:38:35Z</time>
      </trkpt>
      <trkpt lat="63.041107" lon="12.278496">
        <ele>1049.09</ele>
        <time>2011-07-06T12:38:42Z</time>
      </trkpt>
      <trkpt lat="63.041174" lon="12.278419">
        <ele>1047.24</ele>
        <time>2011-07-06T12:38:48Z</time>
      </trkpt>
      <trkpt lat="63.041232" lon="12.278317">
        <ele>1045.91</ele>
        <time>2011-07-06T12:38:55Z</time>
      </trkpt>
      <trkpt lat="63.041252" lon="12.278281">
        <ele>1045.19</ele>
        <time>2011-07-06T12:38:57Z</time>
      </trkpt>
      <trkpt lat="63.041268" lon="12.278138">
        <ele>1043.8</ele>
        <time>2011-07-06T12:39:02Z</time>
      </trkpt>
      <trkpt lat="63.041321" lon="12.278076">
        <ele>1041.79</ele>
        <time>2011-07-06T12:39:07Z</time>
      </trkpt>
      <trkpt lat="63.041369" lon="12.277939">
        <ele>1040.59</ele>
        <time>2011-07-06T12:39:13Z</time>
      </trkpt>
      <trkpt lat="63.041351" lon="12.277815">
        <ele>1038.53</ele>
        <time>2011-07-06T12:39:18Z</time>
      </trkpt>
      <trkpt lat="63.041386" lon="12.277695">
        <ele>1036.29</ele>
        <time>2011-07-06T12:39:24Z</time>
      </trkpt>
      <trkpt lat="63.041435" lon="12.277545">
        <ele>1035.02</ele>
        <time>2011-07-06T12:39:31Z</time>
      </trkpt>
      <trkpt lat="63.04145" lon="12.277479">
        <ele>1034.25</ele>
        <time>2011-07-06T12:39:34Z</time>
      </trkpt>
      <trkpt lat="63.041488" lon="12.27736">
        <ele>1032.47</ele>
        <time>2011-07-06T12:39:40Z</time>
      </trkpt>
      <trkpt lat="63.0415" lon="12.27731">
        <ele>1032.13</ele>
        <time>2011-07-06T12:39:42Z</time>
      </trkpt>
      <trkpt lat="63.041532" lon="12.277232">
        <ele>1030.75</ele>
        <time>2011-07-06T12:39:46Z</time>
      </trkpt>
      <trkpt lat="63.041577" lon="12.277081">
        <ele>1028.78</ele>
        <time>2011-07-06T12:39:53Z</time>
      </trkpt>
      <trkpt lat="63.041649" lon="12.277044">
        <ele>1027.31</ele>
        <time>2011-07-06T12:40:00Z</time>
      </trkpt>
      <trkpt lat="63.041675" lon="12.277022">
        <ele>1026.62</ele>
        <time>2011-07-06T12:40:02Z</time>
      </trkpt>
      <trkpt lat="63.041722" lon="12.276871">
        <ele>1025.15</ele>
        <time>2011-07-06T12:40:09Z</time>
      </trkpt>
      <trkpt lat="63.041773" lon="12.276769">
        <ele>1023.6</ele>
        <time>2011-07-06T12:40:15Z</time>
      </trkpt>
      <trkpt lat="63.041828" lon="12.276631">
        <ele>1021.66</ele>
        <time>2011-07-06T12:40:22Z</time>
      </trkpt>
      <trkpt lat="63.041835" lon="12.276609">
        <ele>1021.4</ele>
        <time>2011-07-06T12:40:23Z</time>
      </trkpt>
      <trkpt lat="63.041883" lon="12.276396">
        <ele>1019.27</ele>
        <time>2011-07-06T12:40:32Z</time>
      </trkpt>
      <trkpt lat="63.04195" lon="12.27623">
        <ele>1017.64</ele>
        <time>2011-07-06T12:40:40Z</time>
      </trkpt>
      <trkpt lat="63.042019" lon="12.276048">
        <ele>1015.54</ele>
        <time>2011-07-06T12:40:49Z</time>
      </trkpt>
      <trkpt lat="63.042027" lon="12.276029">
        <ele>1015.34</ele>
        <time>2011-07-06T12:40:50Z</time>
      </trkpt>
      <trkpt lat="63.042029" lon="12.275965">
        <ele>1014.25</ele>
        <time>2011-07-06T12:40:53Z</time>
      </trkpt>
      <trkpt lat="63.042076" lon="12.275831">
        <ele>1012.38</ele>
        <time>2011-07-06T12:41:00Z</time>
      </trkpt>
      <trkpt lat="63.042146" lon="12.275764">
        <ele>1010.98</ele>
        <time>2011-07-06T12:41:07Z</time>
      </trkpt>
      <trkpt lat="63.042187" lon="12.275736">
        <ele>1009.74</ele>
        <time>2011-07-06T12:41:11Z</time>
      </trkpt>
      <trkpt lat="63.042235" lon="12.275542">
        <ele>1007.88</ele>
        <time>2011-07-06T12:41:21Z</time>
      </trkpt>
      <trkpt lat="63.042306" lon="12.275376">
        <ele>1006.36</ele>
        <time>2011-07-06T12:41:30Z</time>
      </trkpt>
      <trkpt lat="63.042365" lon="12.275287">
        <ele>1005.63</ele>
        <time>2011-07-06T12:41:37Z</time>
      </trkpt>
      <trkpt lat="63.042386" lon="12.275276">
        <ele>1005.09</ele>
        <time>2011-07-06T12:41:39Z</time>
      </trkpt>
      <trkpt lat="63.042428" lon="12.275195">
        <ele>1004.23</ele>
        <time>2011-07-06T12:41:46Z</time>
      </trkpt>
      <trkpt lat="63.042441" lon="12.274995">
        <ele>1003.03</ele>
        <time>2011-07-06T12:41:55Z</time>
      </trkpt>
      <trkpt lat="63.042455" lon="12.274822">
        <ele>1002.78</ele>
        <time>2011-07-06T12:42:02Z</time>
      </trkpt>
      <trkpt lat="63.042458" lon="12.274684">
        <ele>1001.87</ele>
        <time>2011-07-06T12:42:08Z</time>
      </trkpt>
      <trkpt lat="63.042462" lon="12.274656">
        <ele>1001.82</ele>
        <time>2011-07-06T12:42:09Z</time>
      </trkpt>
      <trkpt lat="63.042471" lon="12.274477">
        <ele>1001.66</ele>
        <time>2011-07-06T12:42:17Z</time>
      </trkpt>
      <trkpt lat="63.042445" lon="12.274339">
        <ele>1001.85</ele>
        <time>2011-07-06T12:42:23Z</time>
      </trkpt>
      <trkpt lat="63.042447" lon="12.274288">
        <ele>1001.83</ele>
        <time>2011-07-06T12:42:26Z</time>
      </trkpt>
      <trkpt lat="63.042382" lon="12.274157">
        <ele>1001.61</ele>
        <time>2011-07-06T12:42:37Z</time>
      </trkpt>
      <trkpt lat="63.042423" lon="12.274153">
        <ele>1001.65</ele>
        <time>2011-07-06T12:44:07Z</time>
      </trkpt>
      <trkpt lat="63.042427" lon="12.274156">
        <ele>1001.67</ele>
        <time>2011-07-06T12:44:08Z</time>
      </trkpt>
      <trkpt lat="63.042466" lon="12.274189">
        <ele>1001.76</ele>
        <time>2011-07-06T12:44:15Z</time>
      </trkpt>
      <trkpt lat="63.042472" lon="12.274175">
        <ele>1001.82</ele>
        <time>2011-07-06T12:44:16Z</time>
      </trkpt>
      <trkpt lat="63.042514" lon="12.274104">
        <ele>1001.79</ele>
        <time>2011-07-06T12:44:21Z</time>
      </trkpt>
      <trkpt lat="63.04253" lon="12.27407">
        <ele>1001.8</ele>
        <time>2011-07-06T12:44:23Z</time>
      </trkpt>
      <trkpt lat="63.042604" lon="12.273922">
        <ele>1001.8</ele>
        <time>2011-07-06T12:44:32Z</time>
      </trkpt>
      <trkpt lat="63.042629" lon="12.273854">
        <ele>1002.2</ele>
        <time>2011-07-06T12:44:38Z</time>
      </trkpt>
      <trkpt lat="63.042629" lon="12.273854">
        <ele>1002.22</ele>
        <time>2011-07-06T12:44:39Z</time>
      </trkpt>
      <trkpt lat="63.042659" lon="12.273795">
        <ele>1002.01</ele>
        <time>2011-07-06T12:44:50Z</time>
      </trkpt>
      <trkpt lat="63.042632" lon="12.273813">
        <ele>989.06</ele>
        <time>2011-07-06T13:55:47Z</time>
      </trkpt>
      <trkpt lat="63.04264" lon="12.273848">
        <ele>989.241</ele>
        <time>2011-07-06T13:55:49Z</time>
      </trkpt>
      <trkpt lat="63.042675" lon="12.273846">
        <ele>989.521</ele>
        <time>2011-07-06T13:55:54Z</time>
      </trkpt>
      <trkpt lat="63.042734" lon="12.273998">
        <ele>989.328</ele>
        <time>2011-07-06T13:56:02Z</time>
      </trkpt>
      <trkpt lat="63.042811" lon="12.274143">
        <ele>989.031</ele>
        <time>2011-07-06T13:56:10Z</time>
      </trkpt>
      <trkpt lat="63.042917" lon="12.274234">
        <ele>988.732</ele>
        <time>2011-07-06T13:56:19Z</time>
      </trkpt>
      <trkpt lat="63.04304" lon="12.274293">
        <ele>987.117</ele>
        <time>2011-07-06T13:56:30Z</time>
      </trkpt>
      <trkpt lat="63.043084" lon="12.274325">
        <ele>986.319</ele>
        <time>2011-07-06T13:56:34Z</time>
      </trkpt>
      <trkpt lat="63.043082" lon="12.274301">
        <ele>984.401</ele>
        <time>2011-07-06T13:56:42Z</time>
      </trkpt>
      <trkpt lat="63.043148" lon="12.274286">
        <ele>983.909</ele>
        <time>2011-07-06T13:56:51Z</time>
      </trkpt>
      <trkpt lat="63.043197" lon="12.274266">
        <ele>983.043</ele>
        <time>2011-07-06T13:56:57Z</time>
      </trkpt>
      <trkpt lat="63.04329" lon="12.274254">
        <ele>982.954</ele>
        <time>2011-07-06T13:57:04Z</time>
      </trkpt>
      <trkpt lat="63.04341" lon="12.274312">
        <ele>982.851</ele>
        <time>2011-07-06T13:57:12Z</time>
      </trkpt>
      <trkpt lat="63.043515" lon="12.274396">
        <ele>980.899</ele>
        <time>2011-07-06T13:57:21Z</time>
      </trkpt>
      <trkpt lat="63.043531" lon="12.274403">
        <ele>980.116</ele>
        <time>2011-07-06T13:57:22Z</time>
      </trkpt>
      <trkpt lat="63.043546" lon="12.274407">
        <ele>980.116</ele>
        <time>2011-07-06T13:57:23Z</time>
      </trkpt>
      <trkpt lat="63.043652" lon="12.274416">
        <ele>978.67</ele>
        <time>2011-07-06T13:57:31Z</time>
      </trkpt>
      <trkpt lat="63.043776" lon="12.274478">
        <ele>978.162</ele>
        <time>2011-07-06T13:57:38Z</time>
      </trkpt>
      <trkpt lat="63.043897" lon="12.274652">
        <ele>978.264</ele>
        <time>2011-07-06T13:57:44Z</time>
      </trkpt>
      <trkpt lat="63.043955" lon="12.274769">
        <ele>978.781</ele>
        <time>2011-07-06T13:57:48Z</time>
      </trkpt>
      <trkpt lat="63.044025" lon="12.274855">
        <ele>978.593</ele>
        <time>2011-07-06T13:57:52Z</time>
      </trkpt>
      <trkpt lat="63.044176" lon="12.275119">
        <ele>977.97</ele>
        <time>2011-07-06T13:58:00Z</time>
      </trkpt>
      <trkpt lat="63.044302" lon="12.275235">
        <ele>977.761</ele>
        <time>2011-07-06T13:58:06Z</time>
      </trkpt>
      <trkpt lat="63.04442" lon="12.275303">
        <ele>977.313</ele>
        <time>2011-07-06T13:58:11Z</time>
      </trkpt>
      <trkpt lat="63.044555" lon="12.275395">
        <ele>976.162</ele>
        <time>2011-07-06T13:58:17Z</time>
      </trkpt>
      <trkpt lat="63.04477" lon="12.275522">
        <ele>975.268</ele>
        <time>2011-07-06T13:58:26Z</time>
      </trkpt>
      <trkpt lat="63.044933" lon="12.27555">
        <ele>974.093</ele>
        <time>2011-07-06T13:58:33Z</time>
      </trkpt>
      <trkpt lat="63.045076" lon="12.275582">
        <ele>972.778</ele>
        <time>2011-07-06T13:58:39Z</time>
      </trkpt>
      <trkpt lat="63.045168" lon="12.275629">
        <ele>971.914</ele>
        <time>2011-07-06T13:58:44Z</time>
      </trkpt>
      <trkpt lat="63.045288" lon="12.275672">
        <ele>969.383</ele>
        <time>2011-07-06T13:58:49Z</time>
      </trkpt>
      <trkpt lat="63.045454" lon="12.275701">
        <ele>967.974</ele>
        <time>2011-07-06T13:58:56Z</time>
      </trkpt>
      <trkpt lat="63.045571" lon="12.275769">
        <ele>966.869</ele>
        <time>2011-07-06T13:59:01Z</time>
      </trkpt>
      <trkpt lat="63.045743" lon="12.275844">
        <ele>965.875</ele>
        <time>2011-07-06T13:59:08Z</time>
      </trkpt>
      <trkpt lat="63.045958" lon="12.275928">
        <ele>965.454</ele>
        <time>2011-07-06T13:59:17Z</time>
      </trkpt>
      <trkpt lat="63.046272" lon="12.276051">
        <ele>963.645</ele>
        <time>2011-07-06T13:59:30Z</time>
      </trkpt>
      <trkpt lat="63.046416" lon="12.276114">
        <ele>962.999</ele>
        <time>2011-07-06T13:59:36Z</time>
      </trkpt>
      <trkpt lat="63.046511" lon="12.276121">
        <ele>962.111</ele>
        <time>2011-07-06T13:59:41Z</time>
      </trkpt>
      <trkpt lat="63.046658" lon="12.276154">
        <ele>960.587</ele>
        <time>2011-07-06T13:59:48Z</time>
      </trkpt>
      <trkpt lat="63.046734" lon="12.276245">
        <ele>959.888</ele>
        <time>2011-07-06T13:59:52Z</time>
      </trkpt>
      <trkpt lat="63.046925" lon="12.27631">
        <ele>957.307</ele>
        <time>2011-07-06T14:00:00Z</time>
      </trkpt>
      <trkpt lat="63.04714" lon="12.276394">
        <ele>956.099</ele>
        <time>2011-07-06T14:00:09Z</time>
      </trkpt>
      <trkpt lat="63.047366" lon="12.276467">
        <ele>955.183</ele>
        <time>2011-07-06T14:00:19Z</time>
      </trkpt>
      <trkpt lat="63.047489" lon="12.27648">
        <ele>954.604</ele>
        <time>2011-07-06T14:00:25Z</time>
      </trkpt>
      <trkpt lat="63.047622" lon="12.276575">
        <ele>953.832</ele>
        <time>2011-07-06T14:00:31Z</time>
      </trkpt>
      <trkpt lat="63.047804" lon="12.27668">
        <ele>953.223</ele>
        <time>2011-07-06T14:00:39Z</time>
      </trkpt>
      <trkpt lat="63.048032" lon="12.27678">
        <ele>952.613</ele>
        <time>2011-07-06T14:00:49Z</time>
      </trkpt>
      <trkpt lat="63.04824" lon="12.276878">
        <ele>951.779</ele>
        <time>2011-07-06T14:00:58Z</time>
      </trkpt>
      <trkpt lat="63.048411" lon="12.276991">
        <ele>950.877</ele>
        <time>2011-07-06T14:01:06Z</time>
      </trkpt>
      <trkpt lat="63.048544" lon="12.277081">
        <ele>949.897</ele>
        <time>2011-07-06T14:01:12Z</time>
      </trkpt>
      <trkpt lat="63.048763" lon="12.277269">
        <ele>948.417</ele>
        <time>2011-07-06T14:01:22Z</time>
      </trkpt>
      <trkpt lat="63.048863" lon="12.277368">
        <ele>947.864</ele>
        <time>2011-07-06T14:01:28Z</time>
      </trkpt>
      <trkpt lat="63.048866" lon="12.277375">
        <ele>947.727</ele>
        <time>2011-07-06T14:01:30Z</time>
      </trkpt>
      <trkpt lat="63.048911" lon="12.27741">
        <ele>947.474</ele>
        <time>2011-07-06T14:01:38Z</time>
      </trkpt>
      <trkpt lat="63.049005" lon="12.277563">
        <ele>946.823</ele>
        <time>2011-07-06T14:01:43Z</time>
      </trkpt>
      <trkpt lat="63.04914" lon="12.277566">
        <ele>945.738</ele>
        <time>2011-07-06T14:01:49Z</time>
      </trkpt>
      <trkpt lat="63.049245" lon="12.277484">
        <ele>945.836</ele>
        <time>2011-07-06T14:01:55Z</time>
      </trkpt>
      <trkpt lat="63.049339" lon="12.277361">
        <ele>945.166</ele>
        <time>2011-07-06T14:02:01Z</time>
      </trkpt>
      <trkpt lat="63.049487" lon="12.277383">
        <ele>943.19</ele>
        <time>2011-07-06T14:02:07Z</time>
      </trkpt>
      <trkpt lat="63.049644" lon="12.277519">
        <ele>943.113</ele>
        <time>2011-07-06T14:02:14Z</time>
      </trkpt>
      <trkpt lat="63.049798" lon="12.277642">
        <ele>942.804</ele>
        <time>2011-07-06T14:02:20Z</time>
      </trkpt>
      <trkpt lat="63.04996" lon="12.277689">
        <ele>943.052</ele>
        <time>2011-07-06T14:02:27Z</time>
      </trkpt>
      <trkpt lat="63.050152" lon="12.277671">
        <ele>941.136</ele>
        <time>2011-07-06T14:02:34Z</time>
      </trkpt>
      <trkpt lat="63.050301" lon="12.277662">
        <ele>939.953</ele>
        <time>2011-07-06T14:02:40Z</time>
      </trkpt>
      <trkpt lat="63.050351" lon="12.27763">
        <ele>939.315</ele>
        <time>2011-07-06T14:02:42Z</time>
      </trkpt>
      <trkpt lat="63.050497" lon="12.277643">
        <ele>938.56</ele>
        <time>2011-07-06T14:02:48Z</time>
      </trkpt>
      <trkpt lat="63.050618" lon="12.27769">
        <ele>938.935</ele>
        <time>2011-07-06T14:02:54Z</time>
      </trkpt>
      <trkpt lat="63.050745" lon="12.277781">
        <ele>938.901</ele>
        <time>2011-07-06T14:03:02Z</time>
      </trkpt>
      <trkpt lat="63.050834" lon="12.277806">
        <ele>938.961</ele>
        <time>2011-07-06T14:03:08Z</time>
      </trkpt>
      <trkpt lat="63.050889" lon="12.277806">
        <ele>938.962</ele>
        <time>2011-07-06T14:03:12Z</time>
      </trkpt>
      <trkpt lat="63.050937" lon="12.277857">
        <ele>938.989</ele>
        <time>2011-07-06T14:03:16Z</time>
      </trkpt>
      <trkpt lat="63.051084" lon="12.277885">
        <ele>939.66</ele>
        <time>2011-07-06T14:03:23Z</time>
      </trkpt>
      <trkpt lat="63.051153" lon="12.277895">
        <ele>939.595</ele>
        <time>2011-07-06T14:03:26Z</time>
      </trkpt>
      <trkpt lat="63.051264" lon="12.277958">
        <ele>939.619</ele>
        <time>2011-07-06T14:03:31Z</time>
      </trkpt>
      <trkpt lat="63.051486" lon="12.27804">
        <ele>939.211</ele>
        <time>2011-07-06T14:03:41Z</time>
      </trkpt>
      <trkpt lat="63.051627" lon="12.278092">
        <ele>938.474</ele>
        <time>2011-07-06T14:03:47Z</time>
      </trkpt>
      <trkpt lat="63.051746" lon="12.278148">
        <ele>938.674</ele>
        <time>2011-07-06T14:03:53Z</time>
      </trkpt>
      <trkpt lat="63.051887" lon="12.2781">
        <ele>937.694</ele>
        <time>2011-07-06T14:03:59Z</time>
      </trkpt>
      <trkpt lat="63.05204" lon="12.278004">
        <ele>936.994</ele>
        <time>2011-07-06T14:04:06Z</time>
      </trkpt>
      <trkpt lat="63.052173" lon="12.278015">
        <ele>936.853</ele>
        <time>2011-07-06T14:04:12Z</time>
      </trkpt>
      <trkpt lat="63.052364" lon="12.277926">
        <ele>936.278</ele>
        <time>2011-07-06T14:04:20Z</time>
      </trkpt>
      <trkpt lat="63.052532" lon="12.277857">
        <ele>935.411</ele>
        <time>2011-07-06T14:04:27Z</time>
      </trkpt>
      <trkpt lat="63.052771" lon="12.277735">
        <ele>933.645</ele>
        <time>2011-07-06T14:04:37Z</time>
      </trkpt>
      <trkpt lat="63.052973" lon="12.277653">
        <ele>932.531</ele>
        <time>2011-07-06T14:04:45Z</time>
      </trkpt>
      <trkpt lat="63.053115" lon="12.277668">
        <ele>931.346</ele>
        <time>2011-07-06T14:04:51Z</time>
      </trkpt>
      <trkpt lat="63.053312" lon="12.277732">
        <ele>929.275</ele>
        <time>2011-07-06T14:04:59Z</time>
      </trkpt>
      <trkpt lat="63.053449" lon="12.277776">
        <ele>928.25</ele>
        <time>2011-07-06T14:05:06Z</time>
      </trkpt>
      <trkpt lat="63.053533" lon="12.277757">
        <ele>927.476</ele>
        <time>2011-07-06T14:05:11Z</time>
      </trkpt>
      <trkpt lat="63.053639" lon="12.277703">
        <ele>926.208</ele>
        <time>2011-07-06T14:05:17Z</time>
      </trkpt>
      <trkpt lat="63.053776" lon="12.277833">
        <ele>924.844</ele>
        <time>2011-07-06T14:05:24Z</time>
      </trkpt>
      <trkpt lat="63.053891" lon="12.277867">
        <ele>923.653</ele>
        <time>2011-07-06T14:05:29Z</time>
      </trkpt>
      <trkpt lat="63.054004" lon="12.277825">
        <ele>922.653</ele>
        <time>2011-07-06T14:05:34Z</time>
      </trkpt>
      <trkpt lat="63.054148" lon="12.277842">
        <ele>920.7</ele>
        <time>2011-07-06T14:05:40Z</time>
      </trkpt>
      <trkpt lat="63.054322" lon="12.27786">
        <ele>919.508</ele>
        <time>2011-07-06T14:05:47Z</time>
      </trkpt>
      <trkpt lat="63.054487" lon="12.277857">
        <ele>917.804</ele>
        <time>2011-07-06T14:05:54Z</time>
      </trkpt>
      <trkpt lat="63.054608" lon="12.277869">
        <ele>916.199</ele>
        <time>2011-07-06T14:05:59Z</time>
      </trkpt>
      <trkpt lat="63.054821" lon="12.2779">
        <ele>914.672</ele>
        <time>2011-07-06T14:06:07Z</time>
      </trkpt>
      <trkpt lat="63.054995" lon="12.278057">
        <ele>913.364</ele>
        <time>2011-07-06T14:06:14Z</time>
      </trkpt>
      <trkpt lat="63.055092" lon="12.278258">
        <ele>913.244</ele>
        <time>2011-07-06T14:06:20Z</time>
      </trkpt>
      <trkpt lat="63.055139" lon="12.278326">
        <ele>913.34</ele>
        <time>2011-07-06T14:06:23Z</time>
      </trkpt>
      <trkpt lat="63.055259" lon="12.2784">
        <ele>912.899</ele>
        <time>2011-07-06T14:06:29Z</time>
      </trkpt>
      <trkpt lat="63.055277" lon="12.278424">
        <ele>912.774</ele>
        <time>2011-07-06T14:06:30Z</time>
      </trkpt>
      <trkpt lat="63.055463" lon="12.278563">
        <ele>912.127</ele>
        <time>2011-07-06T14:06:39Z</time>
      </trkpt>
      <trkpt lat="63.055655" lon="12.278667">
        <ele>911.614</ele>
        <time>2011-07-06T14:06:47Z</time>
      </trkpt>
      <trkpt lat="63.055779" lon="12.278788">
        <ele>912.224</ele>
        <time>2011-07-06T14:06:53Z</time>
      </trkpt>
      <trkpt lat="63.05593" lon="12.278815">
        <ele>911.853</ele>
        <time>2011-07-06T14:06:59Z</time>
      </trkpt>
      <trkpt lat="63.056101" lon="12.278752">
        <ele>911.141</ele>
        <time>2011-07-06T14:07:06Z</time>
      </trkpt>
      <trkpt lat="63.056278" lon="12.278719">
        <ele>910.943</ele>
        <time>2011-07-06T14:07:13Z</time>
      </trkpt>
      <trkpt lat="63.056438" lon="12.278675">
        <ele>909.703</ele>
        <time>2011-07-06T14:07:19Z</time>
      </trkpt>
      <trkpt lat="63.056608" lon="12.278603">
        <ele>909.11</ele>
        <time>2011-07-06T14:07:26Z</time>
      </trkpt>
      <trkpt lat="63.056731" lon="12.27854">
        <ele>908.289</ele>
        <time>2011-07-06T14:07:31Z</time>
      </trkpt>
      <trkpt lat="63.056906" lon="12.27856">
        <ele>906.019</ele>
        <time>2011-07-06T14:07:38Z</time>
      </trkpt>
      <trkpt lat="63.057088" lon="12.278572">
        <ele>904.565</ele>
        <time>2011-07-06T14:07:45Z</time>
      </trkpt>
      <trkpt lat="63.057217" lon="12.278513">
        <ele>903.612</ele>
        <time>2011-07-06T14:07:50Z</time>
      </trkpt>
      <trkpt lat="63.057302" lon="12.278359">
        <ele>903.899</ele>
        <time>2011-07-06T14:07:55Z</time>
      </trkpt>
      <trkpt lat="63.057437" lon="12.278071">
        <ele>904.118</ele>
        <time>2011-07-06T14:08:03Z</time>
      </trkpt>
      <trkpt lat="63.057547" lon="12.277998">
        <ele>903.654</ele>
        <time>2011-07-06T14:08:08Z</time>
      </trkpt>
      <trkpt lat="63.057667" lon="12.27799">
        <ele>902.696</ele>
        <time>2011-07-06T14:08:13Z</time>
      </trkpt>
      <trkpt lat="63.057843" lon="12.27786">
        <ele>900.576</ele>
        <time>2011-07-06T14:08:20Z</time>
      </trkpt>
      <trkpt lat="63.057994" lon="12.27774">
        <ele>900.285</ele>
        <time>2011-07-06T14:08:26Z</time>
      </trkpt>
      <trkpt lat="63.058135" lon="12.277637">
        <ele>899.324</ele>
        <time>2011-07-06T14:08:32Z</time>
      </trkpt>
      <trkpt lat="63.058266" lon="12.27758">
        <ele>898.352</ele>
        <time>2011-07-06T14:08:37Z</time>
      </trkpt>
      <trkpt lat="63.058409" lon="12.277501">
        <ele>897.441</ele>
        <time>2011-07-06T14:08:43Z</time>
      </trkpt>
      <trkpt lat="63.058552" lon="12.277483">
        <ele>895.797</ele>
        <time>2011-07-06T14:08:49Z</time>
      </trkpt>
      <trkpt lat="63.058661" lon="12.277409">
        <ele>894.597</ele>
        <time>2011-07-06T14:08:54Z</time>
      </trkpt>
      <trkpt lat="63.0588" lon="12.277359">
        <ele>892.364</ele>
        <time>2011-07-06T14:09:01Z</time>
      </trkpt>
      <trkpt lat="63.05891" lon="12.277316">
        <ele>890.396</ele>
        <time>2011-07-06T14:09:06Z</time>
      </trkpt>
      <trkpt lat="63.059044" lon="12.277366">
        <ele>888.865</ele>
        <time>2011-07-06T14:09:11Z</time>
      </trkpt>
      <trkpt lat="63.059166" lon="12.277413">
        <ele>888.29</ele>
        <time>2011-07-06T14:09:16Z</time>
      </trkpt>
      <trkpt lat="63.059367" lon="12.277528">
        <ele>887.4</ele>
        <time>2011-07-06T14:09:24Z</time>
      </trkpt>
      <trkpt lat="63.059471" lon="12.277552">
        <ele>887.368</ele>
        <time>2011-07-06T14:09:30Z</time>
      </trkpt>
      <trkpt lat="63.059556" lon="12.27763">
        <ele>887.575</ele>
        <time>2011-07-06T14:09:37Z</time>
      </trkpt>
      <trkpt lat="63.059661" lon="12.27773">
        <ele>889.098</ele>
        <time>2011-07-06T14:09:46Z</time>
      </trkpt>
      <trkpt lat="63.059726" lon="12.277851">
        <ele>889.813</ele>
        <time>2011-07-06T14:09:54Z</time>
      </trkpt>
      <trkpt lat="63.05975" lon="12.278029">
        <ele>888.708</ele>
        <time>2011-07-06T14:10:00Z</time>
      </trkpt>
      <trkpt lat="63.059743" lon="12.278202">
        <ele>888.59</ele>
        <time>2011-07-06T14:10:05Z</time>
      </trkpt>
      <trkpt lat="63.059746" lon="12.278367">
        <ele>888.699</ele>
        <time>2011-07-06T14:10:12Z</time>
      </trkpt>
      <trkpt lat="63.059789" lon="12.27853">
        <ele>889.273</ele>
        <time>2011-07-06T14:10:19Z</time>
      </trkpt>
      <trkpt lat="63.05985" lon="12.278733">
        <ele>889.361</ele>
        <time>2011-07-06T14:10:24Z</time>
      </trkpt>
      <trkpt lat="63.059863" lon="12.278774">
        <ele>889.401</ele>
        <time>2011-07-06T14:10:25Z</time>
      </trkpt>
      <trkpt lat="63.059948" lon="12.279117">
        <ele>890.787</ele>
        <time>2011-07-06T14:10:33Z</time>
      </trkpt>
      <trkpt lat="63.060001" lon="12.279393">
        <ele>891.432</ele>
        <time>2011-07-06T14:10:39Z</time>
      </trkpt>
      <trkpt lat="63.060065" lon="12.279698">
        <ele>892.675</ele>
        <time>2011-07-06T14:10:46Z</time>
      </trkpt>
      <trkpt lat="63.060095" lon="12.279821">
        <ele>892.921</ele>
        <time>2011-07-06T14:10:51Z</time>
      </trkpt>
      <trkpt lat="63.060147" lon="12.28004">
        <ele>892.872</ele>
        <time>2011-07-06T14:10:59Z</time>
      </trkpt>
      <trkpt lat="63.0602" lon="12.280193">
        <ele>893.108</ele>
        <time>2011-07-06T14:11:05Z</time>
      </trkpt>
      <trkpt lat="63.060253" lon="12.280359">
        <ele>893.16</ele>
        <time>2011-07-06T14:11:12Z</time>
      </trkpt>
      <trkpt lat="63.060272" lon="12.280411">
        <ele>893.12</ele>
        <time>2011-07-06T14:11:14Z</time>
      </trkpt>
      <trkpt lat="63.06033" lon="12.280648">
        <ele>893.1</ele>
        <time>2011-07-06T14:11:20Z</time>
      </trkpt>
      <trkpt lat="63.060413" lon="12.280908">
        <ele>893.483</ele>
        <time>2011-07-06T14:11:27Z</time>
      </trkpt>
      <trkpt lat="63.060482" lon="12.281148">
        <ele>893.812</ele>
        <time>2011-07-06T14:11:33Z</time>
      </trkpt>
      <trkpt lat="63.060572" lon="12.28154">
        <ele>894.532</ele>
        <time>2011-07-06T14:11:42Z</time>
      </trkpt>
      <trkpt lat="63.06062" lon="12.281956">
        <ele>895.014</ele>
        <time>2011-07-06T14:11:50Z</time>
      </trkpt>
      <trkpt lat="63.060681" lon="12.282201">
        <ele>895.27</ele>
        <time>2011-07-06T14:11:57Z</time>
      </trkpt>
      <trkpt lat="63.060731" lon="12.2824">
        <ele>896.007</ele>
        <time>2011-07-06T14:12:05Z</time>
      </trkpt>
      <trkpt lat="63.060761" lon="12.282583">
        <ele>896.261</ele>
        <time>2011-07-06T14:12:12Z</time>
      </trkpt>
      <trkpt lat="63.0608" lon="12.282772">
        <ele>896.495</ele>
        <time>2011-07-06T14:12:19Z</time>
      </trkpt>
      <trkpt lat="63.060803" lon="12.282801">
        <ele>896.58</ele>
        <time>2011-07-06T14:12:20Z</time>
      </trkpt>
      <trkpt lat="63.060843" lon="12.282911">
        <ele>896.911</ele>
        <time>2011-07-06T14:12:25Z</time>
      </trkpt>
      <trkpt lat="63.060895" lon="12.283084">
        <ele>897.615</ele>
        <time>2011-07-06T14:12:33Z</time>
      </trkpt>
      <trkpt lat="63.060946" lon="12.283251">
        <ele>898.404</ele>
        <time>2011-07-06T14:12:38Z</time>
      </trkpt>
      <trkpt lat="63.061028" lon="12.283508">
        <ele>898.541</ele>
        <time>2011-07-06T14:12:44Z</time>
      </trkpt>
      <trkpt lat="63.061084" lon="12.283792">
        <ele>899.048</ele>
        <time>2011-07-06T14:12:50Z</time>
      </trkpt>
      <trkpt lat="63.06115" lon="12.284116">
        <ele>899.516</ele>
        <time>2011-07-06T14:12:57Z</time>
      </trkpt>
      <trkpt lat="63.061225" lon="12.284452">
        <ele>900.148</ele>
        <time>2011-07-06T14:13:04Z</time>
      </trkpt>
      <trkpt lat="63.06129" lon="12.284779">
        <ele>900.994</ele>
        <time>2011-07-06T14:13:11Z</time>
      </trkpt>
      <trkpt lat="63.061331" lon="12.285202">
        <ele>901.31</ele>
        <time>2011-07-06T14:13:19Z</time>
      </trkpt>
      <trkpt lat="63.061364" lon="12.285551">
        <ele>901.64</ele>
        <time>2011-07-06T14:13:26Z</time>
      </trkpt>
      <trkpt lat="63.061406" lon="12.285792">
        <ele>901.447</ele>
        <time>2011-07-06T14:13:31Z</time>
      </trkpt>
      <trkpt lat="63.06146" lon="12.286061">
        <ele>901.514</ele>
        <time>2011-07-06T14:13:37Z</time>
      </trkpt>
      <trkpt lat="63.061503" lon="12.286292">
        <ele>901.368</ele>
        <time>2011-07-06T14:13:42Z</time>
      </trkpt>
      <trkpt lat="63.061528" lon="12.286632">
        <ele>901.659</ele>
        <time>2011-07-06T14:13:49Z</time>
      </trkpt>
      <trkpt lat="63.061555" lon="12.286808">
        <ele>901.608</ele>
        <time>2011-07-06T14:13:53Z</time>
      </trkpt>
      <trkpt lat="63.061587" lon="12.287107">
        <ele>901.69</ele>
        <time>2011-07-06T14:13:59Z</time>
      </trkpt>
      <trkpt lat="63.061617" lon="12.287511">
        <ele>902.252</ele>
        <time>2011-07-06T14:14:07Z</time>
      </trkpt>
      <trkpt lat="63.061634" lon="12.287711">
        <ele>901.409</ele>
        <time>2011-07-06T14:14:11Z</time>
      </trkpt>
      <trkpt lat="63.06163" lon="12.287853">
        <ele>900.811</ele>
        <time>2011-07-06T14:14:15Z</time>
      </trkpt>
      <trkpt lat="63.061647" lon="12.287935">
        <ele>900.852</ele>
        <time>2011-07-06T14:14:17Z</time>
      </trkpt>
      <trkpt lat="63.061697" lon="12.288205">
        <ele>901.126</ele>
        <time>2011-07-06T14:14:23Z</time>
      </trkpt>
      <trkpt lat="63.061732" lon="12.288448">
        <ele>900.003</ele>
        <time>2011-07-06T14:14:28Z</time>
      </trkpt>
      <trkpt lat="63.061724" lon="12.288652">
        <ele>899.275</ele>
        <time>2011-07-06T14:14:33Z</time>
      </trkpt>
      <trkpt lat="63.061727" lon="12.288782">
        <ele>899.462</ele>
        <time>2011-07-06T14:14:36Z</time>
      </trkpt>
      <trkpt lat="63.061732" lon="12.288966">
        <ele>899.73</ele>
        <time>2011-07-06T14:14:40Z</time>
      </trkpt>
      <trkpt lat="63.061748" lon="12.289076">
        <ele>899.74</ele>
        <time>2011-07-06T14:14:43Z</time>
      </trkpt>
      <trkpt lat="63.061735" lon="12.289209">
        <ele>898.954</ele>
        <time>2011-07-06T14:14:48Z</time>
      </trkpt>
      <trkpt lat="63.061734" lon="12.289231">
        <ele>898.859</ele>
        <time>2011-07-06T14:14:49Z</time>
      </trkpt>
      <trkpt lat="63.061741" lon="12.289296">
        <ele>898.665</ele>
        <time>2011-07-06T14:14:52Z</time>
      </trkpt>
      <trkpt lat="63.061753" lon="12.289548">
        <ele>899.584</ele>
        <time>2011-07-06T14:15:00Z</time>
      </trkpt>
      <trkpt lat="63.061767" lon="12.289967">
        <ele>899.42</ele>
        <time>2011-07-06T14:15:08Z</time>
      </trkpt>
      <trkpt lat="63.061769" lon="12.290293">
        <ele>899.686</ele>
        <time>2011-07-06T14:15:15Z</time>
      </trkpt>
      <trkpt lat="63.061754" lon="12.290463">
        <ele>899.041</ele>
        <time>2011-07-06T14:15:19Z</time>
      </trkpt>
      <trkpt lat="63.061753" lon="12.290515">
        <ele>898.823</ele>
        <time>2011-07-06T14:15:21Z</time>
      </trkpt>
      <trkpt lat="63.061768" lon="12.290672">
        <ele>898.625</ele>
        <time>2011-07-06T14:15:27Z</time>
      </trkpt>
      <trkpt lat="63.061765" lon="12.290905">
        <ele>899.182</ele>
        <time>2011-07-06T14:15:32Z</time>
      </trkpt>
      <trkpt lat="63.061749" lon="12.290989">
        <ele>899.094</ele>
        <time>2011-07-06T14:15:34Z</time>
      </trkpt>
      <trkpt lat="63.061724" lon="12.291169">
        <ele>899.203</ele>
        <time>2011-07-06T14:15:41Z</time>
      </trkpt>
      <trkpt lat="63.061729" lon="12.291216">
        <ele>899.328</ele>
        <time>2011-07-06T14:15:43Z</time>
      </trkpt>
      <trkpt lat="63.06176" lon="12.291451">
        <ele>899.451</ele>
        <time>2011-07-06T14:15:50Z</time>
      </trkpt>
      <trkpt lat="63.061809" lon="12.29174">
        <ele>899.188</ele>
        <time>2011-07-06T14:15:56Z</time>
      </trkpt>
      <trkpt lat="63.061838" lon="12.292015">
        <ele>898.487</ele>
        <time>2011-07-06T14:16:02Z</time>
      </trkpt>
      <trkpt lat="63.061833" lon="12.292135">
        <ele>898.624</ele>
        <time>2011-07-06T14:16:05Z</time>
      </trkpt>
      <trkpt lat="63.061852" lon="12.292348">
        <ele>898.664</ele>
        <time>2011-07-06T14:16:10Z</time>
      </trkpt>
      <trkpt lat="63.061878" lon="12.292578">
        <ele>897.982</ele>
        <time>2011-07-06T14:16:15Z</time>
      </trkpt>
      <trkpt lat="63.061892" lon="12.292891">
        <ele>897.392</ele>
        <time>2011-07-06T14:16:21Z</time>
      </trkpt>
      <trkpt lat="63.061903" lon="12.293066">
        <ele>897.973</ele>
        <time>2011-07-06T14:16:26Z</time>
      </trkpt>
      <trkpt lat="63.061865" lon="12.293275">
        <ele>897.686</ele>
        <time>2011-07-06T14:16:31Z</time>
      </trkpt>
      <trkpt lat="63.061847" lon="12.293439">
        <ele>897.455</ele>
        <time>2011-07-06T14:16:35Z</time>
      </trkpt>
      <trkpt lat="63.061822" lon="12.293545">
        <ele>897.3</ele>
        <time>2011-07-06T14:16:40Z</time>
      </trkpt>
      <trkpt lat="63.061812" lon="12.293759">
        <ele>897.63</ele>
        <time>2011-07-06T14:16:48Z</time>
      </trkpt>
      <trkpt lat="63.061814" lon="12.293943">
        <ele>897.215</ele>
        <time>2011-07-06T14:16:53Z</time>
      </trkpt>
      <trkpt lat="63.061803" lon="12.2942">
        <ele>896.883</ele>
        <time>2011-07-06T14:16:59Z</time>
      </trkpt>
      <trkpt lat="63.061821" lon="12.294416">
        <ele>896.453</ele>
        <time>2011-07-06T14:17:07Z</time>
      </trkpt>
      <trkpt lat="63.061821" lon="12.294557">
        <ele>895.899</ele>
        <time>2011-07-06T14:17:12Z</time>
      </trkpt>
      <trkpt lat="63.06183" lon="12.29471">
        <ele>895.749</ele>
        <time>2011-07-06T14:17:18Z</time>
      </trkpt>
      <trkpt lat="63.061818" lon="12.294778">
        <ele>895.684</ele>
        <time>2011-07-06T14:17:20Z</time>
      </trkpt>
      <trkpt lat="63.061791" lon="12.295056">
        <ele>895.896</ele>
        <time>2011-07-06T14:17:27Z</time>
      </trkpt>
      <trkpt lat="63.061779" lon="12.295241">
        <ele>895.767</ele>
        <time>2011-07-06T14:17:32Z</time>
      </trkpt>
      <trkpt lat="63.061755" lon="12.29541">
        <ele>895.843</ele>
        <time>2011-07-06T14:17:37Z</time>
      </trkpt>
      <trkpt lat="63.061754" lon="12.295624">
        <ele>895.618</ele>
        <time>2011-07-06T14:17:42Z</time>
      </trkpt>
      <trkpt lat="63.061729" lon="12.295881">
        <ele>895.247</ele>
        <time>2011-07-06T14:17:48Z</time>
      </trkpt>
      <trkpt lat="63.061723" lon="12.29595">
        <ele>895.208</ele>
        <time>2011-07-06T14:17:50Z</time>
      </trkpt>
      <trkpt lat="63.061734" lon="12.296149">
        <ele>895.652</ele>
        <time>2011-07-06T14:17:58Z</time>
      </trkpt>
      <trkpt lat="63.061712" lon="12.296421">
        <ele>896.257</ele>
        <time>2011-07-06T14:18:07Z</time>
      </trkpt>
      <trkpt lat="63.061688" lon="12.296646">
        <ele>896.839</ele>
        <time>2011-07-06T14:18:15Z</time>
      </trkpt>
      <trkpt lat="63.061628" lon="12.29683">
        <ele>897.785</ele>
        <time>2011-07-06T14:18:23Z</time>
      </trkpt>
      <trkpt lat="63.061594" lon="12.297038">
        <ele>897.935</ele>
        <time>2011-07-06T14:18:31Z</time>
      </trkpt>
      <trkpt lat="63.061588" lon="12.297114">
        <ele>897.997</ele>
        <time>2011-07-06T14:18:33Z</time>
      </trkpt>
      <trkpt lat="63.061559" lon="12.297396">
        <ele>898</ele>
        <time>2011-07-06T14:18:40Z</time>
      </trkpt>
      <trkpt lat="63.06156" lon="12.297629">
        <ele>897.252</ele>
        <time>2011-07-06T14:18:45Z</time>
      </trkpt>
      <trkpt lat="63.061548" lon="12.297879">
        <ele>896.749</ele>
        <time>2011-07-06T14:18:50Z</time>
      </trkpt>
      <trkpt lat="63.061513" lon="12.298228">
        <ele>896.899</ele>
        <time>2011-07-06T14:18:57Z</time>
      </trkpt>
      <trkpt lat="63.061498" lon="12.298341">
        <ele>897.248</ele>
        <time>2011-07-06T14:19:00Z</time>
      </trkpt>
      <trkpt lat="63.061442" lon="12.298498">
        <ele>896.85</ele>
        <time>2011-07-06T14:19:05Z</time>
      </trkpt>
      <trkpt lat="63.061441" lon="12.298547">
        <ele>896.724</ele>
        <time>2011-07-06T14:19:06Z</time>
      </trkpt>
      <trkpt lat="63.061422" lon="12.298904">
        <ele>896.703</ele>
        <time>2011-07-06T14:19:13Z</time>
      </trkpt>
      <trkpt lat="63.061383" lon="12.299187">
        <ele>896.718</ele>
        <time>2011-07-06T14:19:19Z</time>
      </trkpt>
      <trkpt lat="63.061374" lon="12.299318">
        <ele>894.912</ele>
        <time>2011-07-06T14:19:23Z</time>
      </trkpt>
      <trkpt lat="63.061393" lon="12.299331">
        <ele>894.908</ele>
        <time>2011-07-06T14:19:28Z</time>
      </trkpt>
      <trkpt lat="63.06138" lon="12.299346">
        <ele>894.457</ele>
        <time>2011-07-06T14:19:32Z</time>
      </trkpt>
      <trkpt lat="63.061378" lon="12.299484">
        <ele>894.835</ele>
        <time>2011-07-06T14:20:05Z</time>
      </trkpt>
      <trkpt lat="63.061377" lon="12.299522">
        <ele>894.672</ele>
        <time>2011-07-06T14:20:09Z</time>
      </trkpt>
      <trkpt lat="63.061367" lon="12.29959">
        <ele>894.662</ele>
        <time>2011-07-06T14:20:17Z</time>
      </trkpt>
      <trkpt lat="63.061358" lon="12.299771">
        <ele>894.655</ele>
        <time>2011-07-06T14:20:24Z</time>
      </trkpt>
      <trkpt lat="63.061346" lon="12.299848">
        <ele>894.883</ele>
        <time>2011-07-06T14:20:27Z</time>
      </trkpt>
      <trkpt lat="63.061311" lon="12.300032">
        <ele>895.471</ele>
        <time>2011-07-06T14:20:34Z</time>
      </trkpt>
      <trkpt lat="63.061304" lon="12.300092">
        <ele>895.776</ele>
        <time>2011-07-06T14:20:36Z</time>
      </trkpt>
      <trkpt lat="63.061251" lon="12.30034">
        <ele>897.536</ele>
        <time>2011-07-06T14:20:46Z</time>
      </trkpt>
      <trkpt lat="63.061243" lon="12.300522">
        <ele>898.526</ele>
        <time>2011-07-06T14:20:52Z</time>
      </trkpt>
      <trkpt lat="63.061221" lon="12.30079">
        <ele>898.288</ele>
        <time>2011-07-06T14:20:58Z</time>
      </trkpt>
      <trkpt lat="63.061208" lon="12.300877">
        <ele>898.156</ele>
        <time>2011-07-06T14:21:00Z</time>
      </trkpt>
      <trkpt lat="63.061192" lon="12.301177">
        <ele>897.493</ele>
        <time>2011-07-06T14:21:07Z</time>
      </trkpt>
      <trkpt lat="63.061147" lon="12.301513">
        <ele>896.433</ele>
        <time>2011-07-06T14:21:14Z</time>
      </trkpt>
      <trkpt lat="63.061132" lon="12.301741">
        <ele>896.44</ele>
        <time>2011-07-06T14:21:19Z</time>
      </trkpt>
      <trkpt lat="63.06113" lon="12.301958">
        <ele>896.135</ele>
        <time>2011-07-06T14:21:24Z</time>
      </trkpt>
      <trkpt lat="63.061111" lon="12.302043">
        <ele>895.708</ele>
        <time>2011-07-06T14:21:26Z</time>
      </trkpt>
      <trkpt lat="63.061105" lon="12.302224">
        <ele>895.207</ele>
        <time>2011-07-06T14:21:33Z</time>
      </trkpt>
      <trkpt lat="63.061077" lon="12.30245">
        <ele>895.047</ele>
        <time>2011-07-06T14:21:41Z</time>
      </trkpt>
      <trkpt lat="63.06108" lon="12.302658">
        <ele>895.018</ele>
        <time>2011-07-06T14:21:46Z</time>
      </trkpt>
      <trkpt lat="63.061034" lon="12.30294">
        <ele>894.92</ele>
        <time>2011-07-06T14:21:52Z</time>
      </trkpt>
      <trkpt lat="63.061001" lon="12.303222">
        <ele>894.896</ele>
        <time>2011-07-06T14:21:58Z</time>
      </trkpt>
      <trkpt lat="63.06099" lon="12.303425">
        <ele>895.077</ele>
        <time>2011-07-06T14:22:03Z</time>
      </trkpt>
      <trkpt lat="63.060993" lon="12.303691">
        <ele>894.508</ele>
        <time>2011-07-06T14:22:09Z</time>
      </trkpt>
      <trkpt lat="63.060968" lon="12.303874">
        <ele>894.798</ele>
        <time>2011-07-06T14:22:15Z</time>
      </trkpt>
      <trkpt lat="63.060937" lon="12.304096">
        <ele>894.757</ele>
        <time>2011-07-06T14:22:21Z</time>
      </trkpt>
      <trkpt lat="63.060899" lon="12.304263">
        <ele>895.251</ele>
        <time>2011-07-06T14:22:26Z</time>
      </trkpt>
      <trkpt lat="63.060847" lon="12.304499">
        <ele>894.87</ele>
        <time>2011-07-06T14:22:32Z</time>
      </trkpt>
      <trkpt lat="63.060828" lon="12.304606">
        <ele>895.011</ele>
        <time>2011-07-06T14:22:36Z</time>
      </trkpt>
      <trkpt lat="63.060783" lon="12.304796">
        <ele>894.872</ele>
        <time>2011-07-06T14:22:44Z</time>
      </trkpt>
      <trkpt lat="63.060764" lon="12.304981">
        <ele>895.435</ele>
        <time>2011-07-06T14:22:51Z</time>
      </trkpt>
      <trkpt lat="63.060755" lon="12.305173">
        <ele>895.142</ele>
        <time>2011-07-06T14:22:58Z</time>
      </trkpt>
      <trkpt lat="63.060732" lon="12.305366">
        <ele>894.333</ele>
        <time>2011-07-06T14:23:03Z</time>
      </trkpt>
      <trkpt lat="63.060744" lon="12.30543">
        <ele>894.072</ele>
        <time>2011-07-06T14:23:05Z</time>
      </trkpt>
      <trkpt lat="63.060748" lon="12.305768">
        <ele>893.139</ele>
        <time>2011-07-06T14:23:12Z</time>
      </trkpt>
      <trkpt lat="63.060779" lon="12.305989">
        <ele>893.041</ele>
        <time>2011-07-06T14:23:17Z</time>
      </trkpt>
      <trkpt lat="63.060816" lon="12.306299">
        <ele>892.133</ele>
        <time>2011-07-06T14:23:24Z</time>
      </trkpt>
      <trkpt lat="63.060849" lon="12.306571">
        <ele>891.15</ele>
        <time>2011-07-06T14:23:30Z</time>
      </trkpt>
      <trkpt lat="63.060853" lon="12.306704">
        <ele>890.192</ele>
        <time>2011-07-06T14:23:33Z</time>
      </trkpt>
      <trkpt lat="63.060918" lon="12.306926">
        <ele>887.833</ele>
        <time>2011-07-06T14:23:38Z</time>
      </trkpt>
      <trkpt lat="63.060949" lon="12.307233">
        <ele>887.142</ele>
        <time>2011-07-06T14:23:44Z</time>
      </trkpt>
      <trkpt lat="63.060975" lon="12.3074">
        <ele>886.375</ele>
        <time>2011-07-06T14:23:48Z</time>
      </trkpt>
      <trkpt lat="63.06102" lon="12.307555">
        <ele>885.07</ele>
        <time>2011-07-06T14:23:52Z</time>
      </trkpt>
      <trkpt lat="63.061085" lon="12.30773">
        <ele>883.676</ele>
        <time>2011-07-06T14:23:58Z</time>
      </trkpt>
      <trkpt lat="63.061054" lon="12.307866">
        <ele>882.507</ele>
        <time>2011-07-06T14:24:04Z</time>
      </trkpt>
      <trkpt lat="63.061037" lon="12.308059">
        <ele>882.238</ele>
        <time>2011-07-06T14:24:11Z</time>
      </trkpt>
      <trkpt lat="63.061" lon="12.308286">
        <ele>882.005</ele>
        <time>2011-07-06T14:24:18Z</time>
      </trkpt>
      <trkpt lat="63.060991" lon="12.308547">
        <ele>881.5</ele>
        <time>2011-07-06T14:24:25Z</time>
      </trkpt>
      <trkpt lat="63.060984" lon="12.30858">
        <ele>881.438</ele>
        <time>2011-07-06T14:24:26Z</time>
      </trkpt>
      <trkpt lat="63.060994" lon="12.308775">
        <ele>880.399</ele>
        <time>2011-07-06T14:24:33Z</time>
      </trkpt>
      <trkpt lat="63.060987" lon="12.308909">
        <ele>879.19</ele>
        <time>2011-07-06T14:24:39Z</time>
      </trkpt>
      <trkpt lat="63.060976" lon="12.309048">
        <ele>878.996</ele>
        <time>2011-07-06T14:24:45Z</time>
      </trkpt>
      <trkpt lat="63.060976" lon="12.309078">
        <ele>878.96</ele>
        <time>2011-07-06T14:24:46Z</time>
      </trkpt>
      <trkpt lat="63.060964" lon="12.309245">
        <ele>878.342</ele>
        <time>2011-07-06T14:24:50Z</time>
      </trkpt>
      <trkpt lat="63.060993" lon="12.309522">
        <ele>878.141</ele>
        <time>2011-07-06T14:24:56Z</time>
      </trkpt>
      <trkpt lat="63.061032" lon="12.309653">
        <ele>878.517</ele>
        <time>2011-07-06T14:25:01Z</time>
      </trkpt>
      <trkpt lat="63.06107" lon="12.309842">
        <ele>877.534</ele>
        <time>2011-07-06T14:25:09Z</time>
      </trkpt>
      <trkpt lat="63.061113" lon="12.309944">
        <ele>876.272</ele>
        <time>2011-07-06T14:25:13Z</time>
      </trkpt>
      <trkpt lat="63.061166" lon="12.310101">
        <ele>875.391</ele>
        <time>2011-07-06T14:25:17Z</time>
      </trkpt>
      <trkpt lat="63.061178" lon="12.310444">
        <ele>874.689</ele>
        <time>2011-07-06T14:25:24Z</time>
      </trkpt>
      <trkpt lat="63.061186" lon="12.310642">
        <ele>873.833</ele>
        <time>2011-07-06T14:25:28Z</time>
      </trkpt>
      <trkpt lat="63.06118" lon="12.310831">
        <ele>872.667</ele>
        <time>2011-07-06T14:25:32Z</time>
      </trkpt>
      <trkpt lat="63.061197" lon="12.311105">
        <ele>871.791</ele>
        <time>2011-07-06T14:25:38Z</time>
      </trkpt>
      <trkpt lat="63.061235" lon="12.311347">
        <ele>871.293</ele>
        <time>2011-07-06T14:25:43Z</time>
      </trkpt>
      <trkpt lat="63.061237" lon="12.311488">
        <ele>871.079</ele>
        <time>2011-07-06T14:25:46Z</time>
      </trkpt>
      <trkpt lat="63.06133" lon="12.311732">
        <ele>869.909</ele>
        <time>2011-07-06T14:25:53Z</time>
      </trkpt>
      <trkpt lat="63.061377" lon="12.311976">
        <ele>868.226</ele>
        <time>2011-07-06T14:25:58Z</time>
      </trkpt>
      <trkpt lat="63.061393" lon="12.312075">
        <ele>867.545</ele>
        <time>2011-07-06T14:26:00Z</time>
      </trkpt>
      <trkpt lat="63.061417" lon="12.312283">
        <ele>866</ele>
        <time>2011-07-06T14:26:05Z</time>
      </trkpt>
      <trkpt lat="63.061477" lon="12.312564">
        <ele>864.493</ele>
        <time>2011-07-06T14:26:11Z</time>
      </trkpt>
      <trkpt lat="63.061475" lon="12.312836">
        <ele>863.773</ele>
        <time>2011-07-06T14:26:17Z</time>
      </trkpt>
      <trkpt lat="63.061444" lon="12.313128">
        <ele>863.043</ele>
        <time>2011-07-06T14:26:24Z</time>
      </trkpt>
      <trkpt lat="63.061423" lon="12.313359">
        <ele>861.907</ele>
        <time>2011-07-06T14:26:29Z</time>
      </trkpt>
      <trkpt lat="63.061425" lon="12.313587">
        <ele>861.324</ele>
        <time>2011-07-06T14:26:34Z</time>
      </trkpt>
      <trkpt lat="63.061418" lon="12.313737">
        <ele>860.568</ele>
        <time>2011-07-06T14:26:38Z</time>
      </trkpt>
      <trkpt lat="63.061421" lon="12.313935">
        <ele>859.101</ele>
        <time>2011-07-06T14:26:44Z</time>
      </trkpt>
      <trkpt lat="63.061424" lon="12.314011">
        <ele>858.658</ele>
        <time>2011-07-06T14:26:46Z</time>
      </trkpt>
      <trkpt lat="63.061411" lon="12.314264">
        <ele>857.683</ele>
        <time>2011-07-06T14:26:55Z</time>
      </trkpt>
      <trkpt lat="63.061427" lon="12.314505">
        <ele>857.14</ele>
        <time>2011-07-06T14:27:04Z</time>
      </trkpt>
      <trkpt lat="63.061459" lon="12.314653">
        <ele>856.061</ele>
        <time>2011-07-06T14:27:10Z</time>
      </trkpt>
      <trkpt lat="63.061466" lon="12.314672">
        <ele>856.073</ele>
        <time>2011-07-06T14:27:13Z</time>
      </trkpt>
      <trkpt lat="63.061499" lon="12.314935">
        <ele>855.997</ele>
        <time>2011-07-06T14:27:25Z</time>
      </trkpt>
      <trkpt lat="63.061546" lon="12.315149">
        <ele>854.646</ele>
        <time>2011-07-06T14:27:33Z</time>
      </trkpt>
      <trkpt lat="63.061584" lon="12.315346">
        <ele>854.458</ele>
        <time>2011-07-06T14:27:40Z</time>
      </trkpt>
      <trkpt lat="63.061609" lon="12.315525">
        <ele>854.443</ele>
        <time>2011-07-06T14:27:47Z</time>
      </trkpt>
      <trkpt lat="63.061634" lon="12.31571">
        <ele>854.03</ele>
        <time>2011-07-06T14:27:53Z</time>
      </trkpt>
      <trkpt lat="63.06167" lon="12.315986">
        <ele>854.188</ele>
        <time>2011-07-06T14:28:02Z</time>
      </trkpt>
      <trkpt lat="63.06169" lon="12.316173">
        <ele>855.271</ele>
        <time>2011-07-06T14:28:10Z</time>
      </trkpt>
      <trkpt lat="63.061708" lon="12.316369">
        <ele>855.983</ele>
        <time>2011-07-06T14:28:17Z</time>
      </trkpt>
      <trkpt lat="63.061749" lon="12.316602">
        <ele>855.687</ele>
        <time>2011-07-06T14:28:26Z</time>
      </trkpt>
      <trkpt lat="63.06179" lon="12.316812">
        <ele>856.24</ele>
        <time>2011-07-06T14:28:34Z</time>
      </trkpt>
      <trkpt lat="63.061849" lon="12.31709">
        <ele>856.294</ele>
        <time>2011-07-06T14:28:45Z</time>
      </trkpt>
      <trkpt lat="63.061877" lon="12.317355">
        <ele>856.318</ele>
        <time>2011-07-06T14:28:55Z</time>
      </trkpt>
      <trkpt lat="63.061914" lon="12.317603">
        <ele>856.364</ele>
        <time>2011-07-06T14:29:04Z</time>
      </trkpt>
      <trkpt lat="63.061963" lon="12.317886">
        <ele>856.529</ele>
        <time>2011-07-06T14:29:14Z</time>
      </trkpt>
      <trkpt lat="63.061999" lon="12.318159">
        <ele>856.182</ele>
        <time>2011-07-06T14:29:23Z</time>
      </trkpt>
      <trkpt lat="63.062056" lon="12.318338">
        <ele>855.923</ele>
        <time>2011-07-06T14:29:31Z</time>
      </trkpt>
      <trkpt lat="63.062119" lon="12.318552">
        <ele>855.999</ele>
        <time>2011-07-06T14:29:36Z</time>
      </trkpt>
      <trkpt lat="63.062198" lon="12.318813">
        <ele>856.56</ele>
        <time>2011-07-06T14:29:42Z</time>
      </trkpt>
      <trkpt lat="63.062234" lon="12.319122">
        <ele>856.032</ele>
        <time>2011-07-06T14:29:48Z</time>
      </trkpt>
      <trkpt lat="63.062254" lon="12.319431">
        <ele>856.218</ele>
        <time>2011-07-06T14:29:54Z</time>
      </trkpt>
      <trkpt lat="63.062253" lon="12.319603">
        <ele>855.964</ele>
        <time>2011-07-06T14:29:58Z</time>
      </trkpt>
      <trkpt lat="63.062247" lon="12.319852">
        <ele>853.564</ele>
        <time>2011-07-06T14:30:06Z</time>
      </trkpt>
      <trkpt lat="63.062246" lon="12.320116">
        <ele>851.476</ele>
        <time>2011-07-06T14:30:14Z</time>
      </trkpt>
      <trkpt lat="63.062274" lon="12.320365">
        <ele>850.724</ele>
        <time>2011-07-06T14:30:22Z</time>
      </trkpt>
      <trkpt lat="63.06232" lon="12.320537">
        <ele>850.945</ele>
        <time>2011-07-06T14:30:29Z</time>
      </trkpt>
      <trkpt lat="63.062349" lon="12.320778">
        <ele>850.373</ele>
        <time>2011-07-06T14:30:38Z</time>
      </trkpt>
      <trkpt lat="63.062349" lon="12.321022">
        <ele>850.389</ele>
        <time>2011-07-06T14:30:46Z</time>
      </trkpt>
      <trkpt lat="63.062347" lon="12.321117">
        <ele>850.429</ele>
        <time>2011-07-06T14:30:50Z</time>
      </trkpt>
      <trkpt lat="63.062339" lon="12.321389">
        <ele>850.613</ele>
        <time>2011-07-06T14:31:00Z</time>
      </trkpt>
      <trkpt lat="63.062355" lon="12.321627">
        <ele>851.072</ele>
        <time>2011-07-06T14:31:05Z</time>
      </trkpt>
      <trkpt lat="63.062421" lon="12.321878">
        <ele>852.215</ele>
        <time>2011-07-06T14:31:11Z</time>
      </trkpt>
      <trkpt lat="63.06246" lon="12.322132">
        <ele>852.339</ele>
        <time>2011-07-06T14:31:16Z</time>
      </trkpt>
      <trkpt lat="63.062467" lon="12.322457">
        <ele>852.945</ele>
        <time>2011-07-06T14:31:22Z</time>
      </trkpt>
      <trkpt lat="63.062488" lon="12.32277">
        <ele>852.857</ele>
        <time>2011-07-06T14:31:28Z</time>
      </trkpt>
      <trkpt lat="63.062482" lon="12.323012">
        <ele>852.704</ele>
        <time>2011-07-06T14:31:33Z</time>
      </trkpt>
      <trkpt lat="63.062529" lon="12.323256">
        <ele>854.777</ele>
        <time>2011-07-06T14:31:39Z</time>
      </trkpt>
      <trkpt lat="63.062614" lon="12.323563">
        <ele>856.952</ele>
        <time>2011-07-06T14:31:47Z</time>
      </trkpt>
      <trkpt lat="63.062678" lon="12.323786">
        <ele>856.747</ele>
        <time>2011-07-06T14:31:55Z</time>
      </trkpt>
      <trkpt lat="63.062699" lon="12.323984">
        <ele>855.235</ele>
        <time>2011-07-06T14:32:00Z</time>
      </trkpt>
      <trkpt lat="63.062685" lon="12.32425">
        <ele>853.33</ele>
        <time>2011-07-06T14:32:06Z</time>
      </trkpt>
      <trkpt lat="63.062735" lon="12.324512">
        <ele>851.29</ele>
        <time>2011-07-06T14:32:12Z</time>
      </trkpt>
      <trkpt lat="63.062745" lon="12.32454">
        <ele>851.099</ele>
        <time>2011-07-06T14:32:13Z</time>
      </trkpt>
      <trkpt lat="63.062767" lon="12.324635">
        <ele>850.937</ele>
        <time>2011-07-06T14:32:18Z</time>
      </trkpt>
      <trkpt lat="63.062748" lon="12.324683">
        <ele>851.024</ele>
        <time>2011-07-06T14:32:20Z</time>
      </trkpt>
      <trkpt lat="63.062689" lon="12.32487">
        <ele>850.522</ele>
        <time>2011-07-06T14:32:28Z</time>
      </trkpt>
      <trkpt lat="63.062646" lon="12.324945">
        <ele>850.388</ele>
        <time>2011-07-06T14:32:33Z</time>
      </trkpt>
      <trkpt lat="63.062604" lon="12.325128">
        <ele>852.955</ele>
        <time>2011-07-06T14:32:43Z</time>
      </trkpt>
      <trkpt lat="63.062565" lon="12.325368">
        <ele>853.674</ele>
        <time>2011-07-06T14:32:50Z</time>
      </trkpt>
      <trkpt lat="63.06248" lon="12.325606">
        <ele>852.819</ele>
        <time>2011-07-06T14:32:57Z</time>
      </trkpt>
      <trkpt lat="63.062453" lon="12.325744">
        <ele>852.326</ele>
        <time>2011-07-06T14:33:03Z</time>
      </trkpt>
      <trkpt lat="63.062446" lon="12.325826">
        <ele>852.4</ele>
        <time>2011-07-06T14:33:08Z</time>
      </trkpt>
      <trkpt lat="63.062475" lon="12.325995">
        <ele>853.486</ele>
        <time>2011-07-06T14:33:15Z</time>
      </trkpt>
      <trkpt lat="63.06248" lon="12.326084">
        <ele>853.942</ele>
        <time>2011-07-06T14:33:18Z</time>
      </trkpt>
      <trkpt lat="63.06247" lon="12.326353">
        <ele>854.422</ele>
        <time>2011-07-06T14:33:26Z</time>
      </trkpt>
      <trkpt lat="63.062476" lon="12.326558">
        <ele>854.301</ele>
        <time>2011-07-06T14:33:30Z</time>
      </trkpt>
      <trkpt lat="63.06247" lon="12.326792">
        <ele>854.946</ele>
        <time>2011-07-06T14:33:35Z</time>
      </trkpt>
      <trkpt lat="63.062485" lon="12.327002">
        <ele>855.215</ele>
        <time>2011-07-06T14:33:40Z</time>
      </trkpt>
      <trkpt lat="63.062443" lon="12.327113">
        <ele>855.917</ele>
        <time>2011-07-06T14:33:46Z</time>
      </trkpt>
      <trkpt lat="63.062435" lon="12.327344">
        <ele>857.843</ele>
        <time>2011-07-06T14:33:55Z</time>
      </trkpt>
      <trkpt lat="63.062486" lon="12.32756">
        <ele>858.518</ele>
        <time>2011-07-06T14:34:00Z</time>
      </trkpt>
      <trkpt lat="63.062432" lon="12.327781">
        <ele>859.847</ele>
        <time>2011-07-06T14:34:06Z</time>
      </trkpt>
      <trkpt lat="63.062383" lon="12.328009">
        <ele>860.032</ele>
        <time>2011-07-06T14:34:11Z</time>
      </trkpt>
      <trkpt lat="63.062377" lon="12.328063">
        <ele>860.249</ele>
        <time>2011-07-06T14:34:13Z</time>
      </trkpt>
      <trkpt lat="63.062313" lon="12.328198">
        <ele>861.287</ele>
        <time>2011-07-06T14:34:21Z</time>
      </trkpt>
      <trkpt lat="63.062306" lon="12.328247">
        <ele>861.85</ele>
        <time>2011-07-06T14:34:23Z</time>
      </trkpt>
      <trkpt lat="63.062299" lon="12.328484">
        <ele>863.827</ele>
        <time>2011-07-06T14:34:32Z</time>
      </trkpt>
      <trkpt lat="63.062334" lon="12.328655">
        <ele>865.773</ele>
        <time>2011-07-06T14:34:39Z</time>
      </trkpt>
      <trkpt lat="63.062349" lon="12.328898">
        <ele>866.594</ele>
        <time>2011-07-06T14:34:48Z</time>
      </trkpt>
      <trkpt lat="63.062312" lon="12.329085">
        <ele>867.034</ele>
        <time>2011-07-06T14:34:55Z</time>
      </trkpt>
      <trkpt lat="63.06226" lon="12.329331">
        <ele>868.088</ele>
        <time>2011-07-06T14:35:05Z</time>
      </trkpt>
      <trkpt lat="63.062253" lon="12.329502">
        <ele>867.377</ele>
        <time>2011-07-06T14:35:11Z</time>
      </trkpt>
      <trkpt lat="63.062256" lon="12.329577">
        <ele>867.054</ele>
        <time>2011-07-06T14:35:14Z</time>
      </trkpt>
      <trkpt lat="63.062234" lon="12.329784">
        <ele>867.667</ele>
        <time>2011-07-06T14:35:22Z</time>
      </trkpt>
      <trkpt lat="63.062221" lon="12.329858">
        <ele>867.721</ele>
        <time>2011-07-06T14:35:25Z</time>
      </trkpt>
      <trkpt lat="63.062214" lon="12.330002">
        <ele>868.313</ele>
        <time>2011-07-06T14:35:31Z</time>
      </trkpt>
      <trkpt lat="63.062165" lon="12.330082">
        <ele>868.472</ele>
        <time>2011-07-06T14:35:37Z</time>
      </trkpt>
      <trkpt lat="63.062178" lon="12.330199">
        <ele>869.603</ele>
        <time>2011-07-06T14:35:42Z</time>
      </trkpt>
      <trkpt lat="63.062218" lon="12.330353">
        <ele>871.437</ele>
        <time>2011-07-06T14:35:50Z</time>
      </trkpt>
      <trkpt lat="63.062244" lon="12.330543">
        <ele>873.719</ele>
        <time>2011-07-06T14:35:59Z</time>
      </trkpt>
      <trkpt lat="63.062277" lon="12.330762">
        <ele>875.221</ele>
        <time>2011-07-06T14:36:08Z</time>
      </trkpt>
      <trkpt lat="63.062291" lon="12.331011">
        <ele>876.76</ele>
        <time>2011-07-06T14:36:18Z</time>
      </trkpt>
      <trkpt lat="63.062301" lon="12.331192">
        <ele>878.354</ele>
        <time>2011-07-06T14:36:26Z</time>
      </trkpt>
      <trkpt lat="63.062307" lon="12.331364">
        <ele>880.201</ele>
        <time>2011-07-06T14:36:34Z</time>
      </trkpt>
      <trkpt lat="63.062284" lon="12.331546">
        <ele>881.446</ele>
        <time>2011-07-06T14:36:42Z</time>
      </trkpt>
      <trkpt lat="63.062278" lon="12.331723">
        <ele>882.07</ele>
        <time>2011-07-06T14:36:50Z</time>
      </trkpt>
      <trkpt lat="63.062251" lon="12.33187">
        <ele>882.946</ele>
        <time>2011-07-06T14:36:57Z</time>
      </trkpt>
      <trkpt lat="63.062239" lon="12.33203">
        <ele>884.579</ele>
        <time>2011-07-06T14:37:05Z</time>
      </trkpt>
      <trkpt lat="63.06222" lon="12.332167">
        <ele>885.408</ele>
        <time>2011-07-06T14:37:11Z</time>
      </trkpt>
      <trkpt lat="63.062223" lon="12.332242">
        <ele>886.005</ele>
        <time>2011-07-06T14:37:14Z</time>
      </trkpt>
      <trkpt lat="63.062213" lon="12.332376">
        <ele>886.881</ele>
        <time>2011-07-06T14:37:20Z</time>
      </trkpt>
      <trkpt lat="63.062207" lon="12.3324">
        <ele>887.107</ele>
        <time>2011-07-06T14:37:21Z</time>
      </trkpt>
      <trkpt lat="63.062189" lon="12.332616">
        <ele>888.97</ele>
        <time>2011-07-06T14:37:30Z</time>
      </trkpt>
      <trkpt lat="63.062182" lon="12.3328">
        <ele>889.467</ele>
        <time>2011-07-06T14:37:37Z</time>
      </trkpt>
      <trkpt lat="63.062157" lon="12.332953">
        <ele>890.014</ele>
        <time>2011-07-06T14:37:43Z</time>
      </trkpt>
      <trkpt lat="63.062148" lon="12.333083">
        <ele>890.398</ele>
        <time>2011-07-06T14:37:48Z</time>
      </trkpt>
      <trkpt lat="63.062145" lon="12.333128">
        <ele>890.832</ele>
        <time>2011-07-06T14:37:50Z</time>
      </trkpt>
      <trkpt lat="63.062146" lon="12.33332">
        <ele>892.011</ele>
        <time>2011-07-06T14:37:57Z</time>
      </trkpt>
      <trkpt lat="63.062133" lon="12.333399">
        <ele>892.182</ele>
        <time>2011-07-06T14:38:00Z</time>
      </trkpt>
      <trkpt lat="63.062125" lon="12.333628">
        <ele>892.824</ele>
        <time>2011-07-06T14:38:09Z</time>
      </trkpt>
      <trkpt lat="63.062167" lon="12.333847">
        <ele>894.251</ele>
        <time>2011-07-06T14:38:16Z</time>
      </trkpt>
      <trkpt lat="63.062197" lon="12.334087">
        <ele>895.114</ele>
        <time>2011-07-06T14:38:22Z</time>
      </trkpt>
      <trkpt lat="63.062206" lon="12.334333">
        <ele>895.955</ele>
        <time>2011-07-06T14:38:28Z</time>
      </trkpt>
      <trkpt lat="63.062211" lon="12.334517">
        <ele>896.23</ele>
        <time>2011-07-06T14:38:34Z</time>
      </trkpt>
      <trkpt lat="63.062198" lon="12.334715">
        <ele>896.992</ele>
        <time>2011-07-06T14:38:42Z</time>
      </trkpt>
      <trkpt lat="63.062183" lon="12.334894">
        <ele>897.781</ele>
        <time>2011-07-06T14:38:47Z</time>
      </trkpt>
      <trkpt lat="63.062191" lon="12.334966">
        <ele>897.847</ele>
        <time>2011-07-06T14:38:49Z</time>
      </trkpt>
      <trkpt lat="63.062186" lon="12.335308">
        <ele>899.396</ele>
        <time>2011-07-06T14:38:57Z</time>
      </trkpt>
      <trkpt lat="63.062183" lon="12.33535">
        <ele>899.695</ele>
        <time>2011-07-06T14:38:58Z</time>
      </trkpt>
      <trkpt lat="63.062196" lon="12.335499">
        <ele>900.926</ele>
        <time>2011-07-06T14:39:03Z</time>
      </trkpt>
      <trkpt lat="63.062188" lon="12.335711">
        <ele>903.105</ele>
        <time>2011-07-06T14:39:09Z</time>
      </trkpt>
      <trkpt lat="63.062191" lon="12.335754">
        <ele>903.523</ele>
        <time>2011-07-06T14:39:10Z</time>
      </trkpt>
      <trkpt lat="63.062177" lon="12.33599">
        <ele>905.342</ele>
        <time>2011-07-06T14:39:16Z</time>
      </trkpt>
      <trkpt lat="63.062205" lon="12.336198">
        <ele>906.565</ele>
        <time>2011-07-06T14:39:21Z</time>
      </trkpt>
      <trkpt lat="63.062223" lon="12.336396">
        <ele>908.131</ele>
        <time>2011-07-06T14:39:27Z</time>
      </trkpt>
      <trkpt lat="63.062214" lon="12.336581">
        <ele>909.304</ele>
        <time>2011-07-06T14:39:34Z</time>
      </trkpt>
      <trkpt lat="63.062227" lon="12.336801">
        <ele>910.522</ele>
        <time>2011-07-06T14:39:42Z</time>
      </trkpt>
      <trkpt lat="63.062236" lon="12.33705">
        <ele>911.553</ele>
        <time>2011-07-06T14:39:51Z</time>
      </trkpt>
      <trkpt lat="63.062234" lon="12.337282">
        <ele>912.354</ele>
        <time>2011-07-06T14:39:59Z</time>
      </trkpt>
      <trkpt lat="63.062244" lon="12.33752">
        <ele>913.48</ele>
        <time>2011-07-06T14:40:07Z</time>
      </trkpt>
      <trkpt lat="63.062243" lon="12.337781">
        <ele>915.697</ele>
        <time>2011-07-06T14:40:16Z</time>
      </trkpt>
      <trkpt lat="63.062269" lon="12.337972">
        <ele>916.79</ele>
        <time>2011-07-06T14:40:23Z</time>
      </trkpt>
      <trkpt lat="63.062298" lon="12.338221">
        <ele>918.015</ele>
        <time>2011-07-06T14:40:31Z</time>
      </trkpt>
      <trkpt lat="63.062303" lon="12.338618">
        <ele>919.485</ele>
        <time>2011-07-06T14:40:39Z</time>
      </trkpt>
      <trkpt lat="63.062336" lon="12.338977">
        <ele>920.292</ele>
        <time>2011-07-06T14:40:46Z</time>
      </trkpt>
      <trkpt lat="63.062335" lon="12.339253">
        <ele>920.705</ele>
        <time>2011-07-06T14:40:51Z</time>
      </trkpt>
      <trkpt lat="63.06238" lon="12.339476">
        <ele>921.162</ele>
        <time>2011-07-06T14:40:56Z</time>
      </trkpt>
      <trkpt lat="63.062367" lon="12.33977">
        <ele>921.805</ele>
        <time>2011-07-06T14:41:03Z</time>
      </trkpt>
      <trkpt lat="63.062346" lon="12.339991">
        <ele>922.947</ele>
        <time>2011-07-06T14:41:08Z</time>
      </trkpt>
      <trkpt lat="63.06236" lon="12.340229">
        <ele>924.276</ele>
        <time>2011-07-06T14:41:13Z</time>
      </trkpt>
      <trkpt lat="63.062363" lon="12.340516">
        <ele>925.413</ele>
        <time>2011-07-06T14:41:19Z</time>
      </trkpt>
      <trkpt lat="63.062374" lon="12.340808">
        <ele>926.339</ele>
        <time>2011-07-06T14:41:25Z</time>
      </trkpt>
      <trkpt lat="63.062356" lon="12.341074">
        <ele>927.396</ele>
        <time>2011-07-06T14:41:31Z</time>
      </trkpt>
      <trkpt lat="63.062392" lon="12.34122">
        <ele>928.241</ele>
        <time>2011-07-06T14:41:37Z</time>
      </trkpt>
      <trkpt lat="63.062363" lon="12.341326">
        <ele>928.227</ele>
        <time>2011-07-06T14:41:42Z</time>
      </trkpt>
      <trkpt lat="63.06236" lon="12.341545">
        <ele>929.214</ele>
        <time>2011-07-06T14:41:50Z</time>
      </trkpt>
      <trkpt lat="63.062387" lon="12.341771">
        <ele>929.946</ele>
        <time>2011-07-06T14:41:56Z</time>
      </trkpt>
      <trkpt lat="63.062396" lon="12.341979">
        <ele>930.373</ele>
        <time>2011-07-06T14:42:01Z</time>
      </trkpt>
      <trkpt lat="63.062406" lon="12.342254">
        <ele>931.133</ele>
        <time>2011-07-06T14:42:07Z</time>
      </trkpt>
      <trkpt lat="63.062387" lon="12.342527">
        <ele>932.194</ele>
        <time>2011-07-06T14:42:13Z</time>
      </trkpt>
      <trkpt lat="63.062393" lon="12.342807">
        <ele>934.09</ele>
        <time>2011-07-06T14:42:19Z</time>
      </trkpt>
      <trkpt lat="63.062396" lon="12.343056">
        <ele>934.62</ele>
        <time>2011-07-06T14:42:25Z</time>
      </trkpt>
      <trkpt lat="63.062389" lon="12.343194">
        <ele>934.451</ele>
        <time>2011-07-06T14:42:31Z</time>
      </trkpt>
      <trkpt lat="63.062375" lon="12.343247">
        <ele>934.302</ele>
        <time>2011-07-06T14:42:35Z</time>
      </trkpt>
      <trkpt lat="63.062375" lon="12.343305">
        <ele>934.486</ele>
        <time>2011-07-06T14:42:38Z</time>
      </trkpt>
      <trkpt lat="63.062384" lon="12.343366">
        <ele>935.018</ele>
        <time>2011-07-06T14:42:41Z</time>
      </trkpt>
      <trkpt lat="63.062385" lon="12.343487">
        <ele>935.893</ele>
        <time>2011-07-06T14:42:46Z</time>
      </trkpt>
      <trkpt lat="63.062433" lon="12.343678">
        <ele>937.529</ele>
        <time>2011-07-06T14:42:55Z</time>
      </trkpt>
      <trkpt lat="63.062454" lon="12.343736">
        <ele>938.611</ele>
        <time>2011-07-06T14:42:59Z</time>
      </trkpt>
      <trkpt lat="63.06246" lon="12.343854">
        <ele>940.045</ele>
        <time>2011-07-06T14:43:05Z</time>
      </trkpt>
      <trkpt lat="63.06248" lon="12.344124">
        <ele>941.071</ele>
        <time>2011-07-06T14:43:16Z</time>
      </trkpt>
      <trkpt lat="63.062486" lon="12.344304">
        <ele>940.812</ele>
        <time>2011-07-06T14:43:23Z</time>
      </trkpt>
      <trkpt lat="63.062487" lon="12.344518">
        <ele>941.372</ele>
        <time>2011-07-06T14:43:31Z</time>
      </trkpt>
      <trkpt lat="63.062488" lon="12.344769">
        <ele>942.319</ele>
        <time>2011-07-06T14:43:41Z</time>
      </trkpt>
      <trkpt lat="63.062496" lon="12.345015">
        <ele>942.406</ele>
        <time>2011-07-06T14:43:49Z</time>
      </trkpt>
      <trkpt lat="63.062519" lon="12.345223">
        <ele>943.115</ele>
        <time>2011-07-06T14:43:57Z</time>
      </trkpt>
      <trkpt lat="63.06255" lon="12.345459">
        <ele>943.369</ele>
        <time>2011-07-06T14:44:05Z</time>
      </trkpt>
      <trkpt lat="63.062603" lon="12.345716">
        <ele>943.362</ele>
        <time>2011-07-06T14:44:11Z</time>
      </trkpt>
      <trkpt lat="63.062662" lon="12.346087">
        <ele>943.887</ele>
        <time>2011-07-06T14:44:18Z</time>
      </trkpt>
      <trkpt lat="63.062718" lon="12.346451">
        <ele>944.269</ele>
        <time>2011-07-06T14:44:25Z</time>
      </trkpt>
      <trkpt lat="63.062762" lon="12.346738">
        <ele>945.142</ele>
        <time>2011-07-06T14:44:31Z</time>
      </trkpt>
      <trkpt lat="63.062817" lon="12.347042">
        <ele>945.862</ele>
        <time>2011-07-06T14:44:38Z</time>
      </trkpt>
      <trkpt lat="63.062847" lon="12.347275">
        <ele>946.048</ele>
        <time>2011-07-06T14:44:43Z</time>
      </trkpt>
      <trkpt lat="63.062893" lon="12.347512">
        <ele>946.721</ele>
        <time>2011-07-06T14:44:49Z</time>
      </trkpt>
      <trkpt lat="63.062942" lon="12.347784">
        <ele>945.729</ele>
        <time>2011-07-06T14:44:55Z</time>
      </trkpt>
      <trkpt lat="63.062966" lon="12.347864">
        <ele>945.216</ele>
        <time>2011-07-06T14:44:57Z</time>
      </trkpt>
      <trkpt lat="63.062985" lon="12.348098">
        <ele>944.586</ele>
        <time>2011-07-06T14:45:04Z</time>
      </trkpt>
      <trkpt lat="63.062992" lon="12.348202">
        <ele>944.404</ele>
        <time>2011-07-06T14:45:08Z</time>
      </trkpt>
      <trkpt lat="63.063018" lon="12.348452">
        <ele>946.672</ele>
        <time>2011-07-06T14:45:18Z</time>
      </trkpt>
      <trkpt lat="63.063055" lon="12.348603">
        <ele>949.102</ele>
        <time>2011-07-06T14:45:26Z</time>
      </trkpt>
      <trkpt lat="63.063126" lon="12.348796">
        <ele>950.25</ele>
        <time>2011-07-06T14:45:35Z</time>
      </trkpt>
      <trkpt lat="63.063169" lon="12.348992">
        <ele>950.031</ele>
        <time>2011-07-06T14:45:40Z</time>
      </trkpt>
      <trkpt lat="63.063192" lon="12.349263">
        <ele>950.586</ele>
        <time>2011-07-06T14:45:46Z</time>
      </trkpt>
      <trkpt lat="63.063184" lon="12.349429">
        <ele>950.501</ele>
        <time>2011-07-06T14:45:49Z</time>
      </trkpt>
      <trkpt lat="63.063221" lon="12.349599">
        <ele>950.01</ele>
        <time>2011-07-06T14:45:53Z</time>
      </trkpt>
      <trkpt lat="63.063274" lon="12.349795">
        <ele>949.761</ele>
        <time>2011-07-06T14:45:58Z</time>
      </trkpt>
      <trkpt lat="63.063324" lon="12.349941">
        <ele>948.535</ele>
        <time>2011-07-06T14:46:05Z</time>
      </trkpt>
      <trkpt lat="63.06335" lon="12.350102">
        <ele>947.096</ele>
        <time>2011-07-06T14:46:12Z</time>
      </trkpt>
      <trkpt lat="63.063382" lon="12.350273">
        <ele>944.34</ele>
        <time>2011-07-06T14:46:19Z</time>
      </trkpt>
      <trkpt lat="63.063422" lon="12.350369">
        <ele>943.659</ele>
        <time>2011-07-06T14:46:24Z</time>
      </trkpt>
      <trkpt lat="63.063441" lon="12.350434">
        <ele>943.798</ele>
        <time>2011-07-06T14:46:28Z</time>
      </trkpt>
      <trkpt lat="63.063456" lon="12.350583">
        <ele>944.54</ele>
        <time>2011-07-06T14:46:34Z</time>
      </trkpt>
      <trkpt lat="63.063504" lon="12.350727">
        <ele>946.104</ele>
        <time>2011-07-06T14:46:42Z</time>
      </trkpt>
      <trkpt lat="63.063548" lon="12.350884">
        <ele>948.481</ele>
        <time>2011-07-06T14:46:50Z</time>
      </trkpt>
      <trkpt lat="63.063601" lon="12.351066">
        <ele>949.537</ele>
        <time>2011-07-06T14:46:57Z</time>
      </trkpt>
      <trkpt lat="63.063664" lon="12.351357">
        <ele>948.266</ele>
        <time>2011-07-06T14:47:03Z</time>
      </trkpt>
      <trkpt lat="63.063676" lon="12.351401">
        <ele>948.243</ele>
        <time>2011-07-06T14:47:04Z</time>
      </trkpt>
      <trkpt lat="63.063738" lon="12.351726">
        <ele>948.601</ele>
        <time>2011-07-06T14:47:11Z</time>
      </trkpt>
      <trkpt lat="63.063809" lon="12.351895">
        <ele>949.481</ele>
        <time>2011-07-06T14:47:17Z</time>
      </trkpt>
      <trkpt lat="63.06388" lon="12.352007">
        <ele>947.428</ele>
        <time>2011-07-06T14:47:24Z</time>
      </trkpt>
      <trkpt lat="63.063931" lon="12.3521">
        <ele>945.977</ele>
        <time>2011-07-06T14:47:31Z</time>
      </trkpt>
      <trkpt lat="63.063928" lon="12.352102">
        <ele>946.122</ele>
        <time>2011-07-06T14:47:32Z</time>
      </trkpt>
      <trkpt lat="63.063941" lon="12.352235">
        <ele>945.907</ele>
        <time>2011-07-06T14:47:56Z</time>
      </trkpt>
      <trkpt lat="63.063908" lon="12.352449">
        <ele>946.692</ele>
        <time>2011-07-06T14:48:12Z</time>
      </trkpt>
      <trkpt lat="63.063955" lon="12.352657">
        <ele>947.607</ele>
        <time>2011-07-06T14:48:18Z</time>
      </trkpt>
      <trkpt lat="63.064001" lon="12.352925">
        <ele>949.12</ele>
        <time>2011-07-06T14:48:24Z</time>
      </trkpt>
      <trkpt lat="63.064058" lon="12.353272">
        <ele>950.8</ele>
        <time>2011-07-06T14:48:32Z</time>
      </trkpt>
      <trkpt lat="63.0641" lon="12.353486">
        <ele>951.668</ele>
        <time>2011-07-06T14:48:37Z</time>
      </trkpt>
      <trkpt lat="63.064134" lon="12.353882">
        <ele>952.273</ele>
        <time>2011-07-06T14:48:45Z</time>
      </trkpt>
      <trkpt lat="63.064144" lon="12.353967">
        <ele>952.484</ele>
        <time>2011-07-06T14:48:47Z</time>
      </trkpt>
      <trkpt lat="63.064187" lon="12.354091">
        <ele>952.654</ele>
        <time>2011-07-06T14:48:53Z</time>
      </trkpt>
      <trkpt lat="63.064235" lon="12.354268">
        <ele>953.008</ele>
        <time>2011-07-06T14:48:59Z</time>
      </trkpt>
      <trkpt lat="63.06426" lon="12.35456">
        <ele>954.416</ele>
        <time>2011-07-06T14:49:06Z</time>
      </trkpt>
      <trkpt lat="63.064273" lon="12.35481">
        <ele>955.612</ele>
        <time>2011-07-06T14:49:12Z</time>
      </trkpt>
      <trkpt lat="63.06431" lon="12.355022">
        <ele>956.517</ele>
        <time>2011-07-06T14:49:17Z</time>
      </trkpt>
      <trkpt lat="63.064357" lon="12.355307">
        <ele>957.364</ele>
        <time>2011-07-06T14:49:24Z</time>
      </trkpt>
      <trkpt lat="63.064389" lon="12.355701">
        <ele>958.116</ele>
        <time>2011-07-06T14:49:32Z</time>
      </trkpt>
      <trkpt lat="63.064422" lon="12.35599">
        <ele>958.142</ele>
        <time>2011-07-06T14:49:38Z</time>
      </trkpt>
      <trkpt lat="63.064469" lon="12.356238">
        <ele>958.298</ele>
        <time>2011-07-06T14:49:44Z</time>
      </trkpt>
      <trkpt lat="63.064498" lon="12.3563">
        <ele>957.863</ele>
        <time>2011-07-06T14:49:46Z</time>
      </trkpt>
      <trkpt lat="63.064505" lon="12.356498">
        <ele>957.335</ele>
        <time>2011-07-06T14:49:51Z</time>
      </trkpt>
      <trkpt lat="63.06452" lon="12.356708">
        <ele>959.35</ele>
        <time>2011-07-06T14:49:59Z</time>
      </trkpt>
      <trkpt lat="63.064542" lon="12.356866">
        <ele>961.241</ele>
        <time>2011-07-06T14:50:06Z</time>
      </trkpt>
      <trkpt lat="63.064555" lon="12.357079">
        <ele>963.183</ele>
        <time>2011-07-06T14:50:14Z</time>
      </trkpt>
      <trkpt lat="63.064587" lon="12.357226">
        <ele>964.338</ele>
        <time>2011-07-06T14:50:20Z</time>
      </trkpt>
      <trkpt lat="63.064672" lon="12.357467">
        <ele>965.055</ele>
        <time>2011-07-06T14:50:28Z</time>
      </trkpt>
      <trkpt lat="63.064721" lon="12.357692">
        <ele>964.853</ele>
        <time>2011-07-06T14:50:33Z</time>
      </trkpt>
      <trkpt lat="63.064745" lon="12.357876">
        <ele>964.269</ele>
        <time>2011-07-06T14:50:40Z</time>
      </trkpt>
      <trkpt lat="63.064784" lon="12.358057">
        <ele>965.201</ele>
        <time>2011-07-06T14:50:47Z</time>
      </trkpt>
      <trkpt lat="63.06483" lon="12.358236">
        <ele>966.9</ele>
        <time>2011-07-06T14:50:54Z</time>
      </trkpt>
      <trkpt lat="63.064846" lon="12.358454">
        <ele>969.15</ele>
        <time>2011-07-06T14:51:03Z</time>
      </trkpt>
      <trkpt lat="63.064872" lon="12.358643">
        <ele>970.535</ele>
        <time>2011-07-06T14:51:10Z</time>
      </trkpt>
      <trkpt lat="63.064908" lon="12.35888">
        <ele>971.329</ele>
        <time>2011-07-06T14:51:16Z</time>
      </trkpt>
      <trkpt lat="63.064973" lon="12.359199">
        <ele>972.952</ele>
        <time>2011-07-06T14:51:23Z</time>
      </trkpt>
      <trkpt lat="63.065008" lon="12.359438">
        <ele>974.847</ele>
        <time>2011-07-06T14:51:29Z</time>
      </trkpt>
      <trkpt lat="63.065066" lon="12.35957">
        <ele>976.237</ele>
        <time>2011-07-06T14:51:35Z</time>
      </trkpt>
      <trkpt lat="63.065132" lon="12.359745">
        <ele>977.6</ele>
        <time>2011-07-06T14:51:43Z</time>
      </trkpt>
      <trkpt lat="63.065171" lon="12.359922">
        <ele>978.801</ele>
        <time>2011-07-06T14:51:48Z</time>
      </trkpt>
      <trkpt lat="63.065189" lon="12.360095">
        <ele>979.845</ele>
        <time>2011-07-06T14:51:52Z</time>
      </trkpt>
      <trkpt lat="63.065203" lon="12.360327">
        <ele>982.059</ele>
        <time>2011-07-06T14:51:58Z</time>
      </trkpt>
      <trkpt lat="63.065228" lon="12.36051">
        <ele>983.907</ele>
        <time>2011-07-06T14:52:05Z</time>
      </trkpt>
      <trkpt lat="63.065272" lon="12.360739">
        <ele>986.442</ele>
        <time>2011-07-06T14:52:15Z</time>
      </trkpt>
      <trkpt lat="63.065295" lon="12.360798">
        <ele>986.989</ele>
        <time>2011-07-06T14:52:17Z</time>
      </trkpt>
      <trkpt lat="63.065313" lon="12.361031">
        <ele>989.229</ele>
        <time>2011-07-06T14:52:23Z</time>
      </trkpt>
      <trkpt lat="63.065336" lon="12.36124">
        <ele>990.734</ele>
        <time>2011-07-06T14:52:28Z</time>
      </trkpt>
      <trkpt lat="63.065387" lon="12.361426">
        <ele>992.308</ele>
        <time>2011-07-06T14:52:35Z</time>
      </trkpt>
      <trkpt lat="63.065455" lon="12.361683">
        <ele>994.049</ele>
        <time>2011-07-06T14:52:44Z</time>
      </trkpt>
      <trkpt lat="63.065542" lon="12.361894">
        <ele>994.703</ele>
        <time>2011-07-06T14:52:50Z</time>
      </trkpt>
      <trkpt lat="63.065553" lon="12.361929">
        <ele>994.798</ele>
        <time>2011-07-06T14:52:51Z</time>
      </trkpt>
      <trkpt lat="63.065497" lon="12.362143">
        <ele>995.276</ele>
        <time>2011-07-06T14:52:57Z</time>
      </trkpt>
      <trkpt lat="63.065468" lon="12.362347">
        <ele>996.542</ele>
        <time>2011-07-06T14:53:02Z</time>
      </trkpt>
      <trkpt lat="63.065475" lon="12.362645">
        <ele>997.767</ele>
        <time>2011-07-06T14:53:08Z</time>
      </trkpt>
      <trkpt lat="63.065478" lon="12.362923">
        <ele>999.193</ele>
        <time>2011-07-06T14:53:14Z</time>
      </trkpt>
      <trkpt lat="63.06551" lon="12.363141">
        <ele>1000.79</ele>
        <time>2011-07-06T14:53:22Z</time>
      </trkpt>
      <trkpt lat="63.065483" lon="12.363273">
        <ele>1001.71</ele>
        <time>2011-07-06T14:53:28Z</time>
      </trkpt>
      <trkpt lat="63.065487" lon="12.363492">
        <ele>1003.11</ele>
        <time>2011-07-06T14:53:36Z</time>
      </trkpt>
      <trkpt lat="63.065495" lon="12.363799">
        <ele>1004.55</ele>
        <time>2011-07-06T14:53:46Z</time>
      </trkpt>
      <trkpt lat="63.065503" lon="12.364112">
        <ele>1005.67</ele>
        <time>2011-07-06T14:53:56Z</time>
      </trkpt>
      <trkpt lat="63.065531" lon="12.364475">
        <ele>1006.98</ele>
        <time>2011-07-06T14:54:08Z</time>
      </trkpt>
      <trkpt lat="63.065547" lon="12.364802">
        <ele>1007.77</ele>
        <time>2011-07-06T14:54:19Z</time>
      </trkpt>
      <trkpt lat="63.065578" lon="12.365021">
        <ele>1007.54</ele>
        <time>2011-07-06T14:54:27Z</time>
      </trkpt>
      <trkpt lat="63.065634" lon="12.365214">
        <ele>1007.79</ele>
        <time>2011-07-06T14:54:35Z</time>
      </trkpt>
      <trkpt lat="63.06567" lon="12.365459">
        <ele>1008.02</ele>
        <time>2011-07-06T14:54:45Z</time>
      </trkpt>
      <trkpt lat="63.065686" lon="12.365709">
        <ele>1008.46</ele>
        <time>2011-07-06T14:54:54Z</time>
      </trkpt>
      <trkpt lat="63.065706" lon="12.36589">
        <ele>1008.66</ele>
        <time>2011-07-06T14:55:02Z</time>
      </trkpt>
      <trkpt lat="63.065715" lon="12.36597">
        <ele>1008.73</ele>
        <time>2011-07-06T14:55:06Z</time>
      </trkpt>
      <trkpt lat="63.065738" lon="12.366024">
        <ele>1008.76</ele>
        <time>2011-07-06T14:55:10Z</time>
      </trkpt>
      <trkpt lat="63.065801" lon="12.366128">
        <ele>1008.52</ele>
        <time>2011-07-06T14:55:17Z</time>
      </trkpt>
      <trkpt lat="63.06583" lon="12.366298">
        <ele>1008.21</ele>
        <time>2011-07-06T14:55:24Z</time>
      </trkpt>
      <trkpt lat="63.065864" lon="12.366456">
        <ele>1008.48</ele>
        <time>2011-07-06T14:55:30Z</time>
      </trkpt>
      <trkpt lat="63.065904" lon="12.366685">
        <ele>1008.16</ele>
        <time>2011-07-06T14:55:38Z</time>
      </trkpt>
      <trkpt lat="63.065973" lon="12.366848">
        <ele>1007.91</ele>
        <time>2011-07-06T14:55:45Z</time>
      </trkpt>
      <trkpt lat="63.065988" lon="12.366866">
        <ele>1007.74</ele>
        <time>2011-07-06T14:55:46Z</time>
      </trkpt>
      <trkpt lat="63.066038" lon="12.367062">
        <ele>1007.36</ele>
        <time>2011-07-06T14:55:52Z</time>
      </trkpt>
      <trkpt lat="63.066044" lon="12.367097">
        <ele>1007.27</ele>
        <time>2011-07-06T14:55:53Z</time>
      </trkpt>
      <trkpt lat="63.066074" lon="12.367356">
        <ele>1007.51</ele>
        <time>2011-07-06T14:55:59Z</time>
      </trkpt>
      <trkpt lat="63.0661" lon="12.367733">
        <ele>1008.06</ele>
        <time>2011-07-06T14:56:07Z</time>
      </trkpt>
      <trkpt lat="63.066111" lon="12.368003">
        <ele>1008.81</ele>
        <time>2011-07-06T14:56:14Z</time>
      </trkpt>
      <trkpt lat="63.066086" lon="12.368238">
        <ele>1008.98</ele>
        <time>2011-07-06T14:56:23Z</time>
      </trkpt>
      <trkpt lat="63.066044" lon="12.368415">
        <ele>1008.41</ele>
        <time>2011-07-06T14:56:31Z</time>
      </trkpt>
      <trkpt lat="63.066006" lon="12.368732">
        <ele>1007.23</ele>
        <time>2011-07-06T14:56:42Z</time>
      </trkpt>
      <trkpt lat="63.066035" lon="12.368938">
        <ele>1006.54</ele>
        <time>2011-07-06T14:56:47Z</time>
      </trkpt>
      <trkpt lat="63.066046" lon="12.368979">
        <ele>1006.38</ele>
        <time>2011-07-06T14:56:48Z</time>
      </trkpt>
      <trkpt lat="63.066077" lon="12.369344">
        <ele>1004.72</ele>
        <time>2011-07-06T14:56:55Z</time>
      </trkpt>
      <trkpt lat="63.066164" lon="12.369695">
        <ele>1003.97</ele>
        <time>2011-07-06T14:57:02Z</time>
      </trkpt>
      <trkpt lat="63.066205" lon="12.36994">
        <ele>1003.19</ele>
        <time>2011-07-06T14:57:07Z</time>
      </trkpt>
      <trkpt lat="63.066229" lon="12.370191">
        <ele>1002.87</ele>
        <time>2011-07-06T14:57:12Z</time>
      </trkpt>
      <trkpt lat="63.066207" lon="12.370536">
        <ele>1002.79</ele>
        <time>2011-07-06T14:57:19Z</time>
      </trkpt>
      <trkpt lat="63.066198" lon="12.370872">
        <ele>1002.92</ele>
        <time>2011-07-06T14:57:26Z</time>
      </trkpt>
      <trkpt lat="63.066257" lon="12.371166">
        <ele>1002.67</ele>
        <time>2011-07-06T14:57:32Z</time>
      </trkpt>
      <trkpt lat="63.066268" lon="12.371466">
        <ele>1002.14</ele>
        <time>2011-07-06T14:57:38Z</time>
      </trkpt>
      <trkpt lat="63.066284" lon="12.371661">
        <ele>1001.88</ele>
        <time>2011-07-06T14:57:42Z</time>
      </trkpt>
      <trkpt lat="63.066325" lon="12.371831">
        <ele>1001.33</ele>
        <time>2011-07-06T14:57:46Z</time>
      </trkpt>
      <trkpt lat="63.066371" lon="12.372176">
        <ele>999.46</ele>
        <time>2011-07-06T14:57:52Z</time>
      </trkpt>
      <trkpt lat="63.066408" lon="12.372464">
        <ele>998.591</ele>
        <time>2011-07-06T14:57:57Z</time>
      </trkpt>
      <trkpt lat="63.066453" lon="12.37284">
        <ele>997.983</ele>
        <time>2011-07-06T14:58:04Z</time>
      </trkpt>
      <trkpt lat="63.066466" lon="12.37312">
        <ele>996.965</ele>
        <time>2011-07-06T14:58:09Z</time>
      </trkpt>
      <trkpt lat="63.066509" lon="12.373378">
        <ele>996.157</ele>
        <time>2011-07-06T14:58:15Z</time>
      </trkpt>
      <trkpt lat="63.066536" lon="12.373741">
        <ele>993.524</ele>
        <time>2011-07-06T14:58:23Z</time>
      </trkpt>
      <trkpt lat="63.066586" lon="12.373978">
        <ele>992.744</ele>
        <time>2011-07-06T14:58:28Z</time>
      </trkpt>
      <trkpt lat="63.066618" lon="12.374371">
        <ele>991.157</ele>
        <time>2011-07-06T14:58:35Z</time>
      </trkpt>
      <trkpt lat="63.066635" lon="12.374654">
        <ele>990.477</ele>
        <time>2011-07-06T14:58:40Z</time>
      </trkpt>
      <trkpt lat="63.066639" lon="12.374921">
        <ele>988.49</ele>
        <time>2011-07-06T14:58:45Z</time>
      </trkpt>
      <trkpt lat="63.066646" lon="12.375081">
        <ele>988.437</ele>
        <time>2011-07-06T14:58:48Z</time>
      </trkpt>
      <trkpt lat="63.066708" lon="12.375351">
        <ele>989.744</ele>
        <time>2011-07-06T14:58:54Z</time>
      </trkpt>
      <trkpt lat="63.066724" lon="12.375455">
        <ele>989.995</ele>
        <time>2011-07-06T14:58:56Z</time>
      </trkpt>
      <trkpt lat="63.066779" lon="12.375833">
        <ele>991.337</ele>
        <time>2011-07-06T14:59:04Z</time>
      </trkpt>
      <trkpt lat="63.066816" lon="12.376132">
        <ele>991.254</ele>
        <time>2011-07-06T14:59:10Z</time>
      </trkpt>
      <trkpt lat="63.066837" lon="12.37633">
        <ele>991.405</ele>
        <time>2011-07-06T14:59:15Z</time>
      </trkpt>
      <trkpt lat="63.06684" lon="12.376436">
        <ele>991.415</ele>
        <time>2011-07-06T14:59:20Z</time>
      </trkpt>
      <trkpt lat="63.06687" lon="12.376679">
        <ele>991.358</ele>
        <time>2011-07-06T14:59:29Z</time>
      </trkpt>
      <trkpt lat="63.066912" lon="12.376996">
        <ele>990.198</ele>
        <time>2011-07-06T14:59:37Z</time>
      </trkpt>
      <trkpt lat="63.06694" lon="12.377338">
        <ele>989.786</ele>
        <time>2011-07-06T14:59:43Z</time>
      </trkpt>
      <trkpt lat="63.066986" lon="12.3777">
        <ele>988.569</ele>
        <time>2011-07-06T14:59:50Z</time>
      </trkpt>
      <trkpt lat="63.067031" lon="12.377961">
        <ele>987.795</ele>
        <time>2011-07-06T14:59:56Z</time>
      </trkpt>
      <trkpt lat="63.067077" lon="12.378246">
        <ele>986.031</ele>
        <time>2011-07-06T15:00:02Z</time>
      </trkpt>
      <trkpt lat="63.067134" lon="12.378565">
        <ele>983.572</ele>
        <time>2011-07-06T15:00:09Z</time>
      </trkpt>
      <trkpt lat="63.067191" lon="12.378677">
        <ele>982.224</ele>
        <time>2011-07-06T15:00:13Z</time>
      </trkpt>
      <trkpt lat="63.067238" lon="12.378973">
        <ele>979.533</ele>
        <time>2011-07-06T15:00:19Z</time>
      </trkpt>
      <trkpt lat="63.06725" lon="12.379102">
        <ele>978.676</ele>
        <time>2011-07-06T15:00:22Z</time>
      </trkpt>
      <trkpt lat="63.06731" lon="12.379452">
        <ele>976.877</ele>
        <time>2011-07-06T15:00:29Z</time>
      </trkpt>
      <trkpt lat="63.067314" lon="12.379677">
        <ele>975.354</ele>
        <time>2011-07-06T15:00:34Z</time>
      </trkpt>
      <trkpt lat="63.067332" lon="12.37989">
        <ele>973.934</ele>
        <time>2011-07-06T15:00:39Z</time>
      </trkpt>
      <trkpt lat="63.067367" lon="12.380145">
        <ele>972.121</ele>
        <time>2011-07-06T15:00:45Z</time>
      </trkpt>
      <trkpt lat="63.067397" lon="12.3802">
        <ele>971.348</ele>
        <time>2011-07-06T15:00:47Z</time>
      </trkpt>
      <trkpt lat="63.067483" lon="12.380466">
        <ele>969.554</ele>
        <time>2011-07-06T15:00:54Z</time>
      </trkpt>
      <trkpt lat="63.067557" lon="12.380684">
        <ele>967.928</ele>
        <time>2011-07-06T15:01:00Z</time>
      </trkpt>
      <trkpt lat="63.067615" lon="12.380816">
        <ele>966.39</ele>
        <time>2011-07-06T15:01:04Z</time>
      </trkpt>
      <trkpt lat="63.067649" lon="12.380831">
        <ele>965.671</ele>
        <time>2011-07-06T15:01:06Z</time>
      </trkpt>
      <trkpt lat="63.067694" lon="12.380878">
        <ele>964.854</ele>
        <time>2011-07-06T15:01:09Z</time>
      </trkpt>
      <trkpt lat="63.067729" lon="12.381145">
        <ele>963.807</ele>
        <time>2011-07-06T15:01:15Z</time>
      </trkpt>
      <trkpt lat="63.067752" lon="12.381282">
        <ele>963.068</ele>
        <time>2011-07-06T15:01:18Z</time>
      </trkpt>
      <trkpt lat="63.067775" lon="12.381515">
        <ele>961.08</ele>
        <time>2011-07-06T15:01:23Z</time>
      </trkpt>
      <trkpt lat="63.067798" lon="12.381677">
        <ele>960.493</ele>
        <time>2011-07-06T15:01:29Z</time>
      </trkpt>
      <trkpt lat="63.067833" lon="12.381894">
        <ele>958.258</ele>
        <time>2011-07-06T15:01:39Z</time>
      </trkpt>
      <trkpt lat="63.067831" lon="12.381888">
        <ele>957.963</ele>
        <time>2011-07-06T15:01:40Z</time>
      </trkpt>
      <trkpt lat="63.067871" lon="12.381943">
        <ele>957.453</ele>
        <time>2011-07-06T15:02:35Z</time>
      </trkpt>
      <trkpt lat="63.067877" lon="12.381987">
        <ele>957.015</ele>
        <time>2011-07-06T15:02:36Z</time>
      </trkpt>
      <trkpt lat="63.067947" lon="12.382161">
        <ele>955.405</ele>
        <time>2011-07-06T15:02:41Z</time>
      </trkpt>
      <trkpt lat="63.067987" lon="12.382407">
        <ele>954.07</ele>
        <time>2011-07-06T15:02:46Z</time>
      </trkpt>
      <trkpt lat="63.067986" lon="12.382653">
        <ele>952.789</ele>
        <time>2011-07-06T15:02:52Z</time>
      </trkpt>
      <trkpt lat="63.068011" lon="12.382845">
        <ele>951.796</ele>
        <time>2011-07-06T15:02:58Z</time>
      </trkpt>
      <trkpt lat="63.068103" lon="12.38315">
        <ele>948.764</ele>
        <time>2011-07-06T15:03:05Z</time>
      </trkpt>
      <trkpt lat="63.068153" lon="12.383348">
        <ele>947.503</ele>
        <time>2011-07-06T15:03:10Z</time>
      </trkpt>
      <trkpt lat="63.068198" lon="12.383678">
        <ele>946.254</ele>
        <time>2011-07-06T15:03:17Z</time>
      </trkpt>
      <trkpt lat="63.068297" lon="12.383896">
        <ele>945.196</ele>
        <time>2011-07-06T15:03:23Z</time>
      </trkpt>
      <trkpt lat="63.068377" lon="12.384197">
        <ele>944.429</ele>
        <time>2011-07-06T15:03:29Z</time>
      </trkpt>
      <trkpt lat="63.068431" lon="12.384517">
        <ele>944.326</ele>
        <time>2011-07-06T15:03:35Z</time>
      </trkpt>
      <trkpt lat="63.068477" lon="12.384823">
        <ele>943.592</ele>
        <time>2011-07-06T15:03:41Z</time>
      </trkpt>
      <trkpt lat="63.068528" lon="12.385154">
        <ele>942.241</ele>
        <time>2011-07-06T15:03:47Z</time>
      </trkpt>
      <trkpt lat="63.068633" lon="12.385662">
        <ele>942.2</ele>
        <time>2011-07-06T15:03:56Z</time>
      </trkpt>
      <trkpt lat="63.068665" lon="12.385814">
        <ele>942.426</ele>
        <time>2011-07-06T15:03:59Z</time>
      </trkpt>
      <trkpt lat="63.068745" lon="12.385991">
        <ele>942.604</ele>
        <time>2011-07-06T15:04:04Z</time>
      </trkpt>
      <trkpt lat="63.068763" lon="12.386086">
        <ele>942.213</ele>
        <time>2011-07-06T15:04:06Z</time>
      </trkpt>
      <trkpt lat="63.068765" lon="12.386345">
        <ele>940.104</ele>
        <time>2011-07-06T15:04:12Z</time>
      </trkpt>
      <trkpt lat="63.068787" lon="12.38653">
        <ele>937.791</ele>
        <time>2011-07-06T15:04:17Z</time>
      </trkpt>
      <trkpt lat="63.068795" lon="12.386559">
        <ele>937.199</ele>
        <time>2011-07-06T15:04:18Z</time>
      </trkpt>
      <trkpt lat="63.068838" lon="12.386671">
        <ele>935.133</ele>
        <time>2011-07-06T15:04:23Z</time>
      </trkpt>
      <trkpt lat="63.068909" lon="12.386894">
        <ele>932.288</ele>
        <time>2011-07-06T15:04:29Z</time>
      </trkpt>
      <trkpt lat="63.068925" lon="12.386941">
        <ele>931.997</ele>
        <time>2011-07-06T15:04:30Z</time>
      </trkpt>
      <trkpt lat="63.068941" lon="12.386978">
        <ele>931.461</ele>
        <time>2011-07-06T15:04:31Z</time>
      </trkpt>
      <trkpt lat="63.068961" lon="12.387136">
        <ele>931.492</ele>
        <time>2011-07-06T15:04:35Z</time>
      </trkpt>
      <trkpt lat="63.069001" lon="12.387342">
        <ele>931.41</ele>
        <time>2011-07-06T15:04:42Z</time>
      </trkpt>
      <trkpt lat="63.069031" lon="12.3875">
        <ele>931.445</ele>
        <time>2011-07-06T15:04:45Z</time>
      </trkpt>
      <trkpt lat="63.069089" lon="12.387807">
        <ele>930.907</ele>
        <time>2011-07-06T15:04:51Z</time>
      </trkpt>
      <trkpt lat="63.069157" lon="12.388045">
        <ele>929.73</ele>
        <time>2011-07-06T15:04:56Z</time>
      </trkpt>
      <trkpt lat="63.069236" lon="12.388456">
        <ele>927.878</ele>
        <time>2011-07-06T15:05:04Z</time>
      </trkpt>
      <trkpt lat="63.069301" lon="12.388729">
        <ele>925.642</ele>
        <time>2011-07-06T15:05:10Z</time>
      </trkpt>
      <trkpt lat="63.069373" lon="12.389041">
        <ele>922.73</ele>
        <time>2011-07-06T15:05:17Z</time>
      </trkpt>
      <trkpt lat="63.069469" lon="12.389332">
        <ele>921.081</ele>
        <time>2011-07-06T15:05:23Z</time>
      </trkpt>
      <trkpt lat="63.069545" lon="12.389719">
        <ele>920.784</ele>
        <time>2011-07-06T15:05:30Z</time>
      </trkpt>
      <trkpt lat="63.069583" lon="12.390064">
        <ele>919.042</ele>
        <time>2011-07-06T15:05:36Z</time>
      </trkpt>
      <trkpt lat="63.069597" lon="12.390351">
        <ele>917.196</ele>
        <time>2011-07-06T15:05:42Z</time>
      </trkpt>
      <trkpt lat="63.069579" lon="12.390574">
        <ele>915.339</ele>
        <time>2011-07-06T15:05:47Z</time>
      </trkpt>
      <trkpt lat="63.069571" lon="12.390663">
        <ele>914.794</ele>
        <time>2011-07-06T15:05:50Z</time>
      </trkpt>
      <trkpt lat="63.069569" lon="12.390886">
        <ele>913.082</ele>
        <time>2011-07-06T15:05:57Z</time>
      </trkpt>
      <trkpt lat="63.069522" lon="12.391128">
        <ele>911.519</ele>
        <time>2011-07-06T15:06:03Z</time>
      </trkpt>
      <trkpt lat="63.069513" lon="12.391181">
        <ele>911.18</ele>
        <time>2011-07-06T15:06:04Z</time>
      </trkpt>
      <trkpt lat="63.069475" lon="12.391443">
        <ele>910.061</ele>
        <time>2011-07-06T15:06:09Z</time>
      </trkpt>
      <trkpt lat="63.069465" lon="12.391711">
        <ele>908.921</ele>
        <time>2011-07-06T15:06:14Z</time>
      </trkpt>
      <trkpt lat="63.069453" lon="12.391756">
        <ele>908.577</ele>
        <time>2011-07-06T15:06:15Z</time>
      </trkpt>
      <trkpt lat="63.069433" lon="12.391934">
        <ele>907.89</ele>
        <time>2011-07-06T15:06:20Z</time>
      </trkpt>
      <trkpt lat="63.069482" lon="12.392394">
        <ele>905.43</ele>
        <time>2011-07-06T15:06:29Z</time>
      </trkpt>
      <trkpt lat="63.069559" lon="12.392739">
        <ele>904.235</ele>
        <time>2011-07-06T15:06:36Z</time>
      </trkpt>
      <trkpt lat="63.069611" lon="12.392995">
        <ele>902.834</ele>
        <time>2011-07-06T15:06:41Z</time>
      </trkpt>
      <trkpt lat="63.069672" lon="12.393352">
        <ele>901.743</ele>
        <time>2011-07-06T15:06:48Z</time>
      </trkpt>
      <trkpt lat="63.069723" lon="12.393712">
        <ele>900.568</ele>
        <time>2011-07-06T15:06:55Z</time>
      </trkpt>
      <trkpt lat="63.069774" lon="12.394049">
        <ele>899.197</ele>
        <time>2011-07-06T15:07:01Z</time>
      </trkpt>
      <trkpt lat="63.069774" lon="12.394185">
        <ele>898.719</ele>
        <time>2011-07-06T15:07:06Z</time>
      </trkpt>
      <trkpt lat="63.069834" lon="12.394283">
        <ele>898.911</ele>
        <time>2011-07-06T15:07:11Z</time>
      </trkpt>
      <trkpt lat="63.06997" lon="12.394379">
        <ele>898.277</ele>
        <time>2011-07-06T15:07:17Z</time>
      </trkpt>
      <trkpt lat="63.07007" lon="12.394547">
        <ele>897.573</ele>
        <time>2011-07-06T15:07:22Z</time>
      </trkpt>
      <trkpt lat="63.070183" lon="12.394848">
        <ele>896.065</ele>
        <time>2011-07-06T15:07:29Z</time>
      </trkpt>
      <trkpt lat="63.070256" lon="12.395283">
        <ele>894.244</ele>
        <time>2011-07-06T15:07:38Z</time>
      </trkpt>
      <trkpt lat="63.070294" lon="12.395514">
        <ele>892.986</ele>
        <time>2011-07-06T15:07:44Z</time>
      </trkpt>
      <trkpt lat="63.07034" lon="12.395744">
        <ele>891.124</ele>
        <time>2011-07-06T15:07:50Z</time>
      </trkpt>
      <trkpt lat="63.070385" lon="12.395977">
        <ele>889.744</ele>
        <time>2011-07-06T15:07:55Z</time>
      </trkpt>
      <trkpt lat="63.07041" lon="12.396226">
        <ele>888.06</ele>
        <time>2011-07-06T15:08:00Z</time>
      </trkpt>
      <trkpt lat="63.070462" lon="12.396644">
        <ele>886.104</ele>
        <time>2011-07-06T15:08:08Z</time>
      </trkpt>
      <trkpt lat="63.070516" lon="12.396994">
        <ele>885.109</ele>
        <time>2011-07-06T15:08:14Z</time>
      </trkpt>
      <trkpt lat="63.070521" lon="12.397266">
        <ele>884.593</ele>
        <time>2011-07-06T15:08:20Z</time>
      </trkpt>
      <trkpt lat="63.070548" lon="12.397476">
        <ele>885.125</ele>
        <time>2011-07-06T15:08:27Z</time>
      </trkpt>
      <trkpt lat="63.070561" lon="12.397529">
        <ele>885.005</ele>
        <time>2011-07-06T15:08:29Z</time>
      </trkpt>
      <trkpt lat="63.070573" lon="12.397747">
        <ele>883.586</ele>
        <time>2011-07-06T15:08:37Z</time>
      </trkpt>
      <trkpt lat="63.070603" lon="12.397998">
        <ele>881.752</ele>
        <time>2011-07-06T15:08:46Z</time>
      </trkpt>
      <trkpt lat="63.070644" lon="12.39818">
        <ele>880.784</ele>
        <time>2011-07-06T15:08:52Z</time>
      </trkpt>
      <trkpt lat="63.070729" lon="12.398413">
        <ele>880.504</ele>
        <time>2011-07-06T15:09:02Z</time>
      </trkpt>
      <trkpt lat="63.070724" lon="12.398425">
        <ele>879.664</ele>
        <time>2011-07-06T15:09:08Z</time>
      </trkpt>
      <trkpt lat="63.070724" lon="12.398419">
        <ele>879.609</ele>
        <time>2011-07-06T15:10:11Z</time>
      </trkpt>
      <trkpt lat="63.070785" lon="12.39863">
        <ele>878.372</ele>
        <time>2011-07-06T15:10:19Z</time>
      </trkpt>
      <trkpt lat="63.070823" lon="12.398697">
        <ele>877.713</ele>
        <time>2011-07-06T15:10:25Z</time>
      </trkpt>
      <trkpt lat="63.070838" lon="12.398769">
        <ele>877.411</ele>
        <time>2011-07-06T15:10:37Z</time>
      </trkpt>
      <trkpt lat="63.070895" lon="12.398942">
        <ele>876.337</ele>
        <time>2011-07-06T15:10:43Z</time>
      </trkpt>
      <trkpt lat="63.070916" lon="12.39912">
        <ele>874.798</ele>
        <time>2011-07-06T15:10:48Z</time>
      </trkpt>
      <trkpt lat="63.070926" lon="12.399176">
        <ele>873.925</ele>
        <time>2011-07-06T15:10:51Z</time>
      </trkpt>
      <trkpt lat="63.070949" lon="12.399244">
        <ele>872.923</ele>
        <time>2011-07-06T15:10:55Z</time>
      </trkpt>
      <trkpt lat="63.071013" lon="12.399425">
        <ele>873.108</ele>
        <time>2011-07-06T15:11:02Z</time>
      </trkpt>
      <trkpt lat="63.071076" lon="12.399631">
        <ele>873.125</ele>
        <time>2011-07-06T15:11:10Z</time>
      </trkpt>
      <trkpt lat="63.071087" lon="12.399831">
        <ele>873.244</ele>
        <time>2011-07-06T15:11:16Z</time>
      </trkpt>
      <trkpt lat="63.071091" lon="12.399978">
        <ele>872.702</ele>
        <time>2011-07-06T15:11:21Z</time>
      </trkpt>
      <trkpt lat="63.071134" lon="12.400229">
        <ele>871.453</ele>
        <time>2011-07-06T15:11:26Z</time>
      </trkpt>
      <trkpt lat="63.071204" lon="12.400561">
        <ele>869.309</ele>
        <time>2011-07-06T15:11:32Z</time>
      </trkpt>
      <trkpt lat="63.071259" lon="12.400918">
        <ele>867.247</ele>
        <time>2011-07-06T15:11:39Z</time>
      </trkpt>
      <trkpt lat="63.071324" lon="12.401244">
        <ele>865.259</ele>
        <time>2011-07-06T15:11:45Z</time>
      </trkpt>
      <trkpt lat="63.071346" lon="12.401537">
        <ele>864.625</ele>
        <time>2011-07-06T15:11:50Z</time>
      </trkpt>
      <trkpt lat="63.071394" lon="12.401775">
        <ele>864.188</ele>
        <time>2011-07-06T15:11:55Z</time>
      </trkpt>
      <trkpt lat="63.071496" lon="12.402017">
        <ele>862.402</ele>
        <time>2011-07-06T15:12:02Z</time>
      </trkpt>
      <trkpt lat="63.07157" lon="12.402253">
        <ele>860.709</ele>
        <time>2011-07-06T15:12:07Z</time>
      </trkpt>
      <trkpt lat="63.071663" lon="12.40252">
        <ele>859.408</ele>
        <time>2011-07-06T15:12:13Z</time>
      </trkpt>
      <trkpt lat="63.071715" lon="12.402823">
        <ele>857.81</ele>
        <time>2011-07-06T15:12:19Z</time>
      </trkpt>
      <trkpt lat="63.071755" lon="12.403076">
        <ele>856.162</ele>
        <time>2011-07-06T15:12:24Z</time>
      </trkpt>
      <trkpt lat="63.071791" lon="12.403453">
        <ele>855.652</ele>
        <time>2011-07-06T15:12:30Z</time>
      </trkpt>
      <trkpt lat="63.071821" lon="12.403686">
        <ele>856.375</ele>
        <time>2011-07-06T15:12:35Z</time>
      </trkpt>
      <trkpt lat="63.0719" lon="12.403913">
        <ele>854.747</ele>
        <time>2011-07-06T15:12:40Z</time>
      </trkpt>
      <trkpt lat="63.071975" lon="12.404266">
        <ele>853.236</ele>
        <time>2011-07-06T15:12:46Z</time>
      </trkpt>
      <trkpt lat="63.072063" lon="12.404555">
        <ele>852.387</ele>
        <time>2011-07-06T15:12:52Z</time>
      </trkpt>
      <trkpt lat="63.072208" lon="12.404812">
        <ele>850.885</ele>
        <time>2011-07-06T15:12:59Z</time>
      </trkpt>
      <trkpt lat="63.07228" lon="12.405093">
        <ele>850.538</ele>
        <time>2011-07-06T15:13:05Z</time>
      </trkpt>
      <trkpt lat="63.072321" lon="12.405449">
        <ele>849.951</ele>
        <time>2011-07-06T15:13:12Z</time>
      </trkpt>
      <trkpt lat="63.072351" lon="12.405835">
        <ele>849.197</ele>
        <time>2011-07-06T15:13:19Z</time>
      </trkpt>
      <trkpt lat="63.072382" lon="12.406234">
        <ele>848.415</ele>
        <time>2011-07-06T15:13:27Z</time>
      </trkpt>
      <trkpt lat="63.072387" lon="12.406307">
        <ele>847.962</ele>
        <time>2011-07-06T15:13:31Z</time>
      </trkpt>
      <trkpt lat="63.072389" lon="12.406561">
        <ele>847.912</ele>
        <time>2011-07-06T15:13:40Z</time>
      </trkpt>
      <trkpt lat="63.072409" lon="12.406809">
        <ele>846.365</ele>
        <time>2011-07-06T15:13:49Z</time>
      </trkpt>
      <trkpt lat="63.072406" lon="12.407047">
        <ele>844.929</ele>
        <time>2011-07-06T15:13:57Z</time>
      </trkpt>
      <trkpt lat="63.072388" lon="12.407268">
        <ele>844.171</ele>
        <time>2011-07-06T15:14:04Z</time>
      </trkpt>
      <trkpt lat="63.072394" lon="12.40751">
        <ele>842.154</ele>
        <time>2011-07-06T15:14:09Z</time>
      </trkpt>
      <trkpt lat="63.0724" lon="12.407842">
        <ele>840.069</ele>
        <time>2011-07-06T15:14:15Z</time>
      </trkpt>
      <trkpt lat="63.072363" lon="12.408219">
        <ele>838.61</ele>
        <time>2011-07-06T15:14:22Z</time>
      </trkpt>
      <trkpt lat="63.072355" lon="12.408471">
        <ele>837.393</ele>
        <time>2011-07-06T15:14:28Z</time>
      </trkpt>
      <trkpt lat="63.07232" lon="12.408735">
        <ele>835.493</ele>
        <time>2011-07-06T15:14:34Z</time>
      </trkpt>
      <trkpt lat="63.072289" lon="12.408875">
        <ele>834.124</ele>
        <time>2011-07-06T15:14:40Z</time>
      </trkpt>
      <trkpt lat="63.072242" lon="12.409057">
        <ele>832.691</ele>
        <time>2011-07-06T15:14:47Z</time>
      </trkpt>
      <trkpt lat="63.072251" lon="12.409251">
        <ele>831.814</ele>
        <time>2011-07-06T15:14:54Z</time>
      </trkpt>
      <trkpt lat="63.072277" lon="12.409385">
        <ele>831.101</ele>
        <time>2011-07-06T15:14:59Z</time>
      </trkpt>
      <trkpt lat="63.072336" lon="12.409499">
        <ele>831.104</ele>
        <time>2011-07-06T15:15:06Z</time>
      </trkpt>
      <trkpt lat="63.072355" lon="12.409536">
        <ele>831.14</ele>
        <time>2011-07-06T15:15:08Z</time>
      </trkpt>
      <trkpt lat="63.072362" lon="12.409625">
        <ele>831.218</ele>
        <time>2011-07-06T15:15:11Z</time>
      </trkpt>
      <trkpt lat="63.072415" lon="12.40984">
        <ele>831.18</ele>
        <time>2011-07-06T15:15:19Z</time>
      </trkpt>
      <trkpt lat="63.07251" lon="12.409982">
        <ele>831.818</ele>
        <time>2011-07-06T15:15:28Z</time>
      </trkpt>
      <trkpt lat="63.072611" lon="12.410045">
        <ele>832.319</ele>
        <time>2011-07-06T15:15:35Z</time>
      </trkpt>
      <trkpt lat="63.072775" lon="12.410132">
        <ele>831.464</ele>
        <time>2011-07-06T15:15:42Z</time>
      </trkpt>
      <trkpt lat="63.072874" lon="12.410313">
        <ele>830.698</ele>
        <time>2011-07-06T15:15:47Z</time>
      </trkpt>
      <trkpt lat="63.073045" lon="12.410673">
        <ele>829.882</ele>
        <time>2011-07-06T15:15:56Z</time>
      </trkpt>
      <trkpt lat="63.073153" lon="12.410979">
        <ele>828.987</ele>
        <time>2011-07-06T15:16:04Z</time>
      </trkpt>
      <trkpt lat="63.073279" lon="12.411264">
        <ele>826.289</ele>
        <time>2011-07-06T15:16:12Z</time>
      </trkpt>
      <trkpt lat="63.073362" lon="12.411457">
        <ele>824.349</ele>
        <time>2011-07-06T15:16:18Z</time>
      </trkpt>
      <trkpt lat="63.073436" lon="12.411608">
        <ele>821.352</ele>
        <time>2011-07-06T15:16:23Z</time>
      </trkpt>
      <trkpt lat="63.073469" lon="12.411651">
        <ele>820.474</ele>
        <time>2011-07-06T15:16:25Z</time>
      </trkpt>
      <trkpt lat="63.073521" lon="12.411798">
        <ele>818.222</ele>
        <time>2011-07-06T15:16:30Z</time>
      </trkpt>
      <trkpt lat="63.073521" lon="12.411927">
        <ele>816.881</ele>
        <time>2011-07-06T15:16:33Z</time>
      </trkpt>
      <trkpt lat="63.073563" lon="12.412206">
        <ele>814.484</ele>
        <time>2011-07-06T15:16:39Z</time>
      </trkpt>
      <trkpt lat="63.073625" lon="12.412448">
        <ele>813.208</ele>
        <time>2011-07-06T15:16:44Z</time>
      </trkpt>
      <trkpt lat="63.073671" lon="12.412768">
        <ele>812.934</ele>
        <time>2011-07-06T15:16:50Z</time>
      </trkpt>
      <trkpt lat="63.07368" lon="12.412868">
        <ele>812.805</ele>
        <time>2011-07-06T15:16:52Z</time>
      </trkpt>
      <trkpt lat="63.073742" lon="12.413048">
        <ele>811.313</ele>
        <time>2011-07-06T15:16:57Z</time>
      </trkpt>
      <trkpt lat="63.073779" lon="12.413182">
        <ele>810.523</ele>
        <time>2011-07-06T15:17:00Z</time>
      </trkpt>
      <trkpt lat="63.073812" lon="12.413253">
        <ele>810.371</ele>
        <time>2011-07-06T15:17:02Z</time>
      </trkpt>
      <trkpt lat="63.073854" lon="12.413484">
        <ele>809.313</ele>
        <time>2011-07-06T15:17:07Z</time>
      </trkpt>
      <trkpt lat="63.073924" lon="12.41364">
        <ele>808.099</ele>
        <time>2011-07-06T15:17:15Z</time>
      </trkpt>
      <trkpt lat="63.073993" lon="12.413741">
        <ele>808.123</ele>
        <time>2011-07-06T15:17:22Z</time>
      </trkpt>
      <trkpt lat="63.074016" lon="12.413828">
        <ele>808.421</ele>
        <time>2011-07-06T15:17:26Z</time>
      </trkpt>
      <trkpt lat="63.074089" lon="12.414064">
        <ele>808.332</ele>
        <time>2011-07-06T15:17:33Z</time>
      </trkpt>
      <trkpt lat="63.074165" lon="12.414414">
        <ele>807.432</ele>
        <time>2011-07-06T15:17:40Z</time>
      </trkpt>
      <trkpt lat="63.074243" lon="12.414608">
        <ele>806.662</ele>
        <time>2011-07-06T15:17:45Z</time>
      </trkpt>
      <trkpt lat="63.074267" lon="12.414654">
        <ele>806.577</ele>
        <time>2011-07-06T15:17:47Z</time>
      </trkpt>
      <trkpt lat="63.074289" lon="12.414672">
        <ele>805.853</ele>
        <time>2011-07-06T15:17:52Z</time>
      </trkpt>
      <trkpt lat="63.074337" lon="12.414819">
        <ele>805.972</ele>
        <time>2011-07-06T15:18:01Z</time>
      </trkpt>
      <trkpt lat="63.07436" lon="12.414983">
        <ele>805.945</ele>
        <time>2011-07-06T15:18:07Z</time>
      </trkpt>
      <trkpt lat="63.074405" lon="12.415235">
        <ele>805.874</ele>
        <time>2011-07-06T15:18:16Z</time>
      </trkpt>
      <trkpt lat="63.074421" lon="12.415479">
        <ele>805.104</ele>
        <time>2011-07-06T15:18:25Z</time>
      </trkpt>
      <trkpt lat="63.074386" lon="12.415657">
        <ele>804.652</ele>
        <time>2011-07-06T15:18:31Z</time>
      </trkpt>
      <trkpt lat="63.074302" lon="12.416008">
        <ele>804.283</ele>
        <time>2011-07-06T15:18:43Z</time>
      </trkpt>
      <trkpt lat="63.074252" lon="12.416293">
        <ele>804.496</ele>
        <time>2011-07-06T15:18:53Z</time>
      </trkpt>
      <trkpt lat="63.07424" lon="12.416569">
        <ele>803.886</ele>
        <time>2011-07-06T15:19:03Z</time>
      </trkpt>
      <trkpt lat="63.07423" lon="12.416831">
        <ele>803.489</ele>
        <time>2011-07-06T15:19:12Z</time>
      </trkpt>
      <trkpt lat="63.0742" lon="12.417048">
        <ele>802.74</ele>
        <time>2011-07-06T15:19:20Z</time>
      </trkpt>
      <trkpt lat="63.074176" lon="12.417244">
        <ele>802.347</ele>
        <time>2011-07-06T15:19:27Z</time>
      </trkpt>
      <trkpt lat="63.074151" lon="12.41749">
        <ele>801.542</ele>
        <time>2011-07-06T15:19:36Z</time>
      </trkpt>
      <trkpt lat="63.074109" lon="12.417778">
        <ele>800.825</ele>
        <time>2011-07-06T15:19:47Z</time>
      </trkpt>
      <trkpt lat="63.074108" lon="12.417778">
        <ele>800.786</ele>
        <time>2011-07-06T15:19:48Z</time>
      </trkpt>
      <trkpt lat="63.074082" lon="12.417931">
        <ele>799.886</ele>
        <time>2011-07-06T15:19:56Z</time>
      </trkpt>
      <trkpt lat="63.07403" lon="12.418149">
        <ele>799.583</ele>
        <time>2011-07-06T15:20:04Z</time>
      </trkpt>
      <trkpt lat="63.073995" lon="12.418384">
        <ele>799.594</ele>
        <time>2011-07-06T15:20:12Z</time>
      </trkpt>
      <trkpt lat="63.07394" lon="12.418708">
        <ele>799.193</ele>
        <time>2011-07-06T15:20:23Z</time>
      </trkpt>
      <trkpt lat="63.073907" lon="12.418904">
        <ele>798.696</ele>
        <time>2011-07-06T15:20:30Z</time>
      </trkpt>
      <trkpt lat="63.073907" lon="12.419063">
        <ele>798.692</ele>
        <time>2011-07-06T15:20:35Z</time>
      </trkpt>
      <trkpt lat="63.073853" lon="12.419269">
        <ele>799.005</ele>
        <time>2011-07-06T15:20:44Z</time>
      </trkpt>
      <trkpt lat="63.073773" lon="12.41945">
        <ele>798.273</ele>
        <time>2011-07-06T15:20:52Z</time>
      </trkpt>
      <trkpt lat="63.073754" lon="12.419559">
        <ele>798.537</ele>
        <time>2011-07-06T15:20:56Z</time>
      </trkpt>
      <trkpt lat="63.073693" lon="12.419739">
        <ele>798.69</ele>
        <time>2011-07-06T15:21:04Z</time>
      </trkpt>
      <trkpt lat="63.073642" lon="12.41988">
        <ele>799.145</ele>
        <time>2011-07-06T15:21:11Z</time>
      </trkpt>
      <trkpt lat="63.073591" lon="12.420055">
        <ele>798.985</ele>
        <time>2011-07-06T15:21:19Z</time>
      </trkpt>
      <trkpt lat="63.073596" lon="12.420165">
        <ele>798.983</ele>
        <time>2011-07-06T15:21:25Z</time>
      </trkpt>
      <trkpt lat="63.073654" lon="12.420374">
        <ele>798.425</ele>
        <time>2011-07-06T15:21:45Z</time>
      </trkpt>
      <trkpt lat="63.073677" lon="12.420537">
        <ele>797.621</ele>
        <time>2011-07-06T15:21:52Z</time>
      </trkpt>
      <trkpt lat="63.07369" lon="12.420613">
        <ele>797.325</ele>
        <time>2011-07-06T15:21:55Z</time>
      </trkpt>
      <trkpt lat="63.073683" lon="12.420694">
        <ele>796.703</ele>
        <time>2011-07-06T15:21:58Z</time>
      </trkpt>
      <trkpt lat="63.073687" lon="12.420887">
        <ele>794.083</ele>
        <time>2011-07-06T15:22:05Z</time>
      </trkpt>
      <trkpt lat="63.073691" lon="12.421174">
        <ele>791.242</ele>
        <time>2011-07-06T15:22:14Z</time>
      </trkpt>
      <trkpt lat="63.0737" lon="12.421326">
        <ele>789.399</ele>
        <time>2011-07-06T15:22:20Z</time>
      </trkpt>
      <trkpt lat="63.073697" lon="12.421373">
        <ele>788.827</ele>
        <time>2011-07-06T15:22:22Z</time>
      </trkpt>
      <trkpt lat="63.073679" lon="12.421551">
        <ele>786.791</ele>
        <time>2011-07-06T15:22:30Z</time>
      </trkpt>
      <trkpt lat="63.073674" lon="12.42157">
        <ele>786.742</ele>
        <time>2011-07-06T15:22:31Z</time>
      </trkpt>
      <trkpt lat="63.073638" lon="12.421655">
        <ele>786.473</ele>
        <time>2011-07-06T15:22:38Z</time>
      </trkpt>
      <trkpt lat="63.073634" lon="12.421667">
        <ele>786.412</ele>
        <time>2011-07-06T15:22:40Z</time>
      </trkpt>
      <trkpt lat="63.073627" lon="12.421785">
        <ele>785.711</ele>
        <time>2011-07-06T15:23:02Z</time>
      </trkpt>
      <trkpt lat="63.073572" lon="12.42187">
        <ele>784.467</ele>
        <time>2011-07-06T15:23:08Z</time>
      </trkpt>
      <trkpt lat="63.073491" lon="12.421978">
        <ele>783.97</ele>
        <time>2011-07-06T15:23:17Z</time>
      </trkpt>
      <trkpt lat="63.073462" lon="12.421981">
        <ele>783.747</ele>
        <time>2011-07-06T15:23:21Z</time>
      </trkpt>
      <trkpt lat="63.073447" lon="12.422003">
        <ele>783.191</ele>
        <time>2011-07-06T15:23:34Z</time>
      </trkpt>
      <trkpt lat="63.073426" lon="12.422036">
        <ele>782.487</ele>
        <time>2011-07-06T15:23:38Z</time>
      </trkpt>
      <trkpt lat="63.07338" lon="12.4221">
        <ele>780.36</ele>
        <time>2011-07-06T15:23:45Z</time>
      </trkpt>
      <trkpt lat="63.073376" lon="12.422099">
        <ele>781.306</ele>
        <time>2011-07-06T15:23:46Z</time>
      </trkpt>
      <trkpt lat="63.073352" lon="12.422114">
        <ele>782.279</ele>
        <time>2011-07-06T15:23:49Z</time>
      </trkpt>
      <trkpt lat="63.073257" lon="12.422179">
        <ele>782.203</ele>
        <time>2011-07-06T15:23:59Z</time>
      </trkpt>
      <trkpt lat="63.073216" lon="12.422292">
        <ele>782.703</ele>
        <time>2011-07-06T15:24:06Z</time>
      </trkpt>
      <trkpt lat="63.073181" lon="12.422372">
        <ele>783.994</ele>
        <time>2011-07-06T15:24:13Z</time>
      </trkpt>
      <trkpt lat="63.073166" lon="12.422438">
        <ele>785.168</ele>
        <time>2011-07-06T15:24:18Z</time>
      </trkpt>
      <trkpt lat="63.073158" lon="12.422659">
        <ele>785.951</ele>
        <time>2011-07-06T15:24:27Z</time>
      </trkpt>
      <trkpt lat="63.073136" lon="12.422787">
        <ele>787.083</ele>
        <time>2011-07-06T15:24:33Z</time>
      </trkpt>
      <trkpt lat="63.073095" lon="12.42296">
        <ele>789.838</ele>
        <time>2011-07-06T15:24:43Z</time>
      </trkpt>
      <trkpt lat="63.073057" lon="12.423055">
        <ele>791.794</ele>
        <time>2011-07-06T15:24:51Z</time>
      </trkpt>
      <trkpt lat="63.073049" lon="12.423125">
        <ele>793.264</ele>
        <time>2011-07-06T15:24:57Z</time>
      </trkpt>
      <trkpt lat="63.073048" lon="12.423141">
        <ele>793.515</ele>
        <time>2011-07-06T15:24:58Z</time>
      </trkpt>
      <trkpt lat="63.073042" lon="12.423216">
        <ele>794.269</ele>
        <time>2011-07-06T15:25:02Z</time>
      </trkpt>
      <trkpt lat="63.073006" lon="12.423389">
        <ele>797.077</ele>
        <time>2011-07-06T15:25:14Z</time>
      </trkpt>
      <trkpt lat="63.073004" lon="12.423413">
        <ele>797.792</ele>
        <time>2011-07-06T15:25:16Z</time>
      </trkpt>
      <trkpt lat="63.073004" lon="12.423589">
        <ele>798.61</ele>
        <time>2011-07-06T15:25:24Z</time>
      </trkpt>
      <trkpt lat="63.07291" lon="12.423811">
        <ele>797.425</ele>
        <time>2011-07-06T15:25:35Z</time>
      </trkpt>
      <trkpt lat="63.072828" lon="12.423961">
        <ele>797.58</ele>
        <time>2011-07-06T15:25:43Z</time>
      </trkpt>
      <trkpt lat="63.072763" lon="12.424136">
        <ele>798.437</ele>
        <time>2011-07-06T15:25:51Z</time>
      </trkpt>
      <trkpt lat="63.072712" lon="12.424322">
        <ele>798.353</ele>
        <time>2011-07-06T15:25:59Z</time>
      </trkpt>
      <trkpt lat="63.072651" lon="12.424471">
        <ele>797.884</ele>
        <time>2011-07-06T15:26:06Z</time>
      </trkpt>
      <trkpt lat="63.07264" lon="12.424501">
        <ele>797.682</ele>
        <time>2011-07-06T15:26:07Z</time>
      </trkpt>
      <trkpt lat="63.072572" lon="12.424681">
        <ele>796.396</ele>
        <time>2011-07-06T15:26:13Z</time>
      </trkpt>
      <trkpt lat="63.072505" lon="12.42477">
        <ele>796.588</ele>
        <time>2011-07-06T15:26:18Z</time>
      </trkpt>
      <trkpt lat="63.072442" lon="12.42495">
        <ele>796.875</ele>
        <time>2011-07-06T15:26:23Z</time>
      </trkpt>
      <trkpt lat="63.072426" lon="12.424983">
        <ele>796.717</ele>
        <time>2011-07-06T15:26:24Z</time>
      </trkpt>
      <trkpt lat="63.072329" lon="12.425083">
        <ele>795.55</ele>
        <time>2011-07-06T15:26:29Z</time>
      </trkpt>
      <trkpt lat="63.072237" lon="12.425121">
        <ele>795.992</ele>
        <time>2011-07-06T15:26:34Z</time>
      </trkpt>
      <trkpt lat="63.072172" lon="12.425288">
        <ele>796.354</ele>
        <time>2011-07-06T15:26:40Z</time>
      </trkpt>
      <trkpt lat="63.072045" lon="12.425487">
        <ele>796.733</ele>
        <time>2011-07-06T15:26:47Z</time>
      </trkpt>
      <trkpt lat="63.071979" lon="12.425571">
        <ele>797.152</ele>
        <time>2011-07-06T15:26:52Z</time>
      </trkpt>
      <trkpt lat="63.071894" lon="12.425819">
        <ele>797.084</ele>
        <time>2011-07-06T15:27:01Z</time>
      </trkpt>
      <trkpt lat="63.071817" lon="12.425951">
        <ele>796.275</ele>
        <time>2011-07-06T15:27:06Z</time>
      </trkpt>
      <trkpt lat="63.071796" lon="12.426042">
        <ele>796.047</ele>
        <time>2011-07-06T15:27:08Z</time>
      </trkpt>
      <trkpt lat="63.071719" lon="12.426219">
        <ele>796.179</ele>
        <time>2011-07-06T15:27:13Z</time>
      </trkpt>
      <trkpt lat="63.071693" lon="12.426296">
        <ele>796.209</ele>
        <time>2011-07-06T15:27:15Z</time>
      </trkpt>
      <trkpt lat="63.071582" lon="12.426573">
        <ele>796.359</ele>
        <time>2011-07-06T15:27:22Z</time>
      </trkpt>
      <trkpt lat="63.071482" lon="12.426697">
        <ele>795.824</ele>
        <time>2011-07-06T15:27:28Z</time>
      </trkpt>
      <trkpt lat="63.071471" lon="12.426711">
        <ele>795.814</ele>
        <time>2011-07-06T15:27:29Z</time>
      </trkpt>
      <trkpt lat="63.071453" lon="12.426844">
        <ele>795.588</ele>
        <time>2011-07-06T15:27:34Z</time>
      </trkpt>
      <trkpt lat="63.071411" lon="12.426915">
        <ele>794.911</ele>
        <time>2011-07-06T15:27:38Z</time>
      </trkpt>
      <trkpt lat="63.071345" lon="12.427032">
        <ele>795.46</ele>
        <time>2011-07-06T15:27:45Z</time>
      </trkpt>
      <trkpt lat="63.071294" lon="12.42718">
        <ele>796.063</ele>
        <time>2011-07-06T15:27:51Z</time>
      </trkpt>
      <trkpt lat="63.071235" lon="12.427334">
        <ele>796.294</ele>
        <time>2011-07-06T15:27:56Z</time>
      </trkpt>
      <trkpt lat="63.071118" lon="12.427528">
        <ele>795.49</ele>
        <time>2011-07-06T15:28:02Z</time>
      </trkpt>
      <trkpt lat="63.071006" lon="12.427659">
        <ele>795.467</ele>
        <time>2011-07-06T15:28:07Z</time>
      </trkpt>
      <trkpt lat="63.070967" lon="12.427776">
        <ele>795.621</ele>
        <time>2011-07-06T15:28:11Z</time>
      </trkpt>
      <trkpt lat="63.070896" lon="12.427944">
        <ele>793.722</ele>
        <time>2011-07-06T15:28:18Z</time>
      </trkpt>
      <trkpt lat="63.070885" lon="12.427954">
        <ele>793.54</ele>
        <time>2011-07-06T15:28:19Z</time>
      </trkpt>
      <trkpt lat="63.070874" lon="12.427988">
        <ele>793.628</ele>
        <time>2011-07-06T15:28:21Z</time>
      </trkpt>
      <trkpt lat="63.0708" lon="12.428146">
        <ele>793.457</ele>
        <time>2011-07-06T15:28:27Z</time>
      </trkpt>
      <trkpt lat="63.070738" lon="12.428375">
        <ele>794.859</ele>
        <time>2011-07-06T15:28:34Z</time>
      </trkpt>
      <trkpt lat="63.070717" lon="12.428426">
        <ele>795.17</ele>
        <time>2011-07-06T15:28:37Z</time>
      </trkpt>
      <trkpt lat="63.070684" lon="12.428583">
        <ele>794.029</ele>
        <time>2011-07-06T15:28:44Z</time>
      </trkpt>
      <trkpt lat="63.070671" lon="12.428694">
        <ele>795.037</ele>
        <time>2011-07-06T15:28:50Z</time>
      </trkpt>
      <trkpt lat="63.070663" lon="12.428767">
        <ele>796.109</ele>
        <time>2011-07-06T15:28:54Z</time>
      </trkpt>
      <trkpt lat="63.070644" lon="12.428887">
        <ele>796.499</ele>
        <time>2011-07-06T15:28:58Z</time>
      </trkpt>
      <trkpt lat="63.070588" lon="12.42911">
        <ele>797.494</ele>
        <time>2011-07-06T15:29:07Z</time>
      </trkpt>
      <trkpt lat="63.070581" lon="12.429167">
        <ele>798.432</ele>
        <time>2011-07-06T15:29:10Z</time>
      </trkpt>
      <trkpt lat="63.070579" lon="12.429263">
        <ele>799.831</ele>
        <time>2011-07-06T15:29:15Z</time>
      </trkpt>
      <trkpt lat="63.070522" lon="12.429436">
        <ele>799.568</ele>
        <time>2011-07-06T15:29:24Z</time>
      </trkpt>
      <trkpt lat="63.070504" lon="12.429601">
        <ele>798.492</ele>
        <time>2011-07-06T15:29:29Z</time>
      </trkpt>
      <trkpt lat="63.070504" lon="12.429651">
        <ele>798.097</ele>
        <time>2011-07-06T15:29:30Z</time>
      </trkpt>
      <trkpt lat="63.070464" lon="12.429907">
        <ele>796.161</ele>
        <time>2011-07-06T15:29:36Z</time>
      </trkpt>
      <trkpt lat="63.070441" lon="12.430085">
        <ele>795.461</ele>
        <time>2011-07-06T15:29:40Z</time>
      </trkpt>
      <trkpt lat="63.070405" lon="12.430291">
        <ele>794.856</ele>
        <time>2011-07-06T15:29:45Z</time>
      </trkpt>
      <trkpt lat="63.070385" lon="12.430344">
        <ele>794.946</ele>
        <time>2011-07-06T15:29:47Z</time>
      </trkpt>
      <trkpt lat="63.07034" lon="12.430491">
        <ele>794.358</ele>
        <time>2011-07-06T15:29:51Z</time>
      </trkpt>
      <trkpt lat="63.070286" lon="12.430673">
        <ele>793.255</ele>
        <time>2011-07-06T15:29:58Z</time>
      </trkpt>
      <trkpt lat="63.070278" lon="12.430694">
        <ele>793.075</ele>
        <time>2011-07-06T15:29:59Z</time>
      </trkpt>
      <trkpt lat="63.070265" lon="12.430736">
        <ele>792.594</ele>
        <time>2011-07-06T15:30:01Z</time>
      </trkpt>
      <trkpt lat="63.070206" lon="12.43079">
        <ele>791.081</ele>
        <time>2011-07-06T15:30:08Z</time>
      </trkpt>
      <trkpt lat="63.070201" lon="12.430801">
        <ele>790.784</ele>
        <time>2011-07-06T15:30:10Z</time>
      </trkpt>
      <trkpt lat="63.070119" lon="12.430813">
        <ele>788.11</ele>
        <time>2011-07-06T15:30:31Z</time>
      </trkpt>
      <trkpt lat="63.070113" lon="12.430807">
        <ele>787.804</ele>
        <time>2011-07-06T15:30:32Z</time>
      </trkpt>
      <trkpt lat="63.070072" lon="12.430804">
        <ele>786.872</ele>
        <time>2011-07-06T15:30:38Z</time>
      </trkpt>
      <trkpt lat="63.070056" lon="12.430797">
        <ele>786.762</ele>
        <time>2011-07-06T15:30:40Z</time>
      </trkpt>
      <trkpt lat="63.07002" lon="12.430834">
        <ele>786.999</ele>
        <time>2011-07-06T15:30:44Z</time>
      </trkpt>
      <trkpt lat="63.070002" lon="12.430885">
        <ele>787.308</ele>
        <time>2011-07-06T15:30:47Z</time>
      </trkpt>
      <trkpt lat="63.070005" lon="12.431038">
        <ele>788.107</ele>
        <time>2011-07-06T15:30:54Z</time>
      </trkpt>
      <trkpt lat="63.069991" lon="12.431129">
        <ele>789.109</ele>
        <time>2011-07-06T15:31:00Z</time>
      </trkpt>
      <trkpt lat="63.069974" lon="12.431244">
        <ele>790.448</ele>
        <time>2011-07-06T15:31:07Z</time>
      </trkpt>
      <trkpt lat="63.069975" lon="12.431292">
        <ele>790.854</ele>
        <time>2011-07-06T15:31:09Z</time>
      </trkpt>
      <trkpt lat="63.069948" lon="12.431421">
        <ele>792.236</ele>
        <time>2011-07-06T15:31:17Z</time>
      </trkpt>
      <trkpt lat="63.069939" lon="12.431457">
        <ele>792.729</ele>
        <time>2011-07-06T15:31:19Z</time>
      </trkpt>
      <trkpt lat="63.069882" lon="12.431595">
        <ele>795.172</ele>
        <time>2011-07-06T15:31:29Z</time>
      </trkpt>
      <trkpt lat="63.069875" lon="12.431627">
        <ele>795.79</ele>
        <time>2011-07-06T15:31:31Z</time>
      </trkpt>
      <trkpt lat="63.069879" lon="12.431805">
        <ele>797.289</ele>
        <time>2011-07-06T15:31:38Z</time>
      </trkpt>
      <trkpt lat="63.069815" lon="12.432023">
        <ele>799.049</ele>
        <time>2011-07-06T15:31:47Z</time>
      </trkpt>
      <trkpt lat="63.06977" lon="12.432249">
        <ele>799.281</ele>
        <time>2011-07-06T15:31:55Z</time>
      </trkpt>
      <trkpt lat="63.069726" lon="12.432404">
        <ele>799.583</ele>
        <time>2011-07-06T15:32:00Z</time>
      </trkpt>
      <trkpt lat="63.069712" lon="12.43249">
        <ele>799.746</ele>
        <time>2011-07-06T15:32:02Z</time>
      </trkpt>
      <trkpt lat="63.069626" lon="12.432747">
        <ele>801.321</ele>
        <time>2011-07-06T15:32:09Z</time>
      </trkpt>
      <trkpt lat="63.069574" lon="12.432967">
        <ele>800.267</ele>
        <time>2011-07-06T15:32:15Z</time>
      </trkpt>
      <trkpt lat="63.069566" lon="12.433036">
        <ele>799.779</ele>
        <time>2011-07-06T15:32:17Z</time>
      </trkpt>
      <trkpt lat="63.069498" lon="12.433183">
        <ele>797.946</ele>
        <time>2011-07-06T15:32:22Z</time>
      </trkpt>
      <trkpt lat="63.069424" lon="12.433315">
        <ele>797.538</ele>
        <time>2011-07-06T15:32:26Z</time>
      </trkpt>
      <trkpt lat="63.069392" lon="12.433488">
        <ele>797.563</ele>
        <time>2011-07-06T15:32:30Z</time>
      </trkpt>
      <trkpt lat="63.069385" lon="12.433638">
        <ele>798.133</ele>
        <time>2011-07-06T15:32:34Z</time>
      </trkpt>
      <trkpt lat="63.069354" lon="12.433764">
        <ele>799.159</ele>
        <time>2011-07-06T15:32:39Z</time>
      </trkpt>
      <trkpt lat="63.069326" lon="12.433825">
        <ele>799.84</ele>
        <time>2011-07-06T15:32:42Z</time>
      </trkpt>
      <trkpt lat="63.069289" lon="12.433995">
        <ele>801.503</ele>
        <time>2011-07-06T15:32:48Z</time>
      </trkpt>
      <trkpt lat="63.069275" lon="12.43403">
        <ele>801.654</ele>
        <time>2011-07-06T15:32:50Z</time>
      </trkpt>
      <trkpt lat="63.06928" lon="12.434074">
        <ele>801.61</ele>
        <time>2011-07-06T15:32:52Z</time>
      </trkpt>
      <trkpt lat="63.069293" lon="12.434289">
        <ele>800.748</ele>
        <time>2011-07-06T15:32:57Z</time>
      </trkpt>
      <trkpt lat="63.06928" lon="12.434323">
        <ele>800.65</ele>
        <time>2011-07-06T15:32:58Z</time>
      </trkpt>
      <trkpt lat="63.069163" lon="12.434574">
        <ele>801.386</ele>
        <time>2011-07-06T15:33:05Z</time>
      </trkpt>
      <trkpt lat="63.06913" lon="12.434728">
        <ele>802.161</ele>
        <time>2011-07-06T15:33:10Z</time>
      </trkpt>
      <trkpt lat="63.069127" lon="12.434723">
        <ele>802.3</ele>
        <time>2011-07-06T15:33:11Z</time>
      </trkpt>
      <trkpt lat="63.069099" lon="12.434843">
        <ele>802.442</ele>
        <time>2011-07-06T15:33:22Z</time>
      </trkpt>
      <trkpt lat="63.069035" lon="12.435115">
        <ele>802.272</ele>
        <time>2011-07-06T15:33:28Z</time>
      </trkpt>
      <trkpt lat="63.069031" lon="12.435429">
        <ele>802.943</ele>
        <time>2011-07-06T15:33:34Z</time>
      </trkpt>
      <trkpt lat="63.068991" lon="12.435853">
        <ele>805.07</ele>
        <time>2011-07-06T15:33:43Z</time>
      </trkpt>
      <trkpt lat="63.068956" lon="12.436089">
        <ele>805.064</ele>
        <time>2011-07-06T15:33:49Z</time>
      </trkpt>
      <trkpt lat="63.068926" lon="12.436341">
        <ele>806.389</ele>
        <time>2011-07-06T15:33:55Z</time>
      </trkpt>
      <trkpt lat="63.068921" lon="12.4367">
        <ele>807.351</ele>
        <time>2011-07-06T15:34:02Z</time>
      </trkpt>
      <trkpt lat="63.068882" lon="12.436946">
        <ele>807.677</ele>
        <time>2011-07-06T15:34:07Z</time>
      </trkpt>
      <trkpt lat="63.068786" lon="12.437274">
        <ele>807.227</ele>
        <time>2011-07-06T15:34:14Z</time>
      </trkpt>
      <trkpt lat="63.068692" lon="12.437404">
        <ele>807.383</ele>
        <time>2011-07-06T15:34:19Z</time>
      </trkpt>
      <trkpt lat="63.068593" lon="12.437613">
        <ele>806.621</ele>
        <time>2011-07-06T15:34:25Z</time>
      </trkpt>
      <trkpt lat="63.068524" lon="12.437789">
        <ele>807.817</ele>
        <time>2011-07-06T15:34:32Z</time>
      </trkpt>
      <trkpt lat="63.068452" lon="12.437891">
        <ele>808.385</ele>
        <time>2011-07-06T15:34:38Z</time>
      </trkpt>
      <trkpt lat="63.068351" lon="12.438091">
        <ele>807.683</ele>
        <time>2011-07-06T15:34:46Z</time>
      </trkpt>
      <trkpt lat="63.068239" lon="12.438379">
        <ele>807.41</ele>
        <time>2011-07-06T15:34:52Z</time>
      </trkpt>
      <trkpt lat="63.068078" lon="12.438721">
        <ele>808.129</ele>
        <time>2011-07-06T15:35:00Z</time>
      </trkpt>
      <trkpt lat="63.067945" lon="12.438984">
        <ele>808.219</ele>
        <time>2011-07-06T15:35:07Z</time>
      </trkpt>
      <trkpt lat="63.067838" lon="12.439206">
        <ele>808.09</ele>
        <time>2011-07-06T15:35:13Z</time>
      </trkpt>
      <trkpt lat="63.067823" lon="12.439238">
        <ele>807.988</ele>
        <time>2011-07-06T15:35:14Z</time>
      </trkpt>
      <trkpt lat="63.067714" lon="12.439349">
        <ele>805.978</ele>
        <time>2011-07-06T15:35:19Z</time>
      </trkpt>
      <trkpt lat="63.067609" lon="12.439381">
        <ele>805.436</ele>
        <time>2011-07-06T15:35:23Z</time>
      </trkpt>
      <trkpt lat="63.067543" lon="12.439566">
        <ele>805.819</ele>
        <time>2011-07-06T15:35:28Z</time>
      </trkpt>
      <trkpt lat="63.067518" lon="12.439689">
        <ele>806.037</ele>
        <time>2011-07-06T15:35:31Z</time>
      </trkpt>
      <trkpt lat="63.067465" lon="12.440054">
        <ele>805.594</ele>
        <time>2011-07-06T15:35:38Z</time>
      </trkpt>
      <trkpt lat="63.06743" lon="12.440122">
        <ele>805.513</ele>
        <time>2011-07-06T15:35:40Z</time>
      </trkpt>
      <trkpt lat="63.067388" lon="12.440316">
        <ele>808.098</ele>
        <time>2011-07-06T15:35:47Z</time>
      </trkpt>
      <trkpt lat="63.067359" lon="12.440356">
        <ele>808.658</ele>
        <time>2011-07-06T15:35:50Z</time>
      </trkpt>
      <trkpt lat="63.067287" lon="12.440575">
        <ele>811.189</ele>
        <time>2011-07-06T15:36:00Z</time>
      </trkpt>
      <trkpt lat="63.067208" lon="12.440797">
        <ele>811.686</ele>
        <time>2011-07-06T15:36:09Z</time>
      </trkpt>
      <trkpt lat="63.067099" lon="12.4409">
        <ele>811.512</ele>
        <time>2011-07-06T15:36:17Z</time>
      </trkpt>
      <trkpt lat="63.067037" lon="12.440938">
        <ele>811.035</ele>
        <time>2011-07-06T15:36:20Z</time>
      </trkpt>
      <trkpt lat="63.066926" lon="12.441128">
        <ele>811.953</ele>
        <time>2011-07-06T15:36:26Z</time>
      </trkpt>
      <trkpt lat="63.066875" lon="12.441302">
        <ele>812.564</ele>
        <time>2011-07-06T15:36:30Z</time>
      </trkpt>
      <trkpt lat="63.066734" lon="12.441573">
        <ele>811.786</ele>
        <time>2011-07-06T15:36:37Z</time>
      </trkpt>
      <trkpt lat="63.066647" lon="12.44176">
        <ele>813.198</ele>
        <time>2011-07-06T15:36:42Z</time>
      </trkpt>
      <trkpt lat="63.066538" lon="12.44206">
        <ele>813.756</ele>
        <time>2011-07-06T15:36:49Z</time>
      </trkpt>
      <trkpt lat="63.066449" lon="12.442217">
        <ele>814.015</ele>
        <time>2011-07-06T15:36:54Z</time>
      </trkpt>
      <trkpt lat="63.066394" lon="12.442316">
        <ele>814.66</ele>
        <time>2011-07-06T15:36:59Z</time>
      </trkpt>
      <trkpt lat="63.066301" lon="12.442499">
        <ele>812.781</ele>
        <time>2011-07-06T15:37:06Z</time>
      </trkpt>
      <trkpt lat="63.066159" lon="12.442657">
        <ele>809.931</ele>
        <time>2011-07-06T15:37:13Z</time>
      </trkpt>
      <trkpt lat="63.066028" lon="12.442843">
        <ele>807.324</ele>
        <time>2011-07-06T15:37:19Z</time>
      </trkpt>
      <trkpt lat="63.065953" lon="12.443029">
        <ele>806.521</ele>
        <time>2011-07-06T15:37:24Z</time>
      </trkpt>
      <trkpt lat="63.065835" lon="12.443123">
        <ele>806.296</ele>
        <time>2011-07-06T15:37:29Z</time>
      </trkpt>
      <trkpt lat="63.065817" lon="12.44313">
        <ele>806.344</ele>
        <time>2011-07-06T15:37:30Z</time>
      </trkpt>
      <trkpt lat="63.065771" lon="12.443157">
        <ele>805.878</ele>
        <time>2011-07-06T15:37:35Z</time>
      </trkpt>
      <trkpt lat="63.065721" lon="12.443293">
        <ele>807.858</ele>
        <time>2011-07-06T15:37:43Z</time>
      </trkpt>
      <trkpt lat="63.065634" lon="12.443401">
        <ele>809.561</ele>
        <time>2011-07-06T15:37:50Z</time>
      </trkpt>
      <trkpt lat="63.065511" lon="12.443571">
        <ele>809.299</ele>
        <time>2011-07-06T15:37:56Z</time>
      </trkpt>
      <trkpt lat="63.065492" lon="12.443601">
        <ele>809.073</ele>
        <time>2011-07-06T15:37:57Z</time>
      </trkpt>
      <trkpt lat="63.065452" lon="12.443845">
        <ele>809.417</ele>
        <time>2011-07-06T15:38:02Z</time>
      </trkpt>
      <trkpt lat="63.065375" lon="12.444071">
        <ele>809.885</ele>
        <time>2011-07-06T15:38:07Z</time>
      </trkpt>
      <trkpt lat="63.065328" lon="12.444454">
        <ele>809.623</ele>
        <time>2011-07-06T15:38:14Z</time>
      </trkpt>
      <trkpt lat="63.065323" lon="12.444557">
        <ele>809.487</ele>
        <time>2011-07-06T15:38:16Z</time>
      </trkpt>
      <trkpt lat="63.065253" lon="12.444768">
        <ele>809.34</ele>
        <time>2011-07-06T15:38:21Z</time>
      </trkpt>
      <trkpt lat="63.065191" lon="12.444907">
        <ele>810.845</ele>
        <time>2011-07-06T15:38:26Z</time>
      </trkpt>
      <trkpt lat="63.065051" lon="12.445324">
        <ele>810.014</ele>
        <time>2011-07-06T15:38:35Z</time>
      </trkpt>
      <trkpt lat="63.06496" lon="12.445568">
        <ele>809.67</ele>
        <time>2011-07-06T15:38:41Z</time>
      </trkpt>
      <trkpt lat="63.064873" lon="12.445689">
        <ele>808.343</ele>
        <time>2011-07-06T15:38:46Z</time>
      </trkpt>
      <trkpt lat="63.064851" lon="12.44571">
        <ele>807.749</ele>
        <time>2011-07-06T15:38:48Z</time>
      </trkpt>
      <trkpt lat="63.064834" lon="12.445936">
        <ele>807.38</ele>
        <time>2011-07-06T15:38:54Z</time>
      </trkpt>
      <trkpt lat="63.064755" lon="12.446225">
        <ele>807.421</ele>
        <time>2011-07-06T15:39:00Z</time>
      </trkpt>
      <trkpt lat="63.064684" lon="12.446442">
        <ele>807.558</ele>
        <time>2011-07-06T15:39:05Z</time>
      </trkpt>
      <trkpt lat="63.064607" lon="12.446621">
        <ele>807.459</ele>
        <time>2011-07-06T15:39:10Z</time>
      </trkpt>
      <trkpt lat="63.064555" lon="12.446789">
        <ele>807.009</ele>
        <time>2011-07-06T15:39:14Z</time>
      </trkpt>
      <trkpt lat="63.064509" lon="12.446962">
        <ele>805.799</ele>
        <time>2011-07-06T15:39:18Z</time>
      </trkpt>
      <trkpt lat="63.06441" lon="12.447245">
        <ele>804.938</ele>
        <time>2011-07-06T15:39:25Z</time>
      </trkpt>
      <trkpt lat="63.06439" lon="12.447317">
        <ele>804.697</ele>
        <time>2011-07-06T15:39:27Z</time>
      </trkpt>
      <trkpt lat="63.064384" lon="12.447548">
        <ele>804.718</ele>
        <time>2011-07-06T15:39:32Z</time>
      </trkpt>
      <trkpt lat="63.064324" lon="12.447693">
        <ele>804.818</ele>
        <time>2011-07-06T15:39:37Z</time>
      </trkpt>
      <trkpt lat="63.064272" lon="12.447825">
        <ele>806.848</ele>
        <time>2011-07-06T15:39:46Z</time>
      </trkpt>
      <trkpt lat="63.064225" lon="12.447924">
        <ele>808.779</ele>
        <time>2011-07-06T15:39:53Z</time>
      </trkpt>
      <trkpt lat="63.064188" lon="12.448021">
        <ele>810.142</ele>
        <time>2011-07-06T15:39:58Z</time>
      </trkpt>
      <trkpt lat="63.064112" lon="12.448238">
        <ele>810.768</ele>
        <time>2011-07-06T15:40:05Z</time>
      </trkpt>
      <trkpt lat="63.063947" lon="12.448597">
        <ele>810.875</ele>
        <time>2011-07-06T15:40:14Z</time>
      </trkpt>
      <trkpt lat="63.063825" lon="12.448922">
        <ele>810.772</ele>
        <time>2011-07-06T15:40:21Z</time>
      </trkpt>
      <trkpt lat="63.063703" lon="12.449236">
        <ele>810.945</ele>
        <time>2011-07-06T15:40:28Z</time>
      </trkpt>
      <trkpt lat="63.063586" lon="12.44953">
        <ele>811.331</ele>
        <time>2011-07-06T15:40:35Z</time>
      </trkpt>
      <trkpt lat="63.063507" lon="12.449723">
        <ele>811.247</ele>
        <time>2011-07-06T15:40:40Z</time>
      </trkpt>
      <trkpt lat="63.063395" lon="12.449904">
        <ele>811.251</ele>
        <time>2011-07-06T15:40:46Z</time>
      </trkpt>
      <trkpt lat="63.063294" lon="12.45006">
        <ele>811.097</ele>
        <time>2011-07-06T15:40:51Z</time>
      </trkpt>
      <trkpt lat="63.063184" lon="12.450262">
        <ele>811.137</ele>
        <time>2011-07-06T15:40:57Z</time>
      </trkpt>
      <trkpt lat="63.063145" lon="12.450304">
        <ele>811.186</ele>
        <time>2011-07-06T15:40:59Z</time>
      </trkpt>
      <trkpt lat="63.063052" lon="12.450557">
        <ele>811.292</ele>
        <time>2011-07-06T15:41:05Z</time>
      </trkpt>
      <trkpt lat="63.062941" lon="12.450862">
        <ele>811.45</ele>
        <time>2011-07-06T15:41:12Z</time>
      </trkpt>
      <trkpt lat="63.062912" lon="12.450957">
        <ele>811.375</ele>
        <time>2011-07-06T15:41:14Z</time>
      </trkpt>
      <trkpt lat="63.062791" lon="12.451277">
        <ele>811.161</ele>
        <time>2011-07-06T15:41:22Z</time>
      </trkpt>
      <trkpt lat="63.062693" lon="12.451472">
        <ele>811.065</ele>
        <time>2011-07-06T15:41:28Z</time>
      </trkpt>
      <trkpt lat="63.062574" lon="12.45169">
        <ele>811.143</ele>
        <time>2011-07-06T15:41:35Z</time>
      </trkpt>
      <trkpt lat="63.062458" lon="12.451949">
        <ele>811.359</ele>
        <time>2011-07-06T15:41:42Z</time>
      </trkpt>
      <trkpt lat="63.062335" lon="12.452266">
        <ele>811.507</ele>
        <time>2011-07-06T15:41:50Z</time>
      </trkpt>
      <trkpt lat="63.06222" lon="12.452509">
        <ele>811.684</ele>
        <time>2011-07-06T15:41:57Z</time>
      </trkpt>
      <trkpt lat="63.062157" lon="12.452716">
        <ele>812.022</ele>
        <time>2011-07-06T15:42:02Z</time>
      </trkpt>
      <trkpt lat="63.062075" lon="12.452893">
        <ele>811.688</ele>
        <time>2011-07-06T15:42:07Z</time>
      </trkpt>
      <trkpt lat="63.062" lon="12.453043">
        <ele>811.428</ele>
        <time>2011-07-06T15:42:13Z</time>
      </trkpt>
      <trkpt lat="63.061864" lon="12.45327">
        <ele>811.681</ele>
        <time>2011-07-06T15:42:24Z</time>
      </trkpt>
      <trkpt lat="63.061738" lon="12.453457">
        <ele>811.65</ele>
        <time>2011-07-06T15:42:30Z</time>
      </trkpt>
      <trkpt lat="63.061596" lon="12.453687">
        <ele>811.487</ele>
        <time>2011-07-06T15:42:37Z</time>
      </trkpt>
      <trkpt lat="63.061538" lon="12.453787">
        <ele>811.374</ele>
        <time>2011-07-06T15:42:42Z</time>
      </trkpt>
      <trkpt lat="63.061525" lon="12.453813">
        <ele>810.716</ele>
        <time>2011-07-06T15:42:44Z</time>
      </trkpt>
      <trkpt lat="63.061512" lon="12.453935">
        <ele>809.043</ele>
        <time>2011-07-06T15:42:49Z</time>
      </trkpt>
      <trkpt lat="63.061465" lon="12.45409">
        <ele>809.276</ele>
        <time>2011-07-06T15:42:56Z</time>
      </trkpt>
      <trkpt lat="63.061429" lon="12.454258">
        <ele>809.067</ele>
        <time>2011-07-06T15:43:04Z</time>
      </trkpt>
      <trkpt lat="63.061416" lon="12.454311">
        <ele>808.459</ele>
        <time>2011-07-06T15:43:57Z</time>
      </trkpt>
      <trkpt lat="63.061401" lon="12.454378">
        <ele>808.256</ele>
        <time>2011-07-06T15:44:19Z</time>
      </trkpt>
      <trkpt lat="63.061388" lon="12.454425">
        <ele>808.148</ele>
        <time>2011-07-06T15:44:30Z</time>
      </trkpt>
      <trkpt lat="63.061378" lon="12.454502">
        <ele>807.732</ele>
        <time>2011-07-06T15:44:36Z</time>
      </trkpt>
      <trkpt lat="63.061369" lon="12.45456">
        <ele>807.186</ele>
        <time>2011-07-06T15:44:40Z</time>
      </trkpt>
      <trkpt lat="63.061357" lon="12.454633">
        <ele>806.837</ele>
        <time>2011-07-06T15:44:44Z</time>
      </trkpt>
      <trkpt lat="63.061311" lon="12.4548">
        <ele>805.572</ele>
        <time>2011-07-06T15:44:52Z</time>
      </trkpt>
      <trkpt lat="63.061276" lon="12.454983">
        <ele>805.245</ele>
        <time>2011-07-06T15:45:00Z</time>
      </trkpt>
      <trkpt lat="63.061272" lon="12.455075">
        <ele>805.18</ele>
        <time>2011-07-06T15:45:04Z</time>
      </trkpt>
      <trkpt lat="63.061235" lon="12.45525">
        <ele>805.349</ele>
        <time>2011-07-06T15:45:12Z</time>
      </trkpt>
      <trkpt lat="63.061235" lon="12.455315">
        <ele>804.645</ele>
        <time>2011-07-06T15:45:17Z</time>
      </trkpt>
      <trkpt lat="63.061198" lon="12.455433">
        <ele>805.367</ele>
        <time>2011-07-06T15:45:24Z</time>
      </trkpt>
      <trkpt lat="63.061102" lon="12.455697">
        <ele>806.559</ele>
        <time>2011-07-06T15:45:34Z</time>
      </trkpt>
      <trkpt lat="63.061032" lon="12.455987">
        <ele>807.22</ele>
        <time>2011-07-06T15:45:40Z</time>
      </trkpt>
      <trkpt lat="63.060958" lon="12.456422">
        <ele>807.725</ele>
        <time>2011-07-06T15:45:48Z</time>
      </trkpt>
      <trkpt lat="63.06094" lon="12.456641">
        <ele>808.526</ele>
        <time>2011-07-06T15:45:53Z</time>
      </trkpt>
      <trkpt lat="63.060897" lon="12.456909">
        <ele>808.745</ele>
        <time>2011-07-06T15:45:59Z</time>
      </trkpt>
      <trkpt lat="63.06086" lon="12.457167">
        <ele>809.166</ele>
        <time>2011-07-06T15:46:05Z</time>
      </trkpt>
      <trkpt lat="63.060846" lon="12.457264">
        <ele>808.884</ele>
        <time>2011-07-06T15:46:07Z</time>
      </trkpt>
      <trkpt lat="63.060799" lon="12.457427">
        <ele>809.353</ele>
        <time>2011-07-06T15:46:11Z</time>
      </trkpt>
      <trkpt lat="63.060777" lon="12.457497">
        <ele>809.781</ele>
        <time>2011-07-06T15:46:13Z</time>
      </trkpt>
      <trkpt lat="63.060752" lon="12.457699">
        <ele>810.296</ele>
        <time>2011-07-06T15:46:18Z</time>
      </trkpt>
      <trkpt lat="63.06075" lon="12.457724">
        <ele>810.592</ele>
        <time>2011-07-06T15:46:19Z</time>
      </trkpt>
      <trkpt lat="63.06072" lon="12.457931">
        <ele>810.986</ele>
        <time>2011-07-06T15:46:27Z</time>
      </trkpt>
      <trkpt lat="63.060672" lon="12.458082">
        <ele>810.584</ele>
        <time>2011-07-06T15:46:33Z</time>
      </trkpt>
      <trkpt lat="63.060638" lon="12.458211">
        <ele>809.971</ele>
        <time>2011-07-06T15:46:36Z</time>
      </trkpt>
      <trkpt lat="63.060592" lon="12.458306">
        <ele>809.575</ele>
        <time>2011-07-06T15:46:41Z</time>
      </trkpt>
      <trkpt lat="63.060589" lon="12.458342">
        <ele>809.797</ele>
        <time>2011-07-06T15:46:44Z</time>
      </trkpt>
      <trkpt lat="63.060558" lon="12.458566">
        <ele>810.245</ele>
        <time>2011-07-06T15:46:53Z</time>
      </trkpt>
      <trkpt lat="63.060546" lon="12.458687">
        <ele>809.874</ele>
        <time>2011-07-06T15:46:56Z</time>
      </trkpt>
      <trkpt lat="63.060445" lon="12.45893">
        <ele>810.027</ele>
        <time>2011-07-06T15:47:03Z</time>
      </trkpt>
      <trkpt lat="63.060449" lon="12.459001">
        <ele>809.891</ele>
        <time>2011-07-06T15:47:06Z</time>
      </trkpt>
      <trkpt lat="63.060412" lon="12.459306">
        <ele>806.524</ele>
        <time>2011-07-06T15:47:13Z</time>
      </trkpt>
      <trkpt lat="63.060385" lon="12.459389">
        <ele>805.823</ele>
        <time>2011-07-06T15:47:15Z</time>
      </trkpt>
      <trkpt lat="63.060295" lon="12.459637">
        <ele>805.462</ele>
        <time>2011-07-06T15:47:21Z</time>
      </trkpt>
      <trkpt lat="63.060228" lon="12.459919">
        <ele>805.561</ele>
        <time>2011-07-06T15:47:27Z</time>
      </trkpt>
      <trkpt lat="63.060161" lon="12.460154">
        <ele>805.669</ele>
        <time>2011-07-06T15:47:32Z</time>
      </trkpt>
      <trkpt lat="63.060116" lon="12.460267">
        <ele>805.582</ele>
        <time>2011-07-06T15:47:35Z</time>
      </trkpt>
      <trkpt lat="63.060084" lon="12.46042">
        <ele>805.691</ele>
        <time>2011-07-06T15:47:41Z</time>
      </trkpt>
      <trkpt lat="63.059985" lon="12.460731">
        <ele>806.43</ele>
        <time>2011-07-06T15:47:50Z</time>
      </trkpt>
      <trkpt lat="63.059891" lon="12.461024">
        <ele>806.931</ele>
        <time>2011-07-06T15:47:57Z</time>
      </trkpt>
      <trkpt lat="63.059851" lon="12.461164">
        <ele>807.147</ele>
        <time>2011-07-06T15:48:00Z</time>
      </trkpt>
      <trkpt lat="63.059843" lon="12.461325">
        <ele>806.942</ele>
        <time>2011-07-06T15:48:04Z</time>
      </trkpt>
      <trkpt lat="63.059846" lon="12.461534">
        <ele>807.121</ele>
        <time>2011-07-06T15:48:10Z</time>
      </trkpt>
      <trkpt lat="63.059818" lon="12.461688">
        <ele>807.649</ele>
        <time>2011-07-06T15:48:16Z</time>
      </trkpt>
      <trkpt lat="63.059804" lon="12.461809">
        <ele>807.225</ele>
        <time>2011-07-06T15:48:20Z</time>
      </trkpt>
      <trkpt lat="63.059775" lon="12.461971">
        <ele>807.55</ele>
        <time>2011-07-06T15:48:26Z</time>
      </trkpt>
      <trkpt lat="63.059633" lon="12.462168">
        <ele>807.544</ele>
        <time>2011-07-06T15:48:34Z</time>
      </trkpt>
      <trkpt lat="63.059572" lon="12.462231">
        <ele>807.666</ele>
        <time>2011-07-06T15:48:37Z</time>
      </trkpt>
      <trkpt lat="63.059498" lon="12.462368">
        <ele>807.55</ele>
        <time>2011-07-06T15:48:42Z</time>
      </trkpt>
      <trkpt lat="63.059355" lon="12.46255">
        <ele>807.982</ele>
        <time>2011-07-06T15:48:50Z</time>
      </trkpt>
      <trkpt lat="63.059271" lon="12.462623">
        <ele>808.193</ele>
        <time>2011-07-06T15:48:56Z</time>
      </trkpt>
      <trkpt lat="63.05921" lon="12.462777">
        <ele>808.315</ele>
        <time>2011-07-06T15:49:03Z</time>
      </trkpt>
      <trkpt lat="63.059203" lon="12.462837">
        <ele>808.142</ele>
        <time>2011-07-06T15:49:05Z</time>
      </trkpt>
      <trkpt lat="63.059099" lon="12.463002">
        <ele>807.924</ele>
        <time>2011-07-06T15:49:11Z</time>
      </trkpt>
      <trkpt lat="63.059007" lon="12.463127">
        <ele>808.125</ele>
        <time>2011-07-06T15:49:16Z</time>
      </trkpt>
      <trkpt lat="63.058976" lon="12.463192">
        <ele>808.309</ele>
        <time>2011-07-06T15:49:18Z</time>
      </trkpt>
      <trkpt lat="63.058874" lon="12.463284">
        <ele>808.471</ele>
        <time>2011-07-06T15:49:26Z</time>
      </trkpt>
      <trkpt lat="63.058831" lon="12.463375">
        <ele>808.466</ele>
        <time>2011-07-06T15:49:33Z</time>
      </trkpt>
      <trkpt lat="63.058839" lon="12.46341">
        <ele>808.165</ele>
        <time>2011-07-06T15:49:36Z</time>
      </trkpt>
      <trkpt lat="63.058872" lon="12.463556">
        <ele>807.511</ele>
        <time>2011-07-06T15:49:45Z</time>
      </trkpt>
      <trkpt lat="63.058883" lon="12.463587">
        <ele>807.572</ele>
        <time>2011-07-06T15:49:47Z</time>
      </trkpt>
      <trkpt lat="63.058897" lon="12.46367">
        <ele>807.787</ele>
        <time>2011-07-06T15:49:52Z</time>
      </trkpt>
      <trkpt lat="63.058934" lon="12.463764">
        <ele>808.148</ele>
        <time>2011-07-06T15:49:59Z</time>
      </trkpt>
      <trkpt lat="63.05892" lon="12.463929">
        <ele>809.667</ele>
        <time>2011-07-06T15:50:06Z</time>
      </trkpt>
      <trkpt lat="63.058906" lon="12.464119">
        <ele>810.408</ele>
        <time>2011-07-06T15:50:13Z</time>
      </trkpt>
      <trkpt lat="63.058921" lon="12.46424">
        <ele>810.969</ele>
        <time>2011-07-06T15:50:18Z</time>
      </trkpt>
      <trkpt lat="63.058895" lon="12.464425">
        <ele>813.131</ele>
        <time>2011-07-06T15:50:26Z</time>
      </trkpt>
      <trkpt lat="63.058877" lon="12.464661">
        <ele>814.545</ele>
        <time>2011-07-06T15:50:35Z</time>
      </trkpt>
      <trkpt lat="63.058856" lon="12.464945">
        <ele>814.692</ele>
        <time>2011-07-06T15:50:45Z</time>
      </trkpt>
      <trkpt lat="63.05884" lon="12.465175">
        <ele>814.511</ele>
        <time>2011-07-06T15:50:53Z</time>
      </trkpt>
      <trkpt lat="63.058835" lon="12.465271">
        <ele>814.699</ele>
        <time>2011-07-06T15:50:57Z</time>
      </trkpt>
      <trkpt lat="63.058819" lon="12.465438">
        <ele>816.268</ele>
        <time>2011-07-06T15:51:06Z</time>
      </trkpt>
      <trkpt lat="63.058811" lon="12.465501">
        <ele>817.015</ele>
        <time>2011-07-06T15:51:09Z</time>
      </trkpt>
      <trkpt lat="63.058776" lon="12.465658">
        <ele>818.328</ele>
        <time>2011-07-06T15:51:17Z</time>
      </trkpt>
      <trkpt lat="63.05877" lon="12.465666">
        <ele>818.953</ele>
        <time>2011-07-06T15:51:20Z</time>
      </trkpt>
      <trkpt lat="63.058674" lon="12.465676">
        <ele>818.826</ele>
        <time>2011-07-06T15:51:54Z</time>
      </trkpt>
      <trkpt lat="63.058689" lon="12.465695">
        <ele>818.578</ele>
        <time>2011-07-06T15:52:14Z</time>
      </trkpt>
      <trkpt lat="63.058684" lon="12.465686">
        <ele>818.525</ele>
        <time>2011-07-06T15:52:16Z</time>
      </trkpt>
      <trkpt lat="63.058715" lon="12.465754">
        <ele>818.28</ele>
        <time>2011-07-06T15:53:07Z</time>
      </trkpt>
      <trkpt lat="63.058756" lon="12.465846">
        <ele>818.215</ele>
        <time>2011-07-06T15:53:15Z</time>
      </trkpt>
      <trkpt lat="63.058761" lon="12.465847">
        <ele>818.233</ele>
        <time>2011-07-06T15:53:16Z</time>
      </trkpt>
      <trkpt lat="63.058723" lon="12.465687">
        <ele>818.097</ele>
        <time>2011-07-06T15:53:22Z</time>
      </trkpt>
      <trkpt lat="63.058705" lon="12.465764">
        <ele>818.066</ele>
        <time>2011-07-06T15:53:38Z</time>
      </trkpt>
      <trkpt lat="63.058673" lon="12.465643">
        <ele>817.979</ele>
        <time>2011-07-06T15:54:22Z</time>
      </trkpt>
      <trkpt lat="63.058669" lon="12.465669">
        <ele>817.909</ele>
        <time>2011-07-06T15:54:24Z</time>
      </trkpt>
      <trkpt lat="63.058693" lon="12.465859">
        <ele>817.771</ele>
        <time>2011-07-06T15:54:51Z</time>
      </trkpt>
      <trkpt lat="63.058734" lon="12.465857">
        <ele>817.655</ele>
        <time>2011-07-06T15:55:00Z</time>
      </trkpt>
      <trkpt lat="63.058773" lon="12.465854">
        <ele>817.558</ele>
        <time>2011-07-06T15:55:17Z</time>
      </trkpt>
      <trkpt lat="63.058777" lon="12.465923">
        <ele>817.593</ele>
        <time>2011-07-06T15:55:24Z</time>
      </trkpt>
      <trkpt lat="63.058756" lon="12.465898">
        <ele>817.634</ele>
        <time>2011-07-06T15:55:28Z</time>
      </trkpt>
      <trkpt lat="63.058728" lon="12.465812">
        <ele>817.367</ele>
        <time>2011-07-06T15:55:38Z</time>
      </trkpt>
      <trkpt lat="63.05873" lon="12.465863">
        <ele>817.346</ele>
        <time>2011-07-06T15:55:40Z</time>
      </trkpt>
      <trkpt lat="63.058714" lon="12.465629">
        <ele>817.287</ele>
        <time>2011-07-06T15:56:41Z</time>
      </trkpt>
      <trkpt lat="63.058684" lon="12.46563">
        <ele>817.18</ele>
        <time>2011-07-06T15:56:47Z</time>
      </trkpt>
      <trkpt lat="63.058723" lon="12.465714">
        <ele>817.25</ele>
        <time>2011-07-06T15:57:02Z</time>
      </trkpt>
      <trkpt lat="63.058724" lon="12.465732">
        <ele>817.296</ele>
        <time>2011-07-06T15:57:04Z</time>
      </trkpt>
      <trkpt lat="63.058657" lon="12.465753">
        <ele>817.488</ele>
        <time>2011-07-06T15:57:09Z</time>
      </trkpt>
      <trkpt lat="63.058672" lon="12.465664">
        <ele>817.478</ele>
        <time>2011-07-06T15:57:15Z</time>
      </trkpt>
      <trkpt lat="63.05871" lon="12.465702">
        <ele>817.246</ele>
        <time>2011-07-06T15:57:18Z</time>
      </trkpt>
      <trkpt lat="63.058672" lon="12.465899">
        <ele>816.003</ele>
        <time>2011-07-06T15:57:27Z</time>
      </trkpt>
      <trkpt lat="63.058668" lon="12.46596">
        <ele>815.863</ele>
        <time>2011-07-06T15:57:29Z</time>
      </trkpt>
      <trkpt lat="63.058679" lon="12.466115">
        <ele>815.595</ele>
        <time>2011-07-06T15:57:35Z</time>
      </trkpt>
      <trkpt lat="63.058693" lon="12.466178">
        <ele>816.827</ele>
        <time>2011-07-06T15:57:38Z</time>
      </trkpt>
      <trkpt lat="63.058705" lon="12.46634">
        <ele>818.246</ele>
        <time>2011-07-06T15:57:44Z</time>
      </trkpt>
      <trkpt lat="63.058754" lon="12.466478">
        <ele>819.524</ele>
        <time>2011-07-06T15:57:50Z</time>
      </trkpt>
      <trkpt lat="63.058788" lon="12.466543">
        <ele>820.169</ele>
        <time>2011-07-06T15:57:53Z</time>
      </trkpt>
      <trkpt lat="63.058807" lon="12.46667">
        <ele>821.535</ele>
        <time>2011-07-06T15:57:59Z</time>
      </trkpt>
      <trkpt lat="63.058758" lon="12.466863">
        <ele>822.614</ele>
        <time>2011-07-06T15:58:05Z</time>
      </trkpt>
      <trkpt lat="63.058754" lon="12.466901">
        <ele>822.765</ele>
        <time>2011-07-06T15:58:06Z</time>
      </trkpt>
      <trkpt lat="63.058737" lon="12.467022">
        <ele>822.682</ele>
        <time>2011-07-06T15:58:09Z</time>
      </trkpt>
      <trkpt lat="63.058694" lon="12.467244">
        <ele>823.399</ele>
        <time>2011-07-06T15:58:15Z</time>
      </trkpt>
      <trkpt lat="63.058661" lon="12.467422">
        <ele>824.595</ele>
        <time>2011-07-06T15:58:21Z</time>
      </trkpt>
      <trkpt lat="63.058657" lon="12.467484">
        <ele>824.905</ele>
        <time>2011-07-06T15:58:23Z</time>
      </trkpt>
      <trkpt lat="63.058573" lon="12.467708">
        <ele>825.515</ele>
        <time>2011-07-06T15:58:31Z</time>
      </trkpt>
      <trkpt lat="63.058563" lon="12.467865">
        <ele>826.11</ele>
        <time>2011-07-06T15:58:35Z</time>
      </trkpt>
      <trkpt lat="63.058524" lon="12.468005">
        <ele>826.909</ele>
        <time>2011-07-06T15:58:39Z</time>
      </trkpt>
      <trkpt lat="63.058519" lon="12.468051">
        <ele>827.296</ele>
        <time>2011-07-06T15:58:41Z</time>
      </trkpt>
      <trkpt lat="63.058492" lon="12.468137">
        <ele>827.691</ele>
        <time>2011-07-06T15:58:45Z</time>
      </trkpt>
      <trkpt lat="63.058468" lon="12.468279">
        <ele>827.371</ele>
        <time>2011-07-06T15:58:50Z</time>
      </trkpt>
      <trkpt lat="63.05846" lon="12.468296">
        <ele>827.499</ele>
        <time>2011-07-06T15:58:51Z</time>
      </trkpt>
      <trkpt lat="63.058425" lon="12.468326">
        <ele>828.275</ele>
        <time>2011-07-06T15:58:54Z</time>
      </trkpt>
      <trkpt lat="63.058388" lon="12.468565">
        <ele>828.414</ele>
        <time>2011-07-06T15:58:59Z</time>
      </trkpt>
      <trkpt lat="63.058381" lon="12.46877">
        <ele>828.875</ele>
        <time>2011-07-06T15:59:03Z</time>
      </trkpt>
      <trkpt lat="63.058349" lon="12.468879">
        <ele>829.449</ele>
        <time>2011-07-06T15:59:06Z</time>
      </trkpt>
      <trkpt lat="63.058311" lon="12.468958">
        <ele>830.084</ele>
        <time>2011-07-06T15:59:10Z</time>
      </trkpt>
      <trkpt lat="63.058231" lon="12.469059">
        <ele>828.617</ele>
        <time>2011-07-06T15:59:17Z</time>
      </trkpt>
      <trkpt lat="63.058211" lon="12.469182">
        <ele>828.974</ele>
        <time>2011-07-06T15:59:23Z</time>
      </trkpt>
      <trkpt lat="63.058213" lon="12.469249">
        <ele>829.807</ele>
        <time>2011-07-06T15:59:26Z</time>
      </trkpt>
      <trkpt lat="63.058209" lon="12.469339">
        <ele>830.784</ele>
        <time>2011-07-06T15:59:29Z</time>
      </trkpt>
      <trkpt lat="63.058187" lon="12.469556">
        <ele>832.22</ele>
        <time>2011-07-06T15:59:35Z</time>
      </trkpt>
      <trkpt lat="63.058176" lon="12.469607">
        <ele>832.355</ele>
        <time>2011-07-06T15:59:36Z</time>
      </trkpt>
      <trkpt lat="63.058117" lon="12.469813">
        <ele>832.039</ele>
        <time>2011-07-06T15:59:41Z</time>
      </trkpt>
      <trkpt lat="63.058073" lon="12.470064">
        <ele>832.367</ele>
        <time>2011-07-06T15:59:47Z</time>
      </trkpt>
      <trkpt lat="63.058059" lon="12.470098">
        <ele>832.458</ele>
        <time>2011-07-06T15:59:48Z</time>
      </trkpt>
      <trkpt lat="63.057954" lon="12.470361">
        <ele>831.877</ele>
        <time>2011-07-06T15:59:56Z</time>
      </trkpt>
      <trkpt lat="63.057875" lon="12.47049">
        <ele>831.726</ele>
        <time>2011-07-06T16:00:00Z</time>
      </trkpt>
      <trkpt lat="63.057805" lon="12.470649">
        <ele>831.276</ele>
        <time>2011-07-06T16:00:04Z</time>
      </trkpt>
      <trkpt lat="63.057705" lon="12.470917">
        <ele>832.036</ele>
        <time>2011-07-06T16:00:10Z</time>
      </trkpt>
      <trkpt lat="63.05763" lon="12.471081">
        <ele>832.407</ele>
        <time>2011-07-06T16:00:15Z</time>
      </trkpt>
      <trkpt lat="63.057575" lon="12.471338">
        <ele>833.669</ele>
        <time>2011-07-06T16:00:22Z</time>
      </trkpt>
      <trkpt lat="63.057554" lon="12.471651">
        <ele>836.117</ele>
        <time>2011-07-06T16:00:30Z</time>
      </trkpt>
      <trkpt lat="63.057551" lon="12.471683">
        <ele>836.066</ele>
        <time>2011-07-06T16:00:31Z</time>
      </trkpt>
      <trkpt lat="63.057562" lon="12.471962">
        <ele>837.551</ele>
        <time>2011-07-06T16:00:40Z</time>
      </trkpt>
      <trkpt lat="63.057578" lon="12.472103">
        <ele>838.465</ele>
        <time>2011-07-06T16:00:45Z</time>
      </trkpt>
      <trkpt lat="63.057633" lon="12.472299">
        <ele>840.256</ele>
        <time>2011-07-06T16:00:53Z</time>
      </trkpt>
      <trkpt lat="63.057619" lon="12.472468">
        <ele>840.711</ele>
        <time>2011-07-06T16:00:58Z</time>
      </trkpt>
      <trkpt lat="63.057574" lon="12.472789">
        <ele>842.387</ele>
        <time>2011-07-06T16:01:05Z</time>
      </trkpt>
      <trkpt lat="63.057568" lon="12.473036">
        <ele>842.143</ele>
        <time>2011-07-06T16:01:13Z</time>
      </trkpt>
      <trkpt lat="63.057572" lon="12.473081">
        <ele>842.221</ele>
        <time>2011-07-06T16:01:15Z</time>
      </trkpt>
      <trkpt lat="63.05756" lon="12.473147">
        <ele>842.087</ele>
        <time>2011-07-06T16:01:18Z</time>
      </trkpt>
      <trkpt lat="63.057551" lon="12.473286">
        <ele>843.453</ele>
        <time>2011-07-06T16:01:23Z</time>
      </trkpt>
      <trkpt lat="63.057571" lon="12.473517">
        <ele>845.589</ele>
        <time>2011-07-06T16:01:29Z</time>
      </trkpt>
      <trkpt lat="63.057577" lon="12.473654">
        <ele>846.837</ele>
        <time>2011-07-06T16:01:34Z</time>
      </trkpt>
      <trkpt lat="63.057616" lon="12.473858">
        <ele>848.32</ele>
        <time>2011-07-06T16:01:42Z</time>
      </trkpt>
      <trkpt lat="63.057644" lon="12.474056">
        <ele>849.308</ele>
        <time>2011-07-06T16:01:49Z</time>
      </trkpt>
      <trkpt lat="63.057644" lon="12.474257">
        <ele>851.273</ele>
        <time>2011-07-06T16:01:56Z</time>
      </trkpt>
      <trkpt lat="63.057631" lon="12.474428">
        <ele>852.711</ele>
        <time>2011-07-06T16:02:02Z</time>
      </trkpt>
      <trkpt lat="63.057606" lon="12.474585">
        <ele>854.125</ele>
        <time>2011-07-06T16:02:08Z</time>
      </trkpt>
      <trkpt lat="63.057602" lon="12.474647">
        <ele>854.819</ele>
        <time>2011-07-06T16:02:10Z</time>
      </trkpt>
      <trkpt lat="63.057601" lon="12.474729">
        <ele>855.393</ele>
        <time>2011-07-06T16:02:13Z</time>
      </trkpt>
      <trkpt lat="63.05764" lon="12.474918">
        <ele>857.115</ele>
        <time>2011-07-06T16:02:21Z</time>
      </trkpt>
      <trkpt lat="63.057642" lon="12.474944">
        <ele>857.323</ele>
        <time>2011-07-06T16:02:22Z</time>
      </trkpt>
      <trkpt lat="63.057589" lon="12.475162">
        <ele>858.431</ele>
        <time>2011-07-06T16:02:28Z</time>
      </trkpt>
      <trkpt lat="63.057539" lon="12.475497">
        <ele>859.149</ele>
        <time>2011-07-06T16:02:35Z</time>
      </trkpt>
      <trkpt lat="63.057554" lon="12.475632">
        <ele>860.384</ele>
        <time>2011-07-06T16:02:39Z</time>
      </trkpt>
      <trkpt lat="63.057533" lon="12.475824">
        <ele>862.9</ele>
        <time>2011-07-06T16:02:47Z</time>
      </trkpt>
      <trkpt lat="63.05751" lon="12.475963">
        <ele>863.39</ele>
        <time>2011-07-06T16:02:53Z</time>
      </trkpt>
      <trkpt lat="63.057514" lon="12.476186">
        <ele>863.801</ele>
        <time>2011-07-06T16:03:00Z</time>
      </trkpt>
      <trkpt lat="63.057523" lon="12.476515">
        <ele>864.506</ele>
        <time>2011-07-06T16:03:06Z</time>
      </trkpt>
      <trkpt lat="63.057494" lon="12.4769">
        <ele>865.518</ele>
        <time>2011-07-06T16:03:13Z</time>
      </trkpt>
      <trkpt lat="63.05748" lon="12.477117">
        <ele>865.876</ele>
        <time>2011-07-06T16:03:17Z</time>
      </trkpt>
      <trkpt lat="63.057503" lon="12.477447">
        <ele>866.876</ele>
        <time>2011-07-06T16:03:24Z</time>
      </trkpt>
      <trkpt lat="63.057492" lon="12.477598">
        <ele>866.848</ele>
        <time>2011-07-06T16:03:28Z</time>
      </trkpt>
      <trkpt lat="63.057456" lon="12.477787">
        <ele>866.236</ele>
        <time>2011-07-06T16:03:34Z</time>
      </trkpt>
      <trkpt lat="63.057421" lon="12.477971">
        <ele>866.319</ele>
        <time>2011-07-06T16:03:39Z</time>
      </trkpt>
      <trkpt lat="63.057406" lon="12.478172">
        <ele>866.736</ele>
        <time>2011-07-06T16:03:46Z</time>
      </trkpt>
      <trkpt lat="63.057405" lon="12.478219">
        <ele>866.769</ele>
        <time>2011-07-06T16:03:48Z</time>
      </trkpt>
      <trkpt lat="63.057401" lon="12.478279">
        <ele>866.85</ele>
        <time>2011-07-06T16:03:50Z</time>
      </trkpt>
      <trkpt lat="63.057356" lon="12.478472">
        <ele>867.132</ele>
        <time>2011-07-06T16:03:56Z</time>
      </trkpt>
      <trkpt lat="63.057307" lon="12.478733">
        <ele>869.265</ele>
        <time>2011-07-06T16:04:03Z</time>
      </trkpt>
      <trkpt lat="63.057302" lon="12.478768">
        <ele>869.385</ele>
        <time>2011-07-06T16:04:04Z</time>
      </trkpt>
      <trkpt lat="63.057285" lon="12.47889">
        <ele>870.434</ele>
        <time>2011-07-06T16:04:08Z</time>
      </trkpt>
      <trkpt lat="63.057286" lon="12.479008">
        <ele>871.066</ele>
        <time>2011-07-06T16:04:12Z</time>
      </trkpt>
      <trkpt lat="63.057258" lon="12.479316">
        <ele>871.97</ele>
        <time>2011-07-06T16:04:19Z</time>
      </trkpt>
      <trkpt lat="63.057267" lon="12.479609">
        <ele>873.07</ele>
        <time>2011-07-06T16:04:25Z</time>
      </trkpt>
      <trkpt lat="63.057255" lon="12.479858">
        <ele>874.692</ele>
        <time>2011-07-06T16:04:31Z</time>
      </trkpt>
      <trkpt lat="63.05721" lon="12.480027">
        <ele>874.642</ele>
        <time>2011-07-06T16:04:37Z</time>
      </trkpt>
      <trkpt lat="63.057202" lon="12.480199">
        <ele>875.595</ele>
        <time>2011-07-06T16:04:43Z</time>
      </trkpt>
      <trkpt lat="63.057168" lon="12.480425">
        <ele>877.117</ele>
        <time>2011-07-06T16:04:51Z</time>
      </trkpt>
      <trkpt lat="63.057139" lon="12.480648">
        <ele>877.605</ele>
        <time>2011-07-06T16:04:58Z</time>
      </trkpt>
      <trkpt lat="63.057091" lon="12.480806">
        <ele>877.787</ele>
        <time>2011-07-06T16:05:02Z</time>
      </trkpt>
      <trkpt lat="63.057043" lon="12.480959">
        <ele>877.835</ele>
        <time>2011-07-06T16:05:06Z</time>
      </trkpt>
      <trkpt lat="63.057026" lon="12.481127">
        <ele>878.637</ele>
        <time>2011-07-06T16:05:10Z</time>
      </trkpt>
      <trkpt lat="63.056953" lon="12.481275">
        <ele>879.304</ele>
        <time>2011-07-06T16:05:15Z</time>
      </trkpt>
      <trkpt lat="63.056881" lon="12.481477">
        <ele>879.87</ele>
        <time>2011-07-06T16:05:20Z</time>
      </trkpt>
      <trkpt lat="63.056854" lon="12.481695">
        <ele>880.363</ele>
        <time>2011-07-06T16:05:26Z</time>
      </trkpt>
      <trkpt lat="63.056835" lon="12.481775">
        <ele>881.009</ele>
        <time>2011-07-06T16:05:30Z</time>
      </trkpt>
      <trkpt lat="63.056816" lon="12.481814">
        <ele>881.648</ele>
        <time>2011-07-06T16:05:32Z</time>
      </trkpt>
      <trkpt lat="63.056773" lon="12.481995">
        <ele>882.053</ele>
        <time>2011-07-06T16:05:39Z</time>
      </trkpt>
      <trkpt lat="63.05676" lon="12.482067">
        <ele>882.574</ele>
        <time>2011-07-06T16:05:42Z</time>
      </trkpt>
      <trkpt lat="63.056719" lon="12.482182">
        <ele>883</ele>
        <time>2011-07-06T16:05:48Z</time>
      </trkpt>
      <trkpt lat="63.056699" lon="12.482218">
        <ele>882.94</ele>
        <time>2011-07-06T16:05:50Z</time>
      </trkpt>
      <trkpt lat="63.05663" lon="12.482362">
        <ele>884.029</ele>
        <time>2011-07-06T16:05:57Z</time>
      </trkpt>
      <trkpt lat="63.056571" lon="12.482537">
        <ele>886.829</ele>
        <time>2011-07-06T16:06:06Z</time>
      </trkpt>
      <trkpt lat="63.056514" lon="12.482802">
        <ele>887.637</ele>
        <time>2011-07-06T16:06:14Z</time>
      </trkpt>
      <trkpt lat="63.056436" lon="12.483167">
        <ele>888.403</ele>
        <time>2011-07-06T16:06:21Z</time>
      </trkpt>
      <trkpt lat="63.056353" lon="12.483534">
        <ele>889.796</ele>
        <time>2011-07-06T16:06:29Z</time>
      </trkpt>
      <trkpt lat="63.056276" lon="12.483778">
        <ele>890.831</ele>
        <time>2011-07-06T16:06:35Z</time>
      </trkpt>
      <trkpt lat="63.056196" lon="12.484133">
        <ele>892.173</ele>
        <time>2011-07-06T16:06:43Z</time>
      </trkpt>
      <trkpt lat="63.05613" lon="12.484405">
        <ele>893.192</ele>
        <time>2011-07-06T16:06:50Z</time>
      </trkpt>
      <trkpt lat="63.056051" lon="12.484685">
        <ele>894.016</ele>
        <time>2011-07-06T16:06:57Z</time>
      </trkpt>
      <trkpt lat="63.055989" lon="12.484882">
        <ele>894.619</ele>
        <time>2011-07-06T16:07:02Z</time>
      </trkpt>
      <trkpt lat="63.055913" lon="12.485124">
        <ele>895.533</ele>
        <time>2011-07-06T16:07:08Z</time>
      </trkpt>
      <trkpt lat="63.055842" lon="12.485331">
        <ele>896.071</ele>
        <time>2011-07-06T16:07:13Z</time>
      </trkpt>
      <trkpt lat="63.055807" lon="12.485512">
        <ele>897.334</ele>
        <time>2011-07-06T16:07:19Z</time>
      </trkpt>
      <trkpt lat="63.055764" lon="12.48575">
        <ele>897.978</ele>
        <time>2011-07-06T16:07:27Z</time>
      </trkpt>
      <trkpt lat="63.05573" lon="12.485952">
        <ele>898.575</ele>
        <time>2011-07-06T16:07:34Z</time>
      </trkpt>
      <trkpt lat="63.055695" lon="12.486122">
        <ele>898.776</ele>
        <time>2011-07-06T16:07:40Z</time>
      </trkpt>
      <trkpt lat="63.05566" lon="12.486356">
        <ele>899.566</ele>
        <time>2011-07-06T16:07:45Z</time>
      </trkpt>
      <trkpt lat="63.055575" lon="12.486673">
        <ele>900.885</ele>
        <time>2011-07-06T16:07:52Z</time>
      </trkpt>
      <trkpt lat="63.055521" lon="12.486993">
        <ele>902.186</ele>
        <time>2011-07-06T16:07:59Z</time>
      </trkpt>
      <trkpt lat="63.055465" lon="12.487271">
        <ele>902.743</ele>
        <time>2011-07-06T16:08:05Z</time>
      </trkpt>
      <trkpt lat="63.055411" lon="12.487618">
        <ele>903.517</ele>
        <time>2011-07-06T16:08:12Z</time>
      </trkpt>
      <trkpt lat="63.05535" lon="12.488086">
        <ele>903.949</ele>
        <time>2011-07-06T16:08:21Z</time>
      </trkpt>
      <trkpt lat="63.055289" lon="12.488363">
        <ele>904.536</ele>
        <time>2011-07-06T16:08:27Z</time>
      </trkpt>
      <trkpt lat="63.055258" lon="12.488489">
        <ele>904.512</ele>
        <time>2011-07-06T16:08:32Z</time>
      </trkpt>
      <trkpt lat="63.055231" lon="12.488549">
        <ele>903.144</ele>
        <time>2011-07-06T16:08:38Z</time>
      </trkpt>
      <trkpt lat="63.055223" lon="12.488527">
        <ele>903.105</ele>
        <time>2011-07-06T16:08:40Z</time>
      </trkpt>
      <trkpt lat="63.055175" lon="12.488491">
        <ele>903.514</ele>
        <time>2011-07-06T16:08:47Z</time>
      </trkpt>
      <trkpt lat="63.055194" lon="12.488534">
        <ele>904.354</ele>
        <time>2011-07-06T16:08:52Z</time>
      </trkpt>
      <trkpt lat="63.055213" lon="12.488634">
        <ele>905.15</ele>
        <time>2011-07-06T16:08:57Z</time>
      </trkpt>
      <trkpt lat="63.055222" lon="12.488762">
        <ele>906.876</ele>
        <time>2011-07-06T16:09:05Z</time>
      </trkpt>
      <trkpt lat="63.055224" lon="12.48881">
        <ele>907.918</ele>
        <time>2011-07-06T16:09:08Z</time>
      </trkpt>
      <trkpt lat="63.055206" lon="12.489029">
        <ele>910.024</ele>
        <time>2011-07-06T16:09:17Z</time>
      </trkpt>
      <trkpt lat="63.055149" lon="12.489234">
        <ele>910.498</ele>
        <time>2011-07-06T16:09:25Z</time>
      </trkpt>
      <trkpt lat="63.055112" lon="12.489481">
        <ele>911.182</ele>
        <time>2011-07-06T16:09:34Z</time>
      </trkpt>
      <trkpt lat="63.05507" lon="12.489588">
        <ele>911.883</ele>
        <time>2011-07-06T16:09:39Z</time>
      </trkpt>
      <trkpt lat="63.055001" lon="12.48983">
        <ele>912.026</ele>
        <time>2011-07-06T16:09:46Z</time>
      </trkpt>
      <trkpt lat="63.054921" lon="12.490141">
        <ele>912.698</ele>
        <time>2011-07-06T16:09:53Z</time>
      </trkpt>
      <trkpt lat="63.054867" lon="12.490435">
        <ele>912.821</ele>
        <time>2011-07-06T16:09:59Z</time>
      </trkpt>
      <trkpt lat="63.054796" lon="12.490636">
        <ele>913.401</ele>
        <time>2011-07-06T16:10:05Z</time>
      </trkpt>
      <trkpt lat="63.054687" lon="12.490918">
        <ele>911.57</ele>
        <time>2011-07-06T16:10:13Z</time>
      </trkpt>
      <trkpt lat="63.05458" lon="12.491185">
        <ele>910.721</ele>
        <time>2011-07-06T16:10:20Z</time>
      </trkpt>
      <trkpt lat="63.054551" lon="12.491467">
        <ele>911.596</ele>
        <time>2011-07-06T16:10:25Z</time>
      </trkpt>
      <trkpt lat="63.054583" lon="12.491589">
        <ele>911.913</ele>
        <time>2011-07-06T16:10:28Z</time>
      </trkpt>
      <trkpt lat="63.054559" lon="12.491752">
        <ele>912.437</ele>
        <time>2011-07-06T16:10:32Z</time>
      </trkpt>
      <trkpt lat="63.05452" lon="12.491912">
        <ele>912.45</ele>
        <time>2011-07-06T16:10:38Z</time>
      </trkpt>
      <trkpt lat="63.054518" lon="12.491934">
        <ele>912.572</ele>
        <time>2011-07-06T16:10:39Z</time>
      </trkpt>
      <trkpt lat="63.054514" lon="12.49213">
        <ele>913.656</ele>
        <time>2011-07-06T16:10:48Z</time>
      </trkpt>
      <trkpt lat="63.054541" lon="12.492235">
        <ele>915.002</ele>
        <time>2011-07-06T16:10:54Z</time>
      </trkpt>
      <trkpt lat="63.054557" lon="12.492407">
        <ele>917.443</ele>
        <time>2011-07-06T16:11:03Z</time>
      </trkpt>
      <trkpt lat="63.054557" lon="12.492433">
        <ele>917.66</ele>
        <time>2011-07-06T16:11:04Z</time>
      </trkpt>
      <trkpt lat="63.054565" lon="12.492676">
        <ele>919.188</ele>
        <time>2011-07-06T16:11:12Z</time>
      </trkpt>
      <trkpt lat="63.054585" lon="12.492938">
        <ele>920.99</ele>
        <time>2011-07-06T16:11:21Z</time>
      </trkpt>
      <trkpt lat="63.054605" lon="12.49317">
        <ele>922.557</ele>
        <time>2011-07-06T16:11:30Z</time>
      </trkpt>
      <trkpt lat="63.054626" lon="12.493371">
        <ele>923.517</ele>
        <time>2011-07-06T16:11:38Z</time>
      </trkpt>
      <trkpt lat="63.054655" lon="12.49363">
        <ele>924.976</ele>
        <time>2011-07-06T16:11:47Z</time>
      </trkpt>
      <trkpt lat="63.054696" lon="12.493911">
        <ele>925.461</ele>
        <time>2011-07-06T16:11:54Z</time>
      </trkpt>
      <trkpt lat="63.054719" lon="12.494043">
        <ele>925.24</ele>
        <time>2011-07-06T16:11:58Z</time>
      </trkpt>
      <trkpt lat="63.054725" lon="12.494273">
        <ele>925.98</ele>
        <time>2011-07-06T16:12:04Z</time>
      </trkpt>
      <trkpt lat="63.054732" lon="12.494455">
        <ele>927.326</ele>
        <time>2011-07-06T16:12:09Z</time>
      </trkpt>
      <trkpt lat="63.054735" lon="12.494521">
        <ele>927.53</ele>
        <time>2011-07-06T16:12:11Z</time>
      </trkpt>
      <trkpt lat="63.054716" lon="12.49482">
        <ele>927.744</ele>
        <time>2011-07-06T16:12:20Z</time>
      </trkpt>
      <trkpt lat="63.054722" lon="12.495047">
        <ele>928.026</ele>
        <time>2011-07-06T16:12:27Z</time>
      </trkpt>
      <trkpt lat="63.054751" lon="12.495242">
        <ele>928.992</ele>
        <time>2011-07-06T16:12:34Z</time>
      </trkpt>
      <trkpt lat="63.05481" lon="12.495497">
        <ele>929.899</ele>
        <time>2011-07-06T16:12:40Z</time>
      </trkpt>
      <trkpt lat="63.0548" lon="12.495646">
        <ele>931.551</ele>
        <time>2011-07-06T16:12:44Z</time>
      </trkpt>
      <trkpt lat="63.054839" lon="12.495943">
        <ele>933.139</ele>
        <time>2011-07-06T16:12:50Z</time>
      </trkpt>
      <trkpt lat="63.054873" lon="12.496397">
        <ele>934.124</ele>
        <time>2011-07-06T16:12:59Z</time>
      </trkpt>
      <trkpt lat="63.054882" lon="12.496586">
        <ele>935.252</ele>
        <time>2011-07-06T16:13:05Z</time>
      </trkpt>
      <trkpt lat="63.054856" lon="12.496704">
        <ele>935.646</ele>
        <time>2011-07-06T16:13:10Z</time>
      </trkpt>
      <trkpt lat="63.054866" lon="12.496857">
        <ele>936.295</ele>
        <time>2011-07-06T16:13:17Z</time>
      </trkpt>
      <trkpt lat="63.054864" lon="12.496917">
        <ele>937.176</ele>
        <time>2011-07-06T16:13:20Z</time>
      </trkpt>
      <trkpt lat="63.054854" lon="12.497115">
        <ele>938.957</ele>
        <time>2011-07-06T16:13:28Z</time>
      </trkpt>
      <trkpt lat="63.054847" lon="12.497433">
        <ele>939.188</ele>
        <time>2011-07-06T16:13:34Z</time>
      </trkpt>
      <trkpt lat="63.054838" lon="12.497645">
        <ele>941.257</ele>
        <time>2011-07-06T16:13:40Z</time>
      </trkpt>
      <trkpt lat="63.054806" lon="12.497845">
        <ele>944.165</ele>
        <time>2011-07-06T16:13:46Z</time>
      </trkpt>
      <trkpt lat="63.05482" lon="12.498034">
        <ele>945.498</ele>
        <time>2011-07-06T16:13:53Z</time>
      </trkpt>
      <trkpt lat="63.054815" lon="12.498091">
        <ele>945.823</ele>
        <time>2011-07-06T16:13:55Z</time>
      </trkpt>
      <trkpt lat="63.05482" lon="12.498203">
        <ele>946.521</ele>
        <time>2011-07-06T16:13:59Z</time>
      </trkpt>
      <trkpt lat="63.054799" lon="12.498414">
        <ele>947.315</ele>
        <time>2011-07-06T16:14:07Z</time>
      </trkpt>
      <trkpt lat="63.054798" lon="12.498688">
        <ele>948.295</ele>
        <time>2011-07-06T16:14:16Z</time>
      </trkpt>
      <trkpt lat="63.054785" lon="12.49891">
        <ele>947.882</ele>
        <time>2011-07-06T16:14:21Z</time>
      </trkpt>
      <trkpt lat="63.054803" lon="12.499169">
        <ele>949.565</ele>
        <time>2011-07-06T16:14:27Z</time>
      </trkpt>
      <trkpt lat="63.054803" lon="12.499259">
        <ele>950.177</ele>
        <time>2011-07-06T16:14:29Z</time>
      </trkpt>
      <trkpt lat="63.054826" lon="12.499536">
        <ele>951.438</ele>
        <time>2011-07-06T16:14:35Z</time>
      </trkpt>
      <trkpt lat="63.054823" lon="12.499631">
        <ele>951.658</ele>
        <time>2011-07-06T16:14:37Z</time>
      </trkpt>
      <trkpt lat="63.054829" lon="12.499931">
        <ele>952.212</ele>
        <time>2011-07-06T16:14:43Z</time>
      </trkpt>
      <trkpt lat="63.054835" lon="12.500023">
        <ele>952.687</ele>
        <time>2011-07-06T16:14:45Z</time>
      </trkpt>
      <trkpt lat="63.054814" lon="12.500254">
        <ele>953.532</ele>
        <time>2011-07-06T16:14:50Z</time>
      </trkpt>
      <trkpt lat="63.054817" lon="12.500545">
        <ele>955.648</ele>
        <time>2011-07-06T16:14:58Z</time>
      </trkpt>
      <trkpt lat="63.054814" lon="12.500711">
        <ele>956.659</ele>
        <time>2011-07-06T16:15:04Z</time>
      </trkpt>
      <trkpt lat="63.054818" lon="12.500828">
        <ele>957.021</ele>
        <time>2011-07-06T16:15:08Z</time>
      </trkpt>
      <trkpt lat="63.054801" lon="12.500922">
        <ele>957.362</ele>
        <time>2011-07-06T16:15:12Z</time>
      </trkpt>
      <trkpt lat="63.05474" lon="12.501087">
        <ele>957.454</ele>
        <time>2011-07-06T16:15:20Z</time>
      </trkpt>
      <trkpt lat="63.054734" lon="12.501291">
        <ele>958.487</ele>
        <time>2011-07-06T16:15:28Z</time>
      </trkpt>
      <trkpt lat="63.054738" lon="12.501322">
        <ele>958.655</ele>
        <time>2011-07-06T16:15:29Z</time>
      </trkpt>
      <trkpt lat="63.054705" lon="12.501533">
        <ele>959.674</ele>
        <time>2011-07-06T16:15:35Z</time>
      </trkpt>
      <trkpt lat="63.054656" lon="12.501801">
        <ele>960.575</ele>
        <time>2011-07-06T16:15:41Z</time>
      </trkpt>
      <trkpt lat="63.05462" lon="12.502012">
        <ele>960.703</ele>
        <time>2011-07-06T16:15:46Z</time>
      </trkpt>
      <trkpt lat="63.054628" lon="12.502236">
        <ele>962.095</ele>
        <time>2011-07-06T16:15:52Z</time>
      </trkpt>
      <trkpt lat="63.054624" lon="12.502273">
        <ele>962.423</ele>
        <time>2011-07-06T16:15:53Z</time>
      </trkpt>
      <trkpt lat="63.054609" lon="12.502523">
        <ele>963.827</ele>
        <time>2011-07-06T16:16:00Z</time>
      </trkpt>
      <trkpt lat="63.054591" lon="12.50266">
        <ele>964.788</ele>
        <time>2011-07-06T16:16:05Z</time>
      </trkpt>
      <trkpt lat="63.054602" lon="12.502793">
        <ele>966.18</ele>
        <time>2011-07-06T16:16:11Z</time>
      </trkpt>
      <trkpt lat="63.0546" lon="12.50304">
        <ele>966.961</ele>
        <time>2011-07-06T16:16:19Z</time>
      </trkpt>
      <trkpt lat="63.054591" lon="12.503112">
        <ele>967.042</ele>
        <time>2011-07-06T16:16:22Z</time>
      </trkpt>
      <trkpt lat="63.054596" lon="12.503239">
        <ele>967.195</ele>
        <time>2011-07-06T16:16:27Z</time>
      </trkpt>
      <trkpt lat="63.054582" lon="12.503281">
        <ele>966.826</ele>
        <time>2011-07-06T16:16:31Z</time>
      </trkpt>
      <trkpt lat="63.054561" lon="12.503379">
        <ele>966.971</ele>
        <time>2011-07-06T16:16:36Z</time>
      </trkpt>
      <trkpt lat="63.054522" lon="12.503586">
        <ele>968.793</ele>
        <time>2011-07-06T16:16:45Z</time>
      </trkpt>
      <trkpt lat="63.054477" lon="12.503796">
        <ele>970.145</ele>
        <time>2011-07-06T16:16:53Z</time>
      </trkpt>
      <trkpt lat="63.054436" lon="12.504022">
        <ele>970.376</ele>
        <time>2011-07-06T16:17:01Z</time>
      </trkpt>
      <trkpt lat="63.054367" lon="12.504167">
        <ele>971.192</ele>
        <time>2011-07-06T16:17:09Z</time>
      </trkpt>
      <trkpt lat="63.054358" lon="12.504202">
        <ele>971.687</ele>
        <time>2011-07-06T16:17:11Z</time>
      </trkpt>
      <trkpt lat="63.054354" lon="12.504311">
        <ele>972.954</ele>
        <time>2011-07-06T16:17:17Z</time>
      </trkpt>
      <trkpt lat="63.054344" lon="12.504397">
        <ele>974.682</ele>
        <time>2011-07-06T16:17:23Z</time>
      </trkpt>
      <trkpt lat="63.054376" lon="12.504522">
        <ele>976.575</ele>
        <time>2011-07-06T16:17:32Z</time>
      </trkpt>
      <trkpt lat="63.054365" lon="12.504602">
        <ele>977.887</ele>
        <time>2011-07-06T16:17:37Z</time>
      </trkpt>
      <trkpt lat="63.054366" lon="12.504714">
        <ele>979.042</ele>
        <time>2011-07-06T16:17:43Z</time>
      </trkpt>
      <trkpt lat="63.054364" lon="12.504935">
        <ele>980.956</ele>
        <time>2011-07-06T16:17:52Z</time>
      </trkpt>
      <trkpt lat="63.054345" lon="12.505139">
        <ele>982.01</ele>
        <time>2011-07-06T16:18:00Z</time>
      </trkpt>
      <trkpt lat="63.054303" lon="12.505401">
        <ele>983.264</ele>
        <time>2011-07-06T16:18:10Z</time>
      </trkpt>
      <trkpt lat="63.054262" lon="12.505598">
        <ele>984.4</ele>
        <time>2011-07-06T16:18:16Z</time>
      </trkpt>
      <trkpt lat="63.054243" lon="12.505771">
        <ele>986.923</ele>
        <time>2011-07-06T16:18:21Z</time>
      </trkpt>
      <trkpt lat="63.054217" lon="12.505948">
        <ele>988.527</ele>
        <time>2011-07-06T16:18:26Z</time>
      </trkpt>
      <trkpt lat="63.05417" lon="12.506219">
        <ele>989.678</ele>
        <time>2011-07-06T16:18:33Z</time>
      </trkpt>
      <trkpt lat="63.054134" lon="12.506512">
        <ele>990.327</ele>
        <time>2011-07-06T16:18:39Z</time>
      </trkpt>
      <trkpt lat="63.054078" lon="12.506805">
        <ele>990.527</ele>
        <time>2011-07-06T16:18:45Z</time>
      </trkpt>
      <trkpt lat="63.054066" lon="12.506971">
        <ele>991.114</ele>
        <time>2011-07-06T16:18:50Z</time>
      </trkpt>
      <trkpt lat="63.054035" lon="12.507133">
        <ele>990.65</ele>
        <time>2011-07-06T16:18:57Z</time>
      </trkpt>
      <trkpt lat="63.053969" lon="12.507363">
        <ele>988.985</ele>
        <time>2011-07-06T16:19:06Z</time>
      </trkpt>
      <trkpt lat="63.053972" lon="12.507533">
        <ele>989.423</ele>
        <time>2011-07-06T16:19:12Z</time>
      </trkpt>
      <trkpt lat="63.053989" lon="12.50774">
        <ele>991.38</ele>
        <time>2011-07-06T16:19:21Z</time>
      </trkpt>
      <trkpt lat="63.053971" lon="12.507888">
        <ele>993.417</ele>
        <time>2011-07-06T16:19:29Z</time>
      </trkpt>
      <trkpt lat="63.053942" lon="12.508054">
        <ele>995.262</ele>
        <time>2011-07-06T16:19:37Z</time>
      </trkpt>
      <trkpt lat="63.053925" lon="12.508277">
        <ele>996.797</ele>
        <time>2011-07-06T16:19:47Z</time>
      </trkpt>
      <trkpt lat="63.053914" lon="12.508561">
        <ele>999.058</ele>
        <time>2011-07-06T16:19:57Z</time>
      </trkpt>
      <trkpt lat="63.053901" lon="12.508785">
        <ele>998.461</ele>
        <time>2011-07-06T16:20:05Z</time>
      </trkpt>
      <trkpt lat="63.053893" lon="12.50899">
        <ele>997.157</ele>
        <time>2011-07-06T16:20:12Z</time>
      </trkpt>
      <trkpt lat="63.053866" lon="12.50918">
        <ele>995.749</ele>
        <time>2011-07-06T16:20:19Z</time>
      </trkpt>
      <trkpt lat="63.053857" lon="12.509242">
        <ele>995.398</ele>
        <time>2011-07-06T16:20:21Z</time>
      </trkpt>
      <trkpt lat="63.053875" lon="12.509316">
        <ele>994.943</ele>
        <time>2011-07-06T16:20:25Z</time>
      </trkpt>
      <trkpt lat="63.053877" lon="12.509529">
        <ele>996.775</ele>
        <time>2011-07-06T16:20:33Z</time>
      </trkpt>
      <trkpt lat="63.053819" lon="12.509872">
        <ele>998.107</ele>
        <time>2011-07-06T16:20:41Z</time>
      </trkpt>
      <trkpt lat="63.0538" lon="12.510116">
        <ele>999.109</ele>
        <time>2011-07-06T16:20:47Z</time>
      </trkpt>
      <trkpt lat="63.053794" lon="12.510345">
        <ele>1000.79</ele>
        <time>2011-07-06T16:20:53Z</time>
      </trkpt>
      <trkpt lat="63.053793" lon="12.51058">
        <ele>1001.94</ele>
        <time>2011-07-06T16:21:00Z</time>
      </trkpt>
      <trkpt lat="63.05376" lon="12.510897">
        <ele>1002.66</ele>
        <time>2011-07-06T16:21:10Z</time>
      </trkpt>
      <trkpt lat="63.05373" lon="12.511123">
        <ele>1003.8</ele>
        <time>2011-07-06T16:21:18Z</time>
      </trkpt>
      <trkpt lat="63.053679" lon="12.511366">
        <ele>1004.62</ele>
        <time>2011-07-06T16:21:24Z</time>
      </trkpt>
      <trkpt lat="63.053646" lon="12.511503">
        <ele>1005.03</ele>
        <time>2011-07-06T16:21:27Z</time>
      </trkpt>
      <trkpt lat="63.05358" lon="12.511836">
        <ele>1006.24</ele>
        <time>2011-07-06T16:21:35Z</time>
      </trkpt>
      <trkpt lat="63.053557" lon="12.512038">
        <ele>1007.39</ele>
        <time>2011-07-06T16:21:41Z</time>
      </trkpt>
      <trkpt lat="63.053544" lon="12.512268">
        <ele>1009.29</ele>
        <time>2011-07-06T16:21:50Z</time>
      </trkpt>
      <trkpt lat="63.053541" lon="12.512285">
        <ele>1009.38</ele>
        <time>2011-07-06T16:21:51Z</time>
      </trkpt>
      <trkpt lat="63.053544" lon="12.512509">
        <ele>1010.35</ele>
        <time>2011-07-06T16:22:00Z</time>
      </trkpt>
      <trkpt lat="63.053569" lon="12.512724">
        <ele>1012.24</ele>
        <time>2011-07-06T16:22:09Z</time>
      </trkpt>
      <trkpt lat="63.053606" lon="12.512983">
        <ele>1014.19</ele>
        <time>2011-07-06T16:22:16Z</time>
      </trkpt>
      <trkpt lat="63.053608" lon="12.513204">
        <ele>1016.24</ele>
        <time>2011-07-06T16:22:22Z</time>
      </trkpt>
      <trkpt lat="63.053604" lon="12.513298">
        <ele>1016.96</ele>
        <time>2011-07-06T16:22:24Z</time>
      </trkpt>
      <trkpt lat="63.053584" lon="12.513535">
        <ele>1017.98</ele>
        <time>2011-07-06T16:22:31Z</time>
      </trkpt>
      <trkpt lat="63.053572" lon="12.513757">
        <ele>1018.77</ele>
        <time>2011-07-06T16:22:39Z</time>
      </trkpt>
      <trkpt lat="63.053568" lon="12.51402">
        <ele>1020.17</ele>
        <time>2011-07-06T16:22:48Z</time>
      </trkpt>
      <trkpt lat="63.053534" lon="12.514113">
        <ele>1020.73</ele>
        <time>2011-07-06T16:22:53Z</time>
      </trkpt>
      <trkpt lat="63.053523" lon="12.514249">
        <ele>1021.46</ele>
        <time>2011-07-06T16:22:58Z</time>
      </trkpt>
      <trkpt lat="63.053504" lon="12.514501">
        <ele>1022.41</ele>
        <time>2011-07-06T16:23:03Z</time>
      </trkpt>
      <trkpt lat="63.053455" lon="12.514632">
        <ele>1022.97</ele>
        <time>2011-07-06T16:23:07Z</time>
      </trkpt>
      <trkpt lat="63.053398" lon="12.514887">
        <ele>1022.57</ele>
        <time>2011-07-06T16:23:13Z</time>
      </trkpt>
      <trkpt lat="63.053343" lon="12.515166">
        <ele>1022.75</ele>
        <time>2011-07-06T16:23:20Z</time>
      </trkpt>
      <trkpt lat="63.053309" lon="12.515228">
        <ele>1022.64</ele>
        <time>2011-07-06T16:23:23Z</time>
      </trkpt>
      <trkpt lat="63.053306" lon="12.515384">
        <ele>1022.26</ele>
        <time>2011-07-06T16:23:29Z</time>
      </trkpt>
      <trkpt lat="63.053285" lon="12.5156">
        <ele>1022.93</ele>
        <time>2011-07-06T16:23:37Z</time>
      </trkpt>
      <trkpt lat="63.053282" lon="12.51577">
        <ele>1023.8</ele>
        <time>2011-07-06T16:23:43Z</time>
      </trkpt>
      <trkpt lat="63.053262" lon="12.516006">
        <ele>1024.69</ele>
        <time>2011-07-06T16:23:51Z</time>
      </trkpt>
      <trkpt lat="63.053264" lon="12.516033">
        <ele>1024.81</ele>
        <time>2011-07-06T16:23:52Z</time>
      </trkpt>
      <trkpt lat="63.053257" lon="12.51612">
        <ele>1025.31</ele>
        <time>2011-07-06T16:23:56Z</time>
      </trkpt>
      <trkpt lat="63.053266" lon="12.516313">
        <ele>1026.91</ele>
        <time>2011-07-06T16:24:04Z</time>
      </trkpt>
      <trkpt lat="63.053249" lon="12.516548">
        <ele>1029.27</ele>
        <time>2011-07-06T16:24:15Z</time>
      </trkpt>
      <trkpt lat="63.053229" lon="12.516675">
        <ele>1030.78</ele>
        <time>2011-07-06T16:24:21Z</time>
      </trkpt>
      <trkpt lat="63.053242" lon="12.516796">
        <ele>1031.74</ele>
        <time>2011-07-06T16:24:26Z</time>
      </trkpt>
      <trkpt lat="63.053251" lon="12.51684">
        <ele>1032.12</ele>
        <time>2011-07-06T16:24:28Z</time>
      </trkpt>
      <trkpt lat="63.053229" lon="12.516931">
        <ele>1032.78</ele>
        <time>2011-07-06T16:24:32Z</time>
      </trkpt>
      <trkpt lat="63.053159" lon="12.517089">
        <ele>1033.68</ele>
        <time>2011-07-06T16:24:40Z</time>
      </trkpt>
      <trkpt lat="63.053162" lon="12.517249">
        <ele>1033.96</ele>
        <time>2011-07-06T16:24:48Z</time>
      </trkpt>
      <trkpt lat="63.053141" lon="12.517346">
        <ele>1034.22</ele>
        <time>2011-07-06T16:25:09Z</time>
      </trkpt>
      <trkpt lat="63.053073" lon="12.51749">
        <ele>1033.77</ele>
        <time>2011-07-06T16:25:35Z</time>
      </trkpt>
      <trkpt lat="63.053026" lon="12.517597">
        <ele>1033.68</ele>
        <time>2011-07-06T16:25:41Z</time>
      </trkpt>
      <trkpt lat="63.052964" lon="12.517771">
        <ele>1034.79</ele>
        <time>2011-07-06T16:25:49Z</time>
      </trkpt>
      <trkpt lat="63.052902" lon="12.517945">
        <ele>1035.09</ele>
        <time>2011-07-06T16:25:56Z</time>
      </trkpt>
      <trkpt lat="63.052846" lon="12.518088">
        <ele>1035.74</ele>
        <time>2011-07-06T16:26:02Z</time>
      </trkpt>
      <trkpt lat="63.052784" lon="12.518231">
        <ele>1035.47</ele>
        <time>2011-07-06T16:26:09Z</time>
      </trkpt>
      <trkpt lat="63.052696" lon="12.518427">
        <ele>1035.25</ele>
        <time>2011-07-06T16:26:18Z</time>
      </trkpt>
      <trkpt lat="63.052607" lon="12.518674">
        <ele>1035.93</ele>
        <time>2011-07-06T16:26:28Z</time>
      </trkpt>
      <trkpt lat="63.052524" lon="12.51886">
        <ele>1035.94</ele>
        <time>2011-07-06T16:26:36Z</time>
      </trkpt>
      <trkpt lat="63.052473" lon="12.519034">
        <ele>1035.78</ele>
        <time>2011-07-06T16:26:43Z</time>
      </trkpt>
      <trkpt lat="63.052397" lon="12.519171">
        <ele>1036.98</ele>
        <time>2011-07-06T16:26:51Z</time>
      </trkpt>
      <trkpt lat="63.052332" lon="12.519357">
        <ele>1037.08</ele>
        <time>2011-07-06T16:26:59Z</time>
      </trkpt>
      <trkpt lat="63.052309" lon="12.519461">
        <ele>1037.77</ele>
        <time>2011-07-06T16:27:03Z</time>
      </trkpt>
      <trkpt lat="63.052275" lon="12.519519">
        <ele>1037.94</ele>
        <time>2011-07-06T16:27:07Z</time>
      </trkpt>
      <trkpt lat="63.052202" lon="12.519664">
        <ele>1038.04</ele>
        <time>2011-07-06T16:27:15Z</time>
      </trkpt>
      <trkpt lat="63.052163" lon="12.519842">
        <ele>1038.96</ele>
        <time>2011-07-06T16:27:23Z</time>
      </trkpt>
      <trkpt lat="63.052042" lon="12.519992">
        <ele>1038.63</ele>
        <time>2011-07-06T16:27:34Z</time>
      </trkpt>
      <trkpt lat="63.051952" lon="12.520065">
        <ele>1038.73</ele>
        <time>2011-07-06T16:27:41Z</time>
      </trkpt>
      <trkpt lat="63.051865" lon="12.520224">
        <ele>1038.39</ele>
        <time>2011-07-06T16:27:46Z</time>
      </trkpt>
      <trkpt lat="63.051742" lon="12.520427">
        <ele>1038.45</ele>
        <time>2011-07-06T16:27:53Z</time>
      </trkpt>
      <trkpt lat="63.051662" lon="12.520544">
        <ele>1038.73</ele>
        <time>2011-07-06T16:27:58Z</time>
      </trkpt>
      <trkpt lat="63.051567" lon="12.520654">
        <ele>1039.09</ele>
        <time>2011-07-06T16:28:04Z</time>
      </trkpt>
      <trkpt lat="63.051474" lon="12.520846">
        <ele>1040.07</ele>
        <time>2011-07-06T16:28:11Z</time>
      </trkpt>
      <trkpt lat="63.051452" lon="12.520918">
        <ele>1040.41</ele>
        <time>2011-07-06T16:28:17Z</time>
      </trkpt>
      <trkpt lat="63.051474" lon="12.520933">
        <ele>1040.31</ele>
        <time>2011-07-06T16:28:39Z</time>
      </trkpt>
      <trkpt lat="63.051418" lon="12.521143">
        <ele>1040.83</ele>
        <time>2011-07-06T16:28:47Z</time>
      </trkpt>
      <trkpt lat="63.051393" lon="12.521352">
        <ele>1041.7</ele>
        <time>2011-07-06T16:28:54Z</time>
      </trkpt>
      <trkpt lat="63.051362" lon="12.521579">
        <ele>1042.62</ele>
        <time>2011-07-06T16:29:03Z</time>
      </trkpt>
      <trkpt lat="63.051309" lon="12.521768">
        <ele>1043.39</ele>
        <time>2011-07-06T16:29:11Z</time>
      </trkpt>
      <trkpt lat="63.051251" lon="12.521876">
        <ele>1044.83</ele>
        <time>2011-07-06T16:29:17Z</time>
      </trkpt>
      <trkpt lat="63.051187" lon="12.522058">
        <ele>1045.83</ele>
        <time>2011-07-06T16:29:26Z</time>
      </trkpt>
      <trkpt lat="63.051121" lon="12.522199">
        <ele>1046.46</ele>
        <time>2011-07-06T16:29:32Z</time>
      </trkpt>
      <trkpt lat="63.051109" lon="12.522236">
        <ele>1046.56</ele>
        <time>2011-07-06T16:29:33Z</time>
      </trkpt>
      <trkpt lat="63.050967" lon="12.522429">
        <ele>1047.63</ele>
        <time>2011-07-06T16:29:41Z</time>
      </trkpt>
      <trkpt lat="63.050898" lon="12.522604">
        <ele>1049.31</ele>
        <time>2011-07-06T16:29:47Z</time>
      </trkpt>
      <trkpt lat="63.050892" lon="12.522683">
        <ele>1049.53</ele>
        <time>2011-07-06T16:29:49Z</time>
      </trkpt>
      <trkpt lat="63.05078" lon="12.522895">
        <ele>1050.48</ele>
        <time>2011-07-06T16:29:57Z</time>
      </trkpt>
      <trkpt lat="63.050706" lon="12.523062">
        <ele>1051.37</ele>
        <time>2011-07-06T16:30:02Z</time>
      </trkpt>
      <trkpt lat="63.050678" lon="12.523263">
        <ele>1052.35</ele>
        <time>2011-07-06T16:30:07Z</time>
      </trkpt>
      <trkpt lat="63.050585" lon="12.523461">
        <ele>1053.4</ele>
        <time>2011-07-06T16:30:13Z</time>
      </trkpt>
      <trkpt lat="63.050478" lon="12.523648">
        <ele>1054.81</ele>
        <time>2011-07-06T16:30:20Z</time>
      </trkpt>
      <trkpt lat="63.050447" lon="12.523793">
        <ele>1056.88</ele>
        <time>2011-07-06T16:30:26Z</time>
      </trkpt>
      <trkpt lat="63.050422" lon="12.524056">
        <ele>1057.83</ele>
        <time>2011-07-06T16:30:36Z</time>
      </trkpt>
      <trkpt lat="63.05039" lon="12.52432">
        <ele>1058.99</ele>
        <time>2011-07-06T16:30:46Z</time>
      </trkpt>
      <trkpt lat="63.050355" lon="12.524523">
        <ele>1059.26</ele>
        <time>2011-07-06T16:30:54Z</time>
      </trkpt>
      <trkpt lat="63.050294" lon="12.524689">
        <ele>1059.94</ele>
        <time>2011-07-06T16:31:02Z</time>
      </trkpt>
      <trkpt lat="63.050258" lon="12.524917">
        <ele>1060.31</ele>
        <time>2011-07-06T16:31:12Z</time>
      </trkpt>
      <trkpt lat="63.050244" lon="12.52508">
        <ele>1059.22</ele>
        <time>2011-07-06T16:31:19Z</time>
      </trkpt>
      <trkpt lat="63.050196" lon="12.525214">
        <ele>1058.79</ele>
        <time>2011-07-06T16:31:26Z</time>
      </trkpt>
      <trkpt lat="63.050141" lon="12.525293">
        <ele>1058.59</ele>
        <time>2011-07-06T16:31:32Z</time>
      </trkpt>
      <trkpt lat="63.050103" lon="12.525473">
        <ele>1058.4</ele>
        <time>2011-07-06T16:31:40Z</time>
      </trkpt>
      <trkpt lat="63.050077" lon="12.525672">
        <ele>1058.88</ele>
        <time>2011-07-06T16:31:48Z</time>
      </trkpt>
      <trkpt lat="63.050044" lon="12.525806">
        <ele>1060.01</ele>
        <time>2011-07-06T16:31:55Z</time>
      </trkpt>
      <trkpt lat="63.05002" lon="12.525972">
        <ele>1060.37</ele>
        <time>2011-07-06T16:32:02Z</time>
      </trkpt>
      <trkpt lat="63.050011" lon="12.526134">
        <ele>1060.01</ele>
        <time>2011-07-06T16:32:09Z</time>
      </trkpt>
      <trkpt lat="63.049958" lon="12.526257">
        <ele>1060.5</ele>
        <time>2011-07-06T16:32:16Z</time>
      </trkpt>
      <trkpt lat="63.049886" lon="12.526419">
        <ele>1059.64</ele>
        <time>2011-07-06T16:32:24Z</time>
      </trkpt>
      <trkpt lat="63.04984" lon="12.52661">
        <ele>1060.48</ele>
        <time>2011-07-06T16:32:32Z</time>
      </trkpt>
      <trkpt lat="63.049772" lon="12.526761">
        <ele>1061.36</ele>
        <time>2011-07-06T16:32:41Z</time>
      </trkpt>
      <trkpt lat="63.049765" lon="12.526775">
        <ele>1061.45</ele>
        <time>2011-07-06T16:32:42Z</time>
      </trkpt>
      <trkpt lat="63.049738" lon="12.526937">
        <ele>1061.5</ele>
        <time>2011-07-06T16:32:50Z</time>
      </trkpt>
      <trkpt lat="63.04969" lon="12.527091">
        <ele>1060.76</ele>
        <time>2011-07-06T16:32:59Z</time>
      </trkpt>
      <trkpt lat="63.049643" lon="12.527256">
        <ele>1058.67</ele>
        <time>2011-07-06T16:33:08Z</time>
      </trkpt>
      <trkpt lat="63.049594" lon="12.527404">
        <ele>1058.1</ele>
        <time>2011-07-06T16:33:16Z</time>
      </trkpt>
      <trkpt lat="63.049572" lon="12.527462">
        <ele>1057.65</ele>
        <time>2011-07-06T16:33:19Z</time>
      </trkpt>
      <trkpt lat="63.049537" lon="12.527499">
        <ele>1057.48</ele>
        <time>2011-07-06T16:33:23Z</time>
      </trkpt>
      <trkpt lat="63.049489" lon="12.527603">
        <ele>1057.77</ele>
        <time>2011-07-06T16:33:29Z</time>
      </trkpt>
      <trkpt lat="63.049428" lon="12.52781">
        <ele>1058.68</ele>
        <time>2011-07-06T16:33:38Z</time>
      </trkpt>
      <trkpt lat="63.049378" lon="12.527988">
        <ele>1060.09</ele>
        <time>2011-07-06T16:33:47Z</time>
      </trkpt>
      <trkpt lat="63.049323" lon="12.528148">
        <ele>1060.47</ele>
        <time>2011-07-06T16:33:55Z</time>
      </trkpt>
      <trkpt lat="63.049281" lon="12.528312">
        <ele>1060.03</ele>
        <time>2011-07-06T16:34:03Z</time>
      </trkpt>
      <trkpt lat="63.049233" lon="12.528496">
        <ele>1059.2</ele>
        <time>2011-07-06T16:34:13Z</time>
      </trkpt>
      <trkpt lat="63.049198" lon="12.5287">
        <ele>1058.65</ele>
        <time>2011-07-06T16:34:21Z</time>
      </trkpt>
      <trkpt lat="63.049172" lon="12.528863">
        <ele>1058.23</ele>
        <time>2011-07-06T16:34:28Z</time>
      </trkpt>
      <trkpt lat="63.049154" lon="12.529018">
        <ele>1058.17</ele>
        <time>2011-07-06T16:34:34Z</time>
      </trkpt>
      <trkpt lat="63.049144" lon="12.529038">
        <ele>1058.24</ele>
        <time>2011-07-06T16:34:35Z</time>
      </trkpt>
      <trkpt lat="63.049102" lon="12.529187">
        <ele>1059.22</ele>
        <time>2011-07-06T16:34:42Z</time>
      </trkpt>
      <trkpt lat="63.049071" lon="12.529388">
        <ele>1059.85</ele>
        <time>2011-07-06T16:34:51Z</time>
      </trkpt>
      <trkpt lat="63.049062" lon="12.529633">
        <ele>1060.89</ele>
        <time>2011-07-06T16:35:00Z</time>
      </trkpt>
      <trkpt lat="63.049033" lon="12.529812">
        <ele>1060.95</ele>
        <time>2011-07-06T16:35:08Z</time>
      </trkpt>
      <trkpt lat="63.049036" lon="12.530002">
        <ele>1060.51</ele>
        <time>2011-07-06T16:35:15Z</time>
      </trkpt>
      <trkpt lat="63.049025" lon="12.530181">
        <ele>1061.41</ele>
        <time>2011-07-06T16:35:23Z</time>
      </trkpt>
      <trkpt lat="63.04902" lon="12.530366">
        <ele>1061.57</ele>
        <time>2011-07-06T16:35:31Z</time>
      </trkpt>
      <trkpt lat="63.049008" lon="12.530465">
        <ele>1061.42</ele>
        <time>2011-07-06T16:35:35Z</time>
      </trkpt>
      <trkpt lat="63.049009" lon="12.530635">
        <ele>1061.4</ele>
        <time>2011-07-06T16:35:42Z</time>
      </trkpt>
      <trkpt lat="63.048991" lon="12.530816">
        <ele>1061.68</ele>
        <time>2011-07-06T16:35:49Z</time>
      </trkpt>
      <trkpt lat="63.04897" lon="12.531031">
        <ele>1062.06</ele>
        <time>2011-07-06T16:35:54Z</time>
      </trkpt>
      <trkpt lat="63.048966" lon="12.531225">
        <ele>1062.2</ele>
        <time>2011-07-06T16:35:59Z</time>
      </trkpt>
      <trkpt lat="63.048886" lon="12.531479">
        <ele>1061.91</ele>
        <time>2011-07-06T16:36:06Z</time>
      </trkpt>
      <trkpt lat="63.04888" lon="12.53156">
        <ele>1062.11</ele>
        <time>2011-07-06T16:36:08Z</time>
      </trkpt>
      <trkpt lat="63.048855" lon="12.531842">
        <ele>1062.32</ele>
        <time>2011-07-06T16:36:18Z</time>
      </trkpt>
      <trkpt lat="63.048856" lon="12.532051">
        <ele>1062.26</ele>
        <time>2011-07-06T16:36:26Z</time>
      </trkpt>
      <trkpt lat="63.048824" lon="12.532262">
        <ele>1062.02</ele>
        <time>2011-07-06T16:36:34Z</time>
      </trkpt>
      <trkpt lat="63.048792" lon="12.532429">
        <ele>1062.36</ele>
        <time>2011-07-06T16:36:41Z</time>
      </trkpt>
      <trkpt lat="63.048774" lon="12.532492">
        <ele>1062.04</ele>
        <time>2011-07-06T16:36:44Z</time>
      </trkpt>
      <trkpt lat="63.048771" lon="12.532693">
        <ele>1062.41</ele>
        <time>2011-07-06T16:36:49Z</time>
      </trkpt>
      <trkpt lat="63.048754" lon="12.532947">
        <ele>1063.32</ele>
        <time>2011-07-06T16:36:55Z</time>
      </trkpt>
      <trkpt lat="63.048735" lon="12.533231">
        <ele>1063.22</ele>
        <time>2011-07-06T16:37:01Z</time>
      </trkpt>
      <trkpt lat="63.048711" lon="12.533452">
        <ele>1062.49</ele>
        <time>2011-07-06T16:37:06Z</time>
      </trkpt>
      <trkpt lat="63.048658" lon="12.533699">
        <ele>1061.23</ele>
        <time>2011-07-06T16:37:12Z</time>
      </trkpt>
      <trkpt lat="63.048621" lon="12.533909">
        <ele>1060.29</ele>
        <time>2011-07-06T16:37:20Z</time>
      </trkpt>
      <trkpt lat="63.048595" lon="12.534199">
        <ele>1059.98</ele>
        <time>2011-07-06T16:37:30Z</time>
      </trkpt>
      <trkpt lat="63.048594" lon="12.534473">
        <ele>1060.25</ele>
        <time>2011-07-06T16:37:40Z</time>
      </trkpt>
      <trkpt lat="63.048607" lon="12.534679">
        <ele>1060.44</ele>
        <time>2011-07-06T16:37:47Z</time>
      </trkpt>
      <trkpt lat="63.048587" lon="12.5348">
        <ele>1060.63</ele>
        <time>2011-07-06T16:37:52Z</time>
      </trkpt>
      <trkpt lat="63.048576" lon="12.535007">
        <ele>1060.34</ele>
        <time>2011-07-06T16:38:00Z</time>
      </trkpt>
      <trkpt lat="63.048537" lon="12.535201">
        <ele>1060.06</ele>
        <time>2011-07-06T16:38:08Z</time>
      </trkpt>
      <trkpt lat="63.048521" lon="12.53538">
        <ele>1060.03</ele>
        <time>2011-07-06T16:38:15Z</time>
      </trkpt>
      <trkpt lat="63.048513" lon="12.535461">
        <ele>1060.02</ele>
        <time>2011-07-06T16:38:18Z</time>
      </trkpt>
      <trkpt lat="63.0485" lon="12.535619">
        <ele>1060.4</ele>
        <time>2011-07-06T16:38:25Z</time>
      </trkpt>
      <trkpt lat="63.048475" lon="12.535781">
        <ele>1060.52</ele>
        <time>2011-07-06T16:38:32Z</time>
      </trkpt>
      <trkpt lat="63.048453" lon="12.535957">
        <ele>1060.91</ele>
        <time>2011-07-06T16:38:39Z</time>
      </trkpt>
      <trkpt lat="63.048452" lon="12.536009">
        <ele>1061.02</ele>
        <time>2011-07-06T16:38:41Z</time>
      </trkpt>
      <trkpt lat="63.048457" lon="12.53621">
        <ele>1061.55</ele>
        <time>2011-07-06T16:38:50Z</time>
      </trkpt>
      <trkpt lat="63.048443" lon="12.536427">
        <ele>1061.61</ele>
        <time>2011-07-06T16:38:59Z</time>
      </trkpt>
      <trkpt lat="63.048437" lon="12.536445">
        <ele>1061.61</ele>
        <time>2011-07-06T16:39:00Z</time>
      </trkpt>
      <trkpt lat="63.048419" lon="12.536589">
        <ele>1061.04</ele>
        <time>2011-07-06T16:39:06Z</time>
      </trkpt>
      <trkpt lat="63.048416" lon="12.536809">
        <ele>1060.41</ele>
        <time>2011-07-06T16:39:14Z</time>
      </trkpt>
      <trkpt lat="63.048398" lon="12.537027">
        <ele>1061.12</ele>
        <time>2011-07-06T16:39:22Z</time>
      </trkpt>
      <trkpt lat="63.048402" lon="12.537229">
        <ele>1061.4</ele>
        <time>2011-07-06T16:39:30Z</time>
      </trkpt>
      <trkpt lat="63.048392" lon="12.537413">
        <ele>1061.8</ele>
        <time>2011-07-06T16:39:37Z</time>
      </trkpt>
      <trkpt lat="63.048389" lon="12.537579">
        <ele>1061.65</ele>
        <time>2011-07-06T16:39:44Z</time>
      </trkpt>
      <trkpt lat="63.048391" lon="12.537776">
        <ele>1060.84</ele>
        <time>2011-07-06T16:39:52Z</time>
      </trkpt>
      <trkpt lat="63.048395" lon="12.537993">
        <ele>1061.05</ele>
        <time>2011-07-06T16:40:00Z</time>
      </trkpt>
      <trkpt lat="63.048384" lon="12.538215">
        <ele>1061.12</ele>
        <time>2011-07-06T16:40:08Z</time>
      </trkpt>
      <trkpt lat="63.048405" lon="12.53839">
        <ele>1061.36</ele>
        <time>2011-07-06T16:40:16Z</time>
      </trkpt>
      <trkpt lat="63.048437" lon="12.538581">
        <ele>1061.54</ele>
        <time>2011-07-06T16:40:24Z</time>
      </trkpt>
      <trkpt lat="63.048474" lon="12.538722">
        <ele>1061.45</ele>
        <time>2011-07-06T16:40:31Z</time>
      </trkpt>
      <trkpt lat="63.048502" lon="12.538883">
        <ele>1061.02</ele>
        <time>2011-07-06T16:40:39Z</time>
      </trkpt>
      <trkpt lat="63.048514" lon="12.53903">
        <ele>1061.48</ele>
        <time>2011-07-06T16:40:45Z</time>
      </trkpt>
      <trkpt lat="63.048533" lon="12.539125">
        <ele>1061.25</ele>
        <time>2011-07-06T16:40:49Z</time>
      </trkpt>
      <trkpt lat="63.048539" lon="12.539258">
        <ele>1061.15</ele>
        <time>2011-07-06T16:40:54Z</time>
      </trkpt>
      <trkpt lat="63.048549" lon="12.539403">
        <ele>1061.11</ele>
        <time>2011-07-06T16:41:00Z</time>
      </trkpt>
      <trkpt lat="63.048559" lon="12.539453">
        <ele>1061.28</ele>
        <time>2011-07-06T16:41:02Z</time>
      </trkpt>
      <trkpt lat="63.048581" lon="12.53958">
        <ele>1061.04</ele>
        <time>2011-07-06T16:41:08Z</time>
      </trkpt>
      <trkpt lat="63.048593" lon="12.539732">
        <ele>1060.67</ele>
        <time>2011-07-06T16:41:14Z</time>
      </trkpt>
      <trkpt lat="63.048624" lon="12.539849">
        <ele>1060.81</ele>
        <time>2011-07-06T16:41:20Z</time>
      </trkpt>
      <trkpt lat="63.048641" lon="12.539894">
        <ele>1061.13</ele>
        <time>2011-07-06T16:41:23Z</time>
      </trkpt>
      <trkpt lat="63.048681" lon="12.540072">
        <ele>1062.28</ele>
        <time>2011-07-06T16:41:31Z</time>
      </trkpt>
      <trkpt lat="63.048724" lon="12.540274">
        <ele>1061.63</ele>
        <time>2011-07-06T16:41:40Z</time>
      </trkpt>
      <trkpt lat="63.04873" lon="12.540298">
        <ele>1061.81</ele>
        <time>2011-07-06T16:41:42Z</time>
      </trkpt>
      <trkpt lat="63.048737" lon="12.540416">
        <ele>1061.98</ele>
        <time>2011-07-06T16:41:48Z</time>
      </trkpt>
      <trkpt lat="63.048751" lon="12.540469">
        <ele>1061.78</ele>
        <time>2011-07-06T16:41:52Z</time>
      </trkpt>
      <trkpt lat="63.048751" lon="12.540533">
        <ele>1061.9</ele>
        <time>2011-07-06T16:41:55Z</time>
      </trkpt>
      <trkpt lat="63.048789" lon="12.540637">
        <ele>1060.93</ele>
        <time>2011-07-06T16:42:01Z</time>
      </trkpt>
      <trkpt lat="63.048818" lon="12.54072">
        <ele>1057.79</ele>
        <time>2011-07-06T16:42:05Z</time>
      </trkpt>
      <trkpt lat="63.048848" lon="12.540828">
        <ele>1060.81</ele>
        <time>2011-07-06T16:42:10Z</time>
      </trkpt>
      <trkpt lat="63.048865" lon="12.540926">
        <ele>1060.98</ele>
        <time>2011-07-06T16:42:16Z</time>
      </trkpt>
      <trkpt lat="63.048873" lon="12.540964">
        <ele>1061.05</ele>
        <time>2011-07-06T16:42:23Z</time>
      </trkpt>
      <trkpt lat="63.048905" lon="12.541055">
        <ele>1061.11</ele>
        <time>2011-07-06T16:42:30Z</time>
      </trkpt>
      <trkpt lat="63.048927" lon="12.541179">
        <ele>1061.44</ele>
        <time>2011-07-06T16:42:36Z</time>
      </trkpt>
      <trkpt lat="63.048961" lon="12.541381">
        <ele>1061.21</ele>
        <time>2011-07-06T16:42:45Z</time>
      </trkpt>
      <trkpt lat="63.048993" lon="12.541542">
        <ele>1061.56</ele>
        <time>2011-07-06T16:42:52Z</time>
      </trkpt>
      <trkpt lat="63.049022" lon="12.541655">
        <ele>1061.95</ele>
        <time>2011-07-06T16:42:59Z</time>
      </trkpt>
      <trkpt lat="63.049045" lon="12.541811">
        <ele>1061.72</ele>
        <time>2011-07-06T16:43:07Z</time>
      </trkpt>
      <trkpt lat="63.049075" lon="12.541947">
        <ele>1062.42</ele>
        <time>2011-07-06T16:43:14Z</time>
      </trkpt>
      <trkpt lat="63.049086" lon="12.541993">
        <ele>1062.36</ele>
        <time>2011-07-06T16:43:17Z</time>
      </trkpt>
      <trkpt lat="63.049114" lon="12.542106">
        <ele>1062.33</ele>
        <time>2011-07-06T16:43:23Z</time>
      </trkpt>
      <trkpt lat="63.049126" lon="12.542223">
        <ele>1062.56</ele>
        <time>2011-07-06T16:43:30Z</time>
      </trkpt>
      <trkpt lat="63.049142" lon="12.542253">
        <ele>1062.69</ele>
        <time>2011-07-06T16:43:35Z</time>
      </trkpt>
      <trkpt lat="63.049161" lon="12.542399">
        <ele>1062.83</ele>
        <time>2011-07-06T16:43:43Z</time>
      </trkpt>
      <trkpt lat="63.049168" lon="12.542426">
        <ele>1062.99</ele>
        <time>2011-07-06T16:43:45Z</time>
      </trkpt>
      <trkpt lat="63.04921" lon="12.542533">
        <ele>1063.02</ele>
        <time>2011-07-06T16:43:53Z</time>
      </trkpt>
      <trkpt lat="63.049234" lon="12.542634">
        <ele>1063.21</ele>
        <time>2011-07-06T16:44:00Z</time>
      </trkpt>
      <trkpt lat="63.049237" lon="12.54264">
        <ele>1063.26</ele>
        <time>2011-07-06T16:44:02Z</time>
      </trkpt>
      <trkpt lat="63.049247" lon="12.542675">
        <ele>1063.34</ele>
        <time>2011-07-06T16:44:12Z</time>
      </trkpt>
    </trkseg>
  </trk>
</gpx>